<?xml version='1.0' encoding='UTF-8'?><gpx version="1.1" creator="JPX - https://github.com/jenetics/jpx" xmlns="http://www.topografix.com/GPX/1/1"><trk><trkseg><trkpt lat="43.3410791" lon="11.9299451"><ele>264.0</ele><time>2026-03-28T09:03:44.508Z</time></trkpt><trkpt lat="43.341016" lon="11.9299592"><ele>264.0</ele><time>2026-03-28T09:03:54.516Z</time></trkpt><trkpt lat="43.3409441" lon="11.9299567"><ele>264.0</ele><time>2026-03-28T09:04:02.539Z</time></trkpt><trkpt lat="43.3408746" lon="11.9299905"><ele>264.0</ele><time>2026-03-28T09:04:08.541Z</time></trkpt><trkpt lat="43.3408026" lon="11.929956"><ele>264.0</ele><time>2026-03-28T09:04:12.54Z</time></trkpt><trkpt lat="43.3407186" lon="11.929948"><ele>264.0</ele><time>2026-03-28T09:04:15.465Z</time></trkpt><trkpt lat="43.3406513" lon="11.9299716"><ele>264.0</ele><time>2026-03-28T09:04:17.546Z</time></trkpt><trkpt lat="43.3405665" lon="11.9299825"><ele>263.7142857142857</ele><time>2026-03-28T09:04:20.52Z</time></trkpt><trkpt lat="43.3405269" lon="11.9299065"><ele>263.42857142857144</ele><time>2026-03-28T09:04:23.515Z</time></trkpt><trkpt lat="43.3405077" lon="11.9298194"><ele>263.14285714285717</ele><time>2026-03-28T09:04:26.54Z</time></trkpt><trkpt lat="43.3404798" lon="11.9297072"><ele>262.8571428571429</ele><time>2026-03-28T09:04:30.553Z</time></trkpt><trkpt lat="43.3404522" lon="11.9296227"><ele>262.5714285714286</ele><time>2026-03-28T09:04:33.505Z</time></trkpt><trkpt lat="43.340415" lon="11.9295412"><ele>262.2857142857143</ele><time>2026-03-28T09:04:36.524Z</time></trkpt><trkpt lat="43.3403773" lon="11.9294506"><ele>262.0</ele><time>2026-03-28T09:04:39.523Z</time></trkpt><trkpt lat="43.3403487" lon="11.9293688"><ele>262.0</ele><time>2026-03-28T09:04:41.57Z</time></trkpt><trkpt lat="43.340322" lon="11.9292855"><ele>262.0</ele><time>2026-03-28T09:04:43.547Z</time></trkpt><trkpt lat="43.3402907" lon="11.9291801"><ele>262.0</ele><time>2026-03-28T09:04:46.556Z</time></trkpt><trkpt lat="43.3402627" lon="11.929069"><ele>262.0</ele><time>2026-03-28T09:04:49.535Z</time></trkpt><trkpt lat="43.3402362" lon="11.9289605"><ele>262.0</ele><time>2026-03-28T09:04:52.578Z</time></trkpt><trkpt lat="43.3402167" lon="11.9288552"><ele>262.0</ele><time>2026-03-28T09:04:55.555Z</time></trkpt><trkpt lat="43.3401936" lon="11.928737"><ele>261.66666666666663</ele><time>2026-03-28T09:04:58.581Z</time></trkpt><trkpt lat="43.3401696" lon="11.9286183"><ele>261.3333333333333</ele><time>2026-03-28T09:05:01.564Z</time></trkpt><trkpt lat="43.3401553" lon="11.9285087"><ele>261.0</ele><time>2026-03-28T09:05:04.576Z</time></trkpt><trkpt lat="43.3401419" lon="11.928402"><ele>260.6666666666667</ele><time>2026-03-28T09:05:07.535Z</time></trkpt><trkpt lat="43.3401274" lon="11.928299"><ele>260.33333333333337</ele><time>2026-03-28T09:05:10.534Z</time></trkpt><trkpt lat="43.3401139" lon="11.9282037"><ele>260.0</ele><time>2026-03-28T09:05:13.571Z</time></trkpt><trkpt lat="43.3401048" lon="11.9280875"><ele>260.0</ele><time>2026-03-28T09:05:17.539Z</time></trkpt><trkpt lat="43.3400944" lon="11.9279664"><ele>260.0</ele><time>2026-03-28T09:05:21.527Z</time></trkpt><trkpt lat="43.3400721" lon="11.927863"><ele>260.0</ele><time>2026-03-28T09:05:24.54Z</time></trkpt><trkpt lat="43.340039" lon="11.92775"><ele>260.0</ele><time>2026-03-28T09:05:27.527Z</time></trkpt><trkpt lat="43.340007" lon="11.9276398"><ele>260.0</ele><time>2026-03-28T09:05:30.549Z</time></trkpt><trkpt lat="43.3399795" lon="11.9275475"><ele>260.0</ele><time>2026-03-28T09:05:33.542Z</time></trkpt><trkpt lat="43.3399418" lon="11.9274617"><ele>260.0</ele><time>2026-03-28T09:05:36.538Z</time></trkpt><trkpt lat="43.3399019" lon="11.9273728"><ele>260.0</ele><time>2026-03-28T09:05:39.621Z</time></trkpt><trkpt lat="43.3398624" lon="11.9272998"><ele>260.0</ele><time>2026-03-28T09:05:42.47Z</time></trkpt><trkpt lat="43.3398108" lon="11.9271871"><ele>260.0</ele><time>2026-03-28T09:05:45.562Z</time></trkpt><trkpt lat="43.3397634" lon="11.9270907"><ele>260.0</ele><time>2026-03-28T09:05:48.556Z</time></trkpt><trkpt lat="43.3397162" lon="11.9270063"><ele>260.0</ele><time>2026-03-28T09:05:51.553Z</time></trkpt><trkpt lat="43.3396782" lon="11.9269301"><ele>260.00000000000006</ele><time>2026-03-28T09:05:54.531Z</time></trkpt><trkpt lat="43.3396429" lon="11.926854"><ele>260.0</ele><time>2026-03-28T09:05:58.484Z</time></trkpt><trkpt lat="43.3396046" lon="11.9267693"><ele>260.0</ele><time>2026-03-28T09:06:05.565Z</time></trkpt><trkpt lat="43.3395718" lon="11.9266926"><ele>260.0</ele><time>2026-03-28T09:06:10.529Z</time></trkpt><trkpt lat="43.3395418" lon="11.9266077"><ele>260.0</ele><time>2026-03-28T09:06:15.567Z</time></trkpt><trkpt lat="43.3395149" lon="11.9265148"><ele>260.00000000000006</ele><time>2026-03-28T09:06:21.566Z</time></trkpt><trkpt lat="43.339499" lon="11.9264298"><ele>260.0</ele><time>2026-03-28T09:06:25.541Z</time></trkpt><trkpt lat="43.3394857" lon="11.9263439"><ele>260.42857142857144</ele><time>2026-03-28T09:06:31.544Z</time></trkpt><trkpt lat="43.339472" lon="11.926254"><ele>260.8571428571429</ele><time>2026-03-28T09:06:40.553Z</time></trkpt><trkpt lat="43.3394599" lon="11.9261619"><ele>261.2857142857143</ele><time>2026-03-28T09:06:45.489Z</time></trkpt><trkpt lat="43.3394416" lon="11.926069"><ele>261.7142857142857</ele><time>2026-03-28T09:06:49.589Z</time></trkpt><trkpt lat="43.3394177" lon="11.9259711"><ele>262.1428571428571</ele><time>2026-03-28T09:06:53.573Z</time></trkpt><trkpt lat="43.3393944" lon="11.9258848"><ele>262.57142857142856</ele><time>2026-03-28T09:06:56.546Z</time></trkpt><trkpt lat="43.3393675" lon="11.9257933"><ele>263.0</ele><time>2026-03-28T09:06:59.554Z</time></trkpt><trkpt lat="43.3393388" lon="11.9257024"><ele>263.6666666666667</ele><time>2026-03-28T09:07:02.526Z</time></trkpt><trkpt lat="43.3393015" lon="11.9256215"><ele>264.33333333333337</ele><time>2026-03-28T09:07:05.466Z</time></trkpt><trkpt lat="43.3392526" lon="11.9255333"><ele>265.0</ele><time>2026-03-28T09:07:08.521Z</time></trkpt><trkpt lat="43.3392006" lon="11.9254581"><ele>265.6666666666667</ele><time>2026-03-28T09:07:11.487Z</time></trkpt><trkpt lat="43.3391548" lon="11.9253595"><ele>266.3333333333333</ele><time>2026-03-28T09:07:14.57Z</time></trkpt><trkpt lat="43.3391192" lon="11.9252539"><ele>267.0</ele><time>2026-03-28T09:07:17.583Z</time></trkpt><trkpt lat="43.3390765" lon="11.9251589"><ele>267.0</ele><time>2026-03-28T09:07:20.448Z</time></trkpt><trkpt lat="43.3390429" lon="11.9250835"><ele>267.0</ele><time>2026-03-28T09:07:22.532Z</time></trkpt><trkpt lat="43.339009" lon="11.9250093"><ele>267.0</ele><time>2026-03-28T09:07:24.548Z</time></trkpt><trkpt lat="43.3389599" lon="11.9249069"><ele>267.0</ele><time>2026-03-28T09:07:27.523Z</time></trkpt><trkpt lat="43.3389486" lon="11.9247995"><ele>267.0</ele><time>2026-03-28T09:07:30.49Z</time></trkpt><trkpt lat="43.3389786" lon="11.924701"><ele>267.0</ele><time>2026-03-28T09:07:33.554Z</time></trkpt><trkpt lat="43.3390058" lon="11.9246022"><ele>268.14285714285717</ele><time>2026-03-28T09:07:37.307Z</time></trkpt><trkpt lat="43.3390646" lon="11.9245231"><ele>269.2857142857143</ele><time>2026-03-28T09:07:41.545Z</time></trkpt><trkpt lat="43.339127" lon="11.9244608"><ele>270.42857142857144</ele><time>2026-03-28T09:07:45.545Z</time></trkpt><trkpt lat="43.3391777" lon="11.9244017"><ele>271.57142857142856</ele><time>2026-03-28T09:07:49.557Z</time></trkpt><trkpt lat="43.3392204" lon="11.9243317"><ele>272.7142857142857</ele><time>2026-03-28T09:07:53.451Z</time></trkpt><trkpt lat="43.3392566" lon="11.9242401"><ele>273.8571428571429</ele><time>2026-03-28T09:07:57.556Z</time></trkpt><trkpt lat="43.3392838" lon="11.9241591"><ele>275.0</ele><time>2026-03-28T09:08:01.546Z</time></trkpt><trkpt lat="43.3393215" lon="11.9240858"><ele>275.0</ele><time>2026-03-28T09:08:05.534Z</time></trkpt><trkpt lat="43.3393786" lon="11.9240336"><ele>275.0</ele><time>2026-03-28T09:08:09.471Z</time></trkpt><trkpt lat="43.3394477" lon="11.9239968"><ele>275.0</ele><time>2026-03-28T09:08:14.515Z</time></trkpt><trkpt lat="43.3395213" lon="11.9240348"><ele>275.0</ele><time>2026-03-28T09:08:20.563Z</time></trkpt><trkpt lat="43.3395907" lon="11.9240517"><ele>275.0</ele><time>2026-03-28T09:08:24.548Z</time></trkpt><trkpt lat="43.3396189" lon="11.9241391"><ele>275.0</ele><time>2026-03-28T09:08:27.522Z</time></trkpt><trkpt lat="43.3396538" lon="11.9242236"><ele>275.0</ele><time>2026-03-28T09:08:31.533Z</time></trkpt><trkpt lat="43.3396995" lon="11.924317"><ele>277.7142857142857</ele><time>2026-03-28T09:08:36.585Z</time></trkpt><trkpt lat="43.3397385" lon="11.9243854"><ele>280.42857142857144</ele><time>2026-03-28T09:08:40.585Z</time></trkpt><trkpt lat="43.3397789" lon="11.9244524"><ele>283.1428571428571</ele><time>2026-03-28T09:08:45.537Z</time></trkpt><trkpt lat="43.3398323" lon="11.9245081"><ele>285.8571428571429</ele><time>2026-03-28T09:08:50.547Z</time></trkpt><trkpt lat="43.3398872" lon="11.9245585"><ele>288.57142857142856</ele><time>2026-03-28T09:08:55.466Z</time></trkpt><trkpt lat="43.3399416" lon="11.9246064"><ele>291.2857142857143</ele><time>2026-03-28T09:08:59.597Z</time></trkpt><trkpt lat="43.3400117" lon="11.9245573"><ele>294.0</ele><time>2026-03-28T09:09:02.561Z</time></trkpt><trkpt lat="43.3400501" lon="11.9244776"><ele>294.0</ele><time>2026-03-28T09:09:03.542Z</time></trkpt><trkpt lat="43.3401074" lon="11.9243967"><ele>294.0</ele><time>2026-03-28T09:09:06.544Z</time></trkpt><trkpt lat="43.3402097" lon="11.9242114"><ele>294.0</ele><time>2026-03-28T09:09:14.571Z</time></trkpt><trkpt lat="43.3401855" lon="11.9240936"><ele>294.0</ele><time>2026-03-28T09:09:15.521Z</time></trkpt><trkpt lat="43.3402092" lon="11.9239873"><ele>294.0</ele><time>2026-03-28T09:09:19.487Z</time></trkpt><trkpt lat="43.3402596" lon="11.9239291"><ele>295.8333333333333</ele><time>2026-03-28T09:09:23.534Z</time></trkpt><trkpt lat="43.3403136" lon="11.9238583"><ele>297.6666666666667</ele><time>2026-03-28T09:09:27.467Z</time></trkpt><trkpt lat="43.3403621" lon="11.9237977"><ele>299.5</ele><time>2026-03-28T09:09:31.57Z</time></trkpt><trkpt lat="43.3404424" lon="11.9237964"><ele>301.33333333333337</ele><time>2026-03-28T09:09:35.489Z</time></trkpt><trkpt lat="43.340516" lon="11.9238031"><ele>303.1666666666667</ele><time>2026-03-28T09:09:39.542Z</time></trkpt><trkpt lat="43.3405853" lon="11.9238465"><ele>305.0</ele><time>2026-03-28T09:09:43.549Z</time></trkpt><trkpt lat="43.3406605" lon="11.9239607"><ele>305.33333333333337</ele><time>2026-03-28T09:09:46.554Z</time></trkpt><trkpt lat="43.3406928" lon="11.9240582"><ele>305.6666666666667</ele><time>2026-03-28T09:09:49.543Z</time></trkpt><trkpt lat="43.3407419" lon="11.9241454"><ele>306.0</ele><time>2026-03-28T09:09:53.505Z</time></trkpt><trkpt lat="43.3408158" lon="11.9241813"><ele>306.3333333333333</ele><time>2026-03-28T09:09:57.521Z</time></trkpt><trkpt lat="43.3408897" lon="11.9241953"><ele>306.66666666666663</ele><time>2026-03-28T09:10:01.549Z</time></trkpt><trkpt lat="43.3409656" lon="11.9242217"><ele>307.0</ele><time>2026-03-28T09:10:06.525Z</time></trkpt><trkpt lat="43.3410297" lon="11.9242436"><ele>306.99999999999994</ele><time>2026-03-28T09:10:09.542Z</time></trkpt><trkpt lat="43.3410921" lon="11.9242598"><ele>307.0</ele><time>2026-03-28T09:10:12.505Z</time></trkpt><trkpt lat="43.3411632" lon="11.9242594"><ele>307.0</ele><time>2026-03-28T09:10:15.527Z</time></trkpt><trkpt lat="43.3412324" lon="11.9242461"><ele>307.0</ele><time>2026-03-28T09:10:19.45Z</time></trkpt><trkpt lat="43.3412968" lon="11.9242594"><ele>307.0</ele><time>2026-03-28T09:10:22.579Z</time></trkpt><trkpt lat="43.3413742" lon="11.9242524"><ele>306.99999999999994</ele><time>2026-03-28T09:10:27.533Z</time></trkpt><trkpt lat="43.3414509" lon="11.9242524"><ele>307.0</ele><time>2026-03-28T09:10:32.648Z</time></trkpt><trkpt lat="43.3414996" lon="11.9241549"><ele>311.0</ele><time>2026-03-28T09:10:34.907Z</time></trkpt><trkpt lat="43.3415427" lon="11.9240339"><ele>315.0</ele><time>2026-03-28T09:10:37.249Z</time></trkpt><trkpt lat="43.3415703" lon="11.9239309"><ele>319.0</ele><time>2026-03-28T09:10:40.483Z</time></trkpt><trkpt lat="43.3416119" lon="11.9238529"><ele>323.0</ele><time>2026-03-28T09:10:43.413Z</time></trkpt><trkpt lat="43.3416644" lon="11.923775"><ele>327.0</ele><time>2026-03-28T09:10:46.528Z</time></trkpt><trkpt lat="43.3417184" lon="11.9237055"><ele>331.0</ele><time>2026-03-28T09:10:49.582Z</time></trkpt><trkpt lat="43.3417836" lon="11.92366"><ele>331.0</ele><time>2026-03-28T09:10:52.488Z</time></trkpt><trkpt lat="43.3418423" lon="11.9236116"><ele>331.0</ele><time>2026-03-28T09:10:55.545Z</time></trkpt><trkpt lat="43.3419195" lon="11.9235566"><ele>331.0</ele><time>2026-03-28T09:10:58.587Z</time></trkpt><trkpt lat="43.3419744" lon="11.9235138"><ele>331.0</ele><time>2026-03-28T09:11:01.452Z</time></trkpt><trkpt lat="43.3420253" lon="11.9234588"><ele>331.0</ele><time>2026-03-28T09:11:04.536Z</time></trkpt><trkpt lat="43.3420825" lon="11.9233747"><ele>331.0</ele><time>2026-03-28T09:11:07.467Z</time></trkpt><trkpt lat="43.3420425" lon="11.9232726"><ele>331.0</ele><time>2026-03-28T09:11:08.534Z</time></trkpt><trkpt lat="43.3420327" lon="11.9231789"><ele>331.0</ele><time>2026-03-28T09:11:10.527Z</time></trkpt><trkpt lat="43.3420814" lon="11.9231051"><ele>331.0</ele><time>2026-03-28T09:11:13.517Z</time></trkpt><trkpt lat="43.3421299" lon="11.923027"><ele>331.0</ele><time>2026-03-28T09:11:17.51Z</time></trkpt><trkpt lat="43.3421743" lon="11.9229368"><ele>331.0</ele><time>2026-03-28T09:11:21.571Z</time></trkpt><trkpt lat="43.3422033" lon="11.922853"><ele>331.0</ele><time>2026-03-28T09:11:24.53Z</time></trkpt><trkpt lat="43.3422463" lon="11.9227702"><ele>331.0</ele><time>2026-03-28T09:11:28.525Z</time></trkpt><trkpt lat="43.3423141" lon="11.9226957"><ele>331.0</ele><time>2026-03-28T09:11:32.552Z</time></trkpt><trkpt lat="43.3424586" lon="11.9228124"><ele>331.0</ele><time>2026-03-28T09:11:34.536Z</time></trkpt><trkpt lat="43.342521" lon="11.9228317"><ele>331.0</ele><time>2026-03-28T09:11:36.512Z</time></trkpt><trkpt lat="43.3425893" lon="11.9228022"><ele>331.0</ele><time>2026-03-28T09:11:39.528Z</time></trkpt><trkpt lat="43.3426613" lon="11.9228041"><ele>331.0</ele><time>2026-03-28T09:11:42.503Z</time></trkpt><trkpt lat="43.3427043" lon="11.9229051"><ele>331.0</ele><time>2026-03-28T09:11:46.537Z</time></trkpt><trkpt lat="43.3427906" lon="11.922884"><ele>331.0</ele><time>2026-03-28T09:11:49.525Z</time></trkpt><trkpt lat="43.3428545" lon="11.9228217"><ele>331.0</ele><time>2026-03-28T09:11:51.514Z</time></trkpt><trkpt lat="43.342931" lon="11.9227632"><ele>331.0</ele><time>2026-03-28T09:11:54.545Z</time></trkpt><trkpt lat="43.3429863" lon="11.9228127"><ele>331.0</ele><time>2026-03-28T09:11:58.543Z</time></trkpt><trkpt lat="43.3430089" lon="11.9229015"><ele>331.0</ele><time>2026-03-28T09:12:01.56Z</time></trkpt><trkpt lat="43.3430462" lon="11.9229825"><ele>329.3333333333333</ele><time>2026-03-28T09:12:04.517Z</time></trkpt><trkpt lat="43.3431283" lon="11.9230157"><ele>327.66666666666663</ele><time>2026-03-28T09:12:07.535Z</time></trkpt><trkpt lat="43.3432242" lon="11.9230136"><ele>326.0</ele><time>2026-03-28T09:12:10.471Z</time></trkpt><trkpt lat="43.3432669" lon="11.922937"><ele>324.3333333333333</ele><time>2026-03-28T09:12:11.569Z</time></trkpt><trkpt lat="43.3433068" lon="11.9228561"><ele>322.6666666666667</ele><time>2026-03-28T09:12:12.529Z</time></trkpt><trkpt lat="43.3433713" lon="11.9228744"><ele>321.0</ele><time>2026-03-28T09:12:15.472Z</time></trkpt><trkpt lat="43.3434337" lon="11.9228977"><ele>321.0</ele><time>2026-03-28T09:12:18.562Z</time></trkpt><trkpt lat="43.3434895" lon="11.922951"><ele>321.0</ele><time>2026-03-28T09:12:21.543Z</time></trkpt><trkpt lat="43.3435707" lon="11.923028"><ele>321.0</ele><time>2026-03-28T09:12:24.511Z</time></trkpt><trkpt lat="43.3436437" lon="11.9230574"><ele>321.0</ele><time>2026-03-28T09:12:27.53Z</time></trkpt><trkpt lat="43.3437106" lon="11.9230676"><ele>321.0</ele><time>2026-03-28T09:12:30.423Z</time></trkpt><trkpt lat="43.3437981" lon="11.923132"><ele>321.0</ele><time>2026-03-28T09:12:33.536Z</time></trkpt><trkpt lat="43.343851" lon="11.9231844"><ele>320.8</ele><time>2026-03-28T09:12:35.559Z</time></trkpt><trkpt lat="43.343931" lon="11.9232357"><ele>320.6</ele><time>2026-03-28T09:12:38.468Z</time></trkpt><trkpt lat="43.3440039" lon="11.9232759"><ele>320.4</ele><time>2026-03-28T09:12:41.556Z</time></trkpt><trkpt lat="43.3440737" lon="11.9232649"><ele>320.2</ele><time>2026-03-28T09:12:44.56Z</time></trkpt><trkpt lat="43.3441769" lon="11.923248"><ele>320.0</ele><time>2026-03-28T09:12:48.464Z</time></trkpt><trkpt lat="43.3442873" lon="11.9231458"><ele>320.0</ele><time>2026-03-28T09:12:49.569Z</time></trkpt><trkpt lat="43.3443603" lon="11.9231321"><ele>320.0</ele><time>2026-03-28T09:12:51.533Z</time></trkpt><trkpt lat="43.3444394" lon="11.9231106"><ele>320.0</ele><time>2026-03-28T09:12:54.487Z</time></trkpt><trkpt lat="43.3445088" lon="11.9230485"><ele>320.0</ele><time>2026-03-28T09:12:57.552Z</time></trkpt><trkpt lat="43.3445579" lon="11.9229784"><ele>320.0</ele><time>2026-03-28T09:13:00.547Z</time></trkpt><trkpt lat="43.3445798" lon="11.9228605"><ele>320.0</ele><time>2026-03-28T09:13:03.56Z</time></trkpt><trkpt lat="43.3445469" lon="11.9227712"><ele>320.0</ele><time>2026-03-28T09:13:05.547Z</time></trkpt><trkpt lat="43.3445105" lon="11.9226813"><ele>320.0</ele><time>2026-03-28T09:13:07.549Z</time></trkpt><trkpt lat="43.3444707" lon="11.9225957"><ele>320.0</ele><time>2026-03-28T09:13:09.465Z</time></trkpt><trkpt lat="43.3444301" lon="11.9225004"><ele>320.0</ele><time>2026-03-28T09:13:11.503Z</time></trkpt><trkpt lat="43.3443966" lon="11.9224008"><ele>320.0</ele><time>2026-03-28T09:13:13.551Z</time></trkpt><trkpt lat="43.3443547" lon="11.9223047"><ele>320.0</ele><time>2026-03-28T09:13:16.487Z</time></trkpt><trkpt lat="43.3443089" lon="11.9222121"><ele>320.0</ele><time>2026-03-28T09:13:19.554Z</time></trkpt><trkpt lat="43.3442721" lon="11.9221224"><ele>320.0</ele><time>2026-03-28T09:13:22.544Z</time></trkpt><trkpt lat="43.3442464" lon="11.9220358"><ele>320.0</ele><time>2026-03-28T09:13:25.583Z</time></trkpt><trkpt lat="43.3441973" lon="11.9219622"><ele>320.0</ele><time>2026-03-28T09:13:28.547Z</time></trkpt><trkpt lat="43.3441577" lon="11.9218761"><ele>320.0</ele><time>2026-03-28T09:13:31.598Z</time></trkpt><trkpt lat="43.3441284" lon="11.9217892"><ele>320.0</ele><time>2026-03-28T09:13:34.524Z</time></trkpt><trkpt lat="43.3440943" lon="11.9217096"><ele>320.0</ele><time>2026-03-28T09:13:37.427Z</time></trkpt><trkpt lat="43.3440506" lon="11.9216244"><ele>320.0</ele><time>2026-03-28T09:13:40.51Z</time></trkpt><trkpt lat="43.3440144" lon="11.9215436"><ele>320.0</ele><time>2026-03-28T09:13:43.543Z</time></trkpt><trkpt lat="43.3440115" lon="11.9214476"><ele>320.0</ele><time>2026-03-28T09:13:46.547Z</time></trkpt><trkpt lat="43.3440002" lon="11.9213526"><ele>320.0</ele><time>2026-03-28T09:13:49.564Z</time></trkpt><trkpt lat="43.3440075" lon="11.9212519"><ele>320.0</ele><time>2026-03-28T09:13:52.569Z</time></trkpt><trkpt lat="43.344015" lon="11.9211645"><ele>320.0</ele><time>2026-03-28T09:13:55.524Z</time></trkpt><trkpt lat="43.3440082" lon="11.9210522"><ele>320.0</ele><time>2026-03-28T09:13:58.526Z</time></trkpt><trkpt lat="43.3440213" lon="11.9209265"><ele>318.6666666666667</ele><time>2026-03-28T09:14:01.568Z</time></trkpt><trkpt lat="43.3440558" lon="11.9208343"><ele>317.33333333333337</ele><time>2026-03-28T09:14:03.463Z</time></trkpt><trkpt lat="43.3440724" lon="11.9207381"><ele>316.0</ele><time>2026-03-28T09:14:05.552Z</time></trkpt><trkpt lat="43.3441125" lon="11.920633"><ele>314.6666666666667</ele><time>2026-03-28T09:14:08.539Z</time></trkpt><trkpt lat="43.3441347" lon="11.920545"><ele>313.3333333333333</ele><time>2026-03-28T09:14:10.538Z</time></trkpt><trkpt lat="43.3441548" lon="11.9204444"><ele>312.0</ele><time>2026-03-28T09:14:12.513Z</time></trkpt><trkpt lat="43.3441836" lon="11.9203193"><ele>312.0</ele><time>2026-03-28T09:14:15.547Z</time></trkpt><trkpt lat="43.344206" lon="11.9202296"><ele>312.0</ele><time>2026-03-28T09:14:17.424Z</time></trkpt><trkpt lat="43.344222" lon="11.9201452"><ele>312.0</ele><time>2026-03-28T09:14:18.469Z</time></trkpt><trkpt lat="43.3442471" lon="11.9200412"><ele>312.0</ele><time>2026-03-28T09:14:20.531Z</time></trkpt><trkpt lat="43.3442804" lon="11.9199349"><ele>312.0</ele><time>2026-03-28T09:14:23.543Z</time></trkpt><trkpt lat="43.3443059" lon="11.9198546"><ele>312.0</ele><time>2026-03-28T09:14:25.529Z</time></trkpt><trkpt lat="43.3443282" lon="11.919772"><ele>312.0</ele><time>2026-03-28T09:14:27.569Z</time></trkpt><trkpt lat="43.3443531" lon="11.9196673"><ele>310.3333333333333</ele><time>2026-03-28T09:14:30.552Z</time></trkpt><trkpt lat="43.3443647" lon="11.919554"><ele>308.6666666666667</ele><time>2026-03-28T09:14:33.472Z</time></trkpt><trkpt lat="43.3443527" lon="11.9194611"><ele>307.0</ele><time>2026-03-28T09:14:35.536Z</time></trkpt><trkpt lat="43.3443399" lon="11.9193758"><ele>305.33333333333337</ele><time>2026-03-28T09:14:37.544Z</time></trkpt><trkpt lat="43.3443306" lon="11.919252"><ele>303.6666666666667</ele><time>2026-03-28T09:14:40.523Z</time></trkpt><trkpt lat="43.3443633" lon="11.9191388"><ele>302.0</ele><time>2026-03-28T09:14:43.543Z</time></trkpt><trkpt lat="43.3444217" lon="11.9190573"><ele>302.83333333333337</ele><time>2026-03-28T09:14:46.425Z</time></trkpt><trkpt lat="43.3444976" lon="11.9190218"><ele>303.6666666666667</ele><time>2026-03-28T09:14:48.548Z</time></trkpt><trkpt lat="43.3445645" lon="11.9189343"><ele>304.5</ele><time>2026-03-28T09:14:51.554Z</time></trkpt><trkpt lat="43.3446415" lon="11.9188657"><ele>305.3333333333333</ele><time>2026-03-28T09:14:54.467Z</time></trkpt><trkpt lat="43.3446433" lon="11.9187777"><ele>306.16666666666663</ele><time>2026-03-28T09:14:55.572Z</time></trkpt><trkpt lat="43.3446717" lon="11.9186926"><ele>307.0</ele><time>2026-03-28T09:14:57.539Z</time></trkpt><trkpt lat="43.3447131" lon="11.9185749"><ele>306.99999999999994</ele><time>2026-03-28T09:15:00.526Z</time></trkpt><trkpt lat="43.3447437" lon="11.918496"><ele>307.0</ele><time>2026-03-28T09:15:02.535Z</time></trkpt><trkpt lat="43.3447821" lon="11.9184228"><ele>307.0</ele><time>2026-03-28T09:15:04.466Z</time></trkpt><trkpt lat="43.3448254" lon="11.9183403"><ele>307.0</ele><time>2026-03-28T09:15:06.53Z</time></trkpt><trkpt lat="43.3448841" lon="11.9182532"><ele>307.0</ele><time>2026-03-28T09:15:09.464Z</time></trkpt><trkpt lat="43.3449223" lon="11.918184"><ele>306.99999999999994</ele><time>2026-03-28T09:15:11.568Z</time></trkpt><trkpt lat="43.3449843" lon="11.9180953"><ele>307.0</ele><time>2026-03-28T09:15:14.528Z</time></trkpt><trkpt lat="43.3450205" lon="11.9180092"><ele>304.66666666666663</ele><time>2026-03-28T09:15:17.577Z</time></trkpt><trkpt lat="43.3450717" lon="11.9179364"><ele>302.3333333333333</ele><time>2026-03-28T09:15:20.544Z</time></trkpt><trkpt lat="43.3451096" lon="11.917858"><ele>300.0</ele><time>2026-03-28T09:15:23.542Z</time></trkpt><trkpt lat="43.3451602" lon="11.9177868"><ele>297.6666666666667</ele><time>2026-03-28T09:15:26.514Z</time></trkpt><trkpt lat="43.3452262" lon="11.9177262"><ele>295.33333333333337</ele><time>2026-03-28T09:15:30.488Z</time></trkpt><trkpt lat="43.3452875" lon="11.9176683"><ele>293.0</ele><time>2026-03-28T09:15:33.526Z</time></trkpt><trkpt lat="43.3453512" lon="11.9175765"><ele>292.99999999999994</ele><time>2026-03-28T09:15:36.473Z</time></trkpt><trkpt lat="43.3453926" lon="11.9175022"><ele>293.0</ele><time>2026-03-28T09:15:38.557Z</time></trkpt><trkpt lat="43.345432" lon="11.9174272"><ele>293.0</ele><time>2026-03-28T09:15:40.516Z</time></trkpt><trkpt lat="43.3454751" lon="11.9173495"><ele>293.0</ele><time>2026-03-28T09:15:42.466Z</time></trkpt><trkpt lat="43.3455321" lon="11.9172565"><ele>293.0</ele><time>2026-03-28T09:15:45.523Z</time></trkpt><trkpt lat="43.3455766" lon="11.917193"><ele>292.99999999999994</ele><time>2026-03-28T09:15:47.548Z</time></trkpt><trkpt lat="43.3456286" lon="11.9171364"><ele>293.0</ele><time>2026-03-28T09:15:49.466Z</time></trkpt><trkpt lat="43.3456989" lon="11.9170896"><ele>293.0</ele><time>2026-03-28T09:15:51.534Z</time></trkpt><trkpt lat="43.3457518" lon="11.9170419"><ele>293.0</ele><time>2026-03-28T09:15:53.573Z</time></trkpt><trkpt lat="43.3458184" lon="11.9169583"><ele>293.0</ele><time>2026-03-28T09:15:56.527Z</time></trkpt><trkpt lat="43.3458758" lon="11.9168648"><ele>293.0</ele><time>2026-03-28T09:15:59.532Z</time></trkpt><trkpt lat="43.3459301" lon="11.9167847"><ele>293.0</ele><time>2026-03-28T09:16:02.529Z</time></trkpt><trkpt lat="43.3459778" lon="11.9167056"><ele>293.0</ele><time>2026-03-28T09:16:05.553Z</time></trkpt><trkpt lat="43.3460248" lon="11.91663"><ele>292.6666666666667</ele><time>2026-03-28T09:16:08.463Z</time></trkpt><trkpt lat="43.34607" lon="11.9165565"><ele>292.33333333333337</ele><time>2026-03-28T09:16:11.499Z</time></trkpt><trkpt lat="43.346122" lon="11.9164787"><ele>292.0</ele><time>2026-03-28T09:16:14.567Z</time></trkpt><trkpt lat="43.3461683" lon="11.9164065"><ele>291.6666666666667</ele><time>2026-03-28T09:16:17.442Z</time></trkpt><trkpt lat="43.3462154" lon="11.9163284"><ele>291.3333333333333</ele><time>2026-03-28T09:16:20.541Z</time></trkpt><trkpt lat="43.346263" lon="11.9162245"><ele>291.0</ele><time>2026-03-28T09:16:24.516Z</time></trkpt><trkpt lat="43.346314" lon="11.9161568"><ele>291.0</ele><time>2026-03-28T09:16:27.451Z</time></trkpt><trkpt lat="43.346369" lon="11.9160901"><ele>291.0</ele><time>2026-03-28T09:16:30.536Z</time></trkpt><trkpt lat="43.3464254" lon="11.9160166"><ele>291.0</ele><time>2026-03-28T09:16:33.586Z</time></trkpt><trkpt lat="43.3464743" lon="11.9159452"><ele>291.0</ele><time>2026-03-28T09:16:36.522Z</time></trkpt><trkpt lat="43.3465163" lon="11.9158558"><ele>291.0</ele><time>2026-03-28T09:16:39.545Z</time></trkpt><trkpt lat="43.3465523" lon="11.9157689"><ele>291.0</ele><time>2026-03-28T09:16:42.552Z</time></trkpt><trkpt lat="43.3465852" lon="11.9156632"><ele>291.8333333333333</ele><time>2026-03-28T09:16:46.449Z</time></trkpt><trkpt lat="43.3466046" lon="11.9155652"><ele>292.6666666666667</ele><time>2026-03-28T09:16:49.542Z</time></trkpt><trkpt lat="43.3466074" lon="11.9154618"><ele>293.5</ele><time>2026-03-28T09:16:52.52Z</time></trkpt><trkpt lat="43.3466153" lon="11.9153502"><ele>294.33333333333337</ele><time>2026-03-28T09:16:55.541Z</time></trkpt><trkpt lat="43.3466134" lon="11.9152444"><ele>295.1666666666667</ele><time>2026-03-28T09:16:58.566Z</time></trkpt><trkpt lat="43.3466009" lon="11.9151447"><ele>296.0</ele><time>2026-03-28T09:17:01.555Z</time></trkpt><trkpt lat="43.3465835" lon="11.9150471"><ele>296.0</ele><time>2026-03-28T09:17:04.524Z</time></trkpt><trkpt lat="43.3465753" lon="11.9149541"><ele>296.0</ele><time>2026-03-28T09:17:07.524Z</time></trkpt><trkpt lat="43.3465656" lon="11.914865"><ele>296.0</ele><time>2026-03-28T09:17:10.524Z</time></trkpt><trkpt lat="43.3465605" lon="11.9147782"><ele>296.0</ele><time>2026-03-28T09:17:14.561Z</time></trkpt><trkpt lat="43.3465622" lon="11.9146779"><ele>296.0</ele><time>2026-03-28T09:17:18.526Z</time></trkpt><trkpt lat="43.3465651" lon="11.9145827"><ele>296.0</ele><time>2026-03-28T09:17:21.556Z</time></trkpt><trkpt lat="43.3465627" lon="11.9144855"><ele>296.0</ele><time>2026-03-28T09:17:24.559Z</time></trkpt><trkpt lat="43.3465586" lon="11.9143852"><ele>296.0</ele><time>2026-03-28T09:17:27.451Z</time></trkpt><trkpt lat="43.3465612" lon="11.9142945"><ele>296.0</ele><time>2026-03-28T09:17:30.542Z</time></trkpt><trkpt lat="43.3465854" lon="11.9142013"><ele>296.0</ele><time>2026-03-28T09:17:33.512Z</time></trkpt><trkpt lat="43.3465988" lon="11.9141068"><ele>296.0</ele><time>2026-03-28T09:17:36.045Z</time></trkpt><trkpt lat="43.34661" lon="11.9140099"><ele>296.0</ele><time>2026-03-28T09:17:38.557Z</time></trkpt><trkpt lat="43.3466353" lon="11.9139103"><ele>296.0</ele><time>2026-03-28T09:17:41.523Z</time></trkpt><trkpt lat="43.3466656" lon="11.9138217"><ele>296.0</ele><time>2026-03-28T09:17:44.55Z</time></trkpt><trkpt lat="43.3466813" lon="11.913733"><ele>296.0</ele><time>2026-03-28T09:17:47.545Z</time></trkpt><trkpt lat="43.3467019" lon="11.9136461"><ele>296.0</ele><time>2026-03-28T09:17:50.488Z</time></trkpt><trkpt lat="43.3467302" lon="11.9135585"><ele>296.0</ele><time>2026-03-28T09:17:53.529Z</time></trkpt><trkpt lat="43.3468166" lon="11.9135098"><ele>296.0</ele><time>2026-03-28T09:17:56.548Z</time></trkpt><trkpt lat="43.3468652" lon="11.9134536"><ele>296.0</ele><time>2026-03-28T09:17:59.564Z</time></trkpt><trkpt lat="43.3469118" lon="11.9133791"><ele>296.0</ele><time>2026-03-28T09:18:02.506Z</time></trkpt><trkpt lat="43.3469635" lon="11.9132894"><ele>296.0</ele><time>2026-03-28T09:18:05.518Z</time></trkpt><trkpt lat="43.3469888" lon="11.9132077"><ele>296.0</ele><time>2026-03-28T09:18:09.546Z</time></trkpt><trkpt lat="43.3470461" lon="11.9131716"><ele>296.0</ele><time>2026-03-28T09:18:15.552Z</time></trkpt><trkpt lat="43.3470928" lon="11.9131048"><ele>296.0</ele><time>2026-03-28T09:18:18.566Z</time></trkpt><trkpt lat="43.3471563" lon="11.9130547"><ele>296.0</ele><time>2026-03-28T09:18:22.514Z</time></trkpt><trkpt lat="43.347216" lon="11.9130263"><ele>296.0</ele><time>2026-03-28T09:18:25.515Z</time></trkpt><trkpt lat="43.3472895" lon="11.913013"><ele>296.0</ele><time>2026-03-28T09:18:29.543Z</time></trkpt><trkpt lat="43.3473624" lon="11.9130208"><ele>296.0</ele><time>2026-03-28T09:18:33.525Z</time></trkpt><trkpt lat="43.3474256" lon="11.9130606"><ele>296.7142857142857</ele><time>2026-03-28T09:18:36.549Z</time></trkpt><trkpt lat="43.3474937" lon="11.9130937"><ele>297.42857142857144</ele><time>2026-03-28T09:18:39.543Z</time></trkpt><trkpt lat="43.347559" lon="11.9131316"><ele>298.1428571428571</ele><time>2026-03-28T09:18:42.569Z</time></trkpt><trkpt lat="43.3476156" lon="11.9131924"><ele>298.8571428571429</ele><time>2026-03-28T09:18:45.559Z</time></trkpt><trkpt lat="43.3476682" lon="11.9132527"><ele>299.57142857142856</ele><time>2026-03-28T09:18:48.558Z</time></trkpt><trkpt lat="43.3477198" lon="11.9133051"><ele>300.2857142857143</ele><time>2026-03-28T09:18:51.579Z</time></trkpt><trkpt lat="43.3477794" lon="11.9133738"><ele>301.0</ele><time>2026-03-28T09:18:55.585Z</time></trkpt><trkpt lat="43.3478353" lon="11.9134293"><ele>301.57142857142856</ele><time>2026-03-28T09:18:59.465Z</time></trkpt><trkpt lat="43.3478947" lon="11.9134867"><ele>302.1428571428571</ele><time>2026-03-28T09:19:03.464Z</time></trkpt><trkpt lat="43.3479514" lon="11.9135453"><ele>302.7142857142857</ele><time>2026-03-28T09:19:06.513Z</time></trkpt><trkpt lat="43.3480022" lon="11.9136104"><ele>303.2857142857143</ele><time>2026-03-28T09:19:09.568Z</time></trkpt><trkpt lat="43.3480558" lon="11.9136805"><ele>303.85714285714283</ele><time>2026-03-28T09:19:13.542Z</time></trkpt><trkpt lat="43.3481083" lon="11.9137637"><ele>304.42857142857144</ele><time>2026-03-28T09:19:18.556Z</time></trkpt><trkpt lat="43.348157" lon="11.9138341"><ele>305.0</ele><time>2026-03-28T09:19:23.561Z</time></trkpt><trkpt lat="43.348208" lon="11.9138942"><ele>305.0</ele><time>2026-03-28T09:19:27.532Z</time></trkpt><trkpt lat="43.3482612" lon="11.9139653"><ele>305.0</ele><time>2026-03-28T09:19:31.528Z</time></trkpt><trkpt lat="43.3483111" lon="11.9140431"><ele>305.0</ele><time>2026-03-28T09:19:35.452Z</time></trkpt><trkpt lat="43.3483584" lon="11.9141121"><ele>305.0</ele><time>2026-03-28T09:19:39.495Z</time></trkpt><trkpt lat="43.3484044" lon="11.9141846"><ele>305.0</ele><time>2026-03-28T09:19:43.523Z</time></trkpt><trkpt lat="43.3484509" lon="11.914268"><ele>305.0</ele><time>2026-03-28T09:19:47.509Z</time></trkpt><trkpt lat="43.348376" lon="11.9142483"><ele>305.0</ele><time>2026-03-28T09:19:56.549Z</time></trkpt><trkpt lat="43.3483125" lon="11.9142681"><ele>305.42857142857144</ele><time>2026-03-28T09:20:01.537Z</time></trkpt><trkpt lat="43.3482477" lon="11.9142708"><ele>305.85714285714283</ele><time>2026-03-28T09:20:05.54Z</time></trkpt><trkpt lat="43.3481717" lon="11.9142554"><ele>306.2857142857143</ele><time>2026-03-28T09:20:10.562Z</time></trkpt><trkpt lat="43.3480992" lon="11.9142392"><ele>306.7142857142857</ele><time>2026-03-28T09:20:15.466Z</time></trkpt><trkpt lat="43.3480305" lon="11.9142228"><ele>307.1428571428571</ele><time>2026-03-28T09:20:19.598Z</time></trkpt><trkpt lat="43.3479597" lon="11.9142186"><ele>307.57142857142856</ele><time>2026-03-28T09:20:23.535Z</time></trkpt><trkpt lat="43.3478784" lon="11.9142193"><ele>308.0</ele><time>2026-03-28T09:20:27.446Z</time></trkpt><trkpt lat="43.3478144" lon="11.9142629"><ele>309.0</ele><time>2026-03-28T09:20:31.516Z</time></trkpt><trkpt lat="43.3477659" lon="11.9143279"><ele>310.0</ele><time>2026-03-28T09:20:35.503Z</time></trkpt><trkpt lat="43.3477163" lon="11.9144044"><ele>311.0</ele><time>2026-03-28T09:20:41.556Z</time></trkpt><trkpt lat="43.3477232" lon="11.9145002"><ele>312.0</ele><time>2026-03-28T09:20:46.547Z</time></trkpt><trkpt lat="43.347751" lon="11.9145898"><ele>313.0</ele><time>2026-03-28T09:20:51.573Z</time></trkpt><trkpt lat="43.3477778" lon="11.9146787"><ele>314.0</ele><time>2026-03-28T09:20:57.522Z</time></trkpt><trkpt lat="43.3477823" lon="11.9147703"><ele>315.0</ele><time>2026-03-28T09:21:02.552Z</time></trkpt><trkpt lat="43.3477983" lon="11.9148732"><ele>315.0</ele><time>2026-03-28T09:21:07.491Z</time></trkpt><trkpt lat="43.3478124" lon="11.9149651"><ele>315.0</ele><time>2026-03-28T09:21:12.542Z</time></trkpt><trkpt lat="43.3478364" lon="11.9150563"><ele>315.0</ele><time>2026-03-28T09:21:17.531Z</time></trkpt><trkpt lat="43.3478581" lon="11.9151392"><ele>315.0</ele><time>2026-03-28T09:21:21.491Z</time></trkpt><trkpt lat="43.3478875" lon="11.9152391"><ele>315.0</ele><time>2026-03-28T09:21:26.542Z</time></trkpt><trkpt lat="43.3479121" lon="11.9153246"><ele>315.0</ele><time>2026-03-28T09:21:31.534Z</time></trkpt><trkpt lat="43.3479425" lon="11.9154167"><ele>315.0</ele><time>2026-03-28T09:21:36.591Z</time></trkpt><trkpt lat="43.3479642" lon="11.9155059"><ele>315.57142857142856</ele><time>2026-03-28T09:21:41.569Z</time></trkpt><trkpt lat="43.3479895" lon="11.9155911"><ele>316.1428571428571</ele><time>2026-03-28T09:21:46.529Z</time></trkpt><trkpt lat="43.3480191" lon="11.9156871"><ele>316.7142857142857</ele><time>2026-03-28T09:21:51.543Z</time></trkpt><trkpt lat="43.3480448" lon="11.9157819"><ele>317.2857142857143</ele><time>2026-03-28T09:21:56.547Z</time></trkpt><trkpt lat="43.3480767" lon="11.9158631"><ele>317.85714285714283</ele><time>2026-03-28T09:22:01.53Z</time></trkpt><trkpt lat="43.3481124" lon="11.9159447"><ele>318.42857142857144</ele><time>2026-03-28T09:22:06.526Z</time></trkpt><trkpt lat="43.3481571" lon="11.9160264"><ele>319.0</ele><time>2026-03-28T09:22:12.557Z</time></trkpt><trkpt lat="43.3482012" lon="11.916097"><ele>323.42857142857144</ele><time>2026-03-28T09:22:17.469Z</time></trkpt><trkpt lat="43.348247" lon="11.9161595"><ele>327.85714285714283</ele><time>2026-03-28T09:22:22.583Z</time></trkpt><trkpt lat="43.3483023" lon="11.9162072"><ele>332.2857142857143</ele><time>2026-03-28T09:22:28.519Z</time></trkpt><trkpt lat="43.3483614" lon="11.9162473"><ele>336.7142857142857</ele><time>2026-03-28T09:22:34.513Z</time></trkpt><trkpt lat="43.3484258" lon="11.9163044"><ele>341.1428571428571</ele><time>2026-03-28T09:22:41.467Z</time></trkpt><trkpt lat="43.3484829" lon="11.9163501"><ele>345.57142857142856</ele><time>2026-03-28T09:22:46.582Z</time></trkpt><trkpt lat="43.3485271" lon="11.9164147"><ele>350.0</ele><time>2026-03-28T09:22:51.369Z</time></trkpt><trkpt lat="43.3485721" lon="11.9164863"><ele>350.0</ele><time>2026-03-28T09:22:57.564Z</time></trkpt><trkpt lat="43.3486164" lon="11.9165593"><ele>350.0</ele><time>2026-03-28T09:23:04.551Z</time></trkpt><trkpt lat="43.3486633" lon="11.9166186"><ele>350.0</ele><time>2026-03-28T09:23:10.544Z</time></trkpt><trkpt lat="43.348713" lon="11.9166806"><ele>350.0</ele><time>2026-03-28T09:23:19.537Z</time></trkpt><trkpt lat="43.3487555" lon="11.9167467"><ele>350.0</ele><time>2026-03-28T09:23:25.555Z</time></trkpt><trkpt lat="43.3488018" lon="11.9168147"><ele>350.0</ele><time>2026-03-28T09:23:31.526Z</time></trkpt><trkpt lat="43.3488364" lon="11.9168903"><ele>350.0</ele><time>2026-03-28T09:23:38.524Z</time></trkpt><trkpt lat="43.348869" lon="11.9169722"><ele>350.7142857142857</ele><time>2026-03-28T09:23:44.445Z</time></trkpt><trkpt lat="43.3488756" lon="11.9170593"><ele>351.42857142857144</ele><time>2026-03-28T09:23:51.516Z</time></trkpt><trkpt lat="43.3488981" lon="11.917148"><ele>352.1428571428571</ele><time>2026-03-28T09:23:59.514Z</time></trkpt><trkpt lat="43.3489424" lon="11.9172234"><ele>352.8571428571429</ele><time>2026-03-28T09:24:06.515Z</time></trkpt><trkpt lat="43.3489974" lon="11.9172836"><ele>353.57142857142856</ele><time>2026-03-28T09:24:13.463Z</time></trkpt><trkpt lat="43.3490404" lon="11.9173557"><ele>354.2857142857143</ele><time>2026-03-28T09:24:20.488Z</time></trkpt><trkpt lat="43.3490831" lon="11.9174201"><ele>355.0</ele><time>2026-03-28T09:24:27.555Z</time></trkpt><trkpt lat="43.3491273" lon="11.9174877"><ele>358.85714285714283</ele><time>2026-03-28T09:24:33.544Z</time></trkpt><trkpt lat="43.3491708" lon="11.9175647"><ele>362.7142857142857</ele><time>2026-03-28T09:24:40.541Z</time></trkpt><trkpt lat="43.3492173" lon="11.9176295"><ele>366.57142857142856</ele><time>2026-03-28T09:24:45.632Z</time></trkpt><trkpt lat="43.3492715" lon="11.9177003"><ele>370.42857142857144</ele><time>2026-03-28T09:24:51.558Z</time></trkpt><trkpt lat="43.3493217" lon="11.9177653"><ele>374.2857142857143</ele><time>2026-03-28T09:24:57.539Z</time></trkpt><trkpt lat="43.3493744" lon="11.9178362"><ele>378.14285714285717</ele><time>2026-03-28T09:25:04.552Z</time></trkpt><trkpt lat="43.3494177" lon="11.9178992"><ele>382.0</ele><time>2026-03-28T09:25:10.564Z</time></trkpt><trkpt lat="43.3494707" lon="11.9179791"><ele>382.2857142857143</ele><time>2026-03-28T09:25:17.098Z</time></trkpt><trkpt lat="43.3495092" lon="11.918048"><ele>382.57142857142856</ele><time>2026-03-28T09:25:21.347Z</time></trkpt><trkpt lat="43.349551" lon="11.9181264"><ele>382.85714285714283</ele><time>2026-03-28T09:25:26.641Z</time></trkpt><trkpt lat="43.3496009" lon="11.9181946"><ele>383.1428571428571</ele><time>2026-03-28T09:25:32.552Z</time></trkpt><trkpt lat="43.3496543" lon="11.9182617"><ele>383.42857142857144</ele><time>2026-03-28T09:25:38.543Z</time></trkpt><trkpt lat="43.3497104" lon="11.9183294"><ele>383.71428571428567</ele><time>2026-03-28T09:25:44.546Z</time></trkpt><trkpt lat="43.3497513" lon="11.9184019"><ele>384.0</ele><time>2026-03-28T09:25:49.532Z</time></trkpt><trkpt lat="43.3497943" lon="11.9184725"><ele>386.99999999999994</ele><time>2026-03-28T09:25:54.491Z</time></trkpt><trkpt lat="43.3498502" lon="11.918542"><ele>390.0</ele><time>2026-03-28T09:25:59.551Z</time></trkpt><trkpt lat="43.3499006" lon="11.9186125"><ele>393.0</ele><time>2026-03-28T09:26:05.529Z</time></trkpt><trkpt lat="43.3499434" lon="11.9186851"><ele>396.0</ele><time>2026-03-28T09:26:10.523Z</time></trkpt><trkpt lat="43.3499769" lon="11.9187609"><ele>399.0</ele><time>2026-03-28T09:26:15.562Z</time></trkpt><trkpt lat="43.3500007" lon="11.9188551"><ele>401.99999999999994</ele><time>2026-03-28T09:26:21.539Z</time></trkpt><trkpt lat="43.3500389" lon="11.9189257"><ele>405.0</ele><time>2026-03-28T09:26:27.547Z</time></trkpt><trkpt lat="43.3500891" lon="11.9190033"><ele>404.99999999999994</ele><time>2026-03-28T09:26:33.525Z</time></trkpt><trkpt lat="43.3501327" lon="11.9190699"><ele>405.0</ele><time>2026-03-28T09:26:38.54Z</time></trkpt><trkpt lat="43.3501729" lon="11.9191414"><ele>405.0</ele><time>2026-03-28T09:26:43.534Z</time></trkpt><trkpt lat="43.350219" lon="11.9192182"><ele>405.0</ele><time>2026-03-28T09:26:48.522Z</time></trkpt><trkpt lat="43.3502695" lon="11.91928"><ele>405.0</ele><time>2026-03-28T09:26:53.459Z</time></trkpt><trkpt lat="43.3503175" lon="11.9193462"><ele>404.99999999999994</ele><time>2026-03-28T09:26:58.461Z</time></trkpt><trkpt lat="43.3503552" lon="11.9194316"><ele>405.0</ele><time>2026-03-28T09:27:03.44Z</time></trkpt><trkpt lat="43.3503799" lon="11.9195241"><ele>404.99999999999994</ele><time>2026-03-28T09:27:08.534Z</time></trkpt><trkpt lat="43.350436" lon="11.919594"><ele>405.0</ele><time>2026-03-28T09:27:13.466Z</time></trkpt><trkpt lat="43.3504722" lon="11.9196774"><ele>405.0</ele><time>2026-03-28T09:27:18.556Z</time></trkpt><trkpt lat="43.3505164" lon="11.9197612"><ele>405.0</ele><time>2026-03-28T09:27:23.517Z</time></trkpt><trkpt lat="43.350567" lon="11.9198415"><ele>405.0</ele><time>2026-03-28T09:27:28.532Z</time></trkpt><trkpt lat="43.3506112" lon="11.919908"><ele>404.99999999999994</ele><time>2026-03-28T09:27:33.526Z</time></trkpt><trkpt lat="43.3506624" lon="11.9199675"><ele>405.0</ele><time>2026-03-28T09:27:37.543Z</time></trkpt><trkpt lat="43.3506999" lon="11.9200396"><ele>408.71428571428567</ele><time>2026-03-28T09:27:41.552Z</time></trkpt><trkpt lat="43.3507436" lon="11.9201178"><ele>412.42857142857144</ele><time>2026-03-28T09:27:46.524Z</time></trkpt><trkpt lat="43.350739" lon="11.9202215"><ele>416.1428571428571</ele><time>2026-03-28T09:27:52.489Z</time></trkpt><trkpt lat="43.3507697" lon="11.9203025"><ele>419.85714285714283</ele><time>2026-03-28T09:27:57.604Z</time></trkpt><trkpt lat="43.3507714" lon="11.9204012"><ele>423.57142857142856</ele><time>2026-03-28T09:28:03.55Z</time></trkpt><trkpt lat="43.3507689" lon="11.9204898"><ele>427.2857142857143</ele><time>2026-03-28T09:28:07.524Z</time></trkpt><trkpt lat="43.3507736" lon="11.9205792"><ele>431.0</ele><time>2026-03-28T09:28:12.561Z</time></trkpt><trkpt lat="43.350777" lon="11.9206749"><ele>431.0</ele><time>2026-03-28T09:28:17.522Z</time></trkpt><trkpt lat="43.3507753" lon="11.9207661"><ele>431.0</ele><time>2026-03-28T09:28:22.557Z</time></trkpt><trkpt lat="43.3507621" lon="11.9208825"><ele>431.0</ele><time>2026-03-28T09:28:26.56Z</time></trkpt><trkpt lat="43.3507523" lon="11.9209741"><ele>431.0</ele><time>2026-03-28T09:28:29.574Z</time></trkpt><trkpt lat="43.3507393" lon="11.9210614"><ele>431.0</ele><time>2026-03-28T09:28:32.548Z</time></trkpt><trkpt lat="43.3507169" lon="11.9211476"><ele>431.0</ele><time>2026-03-28T09:28:35.545Z</time></trkpt><trkpt lat="43.3506954" lon="11.9212405"><ele>431.0</ele><time>2026-03-28T09:28:38.558Z</time></trkpt><trkpt lat="43.3506682" lon="11.9213378"><ele>431.3333333333333</ele><time>2026-03-28T09:28:41.553Z</time></trkpt><trkpt lat="43.3506429" lon="11.921449"><ele>431.66666666666663</ele><time>2026-03-28T09:28:44.539Z</time></trkpt><trkpt lat="43.3506127" lon="11.9215391"><ele>432.0</ele><time>2026-03-28T09:28:47.541Z</time></trkpt><trkpt lat="43.3505922" lon="11.9216463"><ele>432.33333333333337</ele><time>2026-03-28T09:28:50.569Z</time></trkpt><trkpt lat="43.3505774" lon="11.9217489"><ele>432.6666666666667</ele><time>2026-03-28T09:28:53.558Z</time></trkpt><trkpt lat="43.3505781" lon="11.9218486"><ele>433.0</ele><time>2026-03-28T09:28:56.53Z</time></trkpt><trkpt lat="43.3505879" lon="11.9219375"><ele>431.71428571428567</ele><time>2026-03-28T09:28:59.559Z</time></trkpt><trkpt lat="43.3506281" lon="11.9220107"><ele>430.42857142857144</ele><time>2026-03-28T09:29:02.557Z</time></trkpt><trkpt lat="43.3506881" lon="11.9220634"><ele>429.1428571428571</ele><time>2026-03-28T09:29:05.557Z</time></trkpt><trkpt lat="43.3507541" lon="11.9220954"><ele>427.85714285714283</ele><time>2026-03-28T09:29:09.537Z</time></trkpt><trkpt lat="43.3508064" lon="11.9221518"><ele>426.57142857142856</ele><time>2026-03-28T09:29:14.546Z</time></trkpt><trkpt lat="43.3508752" lon="11.9221813"><ele>425.2857142857143</ele><time>2026-03-28T09:29:19.558Z</time></trkpt><trkpt lat="43.350942" lon="11.9221955"><ele>424.0</ele><time>2026-03-28T09:29:24.547Z</time></trkpt><trkpt lat="43.3510111" lon="11.922218"><ele>424.0</ele><time>2026-03-28T09:29:29.554Z</time></trkpt><trkpt lat="43.3510878" lon="11.9222442"><ele>424.0</ele><time>2026-03-28T09:29:35.521Z</time></trkpt><trkpt lat="43.3511593" lon="11.9222458"><ele>424.0</ele><time>2026-03-28T09:29:40.458Z</time></trkpt><trkpt lat="43.3512268" lon="11.9222236"><ele>424.0</ele><time>2026-03-28T09:29:46.53Z</time></trkpt><trkpt lat="43.3512943" lon="11.9222006"><ele>424.0</ele><time>2026-03-28T09:29:52.546Z</time></trkpt><trkpt lat="43.3513655" lon="11.9221796"><ele>424.0</ele><time>2026-03-28T09:29:58.578Z</time></trkpt><trkpt lat="43.351439" lon="11.9221332"><ele>424.0</ele><time>2026-03-28T09:30:03.577Z</time></trkpt><trkpt lat="43.3515096" lon="11.9220846"><ele>425.42857142857144</ele><time>2026-03-28T09:30:08.546Z</time></trkpt><trkpt lat="43.3515785" lon="11.9220545"><ele>426.85714285714283</ele><time>2026-03-28T09:30:13.544Z</time></trkpt><trkpt lat="43.3516406" lon="11.9220332"><ele>428.2857142857143</ele><time>2026-03-28T09:30:18.52Z</time></trkpt><trkpt lat="43.3517019" lon="11.9219761"><ele>429.7142857142857</ele><time>2026-03-28T09:30:23.55Z</time></trkpt><trkpt lat="43.3517724" lon="11.9219634"><ele>431.1428571428571</ele><time>2026-03-28T09:30:27.557Z</time></trkpt><trkpt lat="43.351845" lon="11.9219503"><ele>432.57142857142856</ele><time>2026-03-28T09:30:31.542Z</time></trkpt><trkpt lat="43.3519152" lon="11.9219437"><ele>434.0</ele><time>2026-03-28T09:30:35.547Z</time></trkpt><trkpt lat="43.3519917" lon="11.9219351"><ele>434.0</ele><time>2026-03-28T09:30:39.489Z</time></trkpt><trkpt lat="43.352071" lon="11.921939"><ele>434.0</ele><time>2026-03-28T09:30:44.704Z</time></trkpt><trkpt lat="43.352139" lon="11.9219396"><ele>434.0</ele><time>2026-03-28T09:30:49.186Z</time></trkpt><trkpt lat="43.3522081" lon="11.9219538"><ele>434.0</ele><time>2026-03-28T09:30:53.566Z</time></trkpt><trkpt lat="43.3522786" lon="11.9219728"><ele>434.0</ele><time>2026-03-28T09:30:58.539Z</time></trkpt><trkpt lat="43.3523482" lon="11.9219954"><ele>434.0</ele><time>2026-03-28T09:31:02.5Z</time></trkpt><trkpt lat="43.3524199" lon="11.9220214"><ele>434.0</ele><time>2026-03-28T09:31:06.515Z</time></trkpt><trkpt lat="43.352487" lon="11.9220722"><ele>435.85714285714283</ele><time>2026-03-28T09:31:10.564Z</time></trkpt><trkpt lat="43.3525476" lon="11.9221208"><ele>437.7142857142857</ele><time>2026-03-28T09:31:14.529Z</time></trkpt><trkpt lat="43.3526101" lon="11.9221798"><ele>439.57142857142856</ele><time>2026-03-28T09:31:19.564Z</time></trkpt><trkpt lat="43.352668" lon="11.9222309"><ele>441.42857142857144</ele><time>2026-03-28T09:31:25.559Z</time></trkpt><trkpt lat="43.3527283" lon="11.9222573"><ele>443.2857142857143</ele><time>2026-03-28T09:31:29.555Z</time></trkpt><trkpt lat="43.352792" lon="11.9222865"><ele>445.1428571428571</ele><time>2026-03-28T09:31:33.552Z</time></trkpt><trkpt lat="43.35286" lon="11.9223267"><ele>447.0</ele><time>2026-03-28T09:31:37.57Z</time></trkpt><trkpt lat="43.3529264" lon="11.922342"><ele>447.0</ele><time>2026-03-28T09:31:41.54Z</time></trkpt><trkpt lat="43.3529952" lon="11.9223576"><ele>447.0</ele><time>2026-03-28T09:31:45.559Z</time></trkpt><trkpt lat="43.3530681" lon="11.9223768"><ele>447.0</ele><time>2026-03-28T09:31:49.567Z</time></trkpt><trkpt lat="43.3531417" lon="11.9224019"><ele>447.0</ele><time>2026-03-28T09:31:53.554Z</time></trkpt><trkpt lat="43.3532159" lon="11.9224464"><ele>447.0</ele><time>2026-03-28T09:31:57.552Z</time></trkpt><trkpt lat="43.3532811" lon="11.9225042"><ele>447.0</ele><time>2026-03-28T09:32:01.565Z</time></trkpt><trkpt lat="43.3533484" lon="11.9225416"><ele>446.4285714285714</ele><time>2026-03-28T09:32:05.531Z</time></trkpt><trkpt lat="43.3534138" lon="11.9225933"><ele>445.85714285714283</ele><time>2026-03-28T09:32:09.552Z</time></trkpt><trkpt lat="43.353478" lon="11.9226382"><ele>445.2857142857143</ele><time>2026-03-28T09:32:13.478Z</time></trkpt><trkpt lat="43.353547" lon="11.9226917"><ele>444.71428571428567</ele><time>2026-03-28T09:32:17.461Z</time></trkpt><trkpt lat="43.3536101" lon="11.9227276"><ele>444.14285714285717</ele><time>2026-03-28T09:32:21.536Z</time></trkpt><trkpt lat="43.3536804" lon="11.9227714"><ele>443.57142857142856</ele><time>2026-03-28T09:32:26.536Z</time></trkpt><trkpt lat="43.3537497" lon="11.9228032"><ele>443.0</ele><time>2026-03-28T09:32:30.48Z</time></trkpt><trkpt lat="43.3538142" lon="11.9228416"><ele>446.0</ele><time>2026-03-28T09:32:34.537Z</time></trkpt><trkpt lat="43.3538719" lon="11.9228787"><ele>449.0</ele><time>2026-03-28T09:32:37.55Z</time></trkpt><trkpt lat="43.3539357" lon="11.9229105"><ele>452.0</ele><time>2026-03-28T09:32:40.543Z</time></trkpt><trkpt lat="43.3540033" lon="11.9229425"><ele>455.0</ele><time>2026-03-28T09:32:43.547Z</time></trkpt><trkpt lat="43.35406" lon="11.9229882"><ele>458.0</ele><time>2026-03-28T09:32:46.555Z</time></trkpt><trkpt lat="43.3541206" lon="11.9230554"><ele>461.00000000000006</ele><time>2026-03-28T09:32:50.549Z</time></trkpt><trkpt lat="43.3541885" lon="11.9231022"><ele>464.00000000000006</ele><time>2026-03-28T09:32:54.543Z</time></trkpt><trkpt lat="43.3542622" lon="11.9231144"><ele>464.00000000000006</ele><time>2026-03-28T09:32:58.552Z</time></trkpt><trkpt lat="43.3543207" lon="11.9231525"><ele>464.0</ele><time>2026-03-28T09:33:02.556Z</time></trkpt><trkpt lat="43.3543771" lon="11.9232136"><ele>464.00000000000006</ele><time>2026-03-28T09:33:07.619Z</time></trkpt><trkpt lat="43.3544347" lon="11.9232633"><ele>464.00000000000006</ele><time>2026-03-28T09:33:12.548Z</time></trkpt><trkpt lat="43.3544853" lon="11.9233235"><ele>464.0</ele><time>2026-03-28T09:33:17.578Z</time></trkpt><trkpt lat="43.3545417" lon="11.9233718"><ele>464.00000000000006</ele><time>2026-03-28T09:33:24.515Z</time></trkpt><trkpt lat="43.3545966" lon="11.9234252"><ele>464.00000000000006</ele><time>2026-03-28T09:33:30.572Z</time></trkpt><trkpt lat="43.354637" lon="11.9235105"><ele>463.7142857142858</ele><time>2026-03-28T09:33:36.489Z</time></trkpt><trkpt lat="43.354678" lon="11.9235867"><ele>463.42857142857144</ele><time>2026-03-28T09:33:42.575Z</time></trkpt><trkpt lat="43.3547225" lon="11.9236522"><ele>463.14285714285717</ele><time>2026-03-28T09:33:48.557Z</time></trkpt><trkpt lat="43.3547827" lon="11.9237086"><ele>462.8571428571429</ele><time>2026-03-28T09:33:54.486Z</time></trkpt><trkpt lat="43.3548184" lon="11.9237801"><ele>462.57142857142856</ele><time>2026-03-28T09:34:00.561Z</time></trkpt><trkpt lat="43.3548447" lon="11.9238685"><ele>462.2857142857143</ele><time>2026-03-28T09:34:06.521Z</time></trkpt><trkpt lat="43.3548781" lon="11.9239462"><ele>462.0</ele><time>2026-03-28T09:34:11.482Z</time></trkpt><trkpt lat="43.3549056" lon="11.9240278"><ele>466.2857142857143</ele><time>2026-03-28T09:34:16.425Z</time></trkpt><trkpt lat="43.354938" lon="11.9241078"><ele>470.57142857142856</ele><time>2026-03-28T09:34:24.541Z</time></trkpt><trkpt lat="43.3549729" lon="11.9241821"><ele>474.8571428571429</ele><time>2026-03-28T09:34:30.442Z</time></trkpt><trkpt lat="43.3550231" lon="11.9242566"><ele>479.14285714285717</ele><time>2026-03-28T09:34:39.547Z</time></trkpt><trkpt lat="43.3550674" lon="11.9243411"><ele>483.42857142857144</ele><time>2026-03-28T09:34:46.537Z</time></trkpt><trkpt lat="43.3550924" lon="11.924432"><ele>487.7142857142858</ele><time>2026-03-28T09:34:53.555Z</time></trkpt><trkpt lat="43.3551415" lon="11.924504"><ele>492.00000000000006</ele><time>2026-03-28T09:34:59.523Z</time></trkpt><trkpt lat="43.35518" lon="11.9245784"><ele>492.00000000000006</ele><time>2026-03-28T09:35:05.549Z</time></trkpt><trkpt lat="43.3552247" lon="11.9246475"><ele>492.0</ele><time>2026-03-28T09:35:11.546Z</time></trkpt><trkpt lat="43.3552763" lon="11.9247204"><ele>492.00000000000006</ele><time>2026-03-28T09:35:17.526Z</time></trkpt><trkpt lat="43.3553308" lon="11.9247676"><ele>492.00000000000006</ele><time>2026-03-28T09:35:23.488Z</time></trkpt><trkpt lat="43.3553753" lon="11.9248383"><ele>492.0</ele><time>2026-03-28T09:35:29.527Z</time></trkpt><trkpt lat="43.3554277" lon="11.924909"><ele>492.00000000000006</ele><time>2026-03-28T09:35:35.567Z</time></trkpt><trkpt lat="43.3554795" lon="11.9249848"><ele>492.00000000000006</ele><time>2026-03-28T09:35:40.564Z</time></trkpt><trkpt lat="43.3555367" lon="11.9250506"><ele>493.8571428571429</ele><time>2026-03-28T09:35:45.546Z</time></trkpt><trkpt lat="43.3555949" lon="11.9251027"><ele>495.7142857142857</ele><time>2026-03-28T09:35:50.549Z</time></trkpt><trkpt lat="43.3556536" lon="11.9251355"><ele>497.57142857142856</ele><time>2026-03-28T09:35:55.55Z</time></trkpt><trkpt lat="43.35571" lon="11.9251795"><ele>499.42857142857144</ele><time>2026-03-28T09:36:01.562Z</time></trkpt><trkpt lat="43.3557713" lon="11.9252377"><ele>501.2857142857142</ele><time>2026-03-28T09:36:08.56Z</time></trkpt><trkpt lat="43.3558339" lon="11.9252609"><ele>503.1428571428571</ele><time>2026-03-28T09:36:12.527Z</time></trkpt><trkpt lat="43.355903" lon="11.9252638"><ele>505.0</ele><time>2026-03-28T09:36:21.563Z</time></trkpt><trkpt lat="43.3559661" lon="11.9252894"><ele>505.0</ele><time>2026-03-28T09:36:29.582Z</time></trkpt><trkpt lat="43.3560248" lon="11.9253245"><ele>504.99999999999994</ele><time>2026-03-28T09:36:35.544Z</time></trkpt><trkpt lat="43.3560865" lon="11.9253701"><ele>505.0</ele><time>2026-03-28T09:36:42.54Z</time></trkpt><trkpt lat="43.3561509" lon="11.9254122"><ele>505.0</ele><time>2026-03-28T09:36:51.527Z</time></trkpt><trkpt lat="43.3562084" lon="11.9254486"><ele>504.99999999999994</ele><time>2026-03-28T09:36:58.536Z</time></trkpt><trkpt lat="43.3562791" lon="11.9254344"><ele>505.0</ele><time>2026-03-28T09:37:04.444Z</time></trkpt><trkpt lat="43.3563493" lon="11.9254588"><ele>505.0</ele><time>2026-03-28T09:37:09.539Z</time></trkpt><trkpt lat="43.3564167" lon="11.9255045"><ele>508.2857142857143</ele><time>2026-03-28T09:37:15.563Z</time></trkpt><trkpt lat="43.3564707" lon="11.9255636"><ele>511.57142857142856</ele><time>2026-03-28T09:37:20.528Z</time></trkpt><trkpt lat="43.3565377" lon="11.925606"><ele>514.8571428571429</ele><time>2026-03-28T09:37:26.542Z</time></trkpt><trkpt lat="43.3566109" lon="11.9256232"><ele>518.1428571428571</ele><time>2026-03-28T09:37:31.564Z</time></trkpt><trkpt lat="43.3566764" lon="11.925643"><ele>521.4285714285714</ele><time>2026-03-28T09:37:35.587Z</time></trkpt><trkpt lat="43.3567395" lon="11.9256553"><ele>524.7142857142857</ele><time>2026-03-28T09:37:39.568Z</time></trkpt><trkpt lat="43.3568046" lon="11.925689"><ele>528.0</ele><time>2026-03-28T09:37:43.537Z</time></trkpt><trkpt lat="43.3568754" lon="11.9256978"><ele>528.0</ele><time>2026-03-28T09:37:47.581Z</time></trkpt><trkpt lat="43.3569351" lon="11.925727"><ele>528.0</ele><time>2026-03-28T09:37:51.583Z</time></trkpt><trkpt lat="43.3569953" lon="11.9257567"><ele>528.0</ele><time>2026-03-28T09:37:55.555Z</time></trkpt><trkpt lat="43.3570638" lon="11.9258016"><ele>528.0</ele><time>2026-03-28T09:37:59.561Z</time></trkpt><trkpt lat="43.3571302" lon="11.9258335"><ele>528.0</ele><time>2026-03-28T09:38:03.541Z</time></trkpt><trkpt lat="43.3571959" lon="11.9258598"><ele>528.0</ele><time>2026-03-28T09:38:07.546Z</time></trkpt><trkpt lat="43.3572633" lon="11.9258673"><ele>528.0</ele><time>2026-03-28T09:38:11.482Z</time></trkpt><trkpt lat="43.3573367" lon="11.9258446"><ele>527.2857142857142</ele><time>2026-03-28T09:38:16.515Z</time></trkpt><trkpt lat="43.3574013" lon="11.925866"><ele>526.5714285714286</ele><time>2026-03-28T09:38:20.567Z</time></trkpt><trkpt lat="43.357479" lon="11.9258789"><ele>525.8571428571429</ele><time>2026-03-28T09:38:25.565Z</time></trkpt><trkpt lat="43.3575513" lon="11.9259099"><ele>525.1428571428571</ele><time>2026-03-28T09:38:29.486Z</time></trkpt><trkpt lat="43.3576169" lon="11.9259183"><ele>524.4285714285714</ele><time>2026-03-28T09:38:33.548Z</time></trkpt><trkpt lat="43.357689" lon="11.9259286"><ele>523.7142857142857</ele><time>2026-03-28T09:38:38.587Z</time></trkpt><trkpt lat="43.3577526" lon="11.9259521"><ele>523.0</ele><time>2026-03-28T09:38:43.529Z</time></trkpt><trkpt lat="43.3578222" lon="11.9259619"><ele>522.9999999999999</ele><time>2026-03-28T09:38:48.581Z</time></trkpt><trkpt lat="43.3579004" lon="11.9259543"><ele>523.0</ele><time>2026-03-28T09:38:53.554Z</time></trkpt><trkpt lat="43.3579725" lon="11.9259372"><ele>523.0</ele><time>2026-03-28T09:38:57.546Z</time></trkpt><trkpt lat="43.3580399" lon="11.9259438"><ele>523.0</ele><time>2026-03-28T09:39:01.545Z</time></trkpt><trkpt lat="43.3581117" lon="11.9259578"><ele>523.0</ele><time>2026-03-28T09:39:05.558Z</time></trkpt><trkpt lat="43.3581879" lon="11.9259572"><ele>522.9999999999999</ele><time>2026-03-28T09:39:09.56Z</time></trkpt><trkpt lat="43.3582673" lon="11.9259414"><ele>523.0</ele><time>2026-03-28T09:39:13.527Z</time></trkpt><trkpt lat="43.358331" lon="11.9259302"><ele>524.4285714285713</ele><time>2026-03-28T09:39:16.583Z</time></trkpt><trkpt lat="43.3584068" lon="11.9259363"><ele>525.8571428571429</ele><time>2026-03-28T09:39:20.553Z</time></trkpt><trkpt lat="43.3584767" lon="11.9259733"><ele>527.2857142857142</ele><time>2026-03-28T09:39:24.503Z</time></trkpt><trkpt lat="43.3585462" lon="11.9260209"><ele>528.7142857142857</ele><time>2026-03-28T09:39:28.555Z</time></trkpt><trkpt lat="43.3585995" lon="11.9260697"><ele>530.1428571428571</ele><time>2026-03-28T09:39:33.548Z</time></trkpt><trkpt lat="43.3586442" lon="11.926138"><ele>531.5714285714286</ele><time>2026-03-28T09:39:37.488Z</time></trkpt><trkpt lat="43.3586736" lon="11.9262167"><ele>533.0</ele><time>2026-03-28T09:39:41.531Z</time></trkpt><trkpt lat="43.3587094" lon="11.9262938"><ele>533.0</ele><time>2026-03-28T09:39:45.539Z</time></trkpt><trkpt lat="43.3587657" lon="11.9263615"><ele>533.0</ele><time>2026-03-28T09:39:49.512Z</time></trkpt><trkpt lat="43.3588625" lon="11.9264068"><ele>533.0</ele><time>2026-03-28T09:39:54.523Z</time></trkpt><trkpt lat="43.3589101" lon="11.9264904"><ele>533.0</ele><time>2026-03-28T09:39:56.505Z</time></trkpt><trkpt lat="43.3589627" lon="11.926552"><ele>533.0</ele><time>2026-03-28T09:39:59.52Z</time></trkpt><trkpt lat="43.3590223" lon="11.9266127"><ele>533.0</ele><time>2026-03-28T09:40:02.513Z</time></trkpt><trkpt lat="43.3590688" lon="11.9266838"><ele>535.0</ele><time>2026-03-28T09:40:05.513Z</time></trkpt><trkpt lat="43.3591184" lon="11.9267712"><ele>537.0</ele><time>2026-03-28T09:40:09.515Z</time></trkpt><trkpt lat="43.3591789" lon="11.9268485"><ele>539.0</ele><time>2026-03-28T09:40:13.504Z</time></trkpt><trkpt lat="43.3591984" lon="11.92694"><ele>541.0</ele><time>2026-03-28T09:40:18.561Z</time></trkpt><trkpt lat="43.3592716" lon="11.9270153"><ele>543.0</ele><time>2026-03-28T09:40:21.544Z</time></trkpt><trkpt lat="43.3593218" lon="11.9270856"><ele>545.0</ele><time>2026-03-28T09:40:24.533Z</time></trkpt><trkpt lat="43.3593673" lon="11.9271594"><ele>545.0</ele><time>2026-03-28T09:40:28.542Z</time></trkpt><trkpt lat="43.3593963" lon="11.9272425"><ele>545.0</ele><time>2026-03-28T09:40:32.552Z</time></trkpt><trkpt lat="43.3594485" lon="11.9273282"><ele>545.0</ele><time>2026-03-28T09:40:35.551Z</time></trkpt><trkpt lat="43.3594978" lon="11.9273911"><ele>545.0</ele><time>2026-03-28T09:40:38.629Z</time></trkpt><trkpt lat="43.3595589" lon="11.9274614"><ele>545.0</ele><time>2026-03-28T09:40:43.522Z</time></trkpt><trkpt lat="43.359599" lon="11.9275573"><ele>545.0</ele><time>2026-03-28T09:40:47.553Z</time></trkpt><trkpt lat="43.3596583" lon="11.9276337"><ele>547.4285714285714</ele><time>2026-03-28T09:40:51.532Z</time></trkpt><trkpt lat="43.3597104" lon="11.9277179"><ele>549.8571428571429</ele><time>2026-03-28T09:40:55.56Z</time></trkpt><trkpt lat="43.3597567" lon="11.9277943"><ele>552.2857142857143</ele><time>2026-03-28T09:40:59.551Z</time></trkpt><trkpt lat="43.3597824" lon="11.9278797"><ele>554.7142857142858</ele><time>2026-03-28T09:41:03.544Z</time></trkpt><trkpt lat="43.3598111" lon="11.9279591"><ele>557.1428571428571</ele><time>2026-03-28T09:41:07.459Z</time></trkpt><trkpt lat="43.3598457" lon="11.9280491"><ele>559.5714285714287</ele><time>2026-03-28T09:41:11.496Z</time></trkpt><trkpt lat="43.3598754" lon="11.9281266"><ele>562.0</ele><time>2026-03-28T09:41:15.511Z</time></trkpt><trkpt lat="43.3599024" lon="11.9282123"><ele>562.0000000000001</ele><time>2026-03-28T09:41:20.542Z</time></trkpt><trkpt lat="43.3599548" lon="11.9282929"><ele>562.0</ele><time>2026-03-28T09:41:26.535Z</time></trkpt><trkpt lat="43.3599793" lon="11.928397"><ele>562.0</ele><time>2026-03-28T09:41:31.553Z</time></trkpt><trkpt lat="43.3600117" lon="11.9284818"><ele>562.0</ele><time>2026-03-28T09:41:37.46Z</time></trkpt><trkpt lat="43.3600519" lon="11.9285662"><ele>562.0</ele><time>2026-03-28T09:41:43.538Z</time></trkpt><trkpt lat="43.3600897" lon="11.9286372"><ele>562.0000000000001</ele><time>2026-03-28T09:41:48.529Z</time></trkpt><trkpt lat="43.3601565" lon="11.9286801"><ele>562.0</ele><time>2026-03-28T09:41:53.473Z</time></trkpt><trkpt lat="43.3602173" lon="11.9287259"><ele>562.7142857142858</ele><time>2026-03-28T09:41:59.538Z</time></trkpt><trkpt lat="43.3602917" lon="11.9287237"><ele>563.4285714285714</ele><time>2026-03-28T09:42:05.573Z</time></trkpt><trkpt lat="43.3603579" lon="11.9287179"><ele>564.1428571428571</ele><time>2026-03-28T09:42:15.551Z</time></trkpt><trkpt lat="43.3604211" lon="11.9287446"><ele>564.8571428571429</ele><time>2026-03-28T09:42:22.462Z</time></trkpt><trkpt lat="43.3604855" lon="11.9287725"><ele>565.5714285714286</ele><time>2026-03-28T09:42:27.535Z</time></trkpt><trkpt lat="43.3605478" lon="11.9288041"><ele>566.2857142857143</ele><time>2026-03-28T09:42:33.552Z</time></trkpt><trkpt lat="43.3606163" lon="11.9288145"><ele>567.0</ele><time>2026-03-28T09:42:39.528Z</time></trkpt><trkpt lat="43.3606781" lon="11.928839"><ele>570.5714285714286</ele><time>2026-03-28T09:42:47.553Z</time></trkpt><trkpt lat="43.3607386" lon="11.9288722"><ele>574.1428571428571</ele><time>2026-03-28T09:42:54.553Z</time></trkpt><trkpt lat="43.3608016" lon="11.9288925"><ele>577.7142857142858</ele><time>2026-03-28T09:43:00.522Z</time></trkpt><trkpt lat="43.3608598" lon="11.9289319"><ele>581.2857142857142</ele><time>2026-03-28T09:43:05.532Z</time></trkpt><trkpt lat="43.3609204" lon="11.928972"><ele>584.8571428571429</ele><time>2026-03-28T09:43:10.838Z</time></trkpt><trkpt lat="43.3609697" lon="11.9290432"><ele>588.4285714285714</ele><time>2026-03-28T09:43:16.54Z</time></trkpt><trkpt lat="43.3609745" lon="11.9291422"><ele>592.0</ele><time>2026-03-28T09:43:24.466Z</time></trkpt><trkpt lat="43.3609715" lon="11.9292358"><ele>592.0</ele><time>2026-03-28T09:43:30.259Z</time></trkpt><trkpt lat="43.3609623" lon="11.9293227"><ele>592.0</ele><time>2026-03-28T09:43:34.422Z</time></trkpt><trkpt lat="43.3610019" lon="11.9293957"><ele>592.0</ele><time>2026-03-28T09:43:38.539Z</time></trkpt><trkpt lat="43.3610442" lon="11.9294644"><ele>592.0</ele><time>2026-03-28T09:43:42.55Z</time></trkpt><trkpt lat="43.3610707" lon="11.9295607"><ele>592.0</ele><time>2026-03-28T09:43:47.542Z</time></trkpt><trkpt lat="43.3611014" lon="11.9296371"><ele>592.0</ele><time>2026-03-28T09:43:51.417Z</time></trkpt><trkpt lat="43.3611356" lon="11.9297268"><ele>592.0</ele><time>2026-03-28T09:43:55.563Z</time></trkpt><trkpt lat="43.3611613" lon="11.9298097"><ele>592.0</ele><time>2026-03-28T09:43:59.551Z</time></trkpt><trkpt lat="43.36119" lon="11.9298957"><ele>592.0</ele><time>2026-03-28T09:44:03.505Z</time></trkpt><trkpt lat="43.3612117" lon="11.929992"><ele>592.0</ele><time>2026-03-28T09:44:07.563Z</time></trkpt><trkpt lat="43.3612419" lon="11.9300859"><ele>592.0</ele><time>2026-03-28T09:44:11.536Z</time></trkpt><trkpt lat="43.3612918" lon="11.9301621"><ele>592.0</ele><time>2026-03-28T09:44:15.544Z</time></trkpt><trkpt lat="43.3613294" lon="11.9302398"><ele>592.0</ele><time>2026-03-28T09:44:19.539Z</time></trkpt><trkpt lat="43.36138" lon="11.9303153"><ele>592.0</ele><time>2026-03-28T09:44:24.518Z</time></trkpt><trkpt lat="43.3614203" lon="11.9303971"><ele>595.0</ele><time>2026-03-28T09:44:28.553Z</time></trkpt><trkpt lat="43.3614577" lon="11.9304831"><ele>598.0</ele><time>2026-03-28T09:44:32.468Z</time></trkpt><trkpt lat="43.3614444" lon="11.9305873"><ele>601.0</ele><time>2026-03-28T09:44:37.482Z</time></trkpt><trkpt lat="43.3614692" lon="11.9306756"><ele>604.0</ele><time>2026-03-28T09:44:43.522Z</time></trkpt><trkpt lat="43.3615302" lon="11.9307463"><ele>607.0</ele><time>2026-03-28T09:44:50.059Z</time></trkpt><trkpt lat="43.3615837" lon="11.9308139"><ele>610.0</ele><time>2026-03-28T09:44:54.549Z</time></trkpt><trkpt lat="43.361582" lon="11.9309033"><ele>613.0</ele><time>2026-03-28T09:44:58.526Z</time></trkpt><trkpt lat="43.3615651" lon="11.9309932"><ele>614.1428571428571</ele><time>2026-03-28T09:45:03.551Z</time></trkpt><trkpt lat="43.3615476" lon="11.9310922"><ele>615.2857142857142</ele><time>2026-03-28T09:45:08.472Z</time></trkpt><trkpt lat="43.3615594" lon="11.9311882"><ele>616.4285714285713</ele><time>2026-03-28T09:45:12.555Z</time></trkpt><trkpt lat="43.3615633" lon="11.931287"><ele>617.5714285714286</ele><time>2026-03-28T09:45:16.452Z</time></trkpt><trkpt lat="43.3615532" lon="11.9313815"><ele>618.7142857142857</ele><time>2026-03-28T09:45:21.575Z</time></trkpt><trkpt lat="43.3615468" lon="11.9314784"><ele>619.8571428571428</ele><time>2026-03-28T09:45:25.569Z</time></trkpt><trkpt lat="43.3615499" lon="11.931578"><ele>621.0</ele><time>2026-03-28T09:45:29.452Z</time></trkpt><trkpt lat="43.3615529" lon="11.9316712"><ele>621.9999999999999</ele><time>2026-03-28T09:45:33.532Z</time></trkpt><trkpt lat="43.361576" lon="11.9317661"><ele>623.0</ele><time>2026-03-28T09:45:37.55Z</time></trkpt><trkpt lat="43.3615971" lon="11.9318532"><ele>624.0</ele><time>2026-03-28T09:45:41.539Z</time></trkpt><trkpt lat="43.3616107" lon="11.931951"><ele>625.0</ele><time>2026-03-28T09:45:46.522Z</time></trkpt><trkpt lat="43.3616073" lon="11.9320508"><ele>626.0</ele><time>2026-03-28T09:45:51.664Z</time></trkpt><trkpt lat="43.3616213" lon="11.9321556"><ele>626.9999999999999</ele><time>2026-03-28T09:45:57.3Z</time></trkpt><trkpt lat="43.3615983" lon="11.9322423"><ele>628.0</ele><time>2026-03-28T09:46:01.452Z</time></trkpt><trkpt lat="43.3615692" lon="11.9323331"><ele>627.9999999999999</ele><time>2026-03-28T09:46:05.551Z</time></trkpt><trkpt lat="43.3615361" lon="11.9324212"><ele>628.0</ele><time>2026-03-28T09:46:09.556Z</time></trkpt><trkpt lat="43.3615212" lon="11.9325212"><ele>628.0</ele><time>2026-03-28T09:46:13.545Z</time></trkpt><trkpt lat="43.3615357" lon="11.9326064"><ele>628.0</ele><time>2026-03-28T09:46:17.554Z</time></trkpt><trkpt lat="43.3615494" lon="11.9327025"><ele>628.0</ele><time>2026-03-28T09:46:22.566Z</time></trkpt><trkpt lat="43.3614966" lon="11.9327796"><ele>627.9999999999999</ele><time>2026-03-28T09:46:27.572Z</time></trkpt><trkpt lat="43.3614571" lon="11.9328712"><ele>628.0</ele><time>2026-03-28T09:46:31.535Z</time></trkpt><trkpt lat="43.3614286" lon="11.9329695"><ele>629.1428571428571</ele><time>2026-03-28T09:46:36.533Z</time></trkpt><trkpt lat="43.3613935" lon="11.9330449"><ele>630.2857142857142</ele><time>2026-03-28T09:46:40.549Z</time></trkpt><trkpt lat="43.3613401" lon="11.9331083"><ele>631.4285714285713</ele><time>2026-03-28T09:46:45.474Z</time></trkpt><trkpt lat="43.3612834" lon="11.9331642"><ele>632.5714285714286</ele><time>2026-03-28T09:46:49.574Z</time></trkpt><trkpt lat="43.3612281" lon="11.9332259"><ele>633.7142857142858</ele><time>2026-03-28T09:46:53.56Z</time></trkpt><trkpt lat="43.3611753" lon="11.9332946"><ele>634.8571428571428</ele><time>2026-03-28T09:46:57.534Z</time></trkpt><trkpt lat="43.3611386" lon="11.9333882"><ele>636.0</ele><time>2026-03-28T09:47:02.542Z</time></trkpt><trkpt lat="43.3611323" lon="11.9334851"><ele>637.4285714285714</ele><time>2026-03-28T09:47:07.519Z</time></trkpt><trkpt lat="43.3611468" lon="11.9335708"><ele>638.8571428571429</ele><time>2026-03-28T09:47:12.539Z</time></trkpt><trkpt lat="43.3611536" lon="11.9336714"><ele>640.2857142857143</ele><time>2026-03-28T09:47:17.436Z</time></trkpt><trkpt lat="43.3611091" lon="11.9337514"><ele>641.7142857142858</ele><time>2026-03-28T09:47:22.542Z</time></trkpt><trkpt lat="43.3610813" lon="11.9338415"><ele>643.1428571428571</ele><time>2026-03-28T09:47:27.532Z</time></trkpt><trkpt lat="43.3610562" lon="11.9339354"><ele>644.5714285714287</ele><time>2026-03-28T09:47:32.474Z</time></trkpt><trkpt lat="43.361043" lon="11.9340276"><ele>646.0</ele><time>2026-03-28T09:47:36.536Z</time></trkpt><trkpt lat="43.3610473" lon="11.9341177"><ele>646.0000000000001</ele><time>2026-03-28T09:47:40.547Z</time></trkpt><trkpt lat="43.3610592" lon="11.9342138"><ele>646.0</ele><time>2026-03-28T09:47:45.571Z</time></trkpt><trkpt lat="43.3610815" lon="11.9342973"><ele>646.0</ele><time>2026-03-28T09:47:50.53Z</time></trkpt><trkpt lat="43.3611206" lon="11.934374"><ele>646.0</ele><time>2026-03-28T09:47:55.519Z</time></trkpt><trkpt lat="43.3611566" lon="11.9344622"><ele>646.0</ele><time>2026-03-28T09:48:00.5Z</time></trkpt><trkpt lat="43.3612039" lon="11.9345471"><ele>646.0000000000001</ele><time>2026-03-28T09:48:05.56Z</time></trkpt><trkpt lat="43.3612467" lon="11.9346203"><ele>646.0</ele><time>2026-03-28T09:48:09.557Z</time></trkpt><trkpt lat="43.361265" lon="11.9347103"><ele>646.0000000000001</ele><time>2026-03-28T09:48:14.558Z</time></trkpt><trkpt lat="43.3612938" lon="11.9348093"><ele>646.0</ele><time>2026-03-28T09:48:19.557Z</time></trkpt><trkpt lat="43.3613278" lon="11.9349075"><ele>646.0</ele><time>2026-03-28T09:48:24.551Z</time></trkpt><trkpt lat="43.3613597" lon="11.9349913"><ele>646.0</ele><time>2026-03-28T09:48:29.534Z</time></trkpt><trkpt lat="43.3613969" lon="11.9350839"><ele>646.0</ele><time>2026-03-28T09:48:34.498Z</time></trkpt><trkpt lat="43.361423" lon="11.9351695"><ele>646.0000000000001</ele><time>2026-03-28T09:48:38.567Z</time></trkpt><trkpt lat="43.3614526" lon="11.9352586"><ele>646.0</ele><time>2026-03-28T09:48:42.435Z</time></trkpt><trkpt lat="43.3614904" lon="11.9353337"><ele>648.7142857142858</ele><time>2026-03-28T09:48:46.532Z</time></trkpt><trkpt lat="43.361527" lon="11.9354055"><ele>651.4285714285714</ele><time>2026-03-28T09:48:50.507Z</time></trkpt><trkpt lat="43.3615705" lon="11.935484"><ele>654.1428571428571</ele><time>2026-03-28T09:48:55.521Z</time></trkpt><trkpt lat="43.3616176" lon="11.9355534"><ele>656.8571428571429</ele><time>2026-03-28T09:49:01.604Z</time></trkpt><trkpt lat="43.3616505" lon="11.9356435"><ele>659.5714285714286</ele><time>2026-03-28T09:49:07.533Z</time></trkpt><trkpt lat="43.3616782" lon="11.9357253"><ele>662.2857142857143</ele><time>2026-03-28T09:49:12.536Z</time></trkpt><trkpt lat="43.3617201" lon="11.9357923"><ele>665.0</ele><time>2026-03-28T09:49:17.533Z</time></trkpt><trkpt lat="43.36179" lon="11.9358391"><ele>666.0</ele><time>2026-03-28T09:49:22.577Z</time></trkpt><trkpt lat="43.3618331" lon="11.9359084"><ele>667.0</ele><time>2026-03-28T09:49:27.551Z</time></trkpt><trkpt lat="43.3618769" lon="11.9359879"><ele>668.0</ele><time>2026-03-28T09:49:33.522Z</time></trkpt><trkpt lat="43.3619167" lon="11.936057"><ele>669.0</ele><time>2026-03-28T09:49:38.539Z</time></trkpt><trkpt lat="43.3619513" lon="11.93613"><ele>670.0</ele><time>2026-03-28T09:49:44.576Z</time></trkpt><trkpt lat="43.3619687" lon="11.9362151"><ele>671.0</ele><time>2026-03-28T09:49:51.527Z</time></trkpt><trkpt lat="43.3619958" lon="11.9362974"><ele>672.0</ele><time>2026-03-28T09:49:57.553Z</time></trkpt><trkpt lat="43.362027" lon="11.9363745"><ele>672.0</ele><time>2026-03-28T09:50:03.58Z</time></trkpt><trkpt lat="43.3620639" lon="11.9364546"><ele>672.0</ele><time>2026-03-28T09:50:09.557Z</time></trkpt><trkpt lat="43.3621047" lon="11.9365427"><ele>672.0</ele><time>2026-03-28T09:50:15.569Z</time></trkpt><trkpt lat="43.3621405" lon="11.9366172"><ele>672.0</ele><time>2026-03-28T09:50:20.452Z</time></trkpt><trkpt lat="43.3621828" lon="11.9366815"><ele>672.0</ele><time>2026-03-28T09:50:25.538Z</time></trkpt><trkpt lat="43.3622165" lon="11.9367614"><ele>672.0</ele><time>2026-03-28T09:50:30.577Z</time></trkpt><trkpt lat="43.3622394" lon="11.9368446"><ele>672.0</ele><time>2026-03-28T09:50:35.543Z</time></trkpt><trkpt lat="43.3622563" lon="11.9369308"><ele>674.5714285714286</ele><time>2026-03-28T09:50:40.549Z</time></trkpt><trkpt lat="43.3622922" lon="11.9370174"><ele>677.1428571428571</ele><time>2026-03-28T09:50:45.533Z</time></trkpt><trkpt lat="43.3623224" lon="11.9371118"><ele>679.7142857142858</ele><time>2026-03-28T09:50:51.458Z</time></trkpt><trkpt lat="43.3623483" lon="11.9371987"><ele>682.2857142857142</ele><time>2026-03-28T09:50:56.544Z</time></trkpt><trkpt lat="43.3623908" lon="11.9372882"><ele>684.8571428571429</ele><time>2026-03-28T09:51:01.934Z</time></trkpt><trkpt lat="43.3624258" lon="11.9373667"><ele>687.4285714285714</ele><time>2026-03-28T09:51:06.601Z</time></trkpt><trkpt lat="43.3624582" lon="11.9374498"><ele>690.0</ele><time>2026-03-28T09:51:12.515Z</time></trkpt><trkpt lat="43.3624956" lon="11.9375416"><ele>690.0</ele><time>2026-03-28T09:51:18.58Z</time></trkpt><trkpt lat="43.3625472" lon="11.9376298"><ele>690.0</ele><time>2026-03-28T09:51:23.489Z</time></trkpt><trkpt lat="43.3625992" lon="11.9376985"><ele>690.0</ele><time>2026-03-28T09:51:27.536Z</time></trkpt><trkpt lat="43.3626283" lon="11.9377772"><ele>690.0</ele><time>2026-03-28T09:51:31.508Z</time></trkpt><trkpt lat="43.362663" lon="11.9378617"><ele>690.0</ele><time>2026-03-28T09:51:36.529Z</time></trkpt><trkpt lat="43.3627031" lon="11.9379402"><ele>690.0</ele><time>2026-03-28T09:51:41.462Z</time></trkpt><trkpt lat="43.3627605" lon="11.9379809"><ele>690.0</ele><time>2026-03-28T09:51:45.288Z</time></trkpt><trkpt lat="43.362822" lon="11.9380344"><ele>690.0</ele><time>2026-03-28T09:51:49.492Z</time></trkpt><trkpt lat="43.3628737" lon="11.9380901"><ele>690.0</ele><time>2026-03-28T09:51:54.464Z</time></trkpt><trkpt lat="43.3629253" lon="11.9381432"><ele>690.0</ele><time>2026-03-28T09:52:00.444Z</time></trkpt><trkpt lat="43.3629811" lon="11.9382219"><ele>690.0</ele><time>2026-03-28T09:52:06.561Z</time></trkpt><trkpt lat="43.3630377" lon="11.9383045"><ele>690.0</ele><time>2026-03-28T09:52:12.527Z</time></trkpt><trkpt lat="43.3630918" lon="11.9383647"><ele>690.0</ele><time>2026-03-28T09:52:17.549Z</time></trkpt><trkpt lat="43.3631463" lon="11.9384245"><ele>690.0</ele><time>2026-03-28T09:52:22.547Z</time></trkpt><trkpt lat="43.3632027" lon="11.9384771"><ele>691.5714285714286</ele><time>2026-03-28T09:52:27.553Z</time></trkpt><trkpt lat="43.3632545" lon="11.9385315"><ele>693.1428571428571</ele><time>2026-03-28T09:52:32.164Z</time></trkpt><trkpt lat="43.363293" lon="11.9386208"><ele>694.7142857142858</ele><time>2026-03-28T09:52:38.465Z</time></trkpt><trkpt lat="43.363339" lon="11.9386901"><ele>696.2857142857142</ele><time>2026-03-28T09:52:43.552Z</time></trkpt><trkpt lat="43.3633966" lon="11.9387636"><ele>697.8571428571428</ele><time>2026-03-28T09:52:48.519Z</time></trkpt><trkpt lat="43.3634387" lon="11.9388296"><ele>699.4285714285714</ele><time>2026-03-28T09:52:52.555Z</time></trkpt><trkpt lat="43.363498" lon="11.9388998"><ele>701.0</ele><time>2026-03-28T09:52:57.456Z</time></trkpt><trkpt lat="43.3635639" lon="11.9389025"><ele>701.0</ele><time>2026-03-28T09:53:01.55Z</time></trkpt><trkpt lat="43.3636387" lon="11.9388773"><ele>701.0</ele><time>2026-03-28T09:53:06.546Z</time></trkpt><trkpt lat="43.3637036" lon="11.9388862"><ele>701.0</ele><time>2026-03-28T09:53:10.533Z</time></trkpt><trkpt lat="43.3637639" lon="11.9389123"><ele>701.0</ele><time>2026-03-28T09:53:14.54Z</time></trkpt><trkpt lat="43.3638339" lon="11.9388995"><ele>701.0</ele><time>2026-03-28T09:53:18.52Z</time></trkpt><trkpt lat="43.363897" lon="11.9388922"><ele>701.0</ele><time>2026-03-28T09:53:22.538Z</time></trkpt><trkpt lat="43.3639755" lon="11.938907"><ele>701.0</ele><time>2026-03-28T09:53:28.567Z</time></trkpt><trkpt lat="43.3640504" lon="11.9389106"><ele>704.0</ele><time>2026-03-28T09:53:33.55Z</time></trkpt><trkpt lat="43.3641035" lon="11.9389599"><ele>707.0</ele><time>2026-03-28T09:53:38.583Z</time></trkpt><trkpt lat="43.3641644" lon="11.9389875"><ele>710.0</ele><time>2026-03-28T09:53:45.533Z</time></trkpt><trkpt lat="43.3642257" lon="11.9390262"><ele>713.0</ele><time>2026-03-28T09:53:50.547Z</time></trkpt><trkpt lat="43.3642971" lon="11.9390425"><ele>716.0</ele><time>2026-03-28T09:53:57.564Z</time></trkpt><trkpt lat="43.3643691" lon="11.9390472"><ele>719.0</ele><time>2026-03-28T09:54:05.537Z</time></trkpt><trkpt lat="43.364437" lon="11.9390475"><ele>722.0</ele><time>2026-03-28T09:54:12.561Z</time></trkpt><trkpt lat="43.3644987" lon="11.9390666"><ele>722.0</ele><time>2026-03-28T09:54:18.546Z</time></trkpt><trkpt lat="43.3645649" lon="11.9390284"><ele>722.0</ele><time>2026-03-28T09:54:24.523Z</time></trkpt><trkpt lat="43.3646277" lon="11.9390211"><ele>722.0</ele><time>2026-03-28T09:54:28.521Z</time></trkpt><trkpt lat="43.3646932" lon="11.9389937"><ele>722.0</ele><time>2026-03-28T09:54:34.557Z</time></trkpt><trkpt lat="43.3647425" lon="11.9389289"><ele>722.0</ele><time>2026-03-28T09:54:39.559Z</time></trkpt><trkpt lat="43.3647629" lon="11.9388367"><ele>722.0</ele><time>2026-03-28T09:54:44.537Z</time></trkpt><trkpt lat="43.3648111" lon="11.9387777"><ele>722.0</ele><time>2026-03-28T09:54:49.535Z</time></trkpt><trkpt lat="43.3648622" lon="11.9387157"><ele>724.8571428571429</ele><time>2026-03-28T09:54:54.546Z</time></trkpt><trkpt lat="43.3648909" lon="11.9386251"><ele>727.7142857142857</ele><time>2026-03-28T09:55:00.536Z</time></trkpt><trkpt lat="43.3649523" lon="11.9385772"><ele>730.5714285714286</ele><time>2026-03-28T09:55:07.551Z</time></trkpt><trkpt lat="43.3648917" lon="11.9386147"><ele>733.4285714285714</ele><time>2026-03-28T09:55:58.484Z</time></trkpt><trkpt lat="43.3649201" lon="11.9386981"><ele>736.2857142857142</ele><time>2026-03-28T09:56:05.541Z</time></trkpt><trkpt lat="43.364991" lon="11.9387028"><ele>739.1428571428571</ele><time>2026-03-28T09:56:10.551Z</time></trkpt><trkpt lat="43.3650618" lon="11.9386924"><ele>742.0</ele><time>2026-03-28T09:56:14.534Z</time></trkpt><trkpt lat="43.3651311" lon="11.9386664"><ele>742.0</ele><time>2026-03-28T09:56:18.447Z</time></trkpt><trkpt lat="43.3652005" lon="11.9386542"><ele>742.0</ele><time>2026-03-28T09:56:22.551Z</time></trkpt><trkpt lat="43.3652854" lon="11.938629"><ele>742.0</ele><time>2026-03-28T09:56:26.597Z</time></trkpt><trkpt lat="43.3653556" lon="11.9386216"><ele>742.0</ele><time>2026-03-28T09:56:29.51Z</time></trkpt><trkpt lat="43.3654279" lon="11.9386315"><ele>742.0</ele><time>2026-03-28T09:56:32.529Z</time></trkpt><trkpt lat="43.3654902" lon="11.9386506"><ele>742.0</ele><time>2026-03-28T09:56:35.549Z</time></trkpt><trkpt lat="43.3655685" lon="11.9386816"><ele>742.0</ele><time>2026-03-28T09:56:39.486Z</time></trkpt><trkpt lat="43.365639" lon="11.9387036"><ele>742.8571428571429</ele><time>2026-03-28T09:56:43.566Z</time></trkpt><trkpt lat="43.365703" lon="11.9387633"><ele>743.7142857142858</ele><time>2026-03-28T09:56:47.553Z</time></trkpt><trkpt lat="43.3657639" lon="11.9387995"><ele>744.5714285714286</ele><time>2026-03-28T09:56:50.561Z</time></trkpt><trkpt lat="43.365823" lon="11.9388414"><ele>745.4285714285714</ele><time>2026-03-28T09:56:53.558Z</time></trkpt><trkpt lat="43.3658878" lon="11.9388913"><ele>746.2857142857143</ele><time>2026-03-28T09:56:56.565Z</time></trkpt><trkpt lat="43.3659661" lon="11.9389353"><ele>747.1428571428571</ele><time>2026-03-28T09:56:59.563Z</time></trkpt><trkpt lat="43.3660276" lon="11.9389694"><ele>748.0</ele><time>2026-03-28T09:57:01.548Z</time></trkpt><trkpt lat="43.3661105" lon="11.9389991"><ele>748.0</ele><time>2026-03-28T09:57:04.502Z</time></trkpt><trkpt lat="43.3661832" lon="11.9390069"><ele>748.0</ele><time>2026-03-28T09:57:07.532Z</time></trkpt><trkpt lat="43.366263" lon="11.9390167"><ele>748.0</ele><time>2026-03-28T09:57:11.506Z</time></trkpt><trkpt lat="43.3663377" lon="11.9390232"><ele>748.0</ele><time>2026-03-28T09:57:17.527Z</time></trkpt><trkpt lat="43.366406" lon="11.9390244"><ele>748.0</ele><time>2026-03-28T09:57:25.543Z</time></trkpt><trkpt lat="43.3664823" lon="11.9390416"><ele>748.0</ele><time>2026-03-28T09:57:30.53Z</time></trkpt><trkpt lat="43.3665495" lon="11.9390421"><ele>748.0</ele><time>2026-03-28T09:57:35.547Z</time></trkpt><trkpt lat="43.3666091" lon="11.9390712"><ele>747.2857142857142</ele><time>2026-03-28T09:57:40.543Z</time></trkpt><trkpt lat="43.3666712" lon="11.9390967"><ele>746.5714285714287</ele><time>2026-03-28T09:57:45.544Z</time></trkpt><trkpt lat="43.3667482" lon="11.9391081"><ele>745.8571428571429</ele><time>2026-03-28T09:57:51.559Z</time></trkpt><trkpt lat="43.3668114" lon="11.9391092"><ele>745.1428571428571</ele><time>2026-03-28T09:57:59.538Z</time></trkpt><trkpt lat="43.3668776" lon="11.9391176"><ele>744.4285714285713</ele><time>2026-03-28T09:58:05.544Z</time></trkpt><trkpt lat="43.3669551" lon="11.9391065"><ele>743.7142857142858</ele><time>2026-03-28T09:58:12.502Z</time></trkpt><trkpt lat="43.3670185" lon="11.9390723"><ele>743.0</ele><time>2026-03-28T09:58:18.498Z</time></trkpt><trkpt lat="43.367085" lon="11.939054"><ele>743.0</ele><time>2026-03-28T09:58:23.541Z</time></trkpt><trkpt lat="43.3671532" lon="11.9390482"><ele>743.0</ele><time>2026-03-28T09:58:28.545Z</time></trkpt><trkpt lat="43.3672283" lon="11.9390554"><ele>743.0</ele><time>2026-03-28T09:58:34.535Z</time></trkpt><trkpt lat="43.3672913" lon="11.9390776"><ele>743.0</ele><time>2026-03-28T09:58:39.538Z</time></trkpt><trkpt lat="43.3673661" lon="11.9390859"><ele>743.0</ele><time>2026-03-28T09:58:45.573Z</time></trkpt><trkpt lat="43.3674316" lon="11.9390456"><ele>743.0</ele><time>2026-03-28T09:58:50.508Z</time></trkpt><trkpt lat="43.3674979" lon="11.9390439"><ele>743.0</ele><time>2026-03-28T09:58:53.465Z</time></trkpt><trkpt lat="43.3675648" lon="11.9390721"><ele>743.0</ele><time>2026-03-28T09:58:56.542Z</time></trkpt><trkpt lat="43.367632" lon="11.9391088"><ele>743.0</ele><time>2026-03-28T09:59:01.543Z</time></trkpt><trkpt lat="43.3677056" lon="11.9391124"><ele>743.0</ele><time>2026-03-28T09:59:07.55Z</time></trkpt><trkpt lat="43.3677696" lon="11.9391251"><ele>743.0</ele><time>2026-03-28T09:59:11.543Z</time></trkpt><trkpt lat="43.3678423" lon="11.93909"><ele>743.0</ele><time>2026-03-28T09:59:15.553Z</time></trkpt><trkpt lat="43.3679001" lon="11.9390276"><ele>743.0</ele><time>2026-03-28T09:59:18.546Z</time></trkpt><trkpt lat="43.3679368" lon="11.9389444"><ele>743.0</ele><time>2026-03-28T09:59:21.519Z</time></trkpt><trkpt lat="43.3679736" lon="11.9388498"><ele>741.1666666666666</ele><time>2026-03-28T09:59:24.531Z</time></trkpt><trkpt lat="43.3680529" lon="11.938851"><ele>739.3333333333333</ele><time>2026-03-28T09:59:27.561Z</time></trkpt><trkpt lat="43.3681264" lon="11.9388713"><ele>737.5</ele><time>2026-03-28T09:59:30.538Z</time></trkpt><trkpt lat="43.3682096" lon="11.9388465"><ele>735.6666666666666</ele><time>2026-03-28T09:59:33.55Z</time></trkpt><trkpt lat="43.3682919" lon="11.9388541"><ele>733.8333333333334</ele><time>2026-03-28T09:59:36.55Z</time></trkpt><trkpt lat="43.368377" lon="11.9388304"><ele>732.0</ele><time>2026-03-28T09:59:39.542Z</time></trkpt><trkpt lat="43.3684591" lon="11.938809"><ele>732.0</ele><time>2026-03-28T09:59:42.545Z</time></trkpt><trkpt lat="43.3685221" lon="11.938783"><ele>732.0</ele><time>2026-03-28T09:59:45.101Z</time></trkpt><trkpt lat="43.3685948" lon="11.9387912"><ele>732.0</ele><time>2026-03-28T09:59:49.551Z</time></trkpt><trkpt lat="43.3686517" lon="11.9387513"><ele>732.0</ele><time>2026-03-28T09:59:54.517Z</time></trkpt><trkpt lat="43.3687122" lon="11.938716"><ele>732.0</ele><time>2026-03-28T09:59:59.553Z</time></trkpt><trkpt lat="43.3687725" lon="11.9386896"><ele>732.0</ele><time>2026-03-28T10:00:04.526Z</time></trkpt><trkpt lat="43.368834" lon="11.9386521"><ele>732.0</ele><time>2026-03-28T10:00:09.55Z</time></trkpt><trkpt lat="43.3688985" lon="11.9386309"><ele>732.0</ele><time>2026-03-28T10:00:14.546Z</time></trkpt><trkpt lat="43.3689595" lon="11.9386058"><ele>732.0</ele><time>2026-03-28T10:00:19.551Z</time></trkpt><trkpt lat="43.369024" lon="11.9385777"><ele>732.0</ele><time>2026-03-28T10:00:24.553Z</time></trkpt><trkpt lat="43.3690908" lon="11.9385632"><ele>732.0</ele><time>2026-03-28T10:00:29.559Z</time></trkpt><trkpt lat="43.3691593" lon="11.938521"><ele>732.0</ele><time>2026-03-28T10:00:34.546Z</time></trkpt><trkpt lat="43.3692214" lon="11.9384704"><ele>732.0</ele><time>2026-03-28T10:00:39.543Z</time></trkpt><trkpt lat="43.3692716" lon="11.9384098"><ele>732.0</ele><time>2026-03-28T10:00:44.532Z</time></trkpt><trkpt lat="43.3693402" lon="11.9383981"><ele>731.4285714285714</ele><time>2026-03-28T10:00:49.531Z</time></trkpt><trkpt lat="43.3694057" lon="11.9383777"><ele>730.8571428571429</ele><time>2026-03-28T10:00:54.53Z</time></trkpt><trkpt lat="43.3694834" lon="11.9383449"><ele>730.2857142857142</ele><time>2026-03-28T10:00:58.537Z</time></trkpt><trkpt lat="43.3695456" lon="11.9383248"><ele>729.7142857142858</ele><time>2026-03-28T10:01:01.549Z</time></trkpt><trkpt lat="43.3696288" lon="11.9383446"><ele>729.1428571428571</ele><time>2026-03-28T10:01:05.486Z</time></trkpt><trkpt lat="43.3696924" lon="11.9383583"><ele>728.5714285714286</ele><time>2026-03-28T10:01:08.547Z</time></trkpt><trkpt lat="43.3697276" lon="11.9384424"><ele>728.0</ele><time>2026-03-28T10:01:11.536Z</time></trkpt><trkpt lat="43.3698026" lon="11.9384759"><ele>728.0</ele><time>2026-03-28T10:01:15.536Z</time></trkpt><trkpt lat="43.3698682" lon="11.9384587"><ele>728.0</ele><time>2026-03-28T10:01:20.548Z</time></trkpt><trkpt lat="43.3699209" lon="11.9385098"><ele>728.0</ele><time>2026-03-28T10:01:25.541Z</time></trkpt><trkpt lat="43.3699631" lon="11.9385906"><ele>728.0</ele><time>2026-03-28T10:01:31.524Z</time></trkpt><trkpt lat="43.370037" lon="11.9386058"><ele>728.0</ele><time>2026-03-28T10:01:37.541Z</time></trkpt><trkpt lat="43.3701092" lon="11.938583"><ele>728.0</ele><time>2026-03-28T10:01:43.542Z</time></trkpt><trkpt lat="43.37018" lon="11.9385577"><ele>728.0</ele><time>2026-03-28T10:01:49.544Z</time></trkpt><trkpt lat="43.3702385" lon="11.9385187"><ele>728.0</ele><time>2026-03-28T10:01:54.531Z</time></trkpt><trkpt lat="43.3702954" lon="11.9384498"><ele>728.0</ele><time>2026-03-28T10:02:00.549Z</time></trkpt><trkpt lat="43.3703373" lon="11.9383729"><ele>728.0</ele><time>2026-03-28T10:02:06.563Z</time></trkpt><trkpt lat="43.3704055" lon="11.9383371"><ele>728.0</ele><time>2026-03-28T10:02:12.531Z</time></trkpt><trkpt lat="43.3704619" lon="11.9382911"><ele>728.0</ele><time>2026-03-28T10:02:17.541Z</time></trkpt><trkpt lat="43.3705188" lon="11.9382488"><ele>728.0</ele><time>2026-03-28T10:02:22.537Z</time></trkpt><trkpt lat="43.3705836" lon="11.9382009"><ele>728.0</ele><time>2026-03-28T10:02:28.55Z</time></trkpt><trkpt lat="43.3706539" lon="11.9381789"><ele>727.5714285714286</ele><time>2026-03-28T10:02:34.54Z</time></trkpt><trkpt lat="43.37072" lon="11.9381704"><ele>727.1428571428571</ele><time>2026-03-28T10:02:39.557Z</time></trkpt><trkpt lat="43.3707928" lon="11.9381684"><ele>726.7142857142858</ele><time>2026-03-28T10:02:44.542Z</time></trkpt><trkpt lat="43.3708616" lon="11.9381959"><ele>726.2857142857142</ele><time>2026-03-28T10:02:49.543Z</time></trkpt><trkpt lat="43.3709291" lon="11.9382067"><ele>725.8571428571429</ele><time>2026-03-28T10:02:54.545Z</time></trkpt><trkpt lat="43.3709925" lon="11.9382471"><ele>725.4285714285714</ele><time>2026-03-28T10:02:59.551Z</time></trkpt><trkpt lat="43.3710619" lon="11.9382578"><ele>725.0</ele><time>2026-03-28T10:03:04.551Z</time></trkpt><trkpt lat="43.3711324" lon="11.9382696"><ele>725.0</ele><time>2026-03-28T10:03:09.552Z</time></trkpt><trkpt lat="43.3712005" lon="11.9382888"><ele>725.0</ele><time>2026-03-28T10:03:14.546Z</time></trkpt><trkpt lat="43.3712669" lon="11.9382975"><ele>725.0</ele><time>2026-03-28T10:03:19.556Z</time></trkpt><trkpt lat="43.371333" lon="11.9383107"><ele>725.0</ele><time>2026-03-28T10:03:24.525Z</time></trkpt><trkpt lat="43.3713947" lon="11.9383674"><ele>725.0</ele><time>2026-03-28T10:03:29.563Z</time></trkpt><trkpt lat="43.3714668" lon="11.9384028"><ele>725.0</ele><time>2026-03-28T10:03:35.553Z</time></trkpt><trkpt lat="43.3715238" lon="11.9383417"><ele>725.0</ele><time>2026-03-28T10:03:40.547Z</time></trkpt><trkpt lat="43.3715744" lon="11.9382726"><ele>724.3333333333333</ele><time>2026-03-28T10:03:45.533Z</time></trkpt><trkpt lat="43.3716371" lon="11.9382636"><ele>723.6666666666666</ele><time>2026-03-28T10:03:50.518Z</time></trkpt><trkpt lat="43.3717014" lon="11.9382267"><ele>723.0</ele><time>2026-03-28T10:04:04.46Z</time></trkpt><trkpt lat="43.3717018" lon="11.9383384"><ele>722.3333333333334</ele><time>2026-03-28T10:04:33.549Z</time></trkpt><trkpt lat="43.371714" lon="11.9382276"><ele>721.6666666666667</ele><time>2026-03-28T10:04:45.543Z</time></trkpt><trkpt lat="43.3717942" lon="11.9381738"><ele>721.0</ele><time>2026-03-28T10:04:48.529Z</time></trkpt><trkpt lat="43.3718597" lon="11.9381332"><ele>721.0</ele><time>2026-03-28T10:04:51.46Z</time></trkpt><trkpt lat="43.3719246" lon="11.9380865"><ele>721.0</ele><time>2026-03-28T10:04:54.555Z</time></trkpt><trkpt lat="43.3719915" lon="11.9380683"><ele>721.0</ele><time>2026-03-28T10:04:58.53Z</time></trkpt><trkpt lat="43.3720546" lon="11.9380763"><ele>721.0</ele><time>2026-03-28T10:05:03.541Z</time></trkpt><trkpt lat="43.3721192" lon="11.9380672"><ele>721.0</ele><time>2026-03-28T10:05:09.539Z</time></trkpt><trkpt lat="43.3721885" lon="11.9380337"><ele>721.0</ele><time>2026-03-28T10:05:17.554Z</time></trkpt><trkpt lat="43.3722511" lon="11.9379935"><ele>721.0</ele><time>2026-03-28T10:05:22.487Z</time></trkpt><trkpt lat="43.372317" lon="11.9379539"><ele>723.4285714285714</ele><time>2026-03-28T10:05:27.511Z</time></trkpt><trkpt lat="43.3723816" lon="11.9379317"><ele>725.8571428571429</ele><time>2026-03-28T10:05:32.553Z</time></trkpt><trkpt lat="43.3724359" lon="11.9378861"><ele>728.2857142857142</ele><time>2026-03-28T10:05:36.565Z</time></trkpt><trkpt lat="43.3725162" lon="11.9378606"><ele>730.7142857142858</ele><time>2026-03-28T10:05:41.469Z</time></trkpt><trkpt lat="43.3725756" lon="11.9378313"><ele>733.1428571428571</ele><time>2026-03-28T10:05:45.542Z</time></trkpt><trkpt lat="43.3726284" lon="11.9377721"><ele>735.5714285714286</ele><time>2026-03-28T10:05:49.527Z</time></trkpt><trkpt lat="43.3727035" lon="11.9377415"><ele>738.0</ele><time>2026-03-28T10:05:53.557Z</time></trkpt><trkpt lat="43.3727458" lon="11.9378159"><ele>738.0</ele><time>2026-03-28T10:05:57.494Z</time></trkpt><trkpt lat="43.372788" lon="11.9378894"><ele>738.0</ele><time>2026-03-28T10:06:02.542Z</time></trkpt><trkpt lat="43.3728301" lon="11.9379544"><ele>738.0</ele><time>2026-03-28T10:06:07.554Z</time></trkpt><trkpt lat="43.372879" lon="11.9380297"><ele>738.0</ele><time>2026-03-28T10:06:13.525Z</time></trkpt><trkpt lat="43.3729004" lon="11.9381274"><ele>738.0</ele><time>2026-03-28T10:06:23.543Z</time></trkpt><trkpt lat="43.3729147" lon="11.9382269"><ele>738.0</ele><time>2026-03-28T10:06:29.464Z</time></trkpt><trkpt lat="43.3729427" lon="11.9383115"><ele>738.0</ele><time>2026-03-28T10:06:34.504Z</time></trkpt><trkpt lat="43.3729834" lon="11.9383995"><ele>740.1428571428571</ele><time>2026-03-28T10:06:40.554Z</time></trkpt><trkpt lat="43.3730345" lon="11.9384644"><ele>742.2857142857142</ele><time>2026-03-28T10:06:46.226Z</time></trkpt><trkpt lat="43.373079" lon="11.9385358"><ele>744.4285714285714</ele><time>2026-03-28T10:06:50.533Z</time></trkpt><trkpt lat="43.3731077" lon="11.9386302"><ele>746.5714285714286</ele><time>2026-03-28T10:06:57.557Z</time></trkpt><trkpt lat="43.3731469" lon="11.9387045"><ele>748.7142857142858</ele><time>2026-03-28T10:07:02.55Z</time></trkpt><trkpt lat="43.3731734" lon="11.9387832"><ele>750.8571428571429</ele><time>2026-03-28T10:07:06.462Z</time></trkpt><trkpt lat="43.373184" lon="11.9388829"><ele>753.0</ele><time>2026-03-28T10:07:11.526Z</time></trkpt><trkpt lat="43.3732266" lon="11.9389545"><ele>753.0</ele><time>2026-03-28T10:07:16.508Z</time></trkpt><trkpt lat="43.3732839" lon="11.9390207"><ele>753.0</ele><time>2026-03-28T10:07:21.508Z</time></trkpt><trkpt lat="43.373345" lon="11.9390567"><ele>753.0</ele><time>2026-03-28T10:07:26.509Z</time></trkpt><trkpt lat="43.3734168" lon="11.939071"><ele>753.0</ele><time>2026-03-28T10:07:32.531Z</time></trkpt><trkpt lat="43.3734917" lon="11.9390788"><ele>753.0</ele><time>2026-03-28T10:07:37.505Z</time></trkpt><trkpt lat="43.3735686" lon="11.9391073"><ele>753.0</ele><time>2026-03-28T10:07:42.483Z</time></trkpt><trkpt lat="43.3736381" lon="11.9391192"><ele>753.0</ele><time>2026-03-28T10:07:46.565Z</time></trkpt><trkpt lat="43.3737082" lon="11.9391302"><ele>753.0</ele><time>2026-03-28T10:07:50.557Z</time></trkpt><trkpt lat="43.3737766" lon="11.9391585"><ele>753.0</ele><time>2026-03-28T10:07:54.541Z</time></trkpt><trkpt lat="43.3738354" lon="11.9392057"><ele>753.0</ele><time>2026-03-28T10:07:58.527Z</time></trkpt><trkpt lat="43.3739054" lon="11.939242"><ele>753.0</ele><time>2026-03-28T10:08:03.571Z</time></trkpt><trkpt lat="43.3739685" lon="11.9392661"><ele>753.0</ele><time>2026-03-28T10:08:07.56Z</time></trkpt><trkpt lat="43.3740367" lon="11.9392716"><ele>753.0</ele><time>2026-03-28T10:08:11.567Z</time></trkpt><trkpt lat="43.3741087" lon="11.9393282"><ele>753.0</ele><time>2026-03-28T10:08:15.543Z</time></trkpt><trkpt lat="43.3741333" lon="11.9394113"><ele>754.1428571428571</ele><time>2026-03-28T10:08:19.54Z</time></trkpt><trkpt lat="43.3741939" lon="11.9394825"><ele>755.2857142857143</ele><time>2026-03-28T10:08:24.547Z</time></trkpt><trkpt lat="43.3742572" lon="11.939479"><ele>756.4285714285713</ele><time>2026-03-28T10:08:27.536Z</time></trkpt><trkpt lat="43.374326" lon="11.9395112"><ele>757.5714285714286</ele><time>2026-03-28T10:08:31.508Z</time></trkpt><trkpt lat="43.3743789" lon="11.9395638"><ele>758.7142857142857</ele><time>2026-03-28T10:08:35.545Z</time></trkpt><trkpt lat="43.3744404" lon="11.9396221"><ele>759.8571428571428</ele><time>2026-03-28T10:08:40.502Z</time></trkpt><trkpt lat="43.3745038" lon="11.9396221"><ele>761.0</ele><time>2026-03-28T10:08:45.55Z</time></trkpt><trkpt lat="43.3745449" lon="11.9395557"><ele>760.9999999999999</ele><time>2026-03-28T10:08:49.505Z</time></trkpt><trkpt lat="43.3746057" lon="11.9395144"><ele>761.0</ele><time>2026-03-28T10:08:53.54Z</time></trkpt><trkpt lat="43.3746751" lon="11.9395316"><ele>761.0</ele><time>2026-03-28T10:08:57.557Z</time></trkpt><trkpt lat="43.3747507" lon="11.9394978"><ele>761.0</ele><time>2026-03-28T10:09:01.552Z</time></trkpt><trkpt lat="43.3748143" lon="11.939505"><ele>761.0</ele><time>2026-03-28T10:09:04.55Z</time></trkpt><trkpt lat="43.3748802" lon="11.9394818"><ele>760.9999999999999</ele><time>2026-03-28T10:09:07.548Z</time></trkpt><trkpt lat="43.3749526" lon="11.9394385"><ele>761.0</ele><time>2026-03-28T10:09:11.559Z</time></trkpt><trkpt lat="43.37501" lon="11.9393757"><ele>761.2857142857142</ele><time>2026-03-28T10:09:15.485Z</time></trkpt><trkpt lat="43.3750624" lon="11.9393123"><ele>761.5714285714286</ele><time>2026-03-28T10:09:21.551Z</time></trkpt><trkpt lat="43.3751331" lon="11.9392805"><ele>761.8571428571429</ele><time>2026-03-28T10:09:24.545Z</time></trkpt><trkpt lat="43.3751811" lon="11.9392057"><ele>762.1428571428571</ele><time>2026-03-28T10:09:27.56Z</time></trkpt><trkpt lat="43.3752333" lon="11.9391251"><ele>762.4285714285714</ele><time>2026-03-28T10:09:31.539Z</time></trkpt><trkpt lat="43.3752984" lon="11.9390741"><ele>762.7142857142857</ele><time>2026-03-28T10:09:35.555Z</time></trkpt><trkpt lat="43.3753681" lon="11.9390751"><ele>763.0</ele><time>2026-03-28T10:09:38.579Z</time></trkpt><trkpt lat="43.3754503" lon="11.9390339"><ele>763.0</ele><time>2026-03-28T10:09:42.485Z</time></trkpt><trkpt lat="43.3755085" lon="11.9389665"><ele>763.0</ele><time>2026-03-28T10:09:45.559Z</time></trkpt><trkpt lat="43.3755732" lon="11.9389241"><ele>763.0</ele><time>2026-03-28T10:09:48.507Z</time></trkpt><trkpt lat="43.3756485" lon="11.9388874"><ele>763.0</ele><time>2026-03-28T10:09:51.555Z</time></trkpt><trkpt lat="43.3757254" lon="11.938849"><ele>763.0</ele><time>2026-03-28T10:09:54.562Z</time></trkpt><trkpt lat="43.3757915" lon="11.9387875"><ele>763.0</ele><time>2026-03-28T10:09:57.574Z</time></trkpt><trkpt lat="43.3758605" lon="11.9387589"><ele>761.7142857142857</ele><time>2026-03-28T10:10:00.531Z</time></trkpt><trkpt lat="43.3759341" lon="11.9387053"><ele>760.4285714285714</ele><time>2026-03-28T10:10:04.562Z</time></trkpt><trkpt lat="43.3759952" lon="11.9386701"><ele>759.1428571428571</ele><time>2026-03-28T10:10:08.566Z</time></trkpt><trkpt lat="43.3760669" lon="11.9386919"><ele>757.8571428571429</ele><time>2026-03-28T10:10:13.528Z</time></trkpt><trkpt lat="43.3761345" lon="11.9386962"><ele>756.5714285714286</ele><time>2026-03-28T10:10:18.545Z</time></trkpt><trkpt lat="43.3761692" lon="11.9386234"><ele>755.2857142857142</ele><time>2026-03-28T10:10:22.574Z</time></trkpt><trkpt lat="43.3762317" lon="11.9385857"><ele>754.0</ele><time>2026-03-28T10:10:27.567Z</time></trkpt><trkpt lat="43.3762952" lon="11.9385876"><ele>754.9999999999999</ele><time>2026-03-28T10:10:32.545Z</time></trkpt><trkpt lat="43.37636" lon="11.9385555"><ele>756.0</ele><time>2026-03-28T10:10:38.536Z</time></trkpt><trkpt lat="43.3764263" lon="11.9385191"><ele>757.0</ele><time>2026-03-28T10:10:43.484Z</time></trkpt><trkpt lat="43.3764886" lon="11.9384972"><ele>758.0</ele><time>2026-03-28T10:10:48.558Z</time></trkpt><trkpt lat="43.3765442" lon="11.9384393"><ele>759.0</ele><time>2026-03-28T10:10:53.57Z</time></trkpt><trkpt lat="43.3766164" lon="11.9384031"><ele>759.9999999999999</ele><time>2026-03-28T10:10:58.559Z</time></trkpt><trkpt lat="43.3766821" lon="11.9383537"><ele>761.0</ele><time>2026-03-28T10:11:02.322Z</time></trkpt><trkpt lat="43.3767527" lon="11.9383412"><ele>761.8571428571428</ele><time>2026-03-28T10:11:06.478Z</time></trkpt><trkpt lat="43.3768148" lon="11.938295"><ele>762.7142857142857</ele><time>2026-03-28T10:11:10.557Z</time></trkpt><trkpt lat="43.376873" lon="11.9382607"><ele>763.5714285714286</ele><time>2026-03-28T10:11:15.547Z</time></trkpt><trkpt lat="43.3769321" lon="11.9382224"><ele>764.4285714285713</ele><time>2026-03-28T10:11:20.559Z</time></trkpt><trkpt lat="43.3769973" lon="11.9382028"><ele>765.2857142857143</ele><time>2026-03-28T10:11:28.541Z</time></trkpt><trkpt lat="43.377056" lon="11.9381524"><ele>766.1428571428571</ele><time>2026-03-28T10:11:34.547Z</time></trkpt><trkpt lat="43.3771122" lon="11.9381048"><ele>767.0</ele><time>2026-03-28T10:11:40.55Z</time></trkpt><trkpt lat="43.3771746" lon="11.9380738"><ele>767.8571428571429</ele><time>2026-03-28T10:11:47.578Z</time></trkpt><trkpt lat="43.3772279" lon="11.9380064"><ele>768.7142857142858</ele><time>2026-03-28T10:11:53.513Z</time></trkpt><trkpt lat="43.3772903" lon="11.9379912"><ele>769.5714285714286</ele><time>2026-03-28T10:11:57.544Z</time></trkpt><trkpt lat="43.3773596" lon="11.937975"><ele>770.4285714285714</ele><time>2026-03-28T10:12:04.564Z</time></trkpt><trkpt lat="43.3774273" lon="11.9379584"><ele>771.2857142857142</ele><time>2026-03-28T10:12:10.563Z</time></trkpt><trkpt lat="43.3774929" lon="11.9379557"><ele>772.1428571428571</ele><time>2026-03-28T10:12:15.564Z</time></trkpt><trkpt lat="43.3775587" lon="11.9379542"><ele>773.0</ele><time>2026-03-28T10:12:20.53Z</time></trkpt><trkpt lat="43.3776302" lon="11.9379691"><ele>773.0</ele><time>2026-03-28T10:12:27.526Z</time></trkpt><trkpt lat="43.3776915" lon="11.937933"><ele>773.0</ele><time>2026-03-28T10:12:33.531Z</time></trkpt><trkpt lat="43.3777555" lon="11.9379227"><ele>773.0</ele><time>2026-03-28T10:12:40.537Z</time></trkpt><trkpt lat="43.3778281" lon="11.9379342"><ele>773.0</ele><time>2026-03-28T10:12:48.546Z</time></trkpt><trkpt lat="43.3778961" lon="11.9378963"><ele>773.0</ele><time>2026-03-28T10:12:55.544Z</time></trkpt><trkpt lat="43.3779652" lon="11.9378848"><ele>773.0</ele><time>2026-03-28T10:13:01.536Z</time></trkpt><trkpt lat="43.3780312" lon="11.9378409"><ele>773.0</ele><time>2026-03-28T10:13:07.563Z</time></trkpt><trkpt lat="43.3780778" lon="11.9377801"><ele>774.2857142857142</ele><time>2026-03-28T10:13:13.564Z</time></trkpt><trkpt lat="43.3781152" lon="11.9376954"><ele>775.5714285714286</ele><time>2026-03-28T10:13:22.575Z</time></trkpt><trkpt lat="43.378163" lon="11.9376275"><ele>776.8571428571429</ele><time>2026-03-28T10:13:29.461Z</time></trkpt><trkpt lat="43.3782079" lon="11.9375579"><ele>778.1428571428571</ele><time>2026-03-28T10:13:36.548Z</time></trkpt><trkpt lat="43.3782735" lon="11.9375358"><ele>779.4285714285714</ele><time>2026-03-28T10:13:43.541Z</time></trkpt><trkpt lat="43.3783357" lon="11.9375182"><ele>780.7142857142857</ele><time>2026-03-28T10:13:52.449Z</time></trkpt><trkpt lat="43.3783936" lon="11.9374824"><ele>782.0</ele><time>2026-03-28T10:14:00.53Z</time></trkpt><trkpt lat="43.3784536" lon="11.9375209"><ele>781.9999999999999</ele><time>2026-03-28T10:14:09.538Z</time></trkpt><trkpt lat="43.378519" lon="11.9375399"><ele>782.0</ele><time>2026-03-28T10:14:18.565Z</time></trkpt><trkpt lat="43.3785849" lon="11.9375729"><ele>782.0</ele><time>2026-03-28T10:14:26.535Z</time></trkpt><trkpt lat="43.3786502" lon="11.9375585"><ele>782.0</ele><time>2026-03-28T10:14:34.55Z</time></trkpt><trkpt lat="43.3787204" lon="11.9375486"><ele>782.0</ele><time>2026-03-28T10:14:43.549Z</time></trkpt><trkpt lat="43.3787798" lon="11.9375195"><ele>781.9999999999999</ele><time>2026-03-28T10:14:51.53Z</time></trkpt><trkpt lat="43.3788449" lon="11.9375116"><ele>782.0</ele><time>2026-03-28T10:14:56.538Z</time></trkpt><trkpt lat="43.3789111" lon="11.9375308"><ele>784.5714285714286</ele><time>2026-03-28T10:15:02.462Z</time></trkpt><trkpt lat="43.3789685" lon="11.9375708"><ele>787.1428571428571</ele><time>2026-03-28T10:15:08.544Z</time></trkpt><trkpt lat="43.3790265" lon="11.9376185"><ele>789.7142857142858</ele><time>2026-03-28T10:15:14.555Z</time></trkpt><trkpt lat="43.3790934" lon="11.937641"><ele>792.2857142857142</ele><time>2026-03-28T10:15:20.564Z</time></trkpt><trkpt lat="43.3791597" lon="11.9376637"><ele>794.8571428571429</ele><time>2026-03-28T10:15:27.464Z</time></trkpt><trkpt lat="43.3792148" lon="11.9377172"><ele>797.4285714285714</ele><time>2026-03-28T10:15:34.565Z</time></trkpt><trkpt lat="43.3792844" lon="11.9377458"><ele>800.0</ele><time>2026-03-28T10:15:45.033Z</time></trkpt><trkpt lat="43.3793547" lon="11.9377387"><ele>800.0000000000001</ele><time>2026-03-28T10:15:51.03Z</time></trkpt><trkpt lat="43.3794178" lon="11.9376979"><ele>800.0</ele><time>2026-03-28T10:15:57.047Z</time></trkpt><trkpt lat="43.3794714" lon="11.9376371"><ele>800.0</ele><time>2026-03-28T10:16:01.89Z</time></trkpt><trkpt lat="43.3795092" lon="11.9375519"><ele>800.0</ele><time>2026-03-28T10:16:04.971Z</time></trkpt><trkpt lat="43.3795285" lon="11.9374648"><ele>800.0</ele><time>2026-03-28T10:16:08.057Z</time></trkpt><trkpt lat="43.3795641" lon="11.9373698"><ele>800.0000000000001</ele><time>2026-03-28T10:16:12.029Z</time></trkpt><trkpt lat="43.3795731" lon="11.9372802"><ele>800.0</ele><time>2026-03-28T10:16:16.992Z</time></trkpt><trkpt lat="43.3795467" lon="11.9372005"><ele>799.7142857142858</ele><time>2026-03-28T10:16:21.13Z</time></trkpt><trkpt lat="43.3795258" lon="11.9371005"><ele>799.4285714285714</ele><time>2026-03-28T10:16:27.067Z</time></trkpt><trkpt lat="43.3795599" lon="11.9370176"><ele>799.1428571428571</ele><time>2026-03-28T10:16:31.077Z</time></trkpt><trkpt lat="43.3795377" lon="11.936931"><ele>798.8571428571429</ele><time>2026-03-28T10:16:34.074Z</time></trkpt><trkpt lat="43.379548" lon="11.9368327"><ele>798.5714285714286</ele><time>2026-03-28T10:16:52.095Z</time></trkpt><trkpt lat="43.3795664" lon="11.9367306"><ele>798.2857142857143</ele><time>2026-03-28T10:17:02.089Z</time></trkpt><trkpt lat="43.3795545" lon="11.9366285"><ele>798.0</ele><time>2026-03-28T10:17:07.065Z</time></trkpt><trkpt lat="43.3795295" lon="11.9365412"><ele>795.8571428571429</ele><time>2026-03-28T10:17:11.093Z</time></trkpt><trkpt lat="43.3795126" lon="11.9364345"><ele>793.7142857142858</ele><time>2026-03-28T10:17:16.037Z</time></trkpt><trkpt lat="43.3794999" lon="11.936349"><ele>791.5714285714286</ele><time>2026-03-28T10:17:20.077Z</time></trkpt><trkpt lat="43.3795001" lon="11.9362545"><ele>789.4285714285714</ele><time>2026-03-28T10:17:25.04Z</time></trkpt><trkpt lat="43.3794883" lon="11.9361624"><ele>787.2857142857143</ele><time>2026-03-28T10:17:34.084Z</time></trkpt><trkpt lat="43.3794788" lon="11.9360762"><ele>785.1428571428571</ele><time>2026-03-28T10:17:37.084Z</time></trkpt><trkpt lat="43.3794662" lon="11.9359897"><ele>783.0</ele><time>2026-03-28T10:17:40.046Z</time></trkpt><trkpt lat="43.3794546" lon="11.9359044"><ele>781.4285714285714</ele><time>2026-03-28T10:17:43.064Z</time></trkpt><trkpt lat="43.3794541" lon="11.9358146"><ele>779.8571428571429</ele><time>2026-03-28T10:17:46.08Z</time></trkpt><trkpt lat="43.3794153" lon="11.9357194"><ele>778.2857142857143</ele><time>2026-03-28T10:17:51.031Z</time></trkpt><trkpt lat="43.3793871" lon="11.9356338"><ele>776.7142857142858</ele><time>2026-03-28T10:17:55.094Z</time></trkpt><trkpt lat="43.3793634" lon="11.9355418"><ele>775.1428571428571</ele><time>2026-03-28T10:17:59.071Z</time></trkpt><trkpt lat="43.3793615" lon="11.9354399"><ele>773.5714285714287</ele><time>2026-03-28T10:18:03.053Z</time></trkpt><trkpt lat="43.379343" lon="11.9353308"><ele>772.0</ele><time>2026-03-28T10:18:07.099Z</time></trkpt><trkpt lat="43.3793424" lon="11.9352165"><ele>772.0000000000001</ele><time>2026-03-28T10:18:11.076Z</time></trkpt><trkpt lat="43.3793243" lon="11.9351194"><ele>772.0</ele><time>2026-03-28T10:18:15.059Z</time></trkpt><trkpt lat="43.379292" lon="11.9350384"><ele>772.0</ele><time>2026-03-28T10:18:20.908Z</time></trkpt><trkpt lat="43.3792515" lon="11.9349399"><ele>772.0</ele><time>2026-03-28T10:18:26.086Z</time></trkpt><trkpt lat="43.3792337" lon="11.9348469"><ele>772.0</ele><time>2026-03-28T10:18:30.066Z</time></trkpt><trkpt lat="43.3792321" lon="11.9347568"><ele>772.0000000000001</ele><time>2026-03-28T10:18:34.091Z</time></trkpt><trkpt lat="43.3792046" lon="11.934664"><ele>772.0</ele><time>2026-03-28T10:18:37.976Z</time></trkpt><trkpt lat="43.3792083" lon="11.9345677"><ele>771.7142857142858</ele><time>2026-03-28T10:18:43.078Z</time></trkpt><trkpt lat="43.379211" lon="11.934461"><ele>771.4285714285714</ele><time>2026-03-28T10:18:48.078Z</time></trkpt><trkpt lat="43.3792164" lon="11.9343522"><ele>771.1428571428571</ele><time>2026-03-28T10:18:52.071Z</time></trkpt><trkpt lat="43.379224" lon="11.934262"><ele>770.8571428571429</ele><time>2026-03-28T10:18:55.07Z</time></trkpt><trkpt lat="43.3792168" lon="11.9341685"><ele>770.5714285714286</ele><time>2026-03-28T10:18:58.08Z</time></trkpt><trkpt lat="43.3791892" lon="11.9340804"><ele>770.2857142857143</ele><time>2026-03-28T10:19:01.064Z</time></trkpt><trkpt lat="43.3791609" lon="11.933979"><ele>770.0</ele><time>2026-03-28T10:19:05.012Z</time></trkpt><trkpt lat="43.379129" lon="11.9338868"><ele>769.5000000000001</ele><time>2026-03-28T10:19:08.978Z</time></trkpt><trkpt lat="43.3790979" lon="11.9337758"><ele>769.0</ele><time>2026-03-28T10:19:13.09Z</time></trkpt><trkpt lat="43.3790916" lon="11.9336813"><ele>768.5</ele><time>2026-03-28T10:19:16.089Z</time></trkpt><trkpt lat="43.379095" lon="11.9335621"><ele>768.0</ele><time>2026-03-28T10:19:20.073Z</time></trkpt><trkpt lat="43.3791037" lon="11.9334525"><ele>767.5</ele><time>2026-03-28T10:19:23.083Z</time></trkpt><trkpt lat="43.3791082" lon="11.933354"><ele>767.0</ele><time>2026-03-28T10:19:25.997Z</time></trkpt><trkpt lat="43.3791052" lon="11.9332428"><ele>765.5</ele><time>2026-03-28T10:19:29.076Z</time></trkpt><trkpt lat="43.3791082" lon="11.9331314"><ele>764.0</ele><time>2026-03-28T10:19:32.069Z</time></trkpt><trkpt lat="43.3791044" lon="11.9330157"><ele>762.5</ele><time>2026-03-28T10:19:35.084Z</time></trkpt><trkpt lat="43.3790921" lon="11.932904"><ele>761.0</ele><time>2026-03-28T10:19:38.09Z</time></trkpt><trkpt lat="43.3790686" lon="11.9328018"><ele>759.5</ele><time>2026-03-28T10:19:41.067Z</time></trkpt><trkpt lat="43.3790542" lon="11.9327023"><ele>758.0</ele><time>2026-03-28T10:19:44.093Z</time></trkpt><trkpt lat="43.3790374" lon="11.932603"><ele>756.7142857142858</ele><time>2026-03-28T10:19:47.09Z</time></trkpt><trkpt lat="43.3790254" lon="11.9325033"><ele>755.4285714285714</ele><time>2026-03-28T10:19:50.076Z</time></trkpt><trkpt lat="43.3790109" lon="11.9324082"><ele>754.1428571428571</ele><time>2026-03-28T10:19:53.097Z</time></trkpt><trkpt lat="43.3789898" lon="11.9323153"><ele>752.8571428571429</ele><time>2026-03-28T10:19:57.077Z</time></trkpt><trkpt lat="43.3789669" lon="11.9322171"><ele>751.5714285714286</ele><time>2026-03-28T10:20:02.077Z</time></trkpt><trkpt lat="43.3789358" lon="11.9321397"><ele>750.2857142857143</ele><time>2026-03-28T10:20:06.028Z</time></trkpt><trkpt lat="43.3789017" lon="11.9320495"><ele>749.0</ele><time>2026-03-28T10:20:11.103Z</time></trkpt><trkpt lat="43.3788797" lon="11.9319459"><ele>749.0</ele><time>2026-03-28T10:20:17.092Z</time></trkpt><trkpt lat="43.3788564" lon="11.9318559"><ele>749.0</ele><time>2026-03-28T10:20:22.121Z</time></trkpt><trkpt lat="43.3788246" lon="11.9317803"><ele>749.0</ele><time>2026-03-28T10:20:26.091Z</time></trkpt><trkpt lat="43.3787951" lon="11.9316979"><ele>749.0</ele><time>2026-03-28T10:20:31.081Z</time></trkpt><trkpt lat="43.3787777" lon="11.9316048"><ele>749.0</ele><time>2026-03-28T10:20:37.099Z</time></trkpt><trkpt lat="43.3787742" lon="11.931507"><ele>749.0</ele><time>2026-03-28T10:20:43.098Z</time></trkpt><trkpt lat="43.3787301" lon="11.9314405"><ele>749.0</ele><time>2026-03-28T10:20:49.083Z</time></trkpt><trkpt lat="43.378681" lon="11.9313588"><ele>747.7142857142857</ele><time>2026-03-28T10:20:55.01Z</time></trkpt><trkpt lat="43.3786627" lon="11.9312717"><ele>746.4285714285714</ele><time>2026-03-28T10:21:00.078Z</time></trkpt><trkpt lat="43.3786223" lon="11.9312014"><ele>745.1428571428571</ele><time>2026-03-28T10:21:06.097Z</time></trkpt><trkpt lat="43.3785948" lon="11.9311104"><ele>743.8571428571429</ele><time>2026-03-28T10:21:11.074Z</time></trkpt><trkpt lat="43.3785643" lon="11.9310324"><ele>742.5714285714286</ele><time>2026-03-28T10:21:15.082Z</time></trkpt><trkpt lat="43.3785378" lon="11.9309515"><ele>741.2857142857142</ele><time>2026-03-28T10:21:20.08Z</time></trkpt><trkpt lat="43.3785142" lon="11.9308599"><ele>740.0</ele><time>2026-03-28T10:21:25.074Z</time></trkpt><trkpt lat="43.3784884" lon="11.9307549"><ele>742.8571428571428</ele><time>2026-03-28T10:21:31.082Z</time></trkpt><trkpt lat="43.3784784" lon="11.9306677"><ele>745.7142857142857</ele><time>2026-03-28T10:21:36.092Z</time></trkpt><trkpt lat="43.3784657" lon="11.9305729"><ele>748.5714285714286</ele><time>2026-03-28T10:21:42.064Z</time></trkpt><trkpt lat="43.3784533" lon="11.9304716"><ele>751.4285714285713</ele><time>2026-03-28T10:21:47.045Z</time></trkpt><trkpt lat="43.3784363" lon="11.9303761"><ele>754.2857142857143</ele><time>2026-03-28T10:21:51.098Z</time></trkpt><trkpt lat="43.3784173" lon="11.9302858"><ele>757.1428571428571</ele><time>2026-03-28T10:21:55.093Z</time></trkpt><trkpt lat="43.3784039" lon="11.9301791"><ele>760.0</ele><time>2026-03-28T10:22:00.072Z</time></trkpt><trkpt lat="43.3784126" lon="11.9300699"><ele>760.8571428571429</ele><time>2026-03-28T10:22:06.077Z</time></trkpt><trkpt lat="43.3784409" lon="11.9299868"><ele>761.7142857142858</ele><time>2026-03-28T10:22:10.017Z</time></trkpt><trkpt lat="43.3784445" lon="11.9298969"><ele>762.5714285714286</ele><time>2026-03-28T10:22:15.086Z</time></trkpt><trkpt lat="43.3784204" lon="11.9297951"><ele>763.4285714285714</ele><time>2026-03-28T10:22:22.074Z</time></trkpt><trkpt lat="43.3784003" lon="11.929693"><ele>764.2857142857142</ele><time>2026-03-28T10:22:26.074Z</time></trkpt><trkpt lat="43.378407" lon="11.9296003"><ele>765.1428571428571</ele><time>2026-03-28T10:22:32.093Z</time></trkpt><trkpt lat="43.3784116" lon="11.9294974"><ele>766.0</ele><time>2026-03-28T10:22:38.104Z</time></trkpt><trkpt lat="43.378411" lon="11.9293951"><ele>766.0</ele><time>2026-03-28T10:22:43.079Z</time></trkpt><trkpt lat="43.3784021" lon="11.9293065"><ele>766.0</ele><time>2026-03-28T10:22:46.089Z</time></trkpt><trkpt lat="43.3783964" lon="11.9292122"><ele>766.0</ele><time>2026-03-28T10:22:50.078Z</time></trkpt><trkpt lat="43.3783991" lon="11.9291104"><ele>766.0</ele><time>2026-03-28T10:22:55.085Z</time></trkpt><trkpt lat="43.3784156" lon="11.9290224"><ele>766.0</ele><time>2026-03-28T10:22:59.083Z</time></trkpt><trkpt lat="43.3784077" lon="11.9289304"><ele>766.0</ele><time>2026-03-28T10:23:03.03Z</time></trkpt><trkpt lat="43.3783981" lon="11.9288408"><ele>766.0</ele><time>2026-03-28T10:23:07.074Z</time></trkpt><trkpt lat="43.378405" lon="11.9287381"><ele>766.8571428571429</ele><time>2026-03-28T10:23:12.07Z</time></trkpt><trkpt lat="43.3784228" lon="11.9286459"><ele>767.7142857142857</ele><time>2026-03-28T10:23:17.073Z</time></trkpt><trkpt lat="43.378434" lon="11.9285537"><ele>768.5714285714287</ele><time>2026-03-28T10:23:22.095Z</time></trkpt><trkpt lat="43.3784512" lon="11.9284655"><ele>769.4285714285714</ele><time>2026-03-28T10:23:26.072Z</time></trkpt><trkpt lat="43.3784776" lon="11.9283868"><ele>770.2857142857143</ele><time>2026-03-28T10:23:31.086Z</time></trkpt><trkpt lat="43.3785084" lon="11.9283095"><ele>771.1428571428572</ele><time>2026-03-28T10:23:38.089Z</time></trkpt><trkpt lat="43.3785467" lon="11.9282255"><ele>772.0</ele><time>2026-03-28T10:23:44.098Z</time></trkpt><trkpt lat="43.3785988" lon="11.9281689"><ele>773.2857142857143</ele><time>2026-03-28T10:23:52.093Z</time></trkpt><trkpt lat="43.3786535" lon="11.9281114"><ele>774.5714285714286</ele><time>2026-03-28T10:24:03.061Z</time></trkpt><trkpt lat="43.3786947" lon="11.9280348"><ele>775.8571428571429</ele><time>2026-03-28T10:24:15.077Z</time></trkpt><trkpt lat="43.3787602" lon="11.9280444"><ele>777.1428571428571</ele><time>2026-03-28T10:24:22.083Z</time></trkpt><trkpt lat="43.3787973" lon="11.9279696"><ele>778.4285714285714</ele><time>2026-03-28T10:24:32.086Z</time></trkpt><trkpt lat="43.3788529" lon="11.9279094"><ele>779.7142857142858</ele><time>2026-03-28T10:24:39.103Z</time></trkpt><trkpt lat="43.3788826" lon="11.9278198"><ele>781.0</ele><time>2026-03-28T10:24:46.071Z</time></trkpt><trkpt lat="43.3789415" lon="11.9277457"><ele>783.2857142857143</ele><time>2026-03-28T10:25:02.062Z</time></trkpt><trkpt lat="43.3789851" lon="11.9276806"><ele>785.5714285714287</ele><time>2026-03-28T10:25:12.106Z</time></trkpt><trkpt lat="43.3790211" lon="11.9276044"><ele>787.8571428571429</ele><time>2026-03-28T10:25:20.108Z</time></trkpt><trkpt lat="43.3790473" lon="11.9275234"><ele>790.1428571428571</ele><time>2026-03-28T10:25:27.058Z</time></trkpt><trkpt lat="43.3790588" lon="11.9274286"><ele>792.4285714285714</ele><time>2026-03-28T10:25:36.058Z</time></trkpt><trkpt lat="43.3790457" lon="11.9273426"><ele>794.7142857142857</ele><time>2026-03-28T10:25:45.039Z</time></trkpt><trkpt lat="43.3790167" lon="11.9272629"><ele>797.0</ele><time>2026-03-28T10:25:55.074Z</time></trkpt><trkpt lat="43.379013" lon="11.927175"><ele>799.4285714285714</ele><time>2026-03-28T10:26:14.065Z</time></trkpt><trkpt lat="43.3790236" lon="11.9270847"><ele>801.8571428571429</ele><time>2026-03-28T10:27:01.696Z</time></trkpt><trkpt lat="43.3790394" lon="11.9269964"><ele>804.2857142857143</ele><time>2026-03-28T10:27:09.039Z</time></trkpt><trkpt lat="43.3790334" lon="11.9268961"><ele>806.7142857142858</ele><time>2026-03-28T10:27:16.065Z</time></trkpt><trkpt lat="43.3790228" lon="11.926799"><ele>809.1428571428571</ele><time>2026-03-28T10:27:23.063Z</time></trkpt><trkpt lat="43.3790066" lon="11.9266979"><ele>811.5714285714287</ele><time>2026-03-28T10:27:30.013Z</time></trkpt><trkpt lat="43.3790175" lon="11.9266068"><ele>814.0</ele><time>2026-03-28T10:27:37.051Z</time></trkpt><trkpt lat="43.3790199" lon="11.9265169"><ele>816.0000000000001</ele><time>2026-03-28T10:27:49.037Z</time></trkpt><trkpt lat="43.3789806" lon="11.9264426"><ele>818.0</ele><time>2026-03-28T10:27:55.044Z</time></trkpt><trkpt lat="43.3789805" lon="11.9263559"><ele>820.0</ele><time>2026-03-28T10:28:01.963Z</time></trkpt><trkpt lat="43.3789893" lon="11.9262605"><ele>822.0</ele><time>2026-03-28T10:28:12.065Z</time></trkpt><trkpt lat="43.3789807" lon="11.9261652"><ele>824.0</ele><time>2026-03-28T10:28:18.052Z</time></trkpt><trkpt lat="43.3790111" lon="11.9260852"><ele>826.0000000000001</ele><time>2026-03-28T10:28:25.088Z</time></trkpt><trkpt lat="43.37903" lon="11.9259992"><ele>828.0</ele><time>2026-03-28T10:28:31.044Z</time></trkpt><trkpt lat="43.3790472" lon="11.9259075"><ele>828.4285714285714</ele><time>2026-03-28T10:28:39.073Z</time></trkpt><trkpt lat="43.3790757" lon="11.9258124"><ele>828.8571428571429</ele><time>2026-03-28T10:28:46.064Z</time></trkpt><trkpt lat="43.3790922" lon="11.9257094"><ele>829.2857142857142</ele><time>2026-03-28T10:28:51.037Z</time></trkpt><trkpt lat="43.3791357" lon="11.925625"><ele>829.7142857142858</ele><time>2026-03-28T10:28:55.953Z</time></trkpt><trkpt lat="43.3791467" lon="11.9255385"><ele>830.1428571428571</ele><time>2026-03-28T10:29:01.065Z</time></trkpt><trkpt lat="43.3791699" lon="11.9254488"><ele>830.5714285714286</ele><time>2026-03-28T10:29:07.064Z</time></trkpt><trkpt lat="43.3792338" lon="11.9253718"><ele>831.0</ele><time>2026-03-28T10:29:13.096Z</time></trkpt><trkpt lat="43.3792968" lon="11.9253281"><ele>830.9999999999999</ele><time>2026-03-28T10:29:16.079Z</time></trkpt><trkpt lat="43.3793617" lon="11.9253084"><ele>831.0</ele><time>2026-03-28T10:29:20.085Z</time></trkpt><trkpt lat="43.3794286" lon="11.9253151"><ele>831.0</ele><time>2026-03-28T10:29:25.051Z</time></trkpt><trkpt lat="43.3795013" lon="11.9253233"><ele>831.0</ele><time>2026-03-28T10:29:31.075Z</time></trkpt><trkpt lat="43.3795591" lon="11.92528"><ele>831.0</ele><time>2026-03-28T10:29:35.09Z</time></trkpt><trkpt lat="43.3796159" lon="11.9252246"><ele>830.9999999999999</ele><time>2026-03-28T10:29:40.088Z</time></trkpt><trkpt lat="43.3796821" lon="11.9251906"><ele>831.0</ele><time>2026-03-28T10:29:44.079Z</time></trkpt><trkpt lat="43.379769" lon="11.9251689"><ele>830.8333333333334</ele><time>2026-03-28T10:29:48.08Z</time></trkpt><trkpt lat="43.3798394" lon="11.9251428"><ele>830.6666666666667</ele><time>2026-03-28T10:29:51.045Z</time></trkpt><trkpt lat="43.3799173" lon="11.9251203"><ele>830.5</ele><time>2026-03-28T10:29:54.054Z</time></trkpt><trkpt lat="43.3799869" lon="11.9250946"><ele>830.3333333333334</ele><time>2026-03-28T10:29:57.015Z</time></trkpt><trkpt lat="43.3800625" lon="11.9250611"><ele>830.1666666666667</ele><time>2026-03-28T10:30:00.01Z</time></trkpt><trkpt lat="43.3801255" lon="11.9250237"><ele>830.0</ele><time>2026-03-28T10:30:02.082Z</time></trkpt><trkpt lat="43.3802019" lon="11.9249826"><ele>830.0000000000001</ele><time>2026-03-28T10:30:05.101Z</time></trkpt><trkpt lat="43.3802702" lon="11.9249358"><ele>830.0</ele><time>2026-03-28T10:30:07.994Z</time></trkpt><trkpt lat="43.3803397" lon="11.924886"><ele>830.0</ele><time>2026-03-28T10:30:11.018Z</time></trkpt><trkpt lat="43.3804062" lon="11.9248387"><ele>830.0</ele><time>2026-03-28T10:30:13.989Z</time></trkpt><trkpt lat="43.3804671" lon="11.9248028"><ele>830.0000000000001</ele><time>2026-03-28T10:30:17.07Z</time></trkpt><trkpt lat="43.3805426" lon="11.924755"><ele>830.0</ele><time>2026-03-28T10:30:21.063Z</time></trkpt><trkpt lat="43.3806047" lon="11.9247058"><ele>830.7142857142858</ele><time>2026-03-28T10:30:25.087Z</time></trkpt><trkpt lat="43.3806702" lon="11.9246421"><ele>831.4285714285714</ele><time>2026-03-28T10:30:30.068Z</time></trkpt><trkpt lat="43.3807263" lon="11.9246011"><ele>832.1428571428571</ele><time>2026-03-28T10:30:33.088Z</time></trkpt><trkpt lat="43.3807806" lon="11.9245485"><ele>832.8571428571429</ele><time>2026-03-28T10:30:36.066Z</time></trkpt><trkpt lat="43.3808352" lon="11.9244751"><ele>833.5714285714286</ele><time>2026-03-28T10:30:39.044Z</time></trkpt><trkpt lat="43.3808923" lon="11.9243924"><ele>834.2857142857143</ele><time>2026-03-28T10:30:42.061Z</time></trkpt><trkpt lat="43.3809503" lon="11.9243297"><ele>835.0</ele><time>2026-03-28T10:30:45.043Z</time></trkpt><trkpt lat="43.3810189" lon="11.9242806"><ele>834.2857142857143</ele><time>2026-03-28T10:30:49.051Z</time></trkpt><trkpt lat="43.3810723" lon="11.9242281"><ele>833.5714285714286</ele><time>2026-03-28T10:30:53.074Z</time></trkpt><trkpt lat="43.3811267" lon="11.9241839"><ele>832.8571428571429</ele><time>2026-03-28T10:30:55.975Z</time></trkpt><trkpt lat="43.3811813" lon="11.9241078"><ele>832.1428571428571</ele><time>2026-03-28T10:30:59.085Z</time></trkpt><trkpt lat="43.3812294" lon="11.9240326"><ele>831.4285714285714</ele><time>2026-03-28T10:31:02.014Z</time></trkpt><trkpt lat="43.3812776" lon="11.9239424"><ele>830.7142857142858</ele><time>2026-03-28T10:31:04.976Z</time></trkpt><trkpt lat="43.3813148" lon="11.9238507"><ele>830.0</ele><time>2026-03-28T10:31:08.058Z</time></trkpt><trkpt lat="43.3813607" lon="11.9237706"><ele>830.0</ele><time>2026-03-28T10:31:11.988Z</time></trkpt><trkpt lat="43.3814115" lon="11.9237178"><ele>830.0</ele><time>2026-03-28T10:31:15.061Z</time></trkpt><trkpt lat="43.3814813" lon="11.9236559"><ele>830.0</ele><time>2026-03-28T10:31:19.069Z</time></trkpt><trkpt lat="43.3815305" lon="11.9235939"><ele>830.0</ele><time>2026-03-28T10:31:22.096Z</time></trkpt><trkpt lat="43.3815788" lon="11.9235257"><ele>830.0</ele><time>2026-03-28T10:31:25.076Z</time></trkpt><trkpt lat="43.3816197" lon="11.9234546"><ele>830.0</ele><time>2026-03-28T10:31:28.092Z</time></trkpt><trkpt lat="43.3816829" lon="11.9234045"><ele>830.0</ele><time>2026-03-28T10:31:31.08Z</time></trkpt><trkpt lat="43.3817389" lon="11.9233461"><ele>827.4285714285714</ele><time>2026-03-28T10:31:34.063Z</time></trkpt><trkpt lat="43.3817854" lon="11.9232832"><ele>824.8571428571429</ele><time>2026-03-28T10:31:36.999Z</time></trkpt><trkpt lat="43.3818469" lon="11.9231975"><ele>822.2857142857142</ele><time>2026-03-28T10:31:41.098Z</time></trkpt><trkpt lat="43.3818819" lon="11.9231162"><ele>819.7142857142858</ele><time>2026-03-28T10:31:44.101Z</time></trkpt><trkpt lat="43.3819434" lon="11.9230486"><ele>817.1428571428571</ele><time>2026-03-28T10:31:48.072Z</time></trkpt><trkpt lat="43.3819918" lon="11.9229927"><ele>814.5714285714286</ele><time>2026-03-28T10:31:51.083Z</time></trkpt><trkpt lat="43.3820459" lon="11.9229161"><ele>812.0</ele><time>2026-03-28T10:31:55.068Z</time></trkpt><trkpt lat="43.3821042" lon="11.9228506"><ele>812.0</ele><time>2026-03-28T10:31:59.069Z</time></trkpt><trkpt lat="43.3821561" lon="11.9227783"><ele>812.0</ele><time>2026-03-28T10:32:03.055Z</time></trkpt><trkpt lat="43.3822004" lon="11.9227145"><ele>812.0</ele><time>2026-03-28T10:32:06.085Z</time></trkpt><trkpt lat="43.3822526" lon="11.9226596"><ele>812.0</ele><time>2026-03-28T10:32:09.071Z</time></trkpt><trkpt lat="43.382329" lon="11.9226157"><ele>812.0</ele><time>2026-03-28T10:32:13.095Z</time></trkpt><trkpt lat="43.3823851" lon="11.9225541"><ele>812.0</ele><time>2026-03-28T10:32:16.096Z</time></trkpt><trkpt lat="43.3824394" lon="11.9224902"><ele>812.0</ele><time>2026-03-28T10:32:19.062Z</time></trkpt><trkpt lat="43.3825045" lon="11.9224002"><ele>810.1666666666667</ele><time>2026-03-28T10:32:22.063Z</time></trkpt><trkpt lat="43.3825717" lon="11.9223059"><ele>808.3333333333334</ele><time>2026-03-28T10:32:25.067Z</time></trkpt><trkpt lat="43.3826139" lon="11.9222053"><ele>806.5</ele><time>2026-03-28T10:32:28.086Z</time></trkpt><trkpt lat="43.3826663" lon="11.9221165"><ele>804.6666666666667</ele><time>2026-03-28T10:32:31.059Z</time></trkpt><trkpt lat="43.3827035" lon="11.9220392"><ele>802.8333333333334</ele><time>2026-03-28T10:32:34.074Z</time></trkpt><trkpt lat="43.382743" lon="11.9219518"><ele>801.0</ele><time>2026-03-28T10:32:38.046Z</time></trkpt><trkpt lat="43.3827821" lon="11.9218656"><ele>801.0</ele><time>2026-03-28T10:32:42.974Z</time></trkpt><trkpt lat="43.3828013" lon="11.9217717"><ele>801.0</ele><time>2026-03-28T10:32:47.06Z</time></trkpt><trkpt lat="43.3828189" lon="11.9216755"><ele>801.0</ele><time>2026-03-28T10:32:51.017Z</time></trkpt><trkpt lat="43.3828387" lon="11.9215737"><ele>801.0</ele><time>2026-03-28T10:32:55.194Z</time></trkpt><trkpt lat="43.3828449" lon="11.9214736"><ele>801.0</ele><time>2026-03-28T10:32:59.759Z</time></trkpt><trkpt lat="43.3828711" lon="11.9213868"><ele>801.0</ele><time>2026-03-28T10:33:04.008Z</time></trkpt><trkpt lat="43.3828845" lon="11.9212953"><ele>801.0</ele><time>2026-03-28T10:33:09.051Z</time></trkpt><trkpt lat="43.3828912" lon="11.9211934"><ele>799.5714285714286</ele><time>2026-03-28T10:33:15.076Z</time></trkpt><trkpt lat="43.3829056" lon="11.9211016"><ele>798.1428571428571</ele><time>2026-03-28T10:33:23.097Z</time></trkpt><trkpt lat="43.3829262" lon="11.9210078"><ele>796.7142857142858</ele><time>2026-03-28T10:33:31.056Z</time></trkpt><trkpt lat="43.3829441" lon="11.9209209"><ele>795.2857142857142</ele><time>2026-03-28T10:33:36.082Z</time></trkpt><trkpt lat="43.3829571" lon="11.920829"><ele>793.8571428571429</ele><time>2026-03-28T10:33:41.069Z</time></trkpt><trkpt lat="43.3829359" lon="11.9207443"><ele>792.4285714285714</ele><time>2026-03-28T10:33:45.068Z</time></trkpt><trkpt lat="43.3829365" lon="11.9206348"><ele>791.0</ele><time>2026-03-28T10:33:49.089Z</time></trkpt><trkpt lat="43.3829396" lon="11.9205323"><ele>790.4285714285714</ele><time>2026-03-28T10:33:53.089Z</time></trkpt><trkpt lat="43.3829592" lon="11.9204357"><ele>789.8571428571429</ele><time>2026-03-28T10:33:58.016Z</time></trkpt><trkpt lat="43.3829681" lon="11.9203296"><ele>789.2857142857142</ele><time>2026-03-28T10:34:03.095Z</time></trkpt><trkpt lat="43.3829963" lon="11.9202424"><ele>788.7142857142858</ele><time>2026-03-28T10:34:08.091Z</time></trkpt><trkpt lat="43.3830285" lon="11.9201551"><ele>788.1428571428571</ele><time>2026-03-28T10:34:13.077Z</time></trkpt><trkpt lat="43.3830421" lon="11.9200537"><ele>787.5714285714286</ele><time>2026-03-28T10:34:18.103Z</time></trkpt><trkpt lat="43.383067" lon="11.9199613"><ele>787.0</ele><time>2026-03-28T10:34:22.098Z</time></trkpt><trkpt lat="43.3830566" lon="11.9198739"><ele>791.4285714285714</ele><time>2026-03-28T10:34:26.09Z</time></trkpt><trkpt lat="43.3830518" lon="11.9197688"><ele>795.8571428571429</ele><time>2026-03-28T10:34:31.014Z</time></trkpt><trkpt lat="43.3830575" lon="11.919681"><ele>800.2857142857142</ele><time>2026-03-28T10:34:36.083Z</time></trkpt><trkpt lat="43.383073" lon="11.919583"><ele>804.7142857142858</ele><time>2026-03-28T10:34:42.053Z</time></trkpt><trkpt lat="43.3830909" lon="11.9194912"><ele>809.1428571428572</ele><time>2026-03-28T10:34:47.087Z</time></trkpt><trkpt lat="43.3831077" lon="11.9193937"><ele>813.5714285714286</ele><time>2026-03-28T10:34:52.095Z</time></trkpt><trkpt lat="43.3831351" lon="11.9193083"><ele>818.0</ele><time>2026-03-28T10:34:56.082Z</time></trkpt><trkpt lat="43.3831823" lon="11.9192175"><ele>818.0000000000001</ele><time>2026-03-28T10:35:00.086Z</time></trkpt><trkpt lat="43.3832473" lon="11.9191428"><ele>818.0</ele><time>2026-03-28T10:35:04.082Z</time></trkpt><trkpt lat="43.3833141" lon="11.9190816"><ele>818.0</ele><time>2026-03-28T10:35:07.993Z</time></trkpt><trkpt lat="43.3833705" lon="11.9190301"><ele>818.0</ele><time>2026-03-28T10:35:13.029Z</time></trkpt><trkpt lat="43.3834211" lon="11.9189513"><ele>818.0000000000001</ele><time>2026-03-28T10:35:18.163Z</time></trkpt><trkpt lat="43.3834711" lon="11.9188884"><ele>818.0</ele><time>2026-03-28T10:35:21.013Z</time></trkpt><trkpt lat="43.3835434" lon="11.918824"><ele>818.0</ele><time>2026-03-28T10:35:25.116Z</time></trkpt><trkpt lat="43.383599" lon="11.9187742"><ele>818.0</ele><time>2026-03-28T10:35:28.078Z</time></trkpt><trkpt lat="43.3836584" lon="11.9187405"><ele>818.0</ele><time>2026-03-28T10:35:31.117Z</time></trkpt><trkpt lat="43.3837215" lon="11.9187223"><ele>818.0</ele><time>2026-03-28T10:35:35.089Z</time></trkpt><trkpt lat="43.3837946" lon="11.9186865"><ele>818.0</ele><time>2026-03-28T10:35:41.118Z</time></trkpt><trkpt lat="43.3838549" lon="11.9186503"><ele>818.0</ele><time>2026-03-28T10:35:47.033Z</time></trkpt><trkpt lat="43.3839145" lon="11.9185999"><ele>818.0</ele><time>2026-03-28T10:35:52.064Z</time></trkpt><trkpt lat="43.3839827" lon="11.9185761"><ele>818.5714285714286</ele><time>2026-03-28T10:35:59.068Z</time></trkpt><trkpt lat="43.3840621" lon="11.9185464"><ele>819.1428571428572</ele><time>2026-03-28T10:36:05.049Z</time></trkpt><trkpt lat="43.3841315" lon="11.918527"><ele>819.7142857142858</ele><time>2026-03-28T10:36:08.105Z</time></trkpt><trkpt lat="43.3841972" lon="11.9185352"><ele>820.2857142857142</ele><time>2026-03-28T10:36:11.079Z</time></trkpt><trkpt lat="43.384273" lon="11.9185117"><ele>820.8571428571429</ele><time>2026-03-28T10:36:14.102Z</time></trkpt><trkpt lat="43.3843546" lon="11.9184934"><ele>821.4285714285714</ele><time>2026-03-28T10:36:18.098Z</time></trkpt><trkpt lat="43.3844201" lon="11.9184787"><ele>822.0</ele><time>2026-03-28T10:36:21.086Z</time></trkpt><trkpt lat="43.3844838" lon="11.9184637"><ele>822.0</ele><time>2026-03-28T10:36:24.079Z</time></trkpt><trkpt lat="43.3845559" lon="11.918442"><ele>822.0</ele><time>2026-03-28T10:36:28.088Z</time></trkpt><trkpt lat="43.3846291" lon="11.9184136"><ele>822.0</ele><time>2026-03-28T10:36:32.068Z</time></trkpt><trkpt lat="43.3847052" lon="11.918397"><ele>822.0</ele><time>2026-03-28T10:36:36.083Z</time></trkpt><trkpt lat="43.3847725" lon="11.9183508"><ele>822.0</ele><time>2026-03-28T10:36:39.072Z</time></trkpt><trkpt lat="43.3848589" lon="11.9183056"><ele>822.0</ele><time>2026-03-28T10:36:43.109Z</time></trkpt><trkpt lat="43.3849298" lon="11.9183049"><ele>819.2857142857142</ele><time>2026-03-28T10:36:46.102Z</time></trkpt><trkpt lat="43.3849994" lon="11.9182961"><ele>816.5714285714286</ele><time>2026-03-28T10:36:49.097Z</time></trkpt><trkpt lat="43.3850671" lon="11.9182858"><ele>813.8571428571429</ele><time>2026-03-28T10:36:52.033Z</time></trkpt><trkpt lat="43.3851306" lon="11.9182643"><ele>811.1428571428571</ele><time>2026-03-28T10:36:55.061Z</time></trkpt><trkpt lat="43.3851952" lon="11.918222"><ele>808.4285714285714</ele><time>2026-03-28T10:36:58.018Z</time></trkpt><trkpt lat="43.3852544" lon="11.9181869"><ele>805.7142857142857</ele><time>2026-03-28T10:37:00.067Z</time></trkpt><trkpt lat="43.3853405" lon="11.9181387"><ele>803.0</ele><time>2026-03-28T10:37:03.092Z</time></trkpt><trkpt lat="43.3854223" lon="11.9180899"><ele>803.0000000000001</ele><time>2026-03-28T10:37:06.047Z</time></trkpt><trkpt lat="43.3855054" lon="11.9180568"><ele>803.0</ele><time>2026-03-28T10:37:09.081Z</time></trkpt><trkpt lat="43.3855785" lon="11.9180333"><ele>803.0</ele><time>2026-03-28T10:37:12.091Z</time></trkpt><trkpt lat="43.3856433" lon="11.9179917"><ele>803.0</ele><time>2026-03-28T10:37:15.11Z</time></trkpt><trkpt lat="43.3857034" lon="11.9179353"><ele>803.0000000000001</ele><time>2026-03-28T10:37:18.109Z</time></trkpt><trkpt lat="43.3857713" lon="11.9178835"><ele>803.0</ele><time>2026-03-28T10:37:22.087Z</time></trkpt><trkpt lat="43.385828" lon="11.9178329"><ele>802.5000000000001</ele><time>2026-03-28T10:37:25.069Z</time></trkpt><trkpt lat="43.3858888" lon="11.9177766"><ele>802.0</ele><time>2026-03-28T10:37:28.091Z</time></trkpt><trkpt lat="43.3859502" lon="11.9176928"><ele>801.5</ele><time>2026-03-28T10:37:31.073Z</time></trkpt><trkpt lat="43.3860065" lon="11.9176279"><ele>801.0</ele><time>2026-03-28T10:37:34.048Z</time></trkpt><trkpt lat="43.3860585" lon="11.9175686"><ele>800.5000000000001</ele><time>2026-03-28T10:37:36.833Z</time></trkpt><trkpt lat="43.386128" lon="11.9175261"><ele>800.0</ele><time>2026-03-28T10:37:40.092Z</time></trkpt><trkpt lat="43.386202" lon="11.9175027"><ele>799.0000000000001</ele><time>2026-03-28T10:37:44.092Z</time></trkpt><trkpt lat="43.38628" lon="11.9174298"><ele>798.0</ele><time>2026-03-28T10:37:48.045Z</time></trkpt><trkpt lat="43.3863289" lon="11.9173594"><ele>797.0</ele><time>2026-03-28T10:37:51.065Z</time></trkpt><trkpt lat="43.3863608" lon="11.9172704"><ele>796.0</ele><time>2026-03-28T10:37:58.065Z</time></trkpt><trkpt lat="43.386443" lon="11.9172265"><ele>795.0000000000001</ele><time>2026-03-28T10:38:01.114Z</time></trkpt><trkpt lat="43.3865068" lon="11.9171746"><ele>794.0</ele><time>2026-03-28T10:38:05.084Z</time></trkpt><trkpt lat="43.3865653" lon="11.9171035"><ele>794.0</ele><time>2026-03-28T10:38:08.072Z</time></trkpt><trkpt lat="43.3866088" lon="11.9170129"><ele>794.0</ele><time>2026-03-28T10:38:10.872Z</time></trkpt><trkpt lat="43.3866671" lon="11.9169424"><ele>794.0</ele><time>2026-03-28T10:38:14.078Z</time></trkpt><trkpt lat="43.3867229" lon="11.9168831"><ele>794.0</ele><time>2026-03-28T10:38:18.09Z</time></trkpt><trkpt lat="43.3867594" lon="11.9168054"><ele>794.0</ele><time>2026-03-28T10:38:21.1Z</time></trkpt><trkpt lat="43.3868209" lon="11.9167526"><ele>794.0</ele><time>2026-03-28T10:38:24.09Z</time></trkpt><trkpt lat="43.3868753" lon="11.9166973"><ele>794.0</ele><time>2026-03-28T10:38:27.068Z</time></trkpt><trkpt lat="43.3869356" lon="11.9166617"><ele>794.2857142857142</ele><time>2026-03-28T10:38:30.148Z</time></trkpt><trkpt lat="43.3870056" lon="11.9166302"><ele>794.5714285714286</ele><time>2026-03-28T10:38:34.055Z</time></trkpt><trkpt lat="43.3870723" lon="11.9165782"><ele>794.8571428571429</ele><time>2026-03-28T10:38:39.029Z</time></trkpt><trkpt lat="43.3871302" lon="11.9165139"><ele>795.1428571428571</ele><time>2026-03-28T10:38:44.064Z</time></trkpt><trkpt lat="43.3871756" lon="11.9164514"><ele>795.4285714285714</ele><time>2026-03-28T10:38:47.111Z</time></trkpt><trkpt lat="43.3872382" lon="11.9164137"><ele>795.7142857142857</ele><time>2026-03-28T10:38:50.1Z</time></trkpt><trkpt lat="43.3873079" lon="11.9163775"><ele>796.0</ele><time>2026-03-28T10:38:54.101Z</time></trkpt><trkpt lat="43.3873726" lon="11.9163202"><ele>795.9999999999999</ele><time>2026-03-28T10:38:58.097Z</time></trkpt><trkpt lat="43.387428" lon="11.9162725"><ele>796.0</ele><time>2026-03-28T10:39:02.033Z</time></trkpt><trkpt lat="43.3874817" lon="11.9162163"><ele>796.0</ele><time>2026-03-28T10:39:06.087Z</time></trkpt><trkpt lat="43.3875454" lon="11.9161771"><ele>796.0</ele><time>2026-03-28T10:39:11.086Z</time></trkpt><trkpt lat="43.387613" lon="11.9161303"><ele>796.0</ele><time>2026-03-28T10:39:16.101Z</time></trkpt><trkpt lat="43.3876622" lon="11.9160738"><ele>795.9999999999999</ele><time>2026-03-28T10:39:20.08Z</time></trkpt><trkpt lat="43.3877233" lon="11.9160253"><ele>796.0</ele><time>2026-03-28T10:39:24.077Z</time></trkpt><trkpt lat="43.3877964" lon="11.9159878"><ele>795.9999999999999</ele><time>2026-03-28T10:39:30.174Z</time></trkpt><trkpt lat="43.3878553" lon="11.9159285"><ele>796.0</ele><time>2026-03-28T10:39:35.088Z</time></trkpt><trkpt lat="43.3879163" lon="11.9158877"><ele>796.0</ele><time>2026-03-28T10:39:40.063Z</time></trkpt><trkpt lat="43.3879763" lon="11.9158511"><ele>796.0</ele><time>2026-03-28T10:39:46.089Z</time></trkpt><trkpt lat="43.3880423" lon="11.915819"><ele>796.0</ele><time>2026-03-28T10:39:51.074Z</time></trkpt><trkpt lat="43.3881106" lon="11.9157847"><ele>795.9999999999999</ele><time>2026-03-28T10:39:57.13Z</time></trkpt><trkpt lat="43.3881573" lon="11.9157186"><ele>796.0</ele><time>2026-03-28T10:40:03.069Z</time></trkpt><trkpt lat="43.3882167" lon="11.9156655"><ele>798.2857142857142</ele><time>2026-03-28T10:40:09.103Z</time></trkpt><trkpt lat="43.3882772" lon="11.9156278"><ele>800.5714285714286</ele><time>2026-03-28T10:40:13.073Z</time></trkpt><trkpt lat="43.3883505" lon="11.9155923"><ele>802.8571428571429</ele><time>2026-03-28T10:40:17.083Z</time></trkpt><trkpt lat="43.3884109" lon="11.9155627"><ele>805.1428571428571</ele><time>2026-03-28T10:40:21.009Z</time></trkpt><trkpt lat="43.3884821" lon="11.9155278"><ele>807.4285714285714</ele><time>2026-03-28T10:40:27.086Z</time></trkpt><trkpt lat="43.388538" lon="11.9154775"><ele>809.7142857142857</ele><time>2026-03-28T10:40:31.056Z</time></trkpt><trkpt lat="43.3885978" lon="11.915446"><ele>812.0</ele><time>2026-03-28T10:40:36.078Z</time></trkpt><trkpt lat="43.3886625" lon="11.9154061"><ele>812.0</ele><time>2026-03-28T10:40:44.069Z</time></trkpt><trkpt lat="43.3887202" lon="11.915347"><ele>812.0</ele><time>2026-03-28T10:40:50.095Z</time></trkpt><trkpt lat="43.3887795" lon="11.9153014"><ele>812.0</ele><time>2026-03-28T10:40:55.082Z</time></trkpt><trkpt lat="43.3888428" lon="11.9152485"><ele>812.0</ele><time>2026-03-28T10:41:00.078Z</time></trkpt><trkpt lat="43.388898" lon="11.915198"><ele>812.0</ele><time>2026-03-28T10:41:05.015Z</time></trkpt><trkpt lat="43.3889523" lon="11.915139"><ele>812.0</ele><time>2026-03-28T10:41:14.014Z</time></trkpt><trkpt lat="43.3890214" lon="11.9150979"><ele>812.0</ele><time>2026-03-28T10:41:27.09Z</time></trkpt><trkpt lat="43.3890921" lon="11.9150528"><ele>814.7142857142857</ele><time>2026-03-28T10:41:31.061Z</time></trkpt><trkpt lat="43.3891538" lon="11.9150222"><ele>817.4285714285714</ele><time>2026-03-28T10:41:36.113Z</time></trkpt><trkpt lat="43.3892111" lon="11.9149742"><ele>820.1428571428571</ele><time>2026-03-28T10:41:45.052Z</time></trkpt><trkpt lat="43.389264" lon="11.9149222"><ele>822.8571428571429</ele><time>2026-03-28T10:41:53.067Z</time></trkpt><trkpt lat="43.3893192" lon="11.914874"><ele>825.5714285714286</ele><time>2026-03-28T10:41:59.063Z</time></trkpt><trkpt lat="43.3893856" lon="11.9148212"><ele>828.2857142857142</ele><time>2026-03-28T10:42:04.085Z</time></trkpt><trkpt lat="43.3894387" lon="11.9147724"><ele>831.0</ele><time>2026-03-28T10:42:09.076Z</time></trkpt><trkpt lat="43.3894979" lon="11.9147065"><ele>830.9999999999999</ele><time>2026-03-28T10:42:15.096Z</time></trkpt><trkpt lat="43.3895517" lon="11.914648"><ele>831.0</ele><time>2026-03-28T10:42:21.093Z</time></trkpt><trkpt lat="43.3896082" lon="11.9145933"><ele>831.0</ele><time>2026-03-28T10:42:28.088Z</time></trkpt><trkpt lat="43.3896608" lon="11.9145436"><ele>831.0</ele><time>2026-03-28T10:42:34.051Z</time></trkpt><trkpt lat="43.3897133" lon="11.9144748"><ele>831.0</ele><time>2026-03-28T10:42:41.04Z</time></trkpt><trkpt lat="43.3897696" lon="11.9144348"><ele>830.9999999999999</ele><time>2026-03-28T10:42:46.088Z</time></trkpt><trkpt lat="43.3898153" lon="11.9143586"><ele>831.0</ele><time>2026-03-28T10:42:52.045Z</time></trkpt><trkpt lat="43.3898762" lon="11.9143099"><ele>831.9999999999999</ele><time>2026-03-28T10:42:58.983Z</time></trkpt><trkpt lat="43.3899443" lon="11.9143062"><ele>833.0</ele><time>2026-03-28T10:43:06.05Z</time></trkpt><trkpt lat="43.390009" lon="11.9142997"><ele>834.0</ele><time>2026-03-28T10:43:13.07Z</time></trkpt><trkpt lat="43.3900674" lon="11.914352"><ele>835.0</ele><time>2026-03-28T10:43:18.967Z</time></trkpt><trkpt lat="43.3901128" lon="11.9144313"><ele>836.0</ele><time>2026-03-28T10:43:24.011Z</time></trkpt><trkpt lat="43.390176" lon="11.9144751"><ele>836.9999999999999</ele><time>2026-03-28T10:43:30.079Z</time></trkpt><trkpt lat="43.3902316" lon="11.9145189"><ele>838.0</ele><time>2026-03-28T10:43:36.092Z</time></trkpt><trkpt lat="43.3902944" lon="11.9145673"><ele>837.9999999999999</ele><time>2026-03-28T10:43:43.045Z</time></trkpt><trkpt lat="43.3903554" lon="11.9146212"><ele>838.0</ele><time>2026-03-28T10:43:49.065Z</time></trkpt><trkpt lat="43.390411" lon="11.9146728"><ele>838.0</ele><time>2026-03-28T10:43:54.006Z</time></trkpt><trkpt lat="43.3904794" lon="11.9147145"><ele>838.0</ele><time>2026-03-28T10:43:58.067Z</time></trkpt><trkpt lat="43.3905329" lon="11.9147604"><ele>838.0</ele><time>2026-03-28T10:44:01.027Z</time></trkpt><trkpt lat="43.3905886" lon="11.9148103"><ele>837.9999999999999</ele><time>2026-03-28T10:44:04.092Z</time></trkpt><trkpt lat="43.3906482" lon="11.9148608"><ele>838.0</ele><time>2026-03-28T10:44:08.081Z</time></trkpt><trkpt lat="43.3907023" lon="11.914926"><ele>837.9999999999999</ele><time>2026-03-28T10:44:12.081Z</time></trkpt><trkpt lat="43.3907609" lon="11.9149646"><ele>838.0</ele><time>2026-03-28T10:44:15.993Z</time></trkpt><trkpt lat="43.3908329" lon="11.9150088"><ele>838.0</ele><time>2026-03-28T10:44:20.081Z</time></trkpt><trkpt lat="43.3908941" lon="11.9150505"><ele>838.0</ele><time>2026-03-28T10:44:24.009Z</time></trkpt><trkpt lat="43.3909647" lon="11.9150924"><ele>838.0</ele><time>2026-03-28T10:44:28.081Z</time></trkpt><trkpt lat="43.3910228" lon="11.9151331"><ele>837.9999999999999</ele><time>2026-03-28T10:44:32.078Z</time></trkpt><trkpt lat="43.3910893" lon="11.9151428"><ele>838.0</ele><time>2026-03-28T10:44:36.08Z</time></trkpt><trkpt lat="43.3911532" lon="11.9152042"><ele>836.6666666666666</ele><time>2026-03-28T10:44:41.054Z</time></trkpt><trkpt lat="43.3912252" lon="11.9152628"><ele>835.3333333333333</ele><time>2026-03-28T10:44:46.009Z</time></trkpt><trkpt lat="43.3912919" lon="11.9153092"><ele>834.0</ele><time>2026-03-28T10:44:50.097Z</time></trkpt><trkpt lat="43.3913573" lon="11.9153797"><ele>832.6666666666667</ele><time>2026-03-28T10:44:54.075Z</time></trkpt><trkpt lat="43.3914305" lon="11.9154341"><ele>831.3333333333334</ele><time>2026-03-28T10:44:58.08Z</time></trkpt><trkpt lat="43.3915048" lon="11.9154844"><ele>830.0</ele><time>2026-03-28T10:45:02.084Z</time></trkpt><trkpt lat="43.3915761" lon="11.9155378"><ele>830.0</ele><time>2026-03-28T10:45:06.06Z</time></trkpt><trkpt lat="43.3916461" lon="11.915579"><ele>830.0</ele><time>2026-03-28T10:45:10.068Z</time></trkpt><trkpt lat="43.3917075" lon="11.9156169"><ele>830.0</ele><time>2026-03-28T10:45:15.054Z</time></trkpt><trkpt lat="43.3917645" lon="11.9156626"><ele>830.0</ele><time>2026-03-28T10:45:20.058Z</time></trkpt><trkpt lat="43.3918214" lon="11.915719"><ele>830.0</ele><time>2026-03-28T10:45:26.05Z</time></trkpt><trkpt lat="43.3918886" lon="11.9157688"><ele>830.0</ele><time>2026-03-28T10:45:32.032Z</time></trkpt><trkpt lat="43.3919466" lon="11.9158148"><ele>830.0</ele><time>2026-03-28T10:45:39.04Z</time></trkpt><trkpt lat="43.3920113" lon="11.9158595"><ele>830.0</ele><time>2026-03-28T10:45:45.058Z</time></trkpt><trkpt lat="43.3920755" lon="11.9158547"><ele>830.0</ele><time>2026-03-28T10:45:48.081Z</time></trkpt><trkpt lat="43.3921085" lon="11.9159383"><ele>830.0</ele><time>2026-03-28T10:45:50.066Z</time></trkpt><trkpt lat="43.3921171" lon="11.91603"><ele>830.0</ele><time>2026-03-28T10:45:52.074Z</time></trkpt><trkpt lat="43.392119" lon="11.9161255"><ele>830.0</ele><time>2026-03-28T10:45:54.075Z</time></trkpt><trkpt lat="43.3921524" lon="11.9162295"><ele>830.0</ele><time>2026-03-28T10:45:57.059Z</time></trkpt><trkpt lat="43.3922086" lon="11.9163054"><ele>830.0</ele><time>2026-03-28T10:46:00.006Z</time></trkpt><trkpt lat="43.3922542" lon="11.9163779"><ele>828.5714285714286</ele><time>2026-03-28T10:46:03.063Z</time></trkpt><trkpt lat="43.392324" lon="11.9163967"><ele>827.1428571428571</ele><time>2026-03-28T10:46:07.062Z</time></trkpt><trkpt lat="43.3923893" lon="11.9163932"><ele>825.7142857142858</ele><time>2026-03-28T10:46:11.053Z</time></trkpt><trkpt lat="43.3924532" lon="11.9163786"><ele>824.2857142857142</ele><time>2026-03-28T10:46:15.068Z</time></trkpt><trkpt lat="43.3925267" lon="11.9163465"><ele>822.8571428571428</ele><time>2026-03-28T10:46:20.091Z</time></trkpt><trkpt lat="43.3925936" lon="11.9163453"><ele>821.4285714285714</ele><time>2026-03-28T10:46:26.083Z</time></trkpt><trkpt lat="43.392636" lon="11.9162811"><ele>820.0</ele><time>2026-03-28T10:46:29.061Z</time></trkpt><trkpt lat="43.3927021" lon="11.9162465"><ele>820.0</ele><time>2026-03-28T10:46:32.991Z</time></trkpt><trkpt lat="43.3927712" lon="11.9162337"><ele>820.0</ele><time>2026-03-28T10:46:37.031Z</time></trkpt><trkpt lat="43.3928344" lon="11.9162465"><ele>820.0</ele><time>2026-03-28T10:46:41.005Z</time></trkpt><trkpt lat="43.392904" lon="11.9162453"><ele>820.0</ele><time>2026-03-28T10:46:46.048Z</time></trkpt><trkpt lat="43.3929702" lon="11.9162211"><ele>820.0</ele><time>2026-03-28T10:46:50.132Z</time></trkpt><trkpt lat="43.3930291" lon="11.9161673"><ele>820.0</ele><time>2026-03-28T10:46:55.086Z</time></trkpt><trkpt lat="43.3930989" lon="11.9161165"><ele>820.0</ele><time>2026-03-28T10:46:59.051Z</time></trkpt><trkpt lat="43.3931532" lon="11.9160705"><ele>819.1666666666666</ele><time>2026-03-28T10:47:01.969Z</time></trkpt><trkpt lat="43.3932284" lon="11.916048"><ele>818.3333333333333</ele><time>2026-03-28T10:47:04.811Z</time></trkpt><trkpt lat="43.393301" lon="11.9160322"><ele>817.5</ele><time>2026-03-28T10:47:07.63Z</time></trkpt><trkpt lat="43.3933829" lon="11.9160238"><ele>816.6666666666667</ele><time>2026-03-28T10:47:10.808Z</time></trkpt><trkpt lat="43.3934639" lon="11.9159953"><ele>815.8333333333334</ele><time>2026-03-28T10:47:14.09Z</time></trkpt><trkpt lat="43.3935478" lon="11.9160204"><ele>815.0</ele><time>2026-03-28T10:47:18.074Z</time></trkpt><trkpt lat="43.3936062" lon="11.9160643"><ele>815.0</ele><time>2026-03-28T10:47:21.115Z</time></trkpt><trkpt lat="43.3936586" lon="11.9161251"><ele>815.0</ele><time>2026-03-28T10:47:25.038Z</time></trkpt><trkpt lat="43.3937188" lon="11.9161797"><ele>815.0</ele><time>2026-03-28T10:47:29.13Z</time></trkpt><trkpt lat="43.3937853" lon="11.9162099"><ele>815.0</ele><time>2026-03-28T10:47:33.093Z</time></trkpt><trkpt lat="43.3938579" lon="11.9162301"><ele>815.0</ele><time>2026-03-28T10:47:37.085Z</time></trkpt><trkpt lat="43.3939208" lon="11.9162805"><ele>815.0</ele><time>2026-03-28T10:47:41.081Z</time></trkpt><trkpt lat="43.3939823" lon="11.9163381"><ele>815.0</ele><time>2026-03-28T10:47:45.052Z</time></trkpt><trkpt lat="43.394047" lon="11.9163988"><ele>812.8571428571429</ele><time>2026-03-28T10:47:48.99Z</time></trkpt><trkpt lat="43.394093" lon="11.9164619"><ele>810.7142857142857</ele><time>2026-03-28T10:47:53.093Z</time></trkpt><trkpt lat="43.3941351" lon="11.916544"><ele>808.5714285714287</ele><time>2026-03-28T10:47:57.063Z</time></trkpt><trkpt lat="43.3941885" lon="11.9166282"><ele>806.4285714285714</ele><time>2026-03-28T10:48:01.063Z</time></trkpt><trkpt lat="43.3942421" lon="11.9167149"><ele>804.2857142857143</ele><time>2026-03-28T10:48:04.988Z</time></trkpt><trkpt lat="43.3943051" lon="11.9167698"><ele>802.1428571428572</ele><time>2026-03-28T10:48:08.064Z</time></trkpt><trkpt lat="43.3943611" lon="11.9168232"><ele>800.0</ele><time>2026-03-28T10:48:11.025Z</time></trkpt><trkpt lat="43.3944216" lon="11.9168997"><ele>798.5000000000001</ele><time>2026-03-28T10:48:15.058Z</time></trkpt><trkpt lat="43.3944695" lon="11.9169902"><ele>797.0</ele><time>2026-03-28T10:48:19.033Z</time></trkpt><trkpt lat="43.3945215" lon="11.9170689"><ele>795.5</ele><time>2026-03-28T10:48:23.087Z</time></trkpt><trkpt lat="43.3945693" lon="11.9171586"><ele>794.0</ele><time>2026-03-28T10:48:27.009Z</time></trkpt><trkpt lat="43.3946192" lon="11.9172432"><ele>792.5000000000001</ele><time>2026-03-28T10:48:31.097Z</time></trkpt><trkpt lat="43.3946713" lon="11.9173216"><ele>791.0</ele><time>2026-03-28T10:48:35.077Z</time></trkpt><trkpt lat="43.3946957" lon="11.917404"><ele>789.7142857142857</ele><time>2026-03-28T10:48:38.099Z</time></trkpt><trkpt lat="43.3947186" lon="11.9174897"><ele>788.4285714285714</ele><time>2026-03-28T10:48:41.086Z</time></trkpt><trkpt lat="43.3947531" lon="11.9175704"><ele>787.1428571428571</ele><time>2026-03-28T10:48:45.058Z</time></trkpt><trkpt lat="43.3947978" lon="11.9176479"><ele>785.8571428571429</ele><time>2026-03-28T10:48:49.049Z</time></trkpt><trkpt lat="43.394845" lon="11.917725"><ele>784.5714285714286</ele><time>2026-03-28T10:48:53.079Z</time></trkpt><trkpt lat="43.3949151" lon="11.9177744"><ele>783.2857142857142</ele><time>2026-03-28T10:48:56.93Z</time></trkpt><trkpt lat="43.3949776" lon="11.9177982"><ele>782.0</ele><time>2026-03-28T10:49:00.072Z</time></trkpt><trkpt lat="43.395034" lon="11.91784"><ele>779.9999999999999</ele><time>2026-03-28T10:49:03.101Z</time></trkpt><trkpt lat="43.3950992" lon="11.9178658"><ele>778.0</ele><time>2026-03-28T10:49:06.067Z</time></trkpt><trkpt lat="43.3951408" lon="11.9179368"><ele>776.0</ele><time>2026-03-28T10:49:09.005Z</time></trkpt><trkpt lat="43.3951844" lon="11.9180327"><ele>774.0</ele><time>2026-03-28T10:49:13.055Z</time></trkpt><trkpt lat="43.3952061" lon="11.918117"><ele>772.0</ele><time>2026-03-28T10:49:16.07Z</time></trkpt><trkpt lat="43.3952446" lon="11.9182106"><ele>769.9999999999999</ele><time>2026-03-28T10:49:20.085Z</time></trkpt><trkpt lat="43.3952888" lon="11.9182738"><ele>768.0</ele><time>2026-03-28T10:49:23.075Z</time></trkpt><trkpt lat="43.3953488" lon="11.9183131"><ele>768.0</ele><time>2026-03-28T10:49:26.068Z</time></trkpt><trkpt lat="43.3954096" lon="11.9183892"><ele>768.0</ele><time>2026-03-28T10:49:30.086Z</time></trkpt><trkpt lat="43.3954698" lon="11.9184467"><ele>768.0</ele><time>2026-03-28T10:49:34.099Z</time></trkpt><trkpt lat="43.3955202" lon="11.9185274"><ele>768.0</ele><time>2026-03-28T10:49:38.085Z</time></trkpt><trkpt lat="43.3955632" lon="11.9186111"><ele>768.0</ele><time>2026-03-28T10:49:41.077Z</time></trkpt><trkpt lat="43.3956181" lon="11.9186752"><ele>768.0</ele><time>2026-03-28T10:49:43.928Z</time></trkpt><trkpt lat="43.395677" lon="11.9187663"><ele>763.7142857142857</ele><time>2026-03-28T10:49:46.956Z</time></trkpt><trkpt lat="43.3957157" lon="11.9188561"><ele>759.4285714285714</ele><time>2026-03-28T10:49:50.094Z</time></trkpt><trkpt lat="43.3957753" lon="11.9189296"><ele>755.1428571428571</ele><time>2026-03-28T10:49:53.101Z</time></trkpt><trkpt lat="43.3958277" lon="11.9190033"><ele>750.8571428571429</ele><time>2026-03-28T10:49:56.085Z</time></trkpt><trkpt lat="43.3958728" lon="11.9190735"><ele>746.5714285714286</ele><time>2026-03-28T10:49:59.064Z</time></trkpt><trkpt lat="43.3959224" lon="11.9191325"><ele>742.2857142857142</ele><time>2026-03-28T10:50:02.099Z</time></trkpt><trkpt lat="43.395992" lon="11.919158"><ele>738.0</ele><time>2026-03-28T10:50:06.075Z</time></trkpt><trkpt lat="43.3960442" lon="11.9192285"><ele>735.0</ele><time>2026-03-28T10:50:18.102Z</time></trkpt><trkpt lat="43.3961084" lon="11.9192982"><ele>732.0</ele><time>2026-03-28T10:50:21.987Z</time></trkpt><trkpt lat="43.3961782" lon="11.9193748"><ele>729.0</ele><time>2026-03-28T10:50:25.08Z</time></trkpt><trkpt lat="43.3962415" lon="11.9194541"><ele>726.0</ele><time>2026-03-28T10:50:28.08Z</time></trkpt><trkpt lat="43.396299" lon="11.9195069"><ele>723.0</ele><time>2026-03-28T10:50:31.074Z</time></trkpt><trkpt lat="43.3963222" lon="11.9196"><ele>720.0</ele><time>2026-03-28T10:50:35.083Z</time></trkpt><trkpt lat="43.3963826" lon="11.919679"><ele>719.8571428571428</ele><time>2026-03-28T10:50:39.084Z</time></trkpt><trkpt lat="43.3964498" lon="11.9196861"><ele>719.7142857142858</ele><time>2026-03-28T10:50:43.085Z</time></trkpt><trkpt lat="43.3964712" lon="11.9197761"><ele>719.5714285714286</ele><time>2026-03-28T10:50:46.085Z</time></trkpt><trkpt lat="43.396504" lon="11.9198576"><ele>719.4285714285713</ele><time>2026-03-28T10:50:49.085Z</time></trkpt><trkpt lat="43.3965551" lon="11.9199431"><ele>719.2857142857142</ele><time>2026-03-28T10:50:53.087Z</time></trkpt><trkpt lat="43.3966031" lon="11.920001"><ele>719.1428571428571</ele><time>2026-03-28T10:50:58.075Z</time></trkpt><trkpt lat="43.3966365" lon="11.9200873"><ele>719.0</ele><time>2026-03-28T10:51:02.092Z</time></trkpt><trkpt lat="43.3966429" lon="11.9201755"><ele>717.1428571428571</ele><time>2026-03-28T10:51:06.065Z</time></trkpt><trkpt lat="43.3966936" lon="11.9202477"><ele>715.2857142857142</ele><time>2026-03-28T10:51:10.05Z</time></trkpt><trkpt lat="43.3967502" lon="11.9203078"><ele>713.4285714285713</ele><time>2026-03-28T10:51:14.124Z</time></trkpt><trkpt lat="43.3967987" lon="11.9203928"><ele>711.5714285714286</ele><time>2026-03-28T10:51:19.107Z</time></trkpt><trkpt lat="43.3968732" lon="11.9204141"><ele>709.7142857142858</ele><time>2026-03-28T10:51:23.075Z</time></trkpt><trkpt lat="43.3969462" lon="11.9204392"><ele>707.8571428571428</ele><time>2026-03-28T10:51:27.077Z</time></trkpt><trkpt lat="43.3969923" lon="11.9205029"><ele>706.0</ele><time>2026-03-28T10:51:30.059Z</time></trkpt><trkpt lat="43.3970302" lon="11.9205844"><ele>706.0</ele><time>2026-03-28T10:51:35.064Z</time></trkpt><trkpt lat="43.3971379" lon="11.9206407"><ele>706.0</ele><time>2026-03-28T10:51:54.074Z</time></trkpt><trkpt lat="43.3971999" lon="11.920689"><ele>706.0</ele><time>2026-03-28T10:51:58.075Z</time></trkpt><trkpt lat="43.3972567" lon="11.9207291"><ele>706.0</ele><time>2026-03-28T10:52:02.083Z</time></trkpt><trkpt lat="43.3973258" lon="11.9207581"><ele>706.0</ele><time>2026-03-28T10:52:05.933Z</time></trkpt><trkpt lat="43.3973901" lon="11.9207952"><ele>706.0</ele><time>2026-03-28T10:52:13.054Z</time></trkpt><trkpt lat="43.3974466" lon="11.920843"><ele>704.5714285714286</ele><time>2026-03-28T10:52:19.03Z</time></trkpt><trkpt lat="43.3975249" lon="11.9208644"><ele>703.1428571428572</ele><time>2026-03-28T10:52:26.079Z</time></trkpt><trkpt lat="43.3975998" lon="11.9209168"><ele>701.7142857142858</ele><time>2026-03-28T10:52:30.025Z</time></trkpt><trkpt lat="43.397654" lon="11.9209781"><ele>700.2857142857142</ele><time>2026-03-28T10:52:33.082Z</time></trkpt><trkpt lat="43.3977159" lon="11.9210058"><ele>698.8571428571429</ele><time>2026-03-28T10:52:38.084Z</time></trkpt><trkpt lat="43.3977938" lon="11.9210106"><ele>697.4285714285714</ele><time>2026-03-28T10:52:48.966Z</time></trkpt><trkpt lat="43.397858" lon="11.921034"><ele>696.0</ele><time>2026-03-28T10:52:51.073Z</time></trkpt><trkpt lat="43.3979238" lon="11.9210797"><ele>694.5714285714286</ele><time>2026-03-28T10:52:55.074Z</time></trkpt><trkpt lat="43.398" lon="11.9211124"><ele>693.1428571428571</ele><time>2026-03-28T10:52:59.093Z</time></trkpt><trkpt lat="43.3980585" lon="11.9211456"><ele>691.7142857142858</ele><time>2026-03-28T10:53:03.067Z</time></trkpt><trkpt lat="43.3981244" lon="11.9211832"><ele>690.2857142857142</ele><time>2026-03-28T10:53:08.086Z</time></trkpt><trkpt lat="43.398201" lon="11.9212"><ele>688.8571428571429</ele><time>2026-03-28T10:53:12.024Z</time></trkpt><trkpt lat="43.3982528" lon="11.9212717"><ele>687.4285714285714</ele><time>2026-03-28T10:53:16.055Z</time></trkpt><trkpt lat="43.398327" lon="11.9213096"><ele>686.0</ele><time>2026-03-28T10:53:22.07Z</time></trkpt><trkpt lat="43.398396" lon="11.9213108"><ele>685.5714285714286</ele><time>2026-03-28T10:53:26.129Z</time></trkpt><trkpt lat="43.3984584" lon="11.9213518"><ele>685.1428571428571</ele><time>2026-03-28T10:53:30.096Z</time></trkpt><trkpt lat="43.3985071" lon="11.9214385"><ele>684.7142857142858</ele><time>2026-03-28T10:53:34.011Z</time></trkpt><trkpt lat="43.3985456" lon="11.9215086"><ele>684.2857142857142</ele><time>2026-03-28T10:53:36.926Z</time></trkpt><trkpt lat="43.398602" lon="11.9215875"><ele>683.8571428571429</ele><time>2026-03-28T10:53:41.09Z</time></trkpt><trkpt lat="43.3986452" lon="11.9216561"><ele>683.4285714285714</ele><time>2026-03-28T10:53:45.076Z</time></trkpt><trkpt lat="43.3987121" lon="11.921703"><ele>683.0</ele><time>2026-03-28T10:53:50.074Z</time></trkpt><trkpt lat="43.3987843" lon="11.9217457"><ele>681.4285714285714</ele><time>2026-03-28T10:53:54.987Z</time></trkpt><trkpt lat="43.3988512" lon="11.9217437"><ele>679.8571428571429</ele><time>2026-03-28T10:53:58.045Z</time></trkpt><trkpt lat="43.3989248" lon="11.9217616"><ele>678.2857142857142</ele><time>2026-03-28T10:54:02.07Z</time></trkpt><trkpt lat="43.3989907" lon="11.9217917"><ele>676.7142857142858</ele><time>2026-03-28T10:54:06.082Z</time></trkpt><trkpt lat="43.399052" lon="11.9218283"><ele>675.1428571428571</ele><time>2026-03-28T10:54:10.002Z</time></trkpt><trkpt lat="43.3991098" lon="11.9218854"><ele>673.5714285714286</ele><time>2026-03-28T10:54:14.084Z</time></trkpt><trkpt lat="43.399164" lon="11.9219435"><ele>672.0</ele><time>2026-03-28T10:54:18.085Z</time></trkpt><trkpt lat="43.3992177" lon="11.922015"><ele>672.0</ele><time>2026-03-28T10:54:22.989Z</time></trkpt><trkpt lat="43.3992702" lon="11.9220802"><ele>672.0</ele><time>2026-03-28T10:54:28.069Z</time></trkpt><trkpt lat="43.399399" lon="11.9221328"><ele>672.0</ele><time>2026-03-28T10:54:50.09Z</time></trkpt><trkpt lat="43.3994577" lon="11.9221725"><ele>672.0</ele><time>2026-03-28T10:54:55.084Z</time></trkpt><trkpt lat="43.3995188" lon="11.922199"><ele>672.0</ele><time>2026-03-28T10:55:05.08Z</time></trkpt><trkpt lat="43.399582" lon="11.9222621"><ele>672.0</ele><time>2026-03-28T10:55:34.089Z</time></trkpt><trkpt lat="43.3995849" lon="11.922353"><ele>672.0</ele><time>2026-03-28T10:55:40.083Z</time></trkpt><trkpt lat="43.3995295" lon="11.9224124"><ele>672.0</ele><time>2026-03-28T10:55:48.189Z</time></trkpt><trkpt lat="43.399507" lon="11.9224942"><ele>672.0</ele><time>2026-03-28T10:55:56.086Z</time></trkpt><trkpt lat="43.3995" lon="11.9225872"><ele>672.0</ele><time>2026-03-28T10:56:01.086Z</time></trkpt><trkpt lat="43.3994659" lon="11.9226713"><ele>672.0</ele><time>2026-03-28T10:56:08.094Z</time></trkpt><trkpt lat="43.3994512" lon="11.9227628"><ele>672.0</ele><time>2026-03-28T10:56:16.092Z</time></trkpt><trkpt lat="43.3994292" lon="11.9228472"><ele>672.0</ele><time>2026-03-28T10:56:24.089Z</time></trkpt><trkpt lat="43.399401" lon="11.922936"><ele>672.7142857142857</ele><time>2026-03-28T10:56:33.084Z</time></trkpt><trkpt lat="43.3994504" lon="11.9229977"><ele>673.4285714285714</ele><time>2026-03-28T10:56:55.091Z</time></trkpt><trkpt lat="43.3995156" lon="11.9229986"><ele>674.1428571428571</ele><time>2026-03-28T10:57:09.085Z</time></trkpt><trkpt lat="43.3995837" lon="11.9229918"><ele>674.8571428571429</ele><time>2026-03-28T10:57:18.109Z</time></trkpt><trkpt lat="43.3996489" lon="11.9229777"><ele>675.5714285714286</ele><time>2026-03-28T10:57:26.061Z</time></trkpt><trkpt lat="43.3997006" lon="11.922917"><ele>676.2857142857142</ele><time>2026-03-28T10:57:35.094Z</time></trkpt><trkpt lat="43.399763" lon="11.9228835"><ele>677.0</ele><time>2026-03-28T10:57:47.079Z</time></trkpt><trkpt lat="43.3998288" lon="11.9228534"><ele>679.1428571428571</ele><time>2026-03-28T10:57:54.113Z</time></trkpt><trkpt lat="43.3998887" lon="11.9228245"><ele>681.2857142857142</ele><time>2026-03-28T10:58:02.099Z</time></trkpt><trkpt lat="43.3999473" lon="11.9228789"><ele>683.4285714285713</ele><time>2026-03-28T10:58:09.082Z</time></trkpt><trkpt lat="43.3999887" lon="11.9229504"><ele>685.5714285714286</ele><time>2026-03-28T10:58:13.107Z</time></trkpt><trkpt lat="43.400052" lon="11.9230095"><ele>687.7142857142858</ele><time>2026-03-28T10:58:18.091Z</time></trkpt><trkpt lat="43.4000622" lon="11.9231186"><ele>689.8571428571428</ele><time>2026-03-28T10:58:25.052Z</time></trkpt><trkpt lat="43.4000978" lon="11.9231942"><ele>692.0</ele><time>2026-03-28T10:58:29.085Z</time></trkpt><trkpt lat="43.400163" lon="11.9232473"><ele>692.0</ele><time>2026-03-28T10:58:33.071Z</time></trkpt><trkpt lat="43.4002312" lon="11.9232872"><ele>692.0</ele><time>2026-03-28T10:58:37.067Z</time></trkpt><trkpt lat="43.4002927" lon="11.9233132"><ele>692.0</ele><time>2026-03-28T10:58:41.075Z</time></trkpt><trkpt lat="43.4003625" lon="11.923323"><ele>692.0</ele><time>2026-03-28T10:58:46.08Z</time></trkpt><trkpt lat="43.4004178" lon="11.9233767"><ele>692.0</ele><time>2026-03-28T10:58:51.032Z</time></trkpt><trkpt lat="43.4004634" lon="11.9234466"><ele>692.0</ele><time>2026-03-28T10:58:55.087Z</time></trkpt><trkpt lat="43.4005193" lon="11.9235117"><ele>692.0</ele><time>2026-03-28T10:58:59.116Z</time></trkpt><trkpt lat="43.4005788" lon="11.9235757"><ele>691.5714285714286</ele><time>2026-03-28T10:59:03.099Z</time></trkpt><trkpt lat="43.4006272" lon="11.9236328"><ele>691.1428571428572</ele><time>2026-03-28T10:59:07.091Z</time></trkpt><trkpt lat="43.4006942" lon="11.9236703"><ele>690.7142857142858</ele><time>2026-03-28T10:59:11.087Z</time></trkpt><trkpt lat="43.4007757" lon="11.9236926"><ele>690.2857142857142</ele><time>2026-03-28T10:59:15.092Z</time></trkpt><trkpt lat="43.4008382" lon="11.9237146"><ele>689.8571428571429</ele><time>2026-03-28T10:59:18.096Z</time></trkpt><trkpt lat="43.4009021" lon="11.9237488"><ele>689.4285714285714</ele><time>2026-03-28T10:59:21.088Z</time></trkpt><trkpt lat="43.4009708" lon="11.9237685"><ele>689.0</ele><time>2026-03-28T10:59:24.084Z</time></trkpt><trkpt lat="43.4010393" lon="11.9237846"><ele>689.0</ele><time>2026-03-28T10:59:27.078Z</time></trkpt><trkpt lat="43.4011142" lon="11.9237725"><ele>689.0</ele><time>2026-03-28T10:59:30.016Z</time></trkpt><trkpt lat="43.4011831" lon="11.9237442"><ele>689.0</ele><time>2026-03-28T10:59:33.007Z</time></trkpt><trkpt lat="43.4012561" lon="11.9237314"><ele>689.0</ele><time>2026-03-28T10:59:36.097Z</time></trkpt><trkpt lat="43.4013412" lon="11.9237384"><ele>689.0</ele><time>2026-03-28T10:59:40.085Z</time></trkpt><trkpt lat="43.401415" lon="11.9237489"><ele>689.0</ele><time>2026-03-28T10:59:43.108Z</time></trkpt><trkpt lat="43.4014927" lon="11.923777"><ele>688.8571428571429</ele><time>2026-03-28T10:59:47.084Z</time></trkpt><trkpt lat="43.401552" lon="11.9238169"><ele>688.7142857142858</ele><time>2026-03-28T10:59:51.088Z</time></trkpt><trkpt lat="43.401619" lon="11.9238713"><ele>688.5714285714287</ele><time>2026-03-28T10:59:55.048Z</time></trkpt><trkpt lat="43.4016837" lon="11.9239162"><ele>688.4285714285714</ele><time>2026-03-28T10:59:59.089Z</time></trkpt><trkpt lat="43.4017468" lon="11.9239245"><ele>688.2857142857143</ele><time>2026-03-28T11:00:03.072Z</time></trkpt><trkpt lat="43.4018103" lon="11.9239693"><ele>688.1428571428572</ele><time>2026-03-28T11:00:07.104Z</time></trkpt><trkpt lat="43.4018669" lon="11.9240174"><ele>688.0</ele><time>2026-03-28T11:00:11.084Z</time></trkpt><trkpt lat="43.4019314" lon="11.9240561"><ele>688.0000000000001</ele><time>2026-03-28T11:00:15.077Z</time></trkpt><trkpt lat="43.4019927" lon="11.9240912"><ele>688.0</ele><time>2026-03-28T11:00:19.011Z</time></trkpt><trkpt lat="43.4020502" lon="11.9241376"><ele>688.0</ele><time>2026-03-28T11:00:23.088Z</time></trkpt><trkpt lat="43.4020992" lon="11.9242148"><ele>688.0</ele><time>2026-03-28T11:00:27.084Z</time></trkpt><trkpt lat="43.4021426" lon="11.9242812"><ele>688.0</ele><time>2026-03-28T11:00:29.991Z</time></trkpt><trkpt lat="43.4021791" lon="11.9243665"><ele>688.0000000000001</ele><time>2026-03-28T11:00:34.027Z</time></trkpt><trkpt lat="43.4022279" lon="11.9244423"><ele>688.0</ele><time>2026-03-28T11:00:39.083Z</time></trkpt><trkpt lat="43.4022473" lon="11.9245341"><ele>687.7142857142858</ele><time>2026-03-28T11:00:43.077Z</time></trkpt><trkpt lat="43.4022934" lon="11.9246091"><ele>687.4285714285714</ele><time>2026-03-28T11:00:47.061Z</time></trkpt><trkpt lat="43.4023557" lon="11.9246792"><ele>687.1428571428571</ele><time>2026-03-28T11:00:51.047Z</time></trkpt><trkpt lat="43.4024144" lon="11.9247423"><ele>686.8571428571429</ele><time>2026-03-28T11:00:54.989Z</time></trkpt><trkpt lat="43.4024787" lon="11.9247879"><ele>686.5714285714286</ele><time>2026-03-28T11:00:59.014Z</time></trkpt><trkpt lat="43.4025371" lon="11.9248504"><ele>686.2857142857143</ele><time>2026-03-28T11:01:04.086Z</time></trkpt><trkpt lat="43.4025896" lon="11.9249107"><ele>686.0</ele><time>2026-03-28T11:01:08.092Z</time></trkpt><trkpt lat="43.4026355" lon="11.9249932"><ele>686.0</ele><time>2026-03-28T11:01:13.079Z</time></trkpt><trkpt lat="43.4026829" lon="11.9250572"><ele>686.0</ele><time>2026-03-28T11:01:17.079Z</time></trkpt><trkpt lat="43.4027573" lon="11.9251136"><ele>686.0</ele><time>2026-03-28T11:01:21.072Z</time></trkpt><trkpt lat="43.402807" lon="11.9251754"><ele>686.0</ele><time>2026-03-28T11:01:24.009Z</time></trkpt><trkpt lat="43.4028668" lon="11.9252187"><ele>686.0</ele><time>2026-03-28T11:01:27.072Z</time></trkpt><trkpt lat="43.4029268" lon="11.9252759"><ele>686.0</ele><time>2026-03-28T11:01:31.502Z</time></trkpt><trkpt lat="43.4029891" lon="11.9253229"><ele>686.0</ele><time>2026-03-28T11:01:34.884Z</time></trkpt><trkpt lat="43.4030516" lon="11.9253703"><ele>685.8571428571429</ele><time>2026-03-28T11:01:38.082Z</time></trkpt><trkpt lat="43.4031138" lon="11.9254178"><ele>685.7142857142858</ele><time>2026-03-28T11:01:41.099Z</time></trkpt><trkpt lat="43.4031867" lon="11.9254458"><ele>685.5714285714286</ele><time>2026-03-28T11:01:44.101Z</time></trkpt><trkpt lat="43.4032473" lon="11.9254949"><ele>685.4285714285714</ele><time>2026-03-28T11:01:47.113Z</time></trkpt><trkpt lat="43.4033079" lon="11.9255442"><ele>685.2857142857143</ele><time>2026-03-28T11:01:50.082Z</time></trkpt><trkpt lat="43.4033654" lon="11.925597"><ele>685.1428571428571</ele><time>2026-03-28T11:01:53.088Z</time></trkpt><trkpt lat="43.4034206" lon="11.9256638"><ele>685.0</ele><time>2026-03-28T11:01:57.089Z</time></trkpt><trkpt lat="43.4034768" lon="11.9257243"><ele>685.0</ele><time>2026-03-28T11:02:01.02Z</time></trkpt><trkpt lat="43.4035333" lon="11.9257736"><ele>685.0</ele><time>2026-03-28T11:02:04.994Z</time></trkpt><trkpt lat="43.403589" lon="11.9258361"><ele>685.0</ele><time>2026-03-28T11:02:10.101Z</time></trkpt><trkpt lat="43.4036452" lon="11.9259058"><ele>685.0</ele><time>2026-03-28T11:02:15.076Z</time></trkpt><trkpt lat="43.4037085" lon="11.9259538"><ele>685.0</ele><time>2026-03-28T11:02:21.068Z</time></trkpt><trkpt lat="43.4037629" lon="11.9259981"><ele>685.0</ele><time>2026-03-28T11:02:26.096Z</time></trkpt><trkpt lat="43.4038165" lon="11.9260516"><ele>685.0</ele><time>2026-03-28T11:02:32.101Z</time></trkpt><trkpt lat="43.4038551" lon="11.9261309"><ele>687.0</ele><time>2026-03-28T11:02:39.079Z</time></trkpt><trkpt lat="43.4038986" lon="11.9261984"><ele>689.0</ele><time>2026-03-28T11:02:46.037Z</time></trkpt><trkpt lat="43.4039427" lon="11.9262649"><ele>691.0</ele><time>2026-03-28T11:02:53.063Z</time></trkpt><trkpt lat="43.4039662" lon="11.9263456"><ele>693.0</ele><time>2026-03-28T11:02:59.094Z</time></trkpt><trkpt lat="43.4039774" lon="11.9264324"><ele>695.0</ele><time>2026-03-28T11:03:06.112Z</time></trkpt><trkpt lat="43.4039847" lon="11.9265212"><ele>697.0</ele><time>2026-03-28T11:03:11.102Z</time></trkpt><trkpt lat="43.4039731" lon="11.9266236"><ele>699.0</ele><time>2026-03-28T11:03:15.093Z</time></trkpt><trkpt lat="43.4039328" lon="11.9266924"><ele>698.7142857142857</ele><time>2026-03-28T11:03:18.054Z</time></trkpt><trkpt lat="43.4038918" lon="11.9267618"><ele>698.4285714285714</ele><time>2026-03-28T11:03:21.09Z</time></trkpt><trkpt lat="43.4038632" lon="11.9268556"><ele>698.1428571428571</ele><time>2026-03-28T11:03:24.978Z</time></trkpt><trkpt lat="43.4038422" lon="11.9269375"><ele>697.8571428571429</ele><time>2026-03-28T11:03:30.089Z</time></trkpt><trkpt lat="43.4038333" lon="11.9270306"><ele>697.5714285714286</ele><time>2026-03-28T11:03:36.091Z</time></trkpt><trkpt lat="43.4038201" lon="11.9271237"><ele>697.2857142857143</ele><time>2026-03-28T11:03:42.039Z</time></trkpt><trkpt lat="43.4038142" lon="11.9272129"><ele>697.0</ele><time>2026-03-28T11:03:46.096Z</time></trkpt><trkpt lat="43.4038123" lon="11.92732"><ele>697.0</ele><time>2026-03-28T11:03:51.111Z</time></trkpt><trkpt lat="43.4038123" lon="11.9274185"><ele>697.0</ele><time>2026-03-28T11:03:56.017Z</time></trkpt><trkpt lat="43.403798" lon="11.9275095"><ele>697.0</ele><time>2026-03-28T11:04:01.037Z</time></trkpt><trkpt lat="43.4037806" lon="11.9276121"><ele>697.0</ele><time>2026-03-28T11:04:06.119Z</time></trkpt><trkpt lat="43.403777" lon="11.9277127"><ele>697.0</ele><time>2026-03-28T11:04:10.095Z</time></trkpt><trkpt lat="43.4037979" lon="11.9278034"><ele>697.0</ele><time>2026-03-28T11:04:14.013Z</time></trkpt><trkpt lat="43.4038364" lon="11.9278841"><ele>697.0</ele><time>2026-03-28T11:04:18.024Z</time></trkpt><trkpt lat="43.4038733" lon="11.92797"><ele>696.2857142857143</ele><time>2026-03-28T11:04:22.074Z</time></trkpt><trkpt lat="43.4039005" lon="11.9280548"><ele>695.5714285714286</ele><time>2026-03-28T11:04:26.093Z</time></trkpt><trkpt lat="43.4039342" lon="11.9281348"><ele>694.8571428571429</ele><time>2026-03-28T11:04:30.052Z</time></trkpt><trkpt lat="43.4039578" lon="11.9282321"><ele>694.1428571428571</ele><time>2026-03-28T11:04:35.092Z</time></trkpt><trkpt lat="43.4039739" lon="11.9283176"><ele>693.4285714285714</ele><time>2026-03-28T11:04:39.084Z</time></trkpt><trkpt lat="43.4040115" lon="11.9284034"><ele>692.7142857142857</ele><time>2026-03-28T11:04:43.004Z</time></trkpt><trkpt lat="43.4040108" lon="11.9285106"><ele>692.0</ele><time>2026-03-28T11:04:46.096Z</time></trkpt><trkpt lat="43.4040047" lon="11.9286028"><ele>692.0</ele><time>2026-03-28T11:04:49.083Z</time></trkpt><trkpt lat="43.4040052" lon="11.9287191"><ele>692.0</ele><time>2026-03-28T11:04:53.107Z</time></trkpt><trkpt lat="43.4039969" lon="11.9288174"><ele>692.0</ele><time>2026-03-28T11:04:56.08Z</time></trkpt><trkpt lat="43.4039911" lon="11.9289184"><ele>692.0</ele><time>2026-03-28T11:04:59.095Z</time></trkpt><trkpt lat="43.4040061" lon="11.9290094"><ele>692.0</ele><time>2026-03-28T11:05:02.084Z</time></trkpt><trkpt lat="43.4040343" lon="11.9290889"><ele>692.0</ele><time>2026-03-28T11:05:05.045Z</time></trkpt><trkpt lat="43.4040265" lon="11.9291946"><ele>692.0</ele><time>2026-03-28T11:05:09.072Z</time></trkpt><trkpt lat="43.4040388" lon="11.9293026"><ele>690.8571428571428</ele><time>2026-03-28T11:05:13.092Z</time></trkpt><trkpt lat="43.4040588" lon="11.9293861"><ele>689.7142857142858</ele><time>2026-03-28T11:05:16.089Z</time></trkpt><trkpt lat="43.4040734" lon="11.929483"><ele>688.5714285714286</ele><time>2026-03-28T11:05:19.081Z</time></trkpt><trkpt lat="43.4040732" lon="11.929571"><ele>687.4285714285713</ele><time>2026-03-28T11:05:22.078Z</time></trkpt><trkpt lat="43.4040763" lon="11.9296632"><ele>686.2857142857142</ele><time>2026-03-28T11:05:26.075Z</time></trkpt><trkpt lat="43.4040919" lon="11.9297637"><ele>685.1428571428571</ele><time>2026-03-28T11:05:30.089Z</time></trkpt><trkpt lat="43.4041199" lon="11.9298428"><ele>684.0</ele><time>2026-03-28T11:05:33.11Z</time></trkpt><trkpt lat="43.4041314" lon="11.9299329"><ele>683.9999999999999</ele><time>2026-03-28T11:05:36.09Z</time></trkpt><trkpt lat="43.4041163" lon="11.9300201"><ele>684.0</ele><time>2026-03-28T11:05:43.095Z</time></trkpt><trkpt lat="43.4040876" lon="11.9301016"><ele>684.0</ele><time>2026-03-28T11:05:51.019Z</time></trkpt><trkpt lat="43.4040811" lon="11.9301991"><ele>684.0</ele><time>2026-03-28T11:05:55.102Z</time></trkpt><trkpt lat="43.4041155" lon="11.9302749"><ele>684.0</ele><time>2026-03-28T11:06:02.093Z</time></trkpt><trkpt lat="43.4040823" lon="11.9303591"><ele>683.9999999999999</ele><time>2026-03-28T11:06:07.097Z</time></trkpt><trkpt lat="43.4040363" lon="11.9304357"><ele>684.0</ele><time>2026-03-28T11:06:12.103Z</time></trkpt><trkpt lat="43.4040018" lon="11.9305254"><ele>684.7142857142857</ele><time>2026-03-28T11:06:18.12Z</time></trkpt><trkpt lat="43.4039779" lon="11.9306112"><ele>685.4285714285714</ele><time>2026-03-28T11:06:24.115Z</time></trkpt><trkpt lat="43.4039449" lon="11.9306995"><ele>686.1428571428571</ele><time>2026-03-28T11:06:31.07Z</time></trkpt><trkpt lat="43.4039178" lon="11.9307907"><ele>686.8571428571429</ele><time>2026-03-28T11:06:39.094Z</time></trkpt><trkpt lat="43.403892" lon="11.9308748"><ele>687.5714285714286</ele><time>2026-03-28T11:06:47.003Z</time></trkpt><trkpt lat="43.4038828" lon="11.9309675"><ele>688.2857142857142</ele><time>2026-03-28T11:06:53.099Z</time></trkpt><trkpt lat="43.4039056" lon="11.9310626"><ele>689.0</ele><time>2026-03-28T11:07:00.069Z</time></trkpt><trkpt lat="43.4039227" lon="11.9311501"><ele>689.0</ele><time>2026-03-28T11:07:08.098Z</time></trkpt><trkpt lat="43.4039366" lon="11.9312457"><ele>689.0</ele><time>2026-03-28T11:07:16.096Z</time></trkpt><trkpt lat="43.4039454" lon="11.9313353"><ele>689.0</ele><time>2026-03-28T11:07:25.088Z</time></trkpt><trkpt lat="43.4039509" lon="11.9314327"><ele>689.0</ele><time>2026-03-28T11:07:32.104Z</time></trkpt><trkpt lat="43.4039804" lon="11.9315128"><ele>689.0</ele><time>2026-03-28T11:07:39.102Z</time></trkpt><trkpt lat="43.4040208" lon="11.9315935"><ele>689.0</ele><time>2026-03-28T11:07:46.094Z</time></trkpt><trkpt lat="43.4040668" lon="11.9316578"><ele>689.0</ele><time>2026-03-28T11:07:52.098Z</time></trkpt><trkpt lat="43.4041274" lon="11.9317106"><ele>686.8571428571429</ele><time>2026-03-28T11:07:58.087Z</time></trkpt><trkpt lat="43.4041821" lon="11.9317615"><ele>684.7142857142858</ele><time>2026-03-28T11:08:07.116Z</time></trkpt><trkpt lat="43.4042346" lon="11.9318224"><ele>682.5714285714287</ele><time>2026-03-28T11:08:17.099Z</time></trkpt><trkpt lat="43.4042972" lon="11.9318687"><ele>680.4285714285714</ele><time>2026-03-28T11:08:24.095Z</time></trkpt><trkpt lat="43.4043517" lon="11.9319145"><ele>678.2857142857143</ele><time>2026-03-28T11:08:31.087Z</time></trkpt><trkpt lat="43.4044138" lon="11.931973"><ele>676.1428571428572</ele><time>2026-03-28T11:08:40.112Z</time></trkpt><trkpt lat="43.4044674" lon="11.9320258"><ele>674.0</ele><time>2026-03-28T11:08:46.078Z</time></trkpt><trkpt lat="43.4045357" lon="11.9320472"><ele>674.0000000000001</ele><time>2026-03-28T11:08:53.098Z</time></trkpt><trkpt lat="43.4045927" lon="11.9320945"><ele>674.0</ele><time>2026-03-28T11:08:59.095Z</time></trkpt><trkpt lat="43.4046435" lon="11.9321473"><ele>674.0</ele><time>2026-03-28T11:09:05.085Z</time></trkpt><trkpt lat="43.4047025" lon="11.9321969"><ele>674.0</ele><time>2026-03-28T11:09:14.091Z</time></trkpt><trkpt lat="43.4047663" lon="11.9322413"><ele>674.0</ele><time>2026-03-28T11:09:20.095Z</time></trkpt><trkpt lat="43.4048256" lon="11.9322786"><ele>674.0000000000001</ele><time>2026-03-28T11:09:24.07Z</time></trkpt><trkpt lat="43.4048878" lon="11.9323228"><ele>674.0</ele><time>2026-03-28T11:09:29.11Z</time></trkpt><trkpt lat="43.4049419" lon="11.9323934"><ele>674.4285714285714</ele><time>2026-03-28T11:09:35.096Z</time></trkpt><trkpt lat="43.404993" lon="11.9324549"><ele>674.8571428571429</ele><time>2026-03-28T11:09:41.069Z</time></trkpt><trkpt lat="43.4050467" lon="11.9325173"><ele>675.2857142857142</ele><time>2026-03-28T11:09:47.097Z</time></trkpt><trkpt lat="43.4050907" lon="11.9325994"><ele>675.7142857142858</ele><time>2026-03-28T11:09:53.098Z</time></trkpt><trkpt lat="43.4051438" lon="11.9326598"><ele>676.1428571428571</ele><time>2026-03-28T11:09:59.101Z</time></trkpt><trkpt lat="43.4051979" lon="11.9327096"><ele>676.5714285714286</ele><time>2026-03-28T11:10:04.096Z</time></trkpt><trkpt lat="43.4052336" lon="11.9327869"><ele>677.0</ele><time>2026-03-28T11:10:10.101Z</time></trkpt><trkpt lat="43.4052752" lon="11.9328631"><ele>676.9999999999999</ele><time>2026-03-28T11:10:18.094Z</time></trkpt><trkpt lat="43.4053138" lon="11.932937"><ele>677.0</ele><time>2026-03-28T11:10:27.083Z</time></trkpt><trkpt lat="43.4053596" lon="11.9330081"><ele>677.0</ele><time>2026-03-28T11:10:35.09Z</time></trkpt><trkpt lat="43.4053996" lon="11.9330782"><ele>677.0</ele><time>2026-03-28T11:10:46.085Z</time></trkpt><trkpt lat="43.4054462" lon="11.9331473"><ele>677.0</ele><time>2026-03-28T11:10:57.116Z</time></trkpt><trkpt lat="43.4054807" lon="11.9332271"><ele>676.9999999999999</ele><time>2026-03-28T11:11:05.131Z</time></trkpt><trkpt lat="43.4055329" lon="11.9333055"><ele>677.0</ele><time>2026-03-28T11:11:12.283Z</time></trkpt><trkpt lat="43.4055443" lon="11.9333935"><ele>678.9999999999999</ele><time>2026-03-28T11:11:21.087Z</time></trkpt><trkpt lat="43.4055612" lon="11.9334822"><ele>681.0</ele><time>2026-03-28T11:11:31.101Z</time></trkpt><trkpt lat="43.405578" lon="11.9335801"><ele>683.0</ele><time>2026-03-28T11:11:40.709Z</time></trkpt><trkpt lat="43.4055925" lon="11.9336811"><ele>685.0</ele><time>2026-03-28T11:11:45.005Z</time></trkpt><trkpt lat="43.4055905" lon="11.9337728"><ele>687.0</ele><time>2026-03-28T11:11:48.086Z</time></trkpt><trkpt lat="43.4056081" lon="11.9338587"><ele>688.9999999999999</ele><time>2026-03-28T11:11:51.114Z</time></trkpt><trkpt lat="43.4056306" lon="11.9339629"><ele>691.0</ele><time>2026-03-28T11:11:55.098Z</time></trkpt><trkpt lat="43.405664" lon="11.9340477"><ele>690.9999999999999</ele><time>2026-03-28T11:11:59.086Z</time></trkpt><trkpt lat="43.4057056" lon="11.9341367"><ele>691.0</ele><time>2026-03-28T11:12:03.308Z</time></trkpt><trkpt lat="43.4057389" lon="11.9342284"><ele>691.0</ele><time>2026-03-28T11:12:06.654Z</time></trkpt><trkpt lat="43.405781" lon="11.9343119"><ele>691.0</ele><time>2026-03-28T11:12:09.995Z</time></trkpt><trkpt lat="43.4058411" lon="11.934389"><ele>691.0</ele><time>2026-03-28T11:12:14.038Z</time></trkpt><trkpt lat="43.4058884" lon="11.9344508"><ele>690.9999999999999</ele><time>2026-03-28T11:12:20.115Z</time></trkpt><trkpt lat="43.4059093" lon="11.9345503"><ele>691.0</ele><time>2026-03-28T11:12:26.914Z</time></trkpt><trkpt lat="43.4059309" lon="11.9346494"><ele>689.4285714285713</ele><time>2026-03-28T11:12:31.084Z</time></trkpt><trkpt lat="43.4059211" lon="11.9347425"><ele>687.8571428571429</ele><time>2026-03-28T11:12:35.087Z</time></trkpt><trkpt lat="43.4059188" lon="11.9348429"><ele>686.2857142857142</ele><time>2026-03-28T11:12:39.086Z</time></trkpt><trkpt lat="43.4059076" lon="11.9349587"><ele>684.7142857142857</ele><time>2026-03-28T11:12:43.1Z</time></trkpt><trkpt lat="43.4059045" lon="11.9350527"><ele>683.1428571428571</ele><time>2026-03-28T11:12:46.077Z</time></trkpt><trkpt lat="43.4059061" lon="11.9351557"><ele>681.5714285714286</ele><time>2026-03-28T11:12:49.083Z</time></trkpt><trkpt lat="43.405919" lon="11.9352477"><ele>680.0</ele><time>2026-03-28T11:12:52.101Z</time></trkpt><trkpt lat="43.4059416" lon="11.9353319"><ele>678.8571428571429</ele><time>2026-03-28T11:12:55.069Z</time></trkpt><trkpt lat="43.4059788" lon="11.9354126"><ele>677.7142857142857</ele><time>2026-03-28T11:12:58.094Z</time></trkpt><trkpt lat="43.4060292" lon="11.9354768"><ele>676.5714285714286</ele><time>2026-03-28T11:13:01.091Z</time></trkpt><trkpt lat="43.4060833" lon="11.9355331"><ele>675.4285714285714</ele><time>2026-03-28T11:13:04.092Z</time></trkpt><trkpt lat="43.4061359" lon="11.9356214"><ele>674.2857142857142</ele><time>2026-03-28T11:13:08.069Z</time></trkpt><trkpt lat="43.4061625" lon="11.9357259"><ele>673.1428571428571</ele><time>2026-03-28T11:13:12.089Z</time></trkpt><trkpt lat="43.4061953" lon="11.9358171"><ele>672.0</ele><time>2026-03-28T11:13:16.046Z</time></trkpt><trkpt lat="43.406244" lon="11.9359031"><ele>671.4285714285714</ele><time>2026-03-28T11:13:20.016Z</time></trkpt><trkpt lat="43.4062916" lon="11.935982"><ele>670.8571428571429</ele><time>2026-03-28T11:13:24.09Z</time></trkpt><trkpt lat="43.4063456" lon="11.9360612"><ele>670.2857142857142</ele><time>2026-03-28T11:13:28.094Z</time></trkpt><trkpt lat="43.4063971" lon="11.9361172"><ele>669.7142857142858</ele><time>2026-03-28T11:13:31.111Z</time></trkpt><trkpt lat="43.4064541" lon="11.9361706"><ele>669.1428571428571</ele><time>2026-03-28T11:13:34.038Z</time></trkpt><trkpt lat="43.406518" lon="11.9362313"><ele>668.5714285714286</ele><time>2026-03-28T11:13:36.99Z</time></trkpt><trkpt lat="43.4065823" lon="11.9362917"><ele>668.0</ele><time>2026-03-28T11:13:40.091Z</time></trkpt><trkpt lat="43.4066389" lon="11.9363355"><ele>670.0</ele><time>2026-03-28T11:13:43.093Z</time></trkpt><trkpt lat="43.4066894" lon="11.9364215"><ele>672.0</ele><time>2026-03-28T11:13:46.997Z</time></trkpt><trkpt lat="43.4067602" lon="11.9364877"><ele>674.0</ele><time>2026-03-28T11:13:50.995Z</time></trkpt><trkpt lat="43.4068199" lon="11.9365667"><ele>676.0</ele><time>2026-03-28T11:13:55.063Z</time></trkpt><trkpt lat="43.4068714" lon="11.9366269"><ele>678.0</ele><time>2026-03-28T11:13:58.03Z</time></trkpt><trkpt lat="43.4069265" lon="11.9366826"><ele>680.0</ele><time>2026-03-28T11:14:00.975Z</time></trkpt><trkpt lat="43.406975" lon="11.9367572"><ele>680.0</ele><time>2026-03-28T11:14:04.09Z</time></trkpt><trkpt lat="43.4070036" lon="11.936866"><ele>680.0</ele><time>2026-03-28T11:14:08.097Z</time></trkpt><trkpt lat="43.40701" lon="11.936956"><ele>680.0</ele><time>2026-03-28T11:14:11.09Z</time></trkpt><trkpt lat="43.4069987" lon="11.9370563"><ele>680.0</ele><time>2026-03-28T11:14:15.078Z</time></trkpt><trkpt lat="43.4070058" lon="11.9371445"><ele>680.0</ele><time>2026-03-28T11:14:19.067Z</time></trkpt><trkpt lat="43.4070309" lon="11.9372362"><ele>680.0</ele><time>2026-03-28T11:14:23.074Z</time></trkpt><trkpt lat="43.407041" lon="11.9373278"><ele>680.0</ele><time>2026-03-28T11:14:27.114Z</time></trkpt><trkpt lat="43.4070582" lon="11.9374112"><ele>680.0</ele><time>2026-03-28T11:14:31.079Z</time></trkpt><trkpt lat="43.4070975" lon="11.9374932"><ele>680.0</ele><time>2026-03-28T11:14:35.196Z</time></trkpt><trkpt lat="43.4071529" lon="11.9375624"><ele>680.0</ele><time>2026-03-28T11:14:38.949Z</time></trkpt><trkpt lat="43.4072051" lon="11.9376217"><ele>680.0</ele><time>2026-03-28T11:14:43.03Z</time></trkpt><trkpt lat="43.4072598" lon="11.9376674"><ele>680.0</ele><time>2026-03-28T11:14:48.089Z</time></trkpt><trkpt lat="43.4073171" lon="11.9377035"><ele>680.0</ele><time>2026-03-28T11:14:54.05Z</time></trkpt><trkpt lat="43.4073769" lon="11.9377381"><ele>680.0</ele><time>2026-03-28T11:15:01.039Z</time></trkpt><trkpt lat="43.4074239" lon="11.9377999"><ele>678.7142857142858</ele><time>2026-03-28T11:15:13.04Z</time></trkpt><trkpt lat="43.4074463" lon="11.9378952"><ele>677.4285714285713</ele><time>2026-03-28T11:15:16.961Z</time></trkpt><trkpt lat="43.4074932" lon="11.9379569"><ele>676.1428571428571</ele><time>2026-03-28T11:15:20.052Z</time></trkpt><trkpt lat="43.4075507" lon="11.9380147"><ele>674.8571428571429</ele><time>2026-03-28T11:15:25.059Z</time></trkpt><trkpt lat="43.4076177" lon="11.9380487"><ele>673.5714285714287</ele><time>2026-03-28T11:15:39.046Z</time></trkpt><trkpt lat="43.4076596" lon="11.9381228"><ele>672.2857142857142</ele><time>2026-03-28T11:15:44.074Z</time></trkpt><trkpt lat="43.4077217" lon="11.938177"><ele>671.0</ele><time>2026-03-28T11:15:50.064Z</time></trkpt><trkpt lat="43.4077652" lon="11.9382589"><ele>671.0</ele><time>2026-03-28T11:15:55.071Z</time></trkpt><trkpt lat="43.4078109" lon="11.938336"><ele>671.0</ele><time>2026-03-28T11:16:01.049Z</time></trkpt><trkpt lat="43.4078756" lon="11.9383897"><ele>671.0</ele><time>2026-03-28T11:16:07.045Z</time></trkpt><trkpt lat="43.4079326" lon="11.9384438"><ele>671.0</ele><time>2026-03-28T11:16:12.075Z</time></trkpt><trkpt lat="43.4080053" lon="11.9384782"><ele>671.0</ele><time>2026-03-28T11:16:18.062Z</time></trkpt><trkpt lat="43.4080627" lon="11.9385397"><ele>671.0</ele><time>2026-03-28T11:16:24.074Z</time></trkpt><trkpt lat="43.4081109" lon="11.9386068"><ele>671.0</ele><time>2026-03-28T11:16:30.072Z</time></trkpt><trkpt lat="43.4081856" lon="11.9386169"><ele>669.8333333333333</ele><time>2026-03-28T11:16:35.515Z</time></trkpt><trkpt lat="43.408284" lon="11.9386185"><ele>668.6666666666666</ele><time>2026-03-28T11:16:38.078Z</time></trkpt><trkpt lat="43.4083355" lon="11.9387138"><ele>667.5</ele><time>2026-03-28T11:16:41.09Z</time></trkpt><trkpt lat="43.4083464" lon="11.9387992"><ele>666.3333333333334</ele><time>2026-03-28T11:16:44.088Z</time></trkpt><trkpt lat="43.408369" lon="11.9389037"><ele>665.1666666666667</ele><time>2026-03-28T11:16:49.087Z</time></trkpt><trkpt lat="43.4083809" lon="11.9389944"><ele>664.0</ele><time>2026-03-28T11:16:51.985Z</time></trkpt><trkpt lat="43.4083985" lon="11.9390883"><ele>664.0</ele><time>2026-03-28T11:16:56.084Z</time></trkpt><trkpt lat="43.408442" lon="11.9391783"><ele>664.0</ele><time>2026-03-28T11:17:00.088Z</time></trkpt><trkpt lat="43.4084824" lon="11.9392783"><ele>664.0</ele><time>2026-03-28T11:17:04.103Z</time></trkpt><trkpt lat="43.4085179" lon="11.9393692"><ele>664.0</ele><time>2026-03-28T11:17:07.071Z</time></trkpt><trkpt lat="43.4085719" lon="11.939442"><ele>664.0</ele><time>2026-03-28T11:17:10.066Z</time></trkpt><trkpt lat="43.4086359" lon="11.9394881"><ele>664.0</ele><time>2026-03-28T11:17:15.095Z</time></trkpt><trkpt lat="43.4086957" lon="11.9395475"><ele>664.7142857142857</ele><time>2026-03-28T11:17:20.083Z</time></trkpt><trkpt lat="43.4087584" lon="11.9396079"><ele>665.4285714285714</ele><time>2026-03-28T11:17:25.07Z</time></trkpt><trkpt lat="43.4088178" lon="11.939678"><ele>666.1428571428571</ele><time>2026-03-28T11:17:30.054Z</time></trkpt><trkpt lat="43.4088667" lon="11.9397367"><ele>666.8571428571429</ele><time>2026-03-28T11:17:35.088Z</time></trkpt><trkpt lat="43.4089095" lon="11.9398033"><ele>667.5714285714286</ele><time>2026-03-28T11:17:39.07Z</time></trkpt><trkpt lat="43.4089257" lon="11.9398925"><ele>668.2857142857143</ele><time>2026-03-28T11:17:43.09Z</time></trkpt><trkpt lat="43.4089448" lon="11.9399958"><ele>669.0</ele><time>2026-03-28T11:17:48.108Z</time></trkpt><trkpt lat="43.4089772" lon="11.9400775"><ele>671.0</ele><time>2026-03-28T11:17:52.1Z</time></trkpt><trkpt lat="43.4090155" lon="11.9401786"><ele>673.0</ele><time>2026-03-28T11:17:56.025Z</time></trkpt><trkpt lat="43.4090536" lon="11.9402732"><ele>675.0</ele><time>2026-03-28T11:18:00.06Z</time></trkpt><trkpt lat="43.4090794" lon="11.9403767"><ele>677.0</ele><time>2026-03-28T11:18:04.011Z</time></trkpt><trkpt lat="43.409084" lon="11.9404708"><ele>679.0</ele><time>2026-03-28T11:18:09.076Z</time></trkpt><trkpt lat="43.4091242" lon="11.9405503"><ele>681.0</ele><time>2026-03-28T11:18:44.059Z</time></trkpt><trkpt lat="43.4091746" lon="11.9406285"><ele>681.0000000000001</ele><time>2026-03-28T11:18:48.06Z</time></trkpt><trkpt lat="43.4091985" lon="11.9407212"><ele>681.0</ele><time>2026-03-28T11:18:55.06Z</time></trkpt><trkpt lat="43.4091694" lon="11.9408013"><ele>681.0</ele><time>2026-03-28T11:19:02.064Z</time></trkpt><trkpt lat="43.4091712" lon="11.9408941"><ele>681.0</ele><time>2026-03-28T11:19:09.074Z</time></trkpt><trkpt lat="43.4091902" lon="11.9409885"><ele>681.0</ele><time>2026-03-28T11:19:16.056Z</time></trkpt><trkpt lat="43.4092358" lon="11.9410601"><ele>681.0000000000001</ele><time>2026-03-28T11:19:27.065Z</time></trkpt><trkpt lat="43.4092736" lon="11.9411298"><ele>681.0</ele><time>2026-03-28T11:19:32.972Z</time></trkpt><trkpt lat="43.4093217" lon="11.9411955"><ele>681.0000000000001</ele><time>2026-03-28T11:19:43.068Z</time></trkpt><trkpt lat="43.4093348" lon="11.9412813"><ele>681.0</ele><time>2026-03-28T11:19:50.071Z</time></trkpt><trkpt lat="43.409364" lon="11.9413626"><ele>681.0</ele><time>2026-03-28T11:19:58.064Z</time></trkpt><trkpt lat="43.4093849" lon="11.9414496"><ele>681.0</ele><time>2026-03-28T11:20:09.062Z</time></trkpt><trkpt lat="43.4094021" lon="11.9415395"><ele>681.0</ele><time>2026-03-28T11:20:17.061Z</time></trkpt><trkpt lat="43.4094434" lon="11.9416208"><ele>681.0000000000001</ele><time>2026-03-28T11:20:24.068Z</time></trkpt><trkpt lat="43.4094759" lon="11.9417081"><ele>681.0</ele><time>2026-03-28T11:20:30.06Z</time></trkpt><trkpt lat="43.4095061" lon="11.9418072"><ele>681.0000000000001</ele><time>2026-03-28T11:20:35.082Z</time></trkpt><trkpt lat="43.4095446" lon="11.9418771"><ele>681.0</ele><time>2026-03-28T11:20:39.072Z</time></trkpt><trkpt lat="43.4095926" lon="11.9419602"><ele>681.0</ele><time>2026-03-28T11:20:46.064Z</time></trkpt><trkpt lat="43.4096566" lon="11.9419981"><ele>681.0</ele><time>2026-03-28T11:20:54.071Z</time></trkpt><trkpt lat="43.4097068" lon="11.9420511"><ele>681.0</ele><time>2026-03-28T11:20:58.074Z</time></trkpt><trkpt lat="43.4097711" lon="11.9420811"><ele>681.0000000000001</ele><time>2026-03-28T11:21:03.025Z</time></trkpt><trkpt lat="43.4098156" lon="11.9421443"><ele>681.0</ele><time>2026-03-28T11:21:07.058Z</time></trkpt><trkpt lat="43.4098638" lon="11.942215"><ele>680.4285714285714</ele><time>2026-03-28T11:21:12.073Z</time></trkpt><trkpt lat="43.409921" lon="11.9422795"><ele>679.8571428571429</ele><time>2026-03-28T11:21:17.005Z</time></trkpt><trkpt lat="43.4099856" lon="11.9423056"><ele>679.2857142857142</ele><time>2026-03-28T11:21:22.068Z</time></trkpt><trkpt lat="43.4100423" lon="11.9423472"><ele>678.7142857142858</ele><time>2026-03-28T11:21:27.062Z</time></trkpt><trkpt lat="43.4101013" lon="11.9424176"><ele>678.1428571428571</ele><time>2026-03-28T11:21:33.051Z</time></trkpt><trkpt lat="43.410146" lon="11.9424993"><ele>677.5714285714286</ele><time>2026-03-28T11:21:39.091Z</time></trkpt><trkpt lat="43.4101579" lon="11.9426017"><ele>677.0</ele><time>2026-03-28T11:21:45.056Z</time></trkpt><trkpt lat="43.4101829" lon="11.9426872"><ele>676.9999999999999</ele><time>2026-03-28T11:21:50.071Z</time></trkpt><trkpt lat="43.4101919" lon="11.9427778"><ele>677.0</ele><time>2026-03-28T11:21:54.059Z</time></trkpt><trkpt lat="43.410197" lon="11.9428712"><ele>677.0</ele><time>2026-03-28T11:21:59.071Z</time></trkpt><trkpt lat="43.4102099" lon="11.9429618"><ele>677.0</ele><time>2026-03-28T11:22:04.075Z</time></trkpt><trkpt lat="43.410236" lon="11.9430454"><ele>677.0</ele><time>2026-03-28T11:22:09.991Z</time></trkpt><trkpt lat="43.4102674" lon="11.9431329"><ele>676.9999999999999</ele><time>2026-03-28T11:22:17.075Z</time></trkpt><trkpt lat="43.4103028" lon="11.9432255"><ele>677.0</ele><time>2026-03-28T11:22:23.069Z</time></trkpt><trkpt lat="43.4103318" lon="11.9433094"><ele>678.4285714285713</ele><time>2026-03-28T11:22:29.008Z</time></trkpt><trkpt lat="43.4103487" lon="11.9433943"><ele>679.8571428571429</ele><time>2026-03-28T11:22:34.064Z</time></trkpt><trkpt lat="43.4103781" lon="11.9434737"><ele>681.2857142857142</ele><time>2026-03-28T11:22:39.053Z</time></trkpt><trkpt lat="43.4104087" lon="11.9435527"><ele>682.7142857142857</ele><time>2026-03-28T11:22:44.077Z</time></trkpt><trkpt lat="43.4104606" lon="11.9436294"><ele>684.1428571428571</ele><time>2026-03-28T11:22:49.058Z</time></trkpt><trkpt lat="43.4105004" lon="11.9436975"><ele>685.5714285714286</ele><time>2026-03-28T11:22:54.008Z</time></trkpt><trkpt lat="43.4105523" lon="11.9437684"><ele>687.0</ele><time>2026-03-28T11:22:58.084Z</time></trkpt><trkpt lat="43.4105968" lon="11.9438361"><ele>687.0</ele><time>2026-03-28T11:23:01.083Z</time></trkpt><trkpt lat="43.4106607" lon="11.9438878"><ele>687.0</ele><time>2026-03-28T11:23:04.049Z</time></trkpt><trkpt lat="43.4107121" lon="11.9439751"><ele>687.0</ele><time>2026-03-28T11:23:08.086Z</time></trkpt><trkpt lat="43.4107268" lon="11.9440773"><ele>687.0</ele><time>2026-03-28T11:23:12.064Z</time></trkpt><trkpt lat="43.4107248" lon="11.944166"><ele>687.0</ele><time>2026-03-28T11:23:16.094Z</time></trkpt><trkpt lat="43.410774" lon="11.9442464"><ele>687.0</ele><time>2026-03-28T11:23:23.036Z</time></trkpt><trkpt lat="43.4108166" lon="11.9443292"><ele>687.0</ele><time>2026-03-28T11:23:28.09Z</time></trkpt><trkpt lat="43.4108433" lon="11.9444185"><ele>687.2857142857143</ele><time>2026-03-28T11:23:33.1Z</time></trkpt><trkpt lat="43.4108642" lon="11.9445005"><ele>687.5714285714286</ele><time>2026-03-28T11:23:38.098Z</time></trkpt><trkpt lat="43.4108926" lon="11.9445798"><ele>687.8571428571429</ele><time>2026-03-28T11:23:42.086Z</time></trkpt><trkpt lat="43.4109163" lon="11.944667"><ele>688.1428571428571</ele><time>2026-03-28T11:23:46.074Z</time></trkpt><trkpt lat="43.410941" lon="11.9447658"><ele>688.4285714285714</ele><time>2026-03-28T11:23:51.077Z</time></trkpt><trkpt lat="43.4109823" lon="11.9448377"><ele>688.7142857142857</ele><time>2026-03-28T11:23:56.078Z</time></trkpt><trkpt lat="43.4110186" lon="11.9449171"><ele>689.0</ele><time>2026-03-28T11:24:02.076Z</time></trkpt><trkpt lat="43.411049" lon="11.9449977"><ele>689.5714285714286</ele><time>2026-03-28T11:24:08.085Z</time></trkpt><trkpt lat="43.411082" lon="11.9450733"><ele>690.1428571428571</ele><time>2026-03-28T11:24:13.085Z</time></trkpt><trkpt lat="43.4111212" lon="11.9451581"><ele>690.7142857142858</ele><time>2026-03-28T11:24:18.09Z</time></trkpt><trkpt lat="43.411169" lon="11.9452395"><ele>691.2857142857142</ele><time>2026-03-28T11:24:24.1Z</time></trkpt><trkpt lat="43.411221" lon="11.9452939"><ele>691.8571428571429</ele><time>2026-03-28T11:24:29.075Z</time></trkpt><trkpt lat="43.4112697" lon="11.9453739"><ele>692.4285714285714</ele><time>2026-03-28T11:24:34.069Z</time></trkpt><trkpt lat="43.4112991" lon="11.945454"><ele>693.0</ele><time>2026-03-28T11:24:38.09Z</time></trkpt><trkpt lat="43.4113473" lon="11.9455176"><ele>693.0</ele><time>2026-03-28T11:24:42.089Z</time></trkpt><trkpt lat="43.4113871" lon="11.9456043"><ele>693.0</ele><time>2026-03-28T11:24:46.109Z</time></trkpt><trkpt lat="43.4114383" lon="11.9456616"><ele>693.0</ele><time>2026-03-28T11:24:49.134Z</time></trkpt><trkpt lat="43.4115021" lon="11.9457053"><ele>693.0</ele><time>2026-03-28T11:24:52.096Z</time></trkpt><trkpt lat="43.4115691" lon="11.945762"><ele>693.0</ele><time>2026-03-28T11:24:56.092Z</time></trkpt><trkpt lat="43.4116167" lon="11.94584"><ele>693.0</ele><time>2026-03-28T11:25:00.076Z</time></trkpt><trkpt lat="43.4116735" lon="11.9459126"><ele>693.0</ele><time>2026-03-28T11:25:04.072Z</time></trkpt><trkpt lat="43.411723" lon="11.9459681"><ele>691.4285714285714</ele><time>2026-03-28T11:25:07.086Z</time></trkpt><trkpt lat="43.4117836" lon="11.9460236"><ele>689.8571428571429</ele><time>2026-03-28T11:25:12.066Z</time></trkpt><trkpt lat="43.4118307" lon="11.9461122"><ele>688.2857142857142</ele><time>2026-03-28T11:25:15.986Z</time></trkpt><trkpt lat="43.4118597" lon="11.9462129"><ele>686.7142857142858</ele><time>2026-03-28T11:25:19.081Z</time></trkpt><trkpt lat="43.4118906" lon="11.9462888"><ele>685.1428571428571</ele><time>2026-03-28T11:25:22.094Z</time></trkpt><trkpt lat="43.4119316" lon="11.9463633"><ele>683.5714285714286</ele><time>2026-03-28T11:25:26.064Z</time></trkpt><trkpt lat="43.411982" lon="11.9464382"><ele>682.0</ele><time>2026-03-28T11:25:30.087Z</time></trkpt><trkpt lat="43.4120129" lon="11.9465271"><ele>682.0</ele><time>2026-03-28T11:25:34.129Z</time></trkpt><trkpt lat="43.4120379" lon="11.9466359"><ele>682.0</ele><time>2026-03-28T11:25:38.073Z</time></trkpt><trkpt lat="43.4120936" lon="11.9466885"><ele>682.0</ele><time>2026-03-28T11:25:42.105Z</time></trkpt><trkpt lat="43.4121552" lon="11.946723"><ele>682.0</ele><time>2026-03-28T11:25:48.108Z</time></trkpt><trkpt lat="43.4122011" lon="11.9467937"><ele>682.0</ele><time>2026-03-28T11:25:54.083Z</time></trkpt><trkpt lat="43.4122718" lon="11.9468357"><ele>682.0</ele><time>2026-03-28T11:26:00.043Z</time></trkpt><trkpt lat="43.4123367" lon="11.9468708"><ele>682.0</ele><time>2026-03-28T11:26:05.1Z</time></trkpt><trkpt lat="43.4123826" lon="11.9469433"><ele>683.5714285714286</ele><time>2026-03-28T11:26:10.099Z</time></trkpt><trkpt lat="43.4124449" lon="11.9469679"><ele>685.1428571428571</ele><time>2026-03-28T11:26:14.102Z</time></trkpt><trkpt lat="43.4125081" lon="11.946984"><ele>686.7142857142858</ele><time>2026-03-28T11:26:18.093Z</time></trkpt><trkpt lat="43.4125654" lon="11.9470209"><ele>688.2857142857142</ele><time>2026-03-28T11:26:23.091Z</time></trkpt><trkpt lat="43.412627" lon="11.9470587"><ele>689.8571428571429</ele><time>2026-03-28T11:26:30.122Z</time></trkpt><trkpt lat="43.4126875" lon="11.9471004"><ele>691.4285714285714</ele><time>2026-03-28T11:26:36.034Z</time></trkpt><trkpt lat="43.4127312" lon="11.9471717"><ele>693.0</ele><time>2026-03-28T11:26:42.102Z</time></trkpt><trkpt lat="43.4127755" lon="11.9472544"><ele>693.0</ele><time>2026-03-28T11:26:48.102Z</time></trkpt><trkpt lat="43.4128291" lon="11.9473135"><ele>693.0</ele><time>2026-03-28T11:26:53.085Z</time></trkpt><trkpt lat="43.4128868" lon="11.9473739"><ele>693.0</ele><time>2026-03-28T11:26:58.087Z</time></trkpt><trkpt lat="43.4129447" lon="11.947436"><ele>693.0</ele><time>2026-03-28T11:27:04.092Z</time></trkpt><trkpt lat="43.4129818" lon="11.9475061"><ele>693.0</ele><time>2026-03-28T11:27:09.079Z</time></trkpt><trkpt lat="43.4130118" lon="11.9475936"><ele>693.0</ele><time>2026-03-28T11:27:14.088Z</time></trkpt><trkpt lat="43.4130694" lon="11.9476347"><ele>693.0</ele><time>2026-03-28T11:27:19.05Z</time></trkpt><trkpt lat="43.413134" lon="11.9476559"><ele>693.0</ele><time>2026-03-28T11:27:24.089Z</time></trkpt><trkpt lat="43.4132012" lon="11.9476895"><ele>693.0</ele><time>2026-03-28T11:27:29.092Z</time></trkpt><trkpt lat="43.4132704" lon="11.9477219"><ele>693.0</ele><time>2026-03-28T11:27:34.099Z</time></trkpt><trkpt lat="43.4133314" lon="11.9477681"><ele>693.0</ele><time>2026-03-28T11:27:39.082Z</time></trkpt><trkpt lat="43.4133877" lon="11.9478199"><ele>693.0</ele><time>2026-03-28T11:27:44.107Z</time></trkpt><trkpt lat="43.4134514" lon="11.9478769"><ele>693.0</ele><time>2026-03-28T11:27:50.082Z</time></trkpt><trkpt lat="43.4135125" lon="11.9479091"><ele>693.0</ele><time>2026-03-28T11:27:55.06Z</time></trkpt><trkpt lat="43.4135541" lon="11.9479742"><ele>693.0</ele><time>2026-03-28T11:27:59.07Z</time></trkpt><trkpt lat="43.4136035" lon="11.9480374"><ele>693.0</ele><time>2026-03-28T11:28:03.089Z</time></trkpt><trkpt lat="43.4136692" lon="11.9480625"><ele>693.0</ele><time>2026-03-28T11:28:07.066Z</time></trkpt><trkpt lat="43.4137356" lon="11.94811"><ele>693.0</ele><time>2026-03-28T11:28:13.105Z</time></trkpt><trkpt lat="43.4137901" lon="11.9481745"><ele>693.0</ele><time>2026-03-28T11:28:19.103Z</time></trkpt><trkpt lat="43.413836" lon="11.9482521"><ele>693.0</ele><time>2026-03-28T11:28:25.11Z</time></trkpt><trkpt lat="43.4138847" lon="11.9483302"><ele>693.0</ele><time>2026-03-28T11:28:30.076Z</time></trkpt><trkpt lat="43.4139342" lon="11.9484014"><ele>692.7142857142857</ele><time>2026-03-28T11:28:35.051Z</time></trkpt><trkpt lat="43.4139943" lon="11.9484554"><ele>692.4285714285714</ele><time>2026-03-28T11:28:41.071Z</time></trkpt><trkpt lat="43.4140513" lon="11.9483974"><ele>692.1428571428571</ele><time>2026-03-28T11:28:48.093Z</time></trkpt><trkpt lat="43.4141033" lon="11.9483389"><ele>691.8571428571429</ele><time>2026-03-28T11:29:20.067Z</time></trkpt><trkpt lat="43.414127" lon="11.9482242"><ele>691.5714285714286</ele><time>2026-03-28T11:29:25.118Z</time></trkpt><trkpt lat="43.4141309" lon="11.9481346"><ele>691.2857142857142</ele><time>2026-03-28T11:29:27.309Z</time></trkpt><trkpt lat="43.4141186" lon="11.9480326"><ele>691.0</ele><time>2026-03-28T11:29:30.676Z</time></trkpt><trkpt lat="43.4140908" lon="11.9479419"><ele>690.9999999999999</ele><time>2026-03-28T11:29:33.95Z</time></trkpt><trkpt lat="43.4140702" lon="11.9478524"><ele>691.0</ele><time>2026-03-28T11:29:38.091Z</time></trkpt><trkpt lat="43.4140646" lon="11.9477607"><ele>691.0</ele><time>2026-03-28T11:29:42.064Z</time></trkpt><trkpt lat="43.4141007" lon="11.9476809"><ele>691.0</ele><time>2026-03-28T11:29:46.005Z</time></trkpt><trkpt lat="43.4141647" lon="11.9476297"><ele>691.0</ele><time>2026-03-28T11:29:51.124Z</time></trkpt><trkpt lat="43.4142336" lon="11.9476457"><ele>690.9999999999999</ele><time>2026-03-28T11:29:56.105Z</time></trkpt><trkpt lat="43.414299" lon="11.9476317"><ele>691.0</ele><time>2026-03-28T11:30:04.1Z</time></trkpt><trkpt lat="43.414367" lon="11.9476341"><ele>690.9999999999999</ele><time>2026-03-28T11:30:07.07Z</time></trkpt><trkpt lat="43.4144265" lon="11.9475968"><ele>691.0</ele><time>2026-03-28T11:30:10.075Z</time></trkpt><trkpt lat="43.4144998" lon="11.9475469"><ele>691.0</ele><time>2026-03-28T11:30:14.056Z</time></trkpt><trkpt lat="43.4145561" lon="11.9474975"><ele>691.0</ele><time>2026-03-28T11:30:17.059Z</time></trkpt><trkpt lat="43.4146232" lon="11.9474563"><ele>691.0</ele><time>2026-03-28T11:30:20.133Z</time></trkpt><trkpt lat="43.4146948" lon="11.9474038"><ele>690.9999999999999</ele><time>2026-03-28T11:30:23.097Z</time></trkpt><trkpt lat="43.4147533" lon="11.9473467"><ele>691.0</ele><time>2026-03-28T11:30:26.092Z</time></trkpt><trkpt lat="43.4148217" lon="11.947295"><ele>687.9999999999999</ele><time>2026-03-28T11:30:29.099Z</time></trkpt><trkpt lat="43.4148811" lon="11.947249"><ele>685.0</ele><time>2026-03-28T11:30:32.067Z</time></trkpt><trkpt lat="43.4149524" lon="11.9471933"><ele>682.0</ele><time>2026-03-28T11:30:36.094Z</time></trkpt><trkpt lat="43.4149991" lon="11.9471313"><ele>679.0</ele><time>2026-03-28T11:30:39.096Z</time></trkpt><trkpt lat="43.4150435" lon="11.9470583"><ele>676.0</ele><time>2026-03-28T11:30:43.065Z</time></trkpt><trkpt lat="43.4151066" lon="11.9469831"><ele>672.9999999999999</ele><time>2026-03-28T11:30:47.079Z</time></trkpt><trkpt lat="43.4151693" lon="11.9469268"><ele>670.0</ele><time>2026-03-28T11:30:50.564Z</time></trkpt><trkpt lat="43.415237" lon="11.9469243"><ele>669.9999999999999</ele><time>2026-03-28T11:30:53.922Z</time></trkpt><trkpt lat="43.415303" lon="11.946944"><ele>670.0</ele><time>2026-03-28T11:30:57.324Z</time></trkpt><trkpt lat="43.4153737" lon="11.9469574"><ele>670.0</ele><time>2026-03-28T11:31:00.722Z</time></trkpt><trkpt lat="43.4154536" lon="11.946972"><ele>670.0</ele><time>2026-03-28T11:31:04.068Z</time></trkpt><trkpt lat="43.4155172" lon="11.9469956"><ele>670.0</ele><time>2026-03-28T11:31:07.064Z</time></trkpt><trkpt lat="43.4155927" lon="11.9469917"><ele>669.9999999999999</ele><time>2026-03-28T11:31:12.083Z</time></trkpt><trkpt lat="43.4156583" lon="11.9469636"><ele>670.0</ele><time>2026-03-28T11:31:22.09Z</time></trkpt><trkpt lat="43.4157315" lon="11.9469648"><ele>668.1428571428571</ele><time>2026-03-28T11:31:28.102Z</time></trkpt><trkpt lat="43.4157985" lon="11.9469524"><ele>666.2857142857142</ele><time>2026-03-28T11:31:34.068Z</time></trkpt><trkpt lat="43.4158751" lon="11.9469424"><ele>664.4285714285713</ele><time>2026-03-28T11:31:40.077Z</time></trkpt><trkpt lat="43.4159385" lon="11.94693"><ele>662.5714285714286</ele><time>2026-03-28T11:31:46.087Z</time></trkpt><trkpt lat="43.416002" lon="11.9468935"><ele>660.7142857142858</ele><time>2026-03-28T11:31:51.114Z</time></trkpt><trkpt lat="43.4160697" lon="11.9469264"><ele>658.8571428571428</ele><time>2026-03-28T11:31:56.027Z</time></trkpt><trkpt lat="43.4161341" lon="11.9469388"><ele>657.0</ele><time>2026-03-28T11:32:02.117Z</time></trkpt><trkpt lat="43.4162025" lon="11.9469012"><ele>657.0</ele><time>2026-03-28T11:32:12.08Z</time></trkpt><trkpt lat="43.4162926" lon="11.9468442"><ele>657.0</ele><time>2026-03-28T11:32:25.05Z</time></trkpt><trkpt lat="43.4163579" lon="11.9468534"><ele>657.0</ele><time>2026-03-28T11:32:37.042Z</time></trkpt><trkpt lat="43.416393" lon="11.9469352"><ele>657.0</ele><time>2026-03-28T11:32:41.021Z</time></trkpt><trkpt lat="43.4164499" lon="11.9469827"><ele>657.0</ele><time>2026-03-28T11:32:45.008Z</time></trkpt><trkpt lat="43.4165159" lon="11.9469575"><ele>657.0</ele><time>2026-03-28T11:32:49.058Z</time></trkpt><trkpt lat="43.4165895" lon="11.9469443"><ele>657.0</ele><time>2026-03-28T11:32:55.059Z</time></trkpt><trkpt lat="43.416656" lon="11.9469347"><ele>655.4285714285714</ele><time>2026-03-28T11:33:13.067Z</time></trkpt><trkpt lat="43.4167217" lon="11.9469357"><ele>653.8571428571429</ele><time>2026-03-28T11:33:16.988Z</time></trkpt><trkpt lat="43.416801" lon="11.9469464"><ele>652.2857142857143</ele><time>2026-03-28T11:33:21.042Z</time></trkpt><trkpt lat="43.416862" lon="11.9469726"><ele>650.7142857142858</ele><time>2026-03-28T11:33:24.091Z</time></trkpt><trkpt lat="43.4169335" lon="11.9470044"><ele>649.1428571428571</ele><time>2026-03-28T11:33:27.986Z</time></trkpt><trkpt lat="43.416974" lon="11.9470781"><ele>647.5714285714287</ele><time>2026-03-28T11:33:32.076Z</time></trkpt><trkpt lat="43.4170471" lon="11.9471229"><ele>646.0</ele><time>2026-03-28T11:33:36.073Z</time></trkpt><trkpt lat="43.4171361" lon="11.9470992"><ele>644.2857142857143</ele><time>2026-03-28T11:33:40.074Z</time></trkpt><trkpt lat="43.417214" lon="11.9470774"><ele>642.5714285714286</ele><time>2026-03-28T11:33:43.062Z</time></trkpt><trkpt lat="43.4172766" lon="11.9470531"><ele>640.8571428571429</ele><time>2026-03-28T11:33:46.024Z</time></trkpt><trkpt lat="43.4173405" lon="11.9470962"><ele>639.1428571428571</ele><time>2026-03-28T11:33:49.005Z</time></trkpt><trkpt lat="43.4173972" lon="11.9471493"><ele>637.4285714285714</ele><time>2026-03-28T11:33:53.071Z</time></trkpt><trkpt lat="43.4174429" lon="11.9472102"><ele>635.7142857142858</ele><time>2026-03-28T11:33:55.981Z</time></trkpt><trkpt lat="43.4175116" lon="11.947242"><ele>634.0</ele><time>2026-03-28T11:33:59.081Z</time></trkpt><trkpt lat="43.4175761" lon="11.9472073"><ele>634.0</ele><time>2026-03-28T11:34:03.067Z</time></trkpt><trkpt lat="43.4176434" lon="11.9471385"><ele>634.0</ele><time>2026-03-28T11:34:08.001Z</time></trkpt><trkpt lat="43.417698" lon="11.947062"><ele>634.0</ele><time>2026-03-28T11:34:12.098Z</time></trkpt><trkpt lat="43.4177722" lon="11.9471086"><ele>634.0</ele><time>2026-03-28T11:34:15.082Z</time></trkpt><trkpt lat="43.4178294" lon="11.9471507"><ele>634.0</ele><time>2026-03-28T11:34:19.062Z</time></trkpt><trkpt lat="43.4179264" lon="11.9471703"><ele>634.0</ele><time>2026-03-28T11:34:22.058Z</time></trkpt><trkpt lat="43.4180194" lon="11.9472437"><ele>632.5</ele><time>2026-03-28T11:34:24.069Z</time></trkpt><trkpt lat="43.4181141" lon="11.9472772"><ele>631.0</ele><time>2026-03-28T11:34:26.095Z</time></trkpt><trkpt lat="43.4181399" lon="11.9473611"><ele>629.5</ele><time>2026-03-28T11:34:31.059Z</time></trkpt><trkpt lat="43.418154" lon="11.9474571"><ele>628.0</ele><time>2026-03-28T11:34:34.108Z</time></trkpt><trkpt lat="43.4181476" lon="11.9475539"><ele>626.5</ele><time>2026-03-28T11:34:38.106Z</time></trkpt><trkpt lat="43.4181574" lon="11.9476522"><ele>625.0</ele><time>2026-03-28T11:34:43.091Z</time></trkpt><trkpt lat="43.4181612" lon="11.9477524"><ele>622.8571428571429</ele><time>2026-03-28T11:34:48.044Z</time></trkpt><trkpt lat="43.4181742" lon="11.9478517"><ele>620.7142857142858</ele><time>2026-03-28T11:34:53.086Z</time></trkpt><trkpt lat="43.4181505" lon="11.9479334"><ele>618.5714285714287</ele><time>2026-03-28T11:34:58.087Z</time></trkpt><trkpt lat="43.4180881" lon="11.9479695"><ele>616.4285714285714</ele><time>2026-03-28T11:35:02.091Z</time></trkpt><trkpt lat="43.4180265" lon="11.9480024"><ele>614.2857142857142</ele><time>2026-03-28T11:35:05.08Z</time></trkpt><trkpt lat="43.4179524" lon="11.9480459"><ele>612.1428571428572</ele><time>2026-03-28T11:35:08.99Z</time></trkpt><trkpt lat="43.4179025" lon="11.9481214"><ele>610.0</ele><time>2026-03-28T11:35:14.094Z</time></trkpt><trkpt lat="43.4178342" lon="11.9481209"><ele>610.0</ele><time>2026-03-28T11:35:43.048Z</time></trkpt><trkpt lat="43.417757" lon="11.9481473"><ele>610.0</ele><time>2026-03-28T11:35:47.069Z</time></trkpt><trkpt lat="43.4176708" lon="11.9481782"><ele>610.0</ele><time>2026-03-28T11:35:50.119Z</time></trkpt><trkpt lat="43.4176068" lon="11.9481843"><ele>610.0</ele><time>2026-03-28T11:35:57.039Z</time></trkpt><trkpt lat="43.4175406" lon="11.9481357"><ele>610.0</ele><time>2026-03-28T11:36:22.07Z</time></trkpt><trkpt lat="43.4174644" lon="11.9481477"><ele>610.0</ele><time>2026-03-28T11:36:25.056Z</time></trkpt><trkpt lat="43.4173913" lon="11.9481777"><ele>610.0</ele><time>2026-03-28T11:36:29.099Z</time></trkpt><trkpt lat="43.417343" lon="11.9480984"><ele>610.0</ele><time>2026-03-28T11:36:56.044Z</time></trkpt><trkpt lat="43.4172588" lon="11.9480674"><ele>610.0</ele><time>2026-03-28T11:36:59.071Z</time></trkpt><trkpt lat="43.4171973" lon="11.9481227"><ele>610.0</ele><time>2026-03-28T11:37:04.003Z</time></trkpt><trkpt lat="43.4171292" lon="11.9481447"><ele>610.0</ele><time>2026-03-28T11:37:07.061Z</time></trkpt><trkpt lat="43.41707" lon="11.9481772"><ele>610.0</ele><time>2026-03-28T11:37:10.082Z</time></trkpt><trkpt lat="43.4170008" lon="11.9482026"><ele>610.0</ele><time>2026-03-28T11:37:13.053Z</time></trkpt><trkpt lat="43.4169303" lon="11.9482465"><ele>611.1428571428572</ele><time>2026-03-28T11:37:17.076Z</time></trkpt><trkpt lat="43.4168612" lon="11.9482947"><ele>612.2857142857142</ele><time>2026-03-28T11:37:21.053Z</time></trkpt><trkpt lat="43.4167941" lon="11.9483237"><ele>613.4285714285714</ele><time>2026-03-28T11:37:24.066Z</time></trkpt><trkpt lat="43.4167253" lon="11.9483662"><ele>614.5714285714287</ele><time>2026-03-28T11:37:27.048Z</time></trkpt><trkpt lat="43.4166552" lon="11.9483825"><ele>615.7142857142858</ele><time>2026-03-28T11:37:30.061Z</time></trkpt><trkpt lat="43.416585" lon="11.9484302"><ele>616.8571428571429</ele><time>2026-03-28T11:37:34.067Z</time></trkpt><trkpt lat="43.4165302" lon="11.9484736"><ele>618.0</ele><time>2026-03-28T11:37:36.964Z</time></trkpt><trkpt lat="43.4164673" lon="11.9485284"><ele>617.5714285714287</ele><time>2026-03-28T11:37:40.067Z</time></trkpt><trkpt lat="43.416406" lon="11.9485651"><ele>617.1428571428571</ele><time>2026-03-28T11:37:43.084Z</time></trkpt><trkpt lat="43.4163474" lon="11.9485986"><ele>616.7142857142858</ele><time>2026-03-28T11:37:46.059Z</time></trkpt><trkpt lat="43.4162945" lon="11.9486557"><ele>616.2857142857143</ele><time>2026-03-28T11:37:49.049Z</time></trkpt><trkpt lat="43.4162392" lon="11.9487238"><ele>615.8571428571429</ele><time>2026-03-28T11:37:52.062Z</time></trkpt><trkpt lat="43.4161901" lon="11.9487853"><ele>615.4285714285714</ele><time>2026-03-28T11:37:55.061Z</time></trkpt><trkpt lat="43.4161771" lon="11.9488758"><ele>615.0</ele><time>2026-03-28T11:37:58.07Z</time></trkpt><trkpt lat="43.416158" lon="11.948962"><ele>615.0</ele><time>2026-03-28T11:38:01.09Z</time></trkpt><trkpt lat="43.4161249" lon="11.9490494"><ele>615.0</ele><time>2026-03-28T11:38:04.028Z</time></trkpt><trkpt lat="43.4160898" lon="11.9491439"><ele>615.0</ele><time>2026-03-28T11:38:08.022Z</time></trkpt><trkpt lat="43.4161278" lon="11.9492301"><ele>615.0</ele><time>2026-03-28T11:38:11.081Z</time></trkpt><trkpt lat="43.4161525" lon="11.9493346"><ele>615.0</ele><time>2026-03-28T11:38:14.095Z</time></trkpt><trkpt lat="43.4161313" lon="11.9494431"><ele>615.0</ele><time>2026-03-28T11:38:17.086Z</time></trkpt><trkpt lat="43.4161182" lon="11.9495443"><ele>616.4285714285714</ele><time>2026-03-28T11:38:19.987Z</time></trkpt><trkpt lat="43.4161192" lon="11.9496585"><ele>617.8571428571429</ele><time>2026-03-28T11:38:23.136Z</time></trkpt><trkpt lat="43.416151" lon="11.9497473"><ele>619.2857142857143</ele><time>2026-03-28T11:38:26.092Z</time></trkpt><trkpt lat="43.4161822" lon="11.9498347"><ele>620.7142857142858</ele><time>2026-03-28T11:38:29.085Z</time></trkpt><trkpt lat="43.4162044" lon="11.9499295"><ele>622.1428571428571</ele><time>2026-03-28T11:38:32.118Z</time></trkpt><trkpt lat="43.416243" lon="11.9500002"><ele>623.5714285714287</ele><time>2026-03-28T11:38:35.092Z</time></trkpt><trkpt lat="43.4163075" lon="11.9500542"><ele>625.0</ele><time>2026-03-28T11:38:39.031Z</time></trkpt><trkpt lat="43.4163717" lon="11.9501219"><ele>621.4285714285714</ele><time>2026-03-28T11:38:43.126Z</time></trkpt><trkpt lat="43.4164002" lon="11.9502044"><ele>617.8571428571429</ele><time>2026-03-28T11:38:46.088Z</time></trkpt><trkpt lat="43.4164559" lon="11.9502672"><ele>614.2857142857142</ele><time>2026-03-28T11:38:49.065Z</time></trkpt><trkpt lat="43.4164993" lon="11.9503349"><ele>610.7142857142858</ele><time>2026-03-28T11:38:52.001Z</time></trkpt><trkpt lat="43.4165433" lon="11.9504105"><ele>607.1428571428571</ele><time>2026-03-28T11:38:55.129Z</time></trkpt><trkpt lat="43.4165641" lon="11.9504944"><ele>603.5714285714286</ele><time>2026-03-28T11:38:58.097Z</time></trkpt><trkpt lat="43.4165922" lon="11.9505831"><ele>600.0</ele><time>2026-03-28T11:39:01.114Z</time></trkpt><trkpt lat="43.4165984" lon="11.9506742"><ele>599.9999999999999</ele><time>2026-03-28T11:39:04.035Z</time></trkpt><trkpt lat="43.4166017" lon="11.9507629"><ele>600.0</ele><time>2026-03-28T11:39:08.118Z</time></trkpt><trkpt lat="43.4166321" lon="11.950845"><ele>600.0</ele><time>2026-03-28T11:39:27.102Z</time></trkpt><trkpt lat="43.4166579" lon="11.9509424"><ele>600.0</ele><time>2026-03-28T11:39:33.101Z</time></trkpt><trkpt lat="43.4167116" lon="11.9509888"><ele>600.0</ele><time>2026-03-28T11:39:37.09Z</time></trkpt><trkpt lat="43.4167681" lon="11.9510402"><ele>599.9999999999999</ele><time>2026-03-28T11:39:42.052Z</time></trkpt><trkpt lat="43.4168373" lon="11.9510703"><ele>600.0</ele><time>2026-03-28T11:39:46.087Z</time></trkpt><trkpt lat="43.4169053" lon="11.9510874"><ele>598.9999999999999</ele><time>2026-03-28T11:39:50.089Z</time></trkpt><trkpt lat="43.4169498" lon="11.9511633"><ele>598.0</ele><time>2026-03-28T11:39:54.1Z</time></trkpt><trkpt lat="43.4169776" lon="11.9512567"><ele>597.0</ele><time>2026-03-28T11:39:58.106Z</time></trkpt><trkpt lat="43.4170006" lon="11.9513492"><ele>596.0</ele><time>2026-03-28T11:40:02.072Z</time></trkpt><trkpt lat="43.4170359" lon="11.9514294"><ele>595.0</ele><time>2026-03-28T11:40:06.087Z</time></trkpt><trkpt lat="43.4170648" lon="11.9515159"><ele>593.9999999999999</ele><time>2026-03-28T11:40:10.007Z</time></trkpt><trkpt lat="43.4171165" lon="11.951581"><ele>593.0</ele><time>2026-03-28T11:40:14.079Z</time></trkpt><trkpt lat="43.4172323" lon="11.9516028"><ele>592.9999999999999</ele><time>2026-03-28T11:40:36.046Z</time></trkpt><trkpt lat="43.4172985" lon="11.9515949"><ele>593.0</ele><time>2026-03-28T11:40:39.045Z</time></trkpt><trkpt lat="43.4173604" lon="11.9516596"><ele>593.0</ele><time>2026-03-28T11:40:43.052Z</time></trkpt><trkpt lat="43.4174205" lon="11.9517352"><ele>593.0</ele><time>2026-03-28T11:40:47.065Z</time></trkpt><trkpt lat="43.4174554" lon="11.9518284"><ele>593.0</ele><time>2026-03-28T11:40:52.046Z</time></trkpt><trkpt lat="43.4174716" lon="11.9519132"><ele>592.9999999999999</ele><time>2026-03-28T11:40:56.057Z</time></trkpt><trkpt lat="43.4174712" lon="11.9520029"><ele>593.0</ele><time>2026-03-28T11:41:00.057Z</time></trkpt><trkpt lat="43.4174737" lon="11.9520982"><ele>593.4285714285713</ele><time>2026-03-28T11:41:05.043Z</time></trkpt><trkpt lat="43.4175098" lon="11.9521861"><ele>593.8571428571429</ele><time>2026-03-28T11:41:10.963Z</time></trkpt><trkpt lat="43.4175551" lon="11.9521185"><ele>594.2857142857142</ele><time>2026-03-28T11:41:34.05Z</time></trkpt><trkpt lat="43.4175557" lon="11.9522144"><ele>594.7142857142857</ele><time>2026-03-28T11:44:21.072Z</time></trkpt><trkpt lat="43.4175907" lon="11.9522938"><ele>595.1428571428571</ele><time>2026-03-28T11:44:29.079Z</time></trkpt><trkpt lat="43.4175737" lon="11.9523776"><ele>595.5714285714286</ele><time>2026-03-28T11:45:12.056Z</time></trkpt><trkpt lat="43.4175557" lon="11.9524675"><ele>596.0</ele><time>2026-03-28T11:45:24.076Z</time></trkpt><trkpt lat="43.4175563" lon="11.9525601"><ele>593.4285714285714</ele><time>2026-03-28T11:46:11.066Z</time></trkpt><trkpt lat="43.4175193" lon="11.9526335"><ele>590.8571428571428</ele><time>2026-03-28T11:46:55.046Z</time></trkpt><trkpt lat="43.4174825" lon="11.9527195"><ele>588.2857142857142</ele><time>2026-03-28T11:47:00.061Z</time></trkpt><trkpt lat="43.4174517" lon="11.9527993"><ele>585.7142857142857</ele><time>2026-03-28T11:47:06.087Z</time></trkpt><trkpt lat="43.4174133" lon="11.9528739"><ele>583.1428571428571</ele><time>2026-03-28T11:48:29.06Z</time></trkpt><trkpt lat="43.4173551" lon="11.9529242"><ele>580.5714285714286</ele><time>2026-03-28T11:48:39.051Z</time></trkpt><trkpt lat="43.4172871" lon="11.9529599"><ele>578.0</ele><time>2026-03-28T11:48:48.049Z</time></trkpt><trkpt lat="43.4172249" lon="11.9530249"><ele>578.0</ele><time>2026-03-28T11:49:51.052Z</time></trkpt><trkpt lat="43.4171714" lon="11.9530814"><ele>578.0</ele><time>2026-03-28T11:49:58.056Z</time></trkpt><trkpt lat="43.4171509" lon="11.9531693"><ele>578.0</ele><time>2026-03-28T11:50:04.07Z</time></trkpt><trkpt lat="43.4171629" lon="11.9532609"><ele>578.0</ele><time>2026-03-28T11:50:10.039Z</time></trkpt><trkpt lat="43.417164" lon="11.9533555"><ele>578.0</ele><time>2026-03-28T11:50:17.052Z</time></trkpt><trkpt lat="43.4171494" lon="11.9534565"><ele>578.0</ele><time>2026-03-28T11:50:25.051Z</time></trkpt><trkpt lat="43.417122" lon="11.9535378"><ele>578.0</ele><time>2026-03-28T11:50:35.041Z</time></trkpt><trkpt lat="43.4170663" lon="11.9536035"><ele>584.4285714285714</ele><time>2026-03-28T11:50:43.053Z</time></trkpt><trkpt lat="43.4170184" lon="11.9536637"><ele>590.8571428571429</ele><time>2026-03-28T11:50:50.077Z</time></trkpt><trkpt lat="43.4169713" lon="11.9537253"><ele>597.2857142857142</ele><time>2026-03-28T11:50:57.065Z</time></trkpt><trkpt lat="43.4169328" lon="11.953798"><ele>603.7142857142858</ele><time>2026-03-28T11:51:03.049Z</time></trkpt><trkpt lat="43.4168918" lon="11.9538714"><ele>610.1428571428571</ele><time>2026-03-28T11:51:12.043Z</time></trkpt><trkpt lat="43.4168529" lon="11.9539521"><ele>616.5714285714286</ele><time>2026-03-28T11:52:16.053Z</time></trkpt><trkpt lat="43.4168608" lon="11.9540463"><ele>623.0</ele><time>2026-03-28T11:52:23.075Z</time></trkpt><trkpt lat="43.4169106" lon="11.9541207"><ele>623.0</ele><time>2026-03-28T11:52:30.04Z</time></trkpt><trkpt lat="43.4169296" lon="11.9542045"><ele>623.0</ele><time>2026-03-28T11:52:36.077Z</time></trkpt><trkpt lat="43.4169863" lon="11.9542917"><ele>623.0</ele><time>2026-03-28T11:52:42.099Z</time></trkpt><trkpt lat="43.4170421" lon="11.9543614"><ele>623.0</ele><time>2026-03-28T11:52:45.057Z</time></trkpt><trkpt lat="43.4170989" lon="11.9544255"><ele>623.0</ele><time>2026-03-28T11:52:48.065Z</time></trkpt><trkpt lat="43.4171616" lon="11.9544589"><ele>623.0</ele><time>2026-03-28T11:52:52.088Z</time></trkpt><trkpt lat="43.4172113" lon="11.9545226"><ele>623.0</ele><time>2026-03-28T11:52:56.08Z</time></trkpt><trkpt lat="43.4172284" lon="11.9546342"><ele>620.0</ele><time>2026-03-28T11:53:00.062Z</time></trkpt><trkpt lat="43.4172744" lon="11.9547251"><ele>617.0</ele><time>2026-03-28T11:53:04.079Z</time></trkpt><trkpt lat="43.4173284" lon="11.954808"><ele>614.0</ele><time>2026-03-28T11:53:08.021Z</time></trkpt><trkpt lat="43.4173717" lon="11.9548885"><ele>611.0</ele><time>2026-03-28T11:53:11.074Z</time></trkpt><trkpt lat="43.4174216" lon="11.9549685"><ele>608.0</ele><time>2026-03-28T11:53:14.015Z</time></trkpt><trkpt lat="43.4174809" lon="11.9550423"><ele>605.0</ele><time>2026-03-28T11:53:17.062Z</time></trkpt><trkpt lat="43.4175182" lon="11.9551298"><ele>605.0</ele><time>2026-03-28T11:53:20.084Z</time></trkpt><trkpt lat="43.4175363" lon="11.955222"><ele>605.0</ele><time>2026-03-28T11:53:23.038Z</time></trkpt><trkpt lat="43.4175399" lon="11.9553243"><ele>605.0</ele><time>2026-03-28T11:53:27.02Z</time></trkpt><trkpt lat="43.4175239" lon="11.9554316"><ele>605.0</ele><time>2026-03-28T11:53:31.015Z</time></trkpt><trkpt lat="43.4175263" lon="11.9555367"><ele>605.0</ele><time>2026-03-28T11:53:35.079Z</time></trkpt><trkpt lat="43.4175481" lon="11.9556182"><ele>605.0</ele><time>2026-03-28T11:53:38.044Z</time></trkpt><trkpt lat="43.4175883" lon="11.9557178"><ele>605.0</ele><time>2026-03-28T11:53:42.099Z</time></trkpt><trkpt lat="43.4176301" lon="11.9558061"><ele>603.7142857142857</ele><time>2026-03-28T11:53:46.084Z</time></trkpt><trkpt lat="43.4176571" lon="11.9558865"><ele>602.4285714285714</ele><time>2026-03-28T11:53:50.07Z</time></trkpt><trkpt lat="43.4176682" lon="11.955974"><ele>601.1428571428571</ele><time>2026-03-28T11:53:54.088Z</time></trkpt><trkpt lat="43.4176821" lon="11.9560623"><ele>599.8571428571429</ele><time>2026-03-28T11:54:01.069Z</time></trkpt><trkpt lat="43.4176858" lon="11.9561582"><ele>598.5714285714286</ele><time>2026-03-28T11:54:10.099Z</time></trkpt><trkpt lat="43.4176411" lon="11.95623"><ele>597.2857142857142</ele><time>2026-03-28T11:54:18.106Z</time></trkpt><trkpt lat="43.4175869" lon="11.9562746"><ele>596.0</ele><time>2026-03-28T11:54:25.08Z</time></trkpt><trkpt lat="43.4175251" lon="11.9563039"><ele>596.0</ele><time>2026-03-28T11:54:31.111Z</time></trkpt><trkpt lat="43.4174539" lon="11.9563255"><ele>596.0</ele><time>2026-03-28T11:54:37.079Z</time></trkpt><trkpt lat="43.4173838" lon="11.9563535"><ele>596.0</ele><time>2026-03-28T11:54:44.098Z</time></trkpt><trkpt lat="43.4173191" lon="11.9564053"><ele>596.0</ele><time>2026-03-28T11:54:50.082Z</time></trkpt><trkpt lat="43.4172627" lon="11.9564694"><ele>596.0</ele><time>2026-03-28T11:54:55.097Z</time></trkpt><trkpt lat="43.4172017" lon="11.9565146"><ele>596.0</ele><time>2026-03-28T11:55:01.081Z</time></trkpt><trkpt lat="43.4171327" lon="11.9565446"><ele>596.0</ele><time>2026-03-28T11:55:07.103Z</time></trkpt><trkpt lat="43.4170759" lon="11.9566086"><ele>596.7142857142857</ele><time>2026-03-28T11:55:17.05Z</time></trkpt><trkpt lat="43.4170112" lon="11.9566585"><ele>597.4285714285713</ele><time>2026-03-28T11:55:23.078Z</time></trkpt><trkpt lat="43.41695" lon="11.9566958"><ele>598.1428571428571</ele><time>2026-03-28T11:55:29.103Z</time></trkpt><trkpt lat="43.416904" lon="11.9567751"><ele>598.8571428571429</ele><time>2026-03-28T11:55:35.072Z</time></trkpt><trkpt lat="43.4168783" lon="11.9568775"><ele>599.5714285714287</ele><time>2026-03-28T11:55:40.088Z</time></trkpt><trkpt lat="43.4168522" lon="11.9569564"><ele>600.2857142857142</ele><time>2026-03-28T11:55:45.039Z</time></trkpt><trkpt lat="43.4168153" lon="11.9570432"><ele>601.0</ele><time>2026-03-28T11:55:51.035Z</time></trkpt><trkpt lat="43.4167723" lon="11.9571232"><ele>601.0</ele><time>2026-03-28T11:55:57.091Z</time></trkpt><trkpt lat="43.4167373" lon="11.9571981"><ele>601.0</ele><time>2026-03-28T11:56:03.076Z</time></trkpt><trkpt lat="43.4167177" lon="11.9572995"><ele>601.0</ele><time>2026-03-28T11:56:09.091Z</time></trkpt><trkpt lat="43.4167067" lon="11.9573928"><ele>601.0</ele><time>2026-03-28T11:56:14.103Z</time></trkpt><trkpt lat="43.416711" lon="11.9574914"><ele>601.0</ele><time>2026-03-28T11:56:21.046Z</time></trkpt><trkpt lat="43.4166611" lon="11.9575652"><ele>601.0</ele><time>2026-03-28T11:56:48.075Z</time></trkpt><trkpt lat="43.4166903" lon="11.9576488"><ele>601.0</ele><time>2026-03-28T11:56:54.082Z</time></trkpt><trkpt lat="43.4167258" lon="11.9577441"><ele>600.0</ele><time>2026-03-28T11:56:58.08Z</time></trkpt><trkpt lat="43.416761" lon="11.9578248"><ele>599.0</ele><time>2026-03-28T11:57:02.051Z</time></trkpt><trkpt lat="43.4167829" lon="11.9579079"><ele>598.0</ele><time>2026-03-28T11:57:06.031Z</time></trkpt><trkpt lat="43.4167891" lon="11.9580023"><ele>597.0</ele><time>2026-03-28T11:57:11.155Z</time></trkpt><trkpt lat="43.4168212" lon="11.9580927"><ele>596.0</ele><time>2026-03-28T11:57:17.074Z</time></trkpt><trkpt lat="43.416856" lon="11.958175"><ele>595.0</ele><time>2026-03-28T11:57:22.62Z</time></trkpt><trkpt lat="43.4168903" lon="11.9582589"><ele>594.0</ele><time>2026-03-28T11:57:28.073Z</time></trkpt><trkpt lat="43.4169403" lon="11.9583374"><ele>593.0</ele><time>2026-03-28T11:57:33.093Z</time></trkpt><trkpt lat="43.4169867" lon="11.9583994"><ele>592.0</ele><time>2026-03-28T11:57:38.102Z</time></trkpt><trkpt lat="43.4170289" lon="11.958465"><ele>591.0</ele><time>2026-03-28T11:57:42.103Z</time></trkpt><trkpt lat="43.4170774" lon="11.9585355"><ele>590.0</ele><time>2026-03-28T11:57:47.112Z</time></trkpt><trkpt lat="43.4171408" lon="11.9585935"><ele>589.0</ele><time>2026-03-28T11:57:52.014Z</time></trkpt><trkpt lat="43.4172001" lon="11.958638"><ele>588.0</ele><time>2026-03-28T11:57:56.115Z</time></trkpt><trkpt lat="43.4172255" lon="11.9587273"><ele>587.0</ele><time>2026-03-28T11:58:02.061Z</time></trkpt><trkpt lat="43.4172295" lon="11.9588579"><ele>586.7142857142858</ele><time>2026-03-28T11:58:35.953Z</time></trkpt><trkpt lat="43.4172425" lon="11.958945"><ele>586.4285714285714</ele><time>2026-03-28T11:58:37.477Z</time></trkpt><trkpt lat="43.4172501" lon="11.9590319"><ele>586.1428571428571</ele><time>2026-03-28T11:58:41.057Z</time></trkpt><trkpt lat="43.4172732" lon="11.9591164"><ele>585.8571428571429</ele><time>2026-03-28T11:58:47.063Z</time></trkpt><trkpt lat="43.4172387" lon="11.9591912"><ele>585.5714285714286</ele><time>2026-03-28T11:58:52.051Z</time></trkpt><trkpt lat="43.4172692" lon="11.9592714"><ele>585.2857142857143</ele><time>2026-03-28T11:58:58.023Z</time></trkpt><trkpt lat="43.4173173" lon="11.9593303"><ele>585.0</ele><time>2026-03-28T11:59:02.049Z</time></trkpt><trkpt lat="43.4173634" lon="11.9593908"><ele>583.8571428571429</ele><time>2026-03-28T11:59:06.051Z</time></trkpt><trkpt lat="43.4174088" lon="11.9594599"><ele>582.7142857142857</ele><time>2026-03-28T11:59:11.058Z</time></trkpt><trkpt lat="43.4174733" lon="11.9594876"><ele>581.5714285714286</ele><time>2026-03-28T11:59:16.047Z</time></trkpt><trkpt lat="43.4175578" lon="11.9594773"><ele>580.4285714285714</ele><time>2026-03-28T11:59:34.059Z</time></trkpt><trkpt lat="43.4175972" lon="11.9595604"><ele>579.2857142857143</ele><time>2026-03-28T11:59:39.079Z</time></trkpt><trkpt lat="43.4176674" lon="11.9595379"><ele>578.1428571428571</ele><time>2026-03-28T11:59:43.054Z</time></trkpt><trkpt lat="43.417728" lon="11.9595735"><ele>577.0</ele><time>2026-03-28T12:00:03.961Z</time></trkpt><trkpt lat="43.4177975" lon="11.9595995"><ele>577.0</ele><time>2026-03-28T12:00:08.055Z</time></trkpt><trkpt lat="43.4178685" lon="11.9596369"><ele>577.0</ele><time>2026-03-28T12:00:13.051Z</time></trkpt><trkpt lat="43.4179125" lon="11.959704"><ele>577.0</ele><time>2026-03-28T12:00:18.015Z</time></trkpt><trkpt lat="43.4178893" lon="11.9597883"><ele>577.0</ele><time>2026-03-28T12:00:30.06Z</time></trkpt><trkpt lat="43.4178871" lon="11.9598777"><ele>577.0</ele><time>2026-03-28T12:00:45.931Z</time></trkpt><trkpt lat="43.4179219" lon="11.9599615"><ele>577.0</ele><time>2026-03-28T12:00:48.98Z</time></trkpt><trkpt lat="43.4179502" lon="11.9600403"><ele>577.0</ele><time>2026-03-28T12:00:52.063Z</time></trkpt><trkpt lat="43.4179429" lon="11.9601444"><ele>575.7142857142857</ele><time>2026-03-28T12:00:56.058Z</time></trkpt><trkpt lat="43.4179138" lon="11.9602396"><ele>574.4285714285714</ele><time>2026-03-28T12:01:11.063Z</time></trkpt><trkpt lat="43.417925" lon="11.9603295"><ele>573.1428571428571</ele><time>2026-03-28T12:01:16.05Z</time></trkpt><trkpt lat="43.4178873" lon="11.9604021"><ele>571.8571428571429</ele><time>2026-03-28T12:01:30.992Z</time></trkpt><trkpt lat="43.4179386" lon="11.9604663"><ele>570.5714285714286</ele><time>2026-03-28T12:01:36.051Z</time></trkpt><trkpt lat="43.4179952" lon="11.9603599"><ele>569.2857142857142</ele><time>2026-03-28T12:01:58.086Z</time></trkpt><trkpt lat="43.4179955" lon="11.9604559"><ele>568.0</ele><time>2026-03-28T12:02:06.06Z</time></trkpt><trkpt lat="43.4180344" lon="11.9605346"><ele>568.0</ele><time>2026-03-28T12:02:13.114Z</time></trkpt><trkpt lat="43.4179909" lon="11.9606083"><ele>568.0</ele><time>2026-03-28T12:02:32.09Z</time></trkpt><trkpt lat="43.4179277" lon="11.9606512"><ele>568.0</ele><time>2026-03-28T12:02:39.102Z</time></trkpt><trkpt lat="43.4179513" lon="11.9605693"><ele>568.0</ele><time>2026-03-28T12:03:11.038Z</time></trkpt><trkpt lat="43.4180172" lon="11.9605686"><ele>568.0</ele><time>2026-03-28T12:03:21.038Z</time></trkpt><trkpt lat="43.4180742" lon="11.9606164"><ele>568.0</ele><time>2026-03-28T12:03:46.061Z</time></trkpt><trkpt lat="43.4181229" lon="11.9606815"><ele>568.0</ele><time>2026-03-28T12:03:51.061Z</time></trkpt><trkpt lat="43.4181714" lon="11.9607385"><ele>568.0</ele><time>2026-03-28T12:03:55.064Z</time></trkpt><trkpt lat="43.41821" lon="11.960827"><ele>568.0</ele><time>2026-03-28T12:04:01.05Z</time></trkpt><trkpt lat="43.4182533" lon="11.9609035"><ele>568.0</ele><time>2026-03-28T12:04:06.046Z</time></trkpt><trkpt lat="43.4182696" lon="11.9609993"><ele>568.0</ele><time>2026-03-28T12:04:12.061Z</time></trkpt><trkpt lat="43.4183077" lon="11.9610995"><ele>568.0</ele><time>2026-03-28T12:04:17.064Z</time></trkpt><trkpt lat="43.4183539" lon="11.9611646"><ele>568.0</ele><time>2026-03-28T12:04:22.013Z</time></trkpt><trkpt lat="43.4184088" lon="11.961228"><ele>568.0</ele><time>2026-03-28T12:04:28.018Z</time></trkpt><trkpt lat="43.4184418" lon="11.9613071"><ele>567.2857142857142</ele><time>2026-03-28T12:04:36.074Z</time></trkpt><trkpt lat="43.4185083" lon="11.9613431"><ele>566.5714285714286</ele><time>2026-03-28T12:04:59.058Z</time></trkpt><trkpt lat="43.418574" lon="11.9613309"><ele>565.8571428571429</ele><time>2026-03-28T12:05:04.054Z</time></trkpt><trkpt lat="43.4186435" lon="11.9613661"><ele>565.1428571428571</ele><time>2026-03-28T12:05:09.041Z</time></trkpt><trkpt lat="43.4187045" lon="11.9614165"><ele>564.4285714285714</ele><time>2026-03-28T12:05:16.056Z</time></trkpt><trkpt lat="43.418771" lon="11.9613951"><ele>563.7142857142857</ele><time>2026-03-28T12:05:24.052Z</time></trkpt><trkpt lat="43.41883" lon="11.9614274"><ele>563.0</ele><time>2026-03-28T12:05:29.046Z</time></trkpt><trkpt lat="43.4189005" lon="11.9614326"><ele>562.4285714285714</ele><time>2026-03-28T12:05:35.054Z</time></trkpt><trkpt lat="43.4189734" lon="11.9614254"><ele>561.8571428571429</ele><time>2026-03-28T12:05:42.055Z</time></trkpt><trkpt lat="43.4190262" lon="11.9613634"><ele>561.2857142857143</ele><time>2026-03-28T12:05:53.061Z</time></trkpt><trkpt lat="43.4189799" lon="11.9612753"><ele>560.7142857142858</ele><time>2026-03-28T12:05:54.05Z</time></trkpt><trkpt lat="43.4189738" lon="11.9613724"><ele>560.1428571428572</ele><time>2026-03-28T12:06:03.051Z</time></trkpt><trkpt lat="43.4190122" lon="11.9614439"><ele>559.5714285714286</ele><time>2026-03-28T12:06:05.056Z</time></trkpt><trkpt lat="43.419076" lon="11.961445"><ele>559.0</ele><time>2026-03-28T12:06:09.057Z</time></trkpt><trkpt lat="43.4191444" lon="11.9614217"><ele>559.0</ele><time>2026-03-28T12:07:18.058Z</time></trkpt><trkpt lat="43.419212" lon="11.9614039"><ele>559.0</ele><time>2026-03-28T12:07:25.057Z</time></trkpt><trkpt lat="43.4192785" lon="11.9614177"><ele>559.0</ele><time>2026-03-28T12:07:31.049Z</time></trkpt><trkpt lat="43.4193437" lon="11.9614244"><ele>559.0</ele><time>2026-03-28T12:07:36.064Z</time></trkpt><trkpt lat="43.4194022" lon="11.9613796"><ele>559.0</ele><time>2026-03-28T12:07:44.063Z</time></trkpt><trkpt lat="43.419355" lon="11.9613052"><ele>559.0</ele><time>2026-03-28T12:07:56.09Z</time></trkpt><trkpt lat="43.4193037" lon="11.9612461"><ele>559.0</ele><time>2026-03-28T12:08:16.055Z</time></trkpt><trkpt lat="43.4193605" lon="11.9613071"><ele>559.0</ele><time>2026-03-28T12:08:27.053Z</time></trkpt><trkpt lat="43.4193295" lon="11.9613994"><ele>559.0</ele><time>2026-03-28T12:08:32.071Z</time></trkpt><trkpt lat="43.4192832" lon="11.9614653"><ele>559.0</ele><time>2026-03-28T12:08:58.015Z</time></trkpt><trkpt lat="43.419215" lon="11.9615029"><ele>559.0</ele><time>2026-03-28T12:09:03.051Z</time></trkpt><trkpt lat="43.4191626" lon="11.9615702"><ele>559.0</ele><time>2026-03-28T12:09:08.068Z</time></trkpt><trkpt lat="43.419107" lon="11.9616368"><ele>559.0</ele><time>2026-03-28T12:09:14.067Z</time></trkpt><trkpt lat="43.4190494" lon="11.96171"><ele>559.0</ele><time>2026-03-28T12:09:22.073Z</time></trkpt><trkpt lat="43.4189789" lon="11.9617432"><ele>556.1428571428571</ele><time>2026-03-28T12:09:28.063Z</time></trkpt><trkpt lat="43.4189139" lon="11.9617964"><ele>553.2857142857143</ele><time>2026-03-28T12:09:29.093Z</time></trkpt><trkpt lat="43.418856" lon="11.9618358"><ele>550.4285714285714</ele><time>2026-03-28T12:09:30.072Z</time></trkpt><trkpt lat="43.4187828" lon="11.9618621"><ele>547.5714285714286</ele><time>2026-03-28T12:09:36.066Z</time></trkpt><trkpt lat="43.4187163" lon="11.9618457"><ele>544.7142857142858</ele><time>2026-03-28T12:09:40.049Z</time></trkpt><trkpt lat="43.4186368" lon="11.9618754"><ele>541.8571428571429</ele><time>2026-03-28T12:09:44.106Z</time></trkpt><trkpt lat="43.4185635" lon="11.9618663"><ele>539.0</ele><time>2026-03-28T12:09:56.062Z</time></trkpt><trkpt lat="43.4184959" lon="11.96182"><ele>538.6666666666666</ele><time>2026-03-28T12:09:59.034Z</time></trkpt><trkpt lat="43.4184287" lon="11.9618105"><ele>538.3333333333333</ele><time>2026-03-28T12:10:01.983Z</time></trkpt><trkpt lat="43.4183471" lon="11.961815"><ele>538.0</ele><time>2026-03-28T12:10:06.054Z</time></trkpt><trkpt lat="43.4182605" lon="11.9618114"><ele>537.6666666666666</ele><time>2026-03-28T12:10:09.989Z</time></trkpt><trkpt lat="43.4181887" lon="11.961821"><ele>537.3333333333334</ele><time>2026-03-28T12:10:13.089Z</time></trkpt><trkpt lat="43.4181137" lon="11.9618279"><ele>537.0</ele><time>2026-03-28T12:10:16.1Z</time></trkpt><trkpt lat="43.4180327" lon="11.9618316"><ele>535.1428571428571</ele><time>2026-03-28T12:10:19.112Z</time></trkpt><trkpt lat="43.4179589" lon="11.9618446"><ele>533.2857142857142</ele><time>2026-03-28T12:10:22.089Z</time></trkpt><trkpt lat="43.4178917" lon="11.9618386"><ele>531.4285714285714</ele><time>2026-03-28T12:10:24.967Z</time></trkpt><trkpt lat="43.4178165" lon="11.9618159"><ele>529.5714285714286</ele><time>2026-03-28T12:10:28.093Z</time></trkpt><trkpt lat="43.4177453" lon="11.9618079"><ele>527.7142857142858</ele><time>2026-03-28T12:10:31.125Z</time></trkpt><trkpt lat="43.4176706" lon="11.9617976"><ele>525.8571428571429</ele><time>2026-03-28T12:10:34.101Z</time></trkpt><trkpt lat="43.4176041" lon="11.9617843"><ele>524.0</ele><time>2026-03-28T12:10:37.061Z</time></trkpt><trkpt lat="43.4175515" lon="11.9617311"><ele>527.4285714285714</ele><time>2026-03-28T12:10:40.081Z</time></trkpt><trkpt lat="43.4175087" lon="11.9616602"><ele>530.8571428571429</ele><time>2026-03-28T12:10:43.132Z</time></trkpt><trkpt lat="43.4174651" lon="11.9615809"><ele>534.2857142857143</ele><time>2026-03-28T12:10:47.083Z</time></trkpt><trkpt lat="43.4174241" lon="11.9615016"><ele>537.7142857142858</ele><time>2026-03-28T12:10:51.08Z</time></trkpt><trkpt lat="43.417392" lon="11.9614225"><ele>541.1428571428571</ele><time>2026-03-28T12:10:55.086Z</time></trkpt><trkpt lat="43.4173523" lon="11.9613466"><ele>544.5714285714287</ele><time>2026-03-28T12:11:00.008Z</time></trkpt><trkpt lat="43.4173288" lon="11.9612519"><ele>548.0</ele><time>2026-03-28T12:11:04.05Z</time></trkpt><trkpt lat="43.417274" lon="11.9611829"><ele>548.0</ele><time>2026-03-28T12:11:08.057Z</time></trkpt><trkpt lat="43.4171996" lon="11.9611466"><ele>548.0</ele><time>2026-03-28T12:11:12.986Z</time></trkpt><trkpt lat="43.4171315" lon="11.9611236"><ele>548.0</ele><time>2026-03-28T12:11:16.988Z</time></trkpt><trkpt lat="43.4170521" lon="11.9611045"><ele>548.0</ele><time>2026-03-28T12:11:21.033Z</time></trkpt><trkpt lat="43.4169903" lon="11.9610574"><ele>548.0</ele><time>2026-03-28T12:11:24.086Z</time></trkpt><trkpt lat="43.4169127" lon="11.961018"><ele>548.0</ele><time>2026-03-28T12:11:27.086Z</time></trkpt><trkpt lat="43.416821" lon="11.9610131"><ele>545.3333333333333</ele><time>2026-03-28T12:11:30.1Z</time></trkpt><trkpt lat="43.4167309" lon="11.9610528"><ele>542.6666666666666</ele><time>2026-03-28T12:11:33.102Z</time></trkpt><trkpt lat="43.4166783" lon="11.9611048"><ele>540.0</ele><time>2026-03-28T12:11:35.092Z</time></trkpt><trkpt lat="43.4166039" lon="11.9611737"><ele>537.3333333333334</ele><time>2026-03-28T12:11:38.085Z</time></trkpt><trkpt lat="43.4165261" lon="11.9612378"><ele>534.6666666666667</ele><time>2026-03-28T12:11:41.071Z</time></trkpt><trkpt lat="43.4164787" lon="11.9613025"><ele>532.0</ele><time>2026-03-28T12:11:44.102Z</time></trkpt><trkpt lat="43.4164339" lon="11.9613819"><ele>532.0</ele><time>2026-03-28T12:11:47.106Z</time></trkpt><trkpt lat="43.4163924" lon="11.9614679"><ele>532.0</ele><time>2026-03-28T12:11:50.082Z</time></trkpt><trkpt lat="43.4163465" lon="11.9615371"><ele>532.0</ele><time>2026-03-28T12:11:53.08Z</time></trkpt><trkpt lat="43.4162881" lon="11.9615886"><ele>532.0</ele><time>2026-03-28T12:11:56.104Z</time></trkpt><trkpt lat="43.4162389" lon="11.9616454"><ele>532.0</ele><time>2026-03-28T12:11:59.105Z</time></trkpt><trkpt lat="43.4161889" lon="11.9617033"><ele>532.0</ele><time>2026-03-28T12:12:02.077Z</time></trkpt><trkpt lat="43.4161205" lon="11.961748"><ele>532.0</ele><time>2026-03-28T12:12:06.092Z</time></trkpt><trkpt lat="43.4160411" lon="11.9617632"><ele>529.8571428571429</ele><time>2026-03-28T12:12:10.042Z</time></trkpt><trkpt lat="43.4159685" lon="11.9618059"><ele>527.7142857142858</ele><time>2026-03-28T12:12:14.064Z</time></trkpt><trkpt lat="43.4159121" lon="11.9618502"><ele>525.5714285714286</ele><time>2026-03-28T12:12:17.092Z</time></trkpt><trkpt lat="43.4158489" lon="11.9619004"><ele>523.4285714285714</ele><time>2026-03-28T12:12:20.099Z</time></trkpt><trkpt lat="43.4157983" lon="11.9619696"><ele>521.2857142857143</ele><time>2026-03-28T12:12:23.092Z</time></trkpt><trkpt lat="43.4157462" lon="11.9620367"><ele>519.1428571428571</ele><time>2026-03-28T12:12:26.03Z</time></trkpt><trkpt lat="43.415697" lon="11.9621122"><ele>517.0</ele><time>2026-03-28T12:12:29.1Z</time></trkpt><trkpt lat="43.4156604" lon="11.9621923"><ele>517.0</ele><time>2026-03-28T12:12:36.102Z</time></trkpt><trkpt lat="43.4156288" lon="11.962273"><ele>517.0</ele><time>2026-03-28T12:13:02.094Z</time></trkpt><trkpt lat="43.4155525" lon="11.9622968"><ele>517.0</ele><time>2026-03-28T12:13:20.143Z</time></trkpt><trkpt lat="43.415493" lon="11.9623633"><ele>517.0</ele><time>2026-03-28T12:13:23.102Z</time></trkpt><trkpt lat="43.4154285" lon="11.9623662"><ele>517.0</ele><time>2026-03-28T12:13:30.064Z</time></trkpt><trkpt lat="43.4153548" lon="11.9623728"><ele>517.0</ele><time>2026-03-28T12:13:38.1Z</time></trkpt><trkpt lat="43.415279" lon="11.9623748"><ele>517.0</ele><time>2026-03-28T12:13:44.073Z</time></trkpt><trkpt lat="43.4152106" lon="11.9623382"><ele>515.2857142857143</ele><time>2026-03-28T12:13:49.074Z</time></trkpt><trkpt lat="43.4151526" lon="11.9622988"><ele>513.5714285714287</ele><time>2026-03-28T12:13:53.089Z</time></trkpt><trkpt lat="43.4150744" lon="11.9622818"><ele>511.8571428571429</ele><time>2026-03-28T12:13:57.128Z</time></trkpt><trkpt lat="43.415004" lon="11.9623444"><ele>510.1428571428571</ele><time>2026-03-28T12:14:01.009Z</time></trkpt><trkpt lat="43.4149435" lon="11.96241"><ele>508.4285714285714</ele><time>2026-03-28T12:14:05.093Z</time></trkpt><trkpt lat="43.4148804" lon="11.9624157"><ele>506.71428571428567</ele><time>2026-03-28T12:14:08.083Z</time></trkpt><trkpt lat="43.4148146" lon="11.9623993"><ele>505.0</ele><time>2026-03-28T12:14:12.107Z</time></trkpt><trkpt lat="43.4147809" lon="11.9624862"><ele>503.57142857142856</ele><time>2026-03-28T12:14:17.085Z</time></trkpt><trkpt lat="43.4147144" lon="11.9625326"><ele>502.1428571428571</ele><time>2026-03-28T12:14:21.093Z</time></trkpt><trkpt lat="43.4146444" lon="11.9625121"><ele>500.71428571428567</ele><time>2026-03-28T12:14:24.113Z</time></trkpt><trkpt lat="43.4145783" lon="11.9624646"><ele>499.2857142857142</ele><time>2026-03-28T12:14:27.068Z</time></trkpt><trkpt lat="43.4145257" lon="11.9624137"><ele>497.85714285714283</ele><time>2026-03-28T12:14:30.096Z</time></trkpt><trkpt lat="43.414455" lon="11.9624072"><ele>496.42857142857133</ele><time>2026-03-28T12:14:33.077Z</time></trkpt><trkpt lat="43.4143931" lon="11.9624563"><ele>494.99999999999994</ele><time>2026-03-28T12:14:36.031Z</time></trkpt><trkpt lat="43.4143457" lon="11.9625202"><ele>494.1428571428571</ele><time>2026-03-28T12:14:39.051Z</time></trkpt><trkpt lat="43.4143009" lon="11.9625861"><ele>493.2857142857143</ele><time>2026-03-28T12:14:42.077Z</time></trkpt><trkpt lat="43.4142649" lon="11.9626651"><ele>492.42857142857144</ele><time>2026-03-28T12:14:45.087Z</time></trkpt><trkpt lat="43.4142173" lon="11.9627311"><ele>491.57142857142856</ele><time>2026-03-28T12:14:48.078Z</time></trkpt><trkpt lat="43.4141625" lon="11.96279"><ele>490.7142857142858</ele><time>2026-03-28T12:14:51.08Z</time></trkpt><trkpt lat="43.4141142" lon="11.9628588"><ele>489.8571428571429</ele><time>2026-03-28T12:14:54.063Z</time></trkpt><trkpt lat="43.4140822" lon="11.9629468"><ele>489.0</ele><time>2026-03-28T12:14:57.082Z</time></trkpt><trkpt lat="43.4140726" lon="11.9630354"><ele>489.0</ele><time>2026-03-28T12:15:00.082Z</time></trkpt><trkpt lat="43.4140751" lon="11.9631432"><ele>489.0</ele><time>2026-03-28T12:15:04.058Z</time></trkpt><trkpt lat="43.4140583" lon="11.9632452"><ele>489.0</ele><time>2026-03-28T12:15:08.066Z</time></trkpt><trkpt lat="43.4140121" lon="11.9633374"><ele>489.0</ele><time>2026-03-28T12:15:13.048Z</time></trkpt><trkpt lat="43.4139929" lon="11.9634266"><ele>489.0</ele><time>2026-03-28T12:15:18.071Z</time></trkpt><trkpt lat="43.4139886" lon="11.9635138"><ele>489.0</ele><time>2026-03-28T12:15:31.047Z</time></trkpt><trkpt lat="43.4139398" lon="11.96361"><ele>487.6666666666667</ele><time>2026-03-28T12:15:41.073Z</time></trkpt><trkpt lat="43.4138595" lon="11.9636383"><ele>486.33333333333337</ele><time>2026-03-28T12:15:45.063Z</time></trkpt><trkpt lat="43.4138203" lon="11.9637477"><ele>485.0</ele><time>2026-03-28T12:15:48.051Z</time></trkpt><trkpt lat="43.4138091" lon="11.9638361"><ele>483.6666666666667</ele><time>2026-03-28T12:15:50.056Z</time></trkpt><trkpt lat="43.4137964" lon="11.9639472"><ele>482.33333333333337</ele><time>2026-03-28T12:15:53.063Z</time></trkpt><trkpt lat="43.4137947" lon="11.9640384"><ele>481.0</ele><time>2026-03-28T12:15:55.966Z</time></trkpt><trkpt lat="43.4138377" lon="11.9641127"><ele>480.99999999999994</ele><time>2026-03-28T12:15:59.06Z</time></trkpt><trkpt lat="43.4138678" lon="11.9641909"><ele>481.0</ele><time>2026-03-28T12:16:02.069Z</time></trkpt><trkpt lat="43.4139055" lon="11.964274"><ele>480.99999999999994</ele><time>2026-03-28T12:16:06.078Z</time></trkpt><trkpt lat="43.4139662" lon="11.9643409"><ele>480.99999999999994</ele><time>2026-03-28T12:16:10.066Z</time></trkpt><trkpt lat="43.4139938" lon="11.9644223"><ele>481.0</ele><time>2026-03-28T12:16:14.014Z</time></trkpt><trkpt lat="43.4139887" lon="11.964515"><ele>480.99999999999994</ele><time>2026-03-28T12:16:20.057Z</time></trkpt><trkpt lat="43.4139638" lon="11.9646074"><ele>480.99999999999994</ele><time>2026-03-28T12:16:27.065Z</time></trkpt><trkpt lat="43.4138998" lon="11.9646693"><ele>478.99999999999994</ele><time>2026-03-28T12:16:31.027Z</time></trkpt><trkpt lat="43.4138826" lon="11.9647549"><ele>477.0</ele><time>2026-03-28T12:16:34.069Z</time></trkpt><trkpt lat="43.4138774" lon="11.9648541"><ele>474.99999999999994</ele><time>2026-03-28T12:16:38.085Z</time></trkpt><trkpt lat="43.4139238" lon="11.964927"><ele>472.99999999999994</ele><time>2026-03-28T12:16:42.091Z</time></trkpt><trkpt lat="43.4139518" lon="11.9650089"><ele>471.0</ele><time>2026-03-28T12:16:45.054Z</time></trkpt><trkpt lat="43.414004" lon="11.9650879"><ele>468.99999999999994</ele><time>2026-03-28T12:16:49.021Z</time></trkpt><trkpt lat="43.4140524" lon="11.9651478"><ele>466.99999999999994</ele><time>2026-03-28T12:16:51.987Z</time></trkpt><trkpt lat="43.4140914" lon="11.9652176"><ele>465.42857142857133</ele><time>2026-03-28T12:16:55.062Z</time></trkpt><trkpt lat="43.4141337" lon="11.965306"><ele>463.85714285714283</ele><time>2026-03-28T12:16:58.969Z</time></trkpt><trkpt lat="43.4141714" lon="11.9653891"><ele>462.2857142857142</ele><time>2026-03-28T12:17:03.064Z</time></trkpt><trkpt lat="43.4141916" lon="11.9654942"><ele>460.71428571428567</ele><time>2026-03-28T12:17:07.003Z</time></trkpt><trkpt lat="43.4141872" lon="11.9655823"><ele>459.1428571428571</ele><time>2026-03-28T12:17:10.075Z</time></trkpt><trkpt lat="43.4141498" lon="11.9656522"><ele>457.57142857142856</ele><time>2026-03-28T12:17:12.083Z</time></trkpt><trkpt lat="43.4141181" lon="11.9657508"><ele>456.0</ele><time>2026-03-28T12:17:15.051Z</time></trkpt><trkpt lat="43.4140977" lon="11.9658341"><ele>454.6666666666667</ele><time>2026-03-28T12:17:18.076Z</time></trkpt><trkpt lat="43.4140626" lon="11.9659312"><ele>453.33333333333337</ele><time>2026-03-28T12:17:23.031Z</time></trkpt><trkpt lat="43.4140348" lon="11.9660322"><ele>452.0</ele><time>2026-03-28T12:17:27.066Z</time></trkpt><trkpt lat="43.4140193" lon="11.9661341"><ele>450.6666666666667</ele><time>2026-03-28T12:17:30.006Z</time></trkpt><trkpt lat="43.4139865" lon="11.966237"><ele>449.33333333333337</ele><time>2026-03-28T12:17:33.054Z</time></trkpt><trkpt lat="43.4139154" lon="11.9662774"><ele>448.0</ele><time>2026-03-28T12:17:35.604Z</time></trkpt><trkpt lat="43.4138487" lon="11.9662795"><ele>447.50000000000006</ele><time>2026-03-28T12:17:38.096Z</time></trkpt><trkpt lat="43.4137784" lon="11.9663304"><ele>447.0</ele><time>2026-03-28T12:17:42.067Z</time></trkpt><trkpt lat="43.4137151" lon="11.9664004"><ele>446.5</ele><time>2026-03-28T12:17:46.059Z</time></trkpt><trkpt lat="43.4136496" lon="11.966451"><ele>446.0</ele><time>2026-03-28T12:17:49.025Z</time></trkpt><trkpt lat="43.4135795" lon="11.9665082"><ele>445.50000000000006</ele><time>2026-03-28T12:17:52.064Z</time></trkpt><trkpt lat="43.4135102" lon="11.9665366"><ele>445.0</ele><time>2026-03-28T12:17:55.059Z</time></trkpt><trkpt lat="43.4134337" lon="11.9665565"><ele>445.0</ele><time>2026-03-28T12:17:58.089Z</time></trkpt><trkpt lat="43.4133574" lon="11.9666175"><ele>445.0</ele><time>2026-03-28T12:18:02.078Z</time></trkpt><trkpt lat="43.4133204" lon="11.9666905"><ele>445.0</ele><time>2026-03-28T12:18:05.044Z</time></trkpt><trkpt lat="43.4132779" lon="11.9667781"><ele>445.0</ele><time>2026-03-28T12:18:08.078Z</time></trkpt><trkpt lat="43.4132235" lon="11.9668433"><ele>445.0</ele><time>2026-03-28T12:18:12.062Z</time></trkpt><trkpt lat="43.413166" lon="11.9669032"><ele>445.0</ele><time>2026-03-28T12:18:16.063Z</time></trkpt><trkpt lat="43.4131218" lon="11.9669669"><ele>445.0</ele><time>2026-03-28T12:18:19.071Z</time></trkpt><trkpt lat="43.4130881" lon="11.9670524"><ele>444.42857142857144</ele><time>2026-03-28T12:18:22.079Z</time></trkpt><trkpt lat="43.4130423" lon="11.9671341"><ele>443.85714285714283</ele><time>2026-03-28T12:18:25.051Z</time></trkpt><trkpt lat="43.4130152" lon="11.9672237"><ele>443.2857142857143</ele><time>2026-03-28T12:18:28.073Z</time></trkpt><trkpt lat="43.4129975" lon="11.9673297"><ele>442.7142857142857</ele><time>2026-03-28T12:18:32.066Z</time></trkpt><trkpt lat="43.4129597" lon="11.9674174"><ele>442.1428571428571</ele><time>2026-03-28T12:18:36.124Z</time></trkpt><trkpt lat="43.4129645" lon="11.9675125"><ele>441.57142857142856</ele><time>2026-03-28T12:18:40.077Z</time></trkpt><trkpt lat="43.4129752" lon="11.9676069"><ele>441.0</ele><time>2026-03-28T12:18:44.069Z</time></trkpt><trkpt lat="43.4130081" lon="11.9677048"><ele>439.14285714285717</ele><time>2026-03-28T12:18:48.074Z</time></trkpt><trkpt lat="43.4130532" lon="11.9677848"><ele>437.2857142857143</ele><time>2026-03-28T12:18:52.069Z</time></trkpt><trkpt lat="43.4130442" lon="11.9678766"><ele>435.42857142857144</ele><time>2026-03-28T12:18:56.011Z</time></trkpt><trkpt lat="43.4129915" lon="11.9679469"><ele>433.57142857142856</ele><time>2026-03-28T12:19:00.068Z</time></trkpt><trkpt lat="43.4129166" lon="11.967964"><ele>431.7142857142857</ele><time>2026-03-28T12:19:04.067Z</time></trkpt><trkpt lat="43.412845" lon="11.968"><ele>429.8571428571429</ele><time>2026-03-28T12:19:08.024Z</time></trkpt><trkpt lat="43.4127834" lon="11.9680252"><ele>428.0</ele><time>2026-03-28T12:19:12.055Z</time></trkpt><trkpt lat="43.4127112" lon="11.9680147"><ele>426.5714285714286</ele><time>2026-03-28T12:19:17.067Z</time></trkpt><trkpt lat="43.4126342" lon="11.967996"><ele>425.14285714285717</ele><time>2026-03-28T12:19:21.045Z</time></trkpt><trkpt lat="43.4125597" lon="11.9680013"><ele>423.7142857142857</ele><time>2026-03-28T12:19:24.061Z</time></trkpt><trkpt lat="43.412491" lon="11.9680257"><ele>422.28571428571433</ele><time>2026-03-28T12:19:29.05Z</time></trkpt><trkpt lat="43.4124249" lon="11.9680021"><ele>420.85714285714283</ele><time>2026-03-28T12:19:38.058Z</time></trkpt><trkpt lat="43.4123519" lon="11.9680013"><ele>419.42857142857144</ele><time>2026-03-28T12:19:43.053Z</time></trkpt><trkpt lat="43.4123524" lon="11.9679075"><ele>418.0</ele><time>2026-03-28T12:19:51.05Z</time></trkpt><trkpt lat="43.4124004" lon="11.9679644"><ele>418.0</ele><time>2026-03-28T12:19:56.058Z</time></trkpt><trkpt lat="43.4124026" lon="11.9680517"><ele>418.0</ele><time>2026-03-28T12:20:02.067Z</time></trkpt><trkpt lat="43.4124551" lon="11.9681078"><ele>418.0</ele><time>2026-03-28T12:20:07.051Z</time></trkpt><trkpt lat="43.4124979" lon="11.9681925"><ele>418.0</ele><time>2026-03-28T12:20:13.064Z</time></trkpt><trkpt lat="43.4125452" lon="11.9682516"><ele>418.0</ele><time>2026-03-28T12:20:19.102Z</time></trkpt><trkpt lat="43.4126112" lon="11.9682542"><ele>418.0</ele><time>2026-03-28T12:20:22.033Z</time></trkpt><trkpt lat="43.4126771" lon="11.9682866"><ele>418.0</ele><time>2026-03-28T12:20:25.075Z</time></trkpt><trkpt lat="43.412735" lon="11.9683374"><ele>417.6666666666667</ele><time>2026-03-28T12:20:28.03Z</time></trkpt><trkpt lat="43.4127725" lon="11.968418"><ele>417.33333333333337</ele><time>2026-03-28T12:20:31.075Z</time></trkpt><trkpt lat="43.4128361" lon="11.9685024"><ele>417.0</ele><time>2026-03-28T12:20:34.091Z</time></trkpt><trkpt lat="43.4128868" lon="11.9685921"><ele>416.66666666666663</ele><time>2026-03-28T12:20:37.062Z</time></trkpt><trkpt lat="43.4129383" lon="11.9686653"><ele>416.3333333333333</ele><time>2026-03-28T12:20:40.11Z</time></trkpt><trkpt lat="43.4130078" lon="11.9687082"><ele>416.0</ele><time>2026-03-28T12:20:43.077Z</time></trkpt><trkpt lat="43.4130808" lon="11.9687378"><ele>415.99999999999994</ele><time>2026-03-28T12:20:46.058Z</time></trkpt><trkpt lat="43.4131521" lon="11.9687702"><ele>416.0</ele><time>2026-03-28T12:20:49.106Z</time></trkpt><trkpt lat="43.4132281" lon="11.9688042"><ele>416.0</ele><time>2026-03-28T12:20:52.083Z</time></trkpt><trkpt lat="43.4133144" lon="11.9688404"><ele>416.0</ele><time>2026-03-28T12:20:55.13Z</time></trkpt><trkpt lat="43.4133823" lon="11.9688727"><ele>415.99999999999994</ele><time>2026-03-28T12:20:58.011Z</time></trkpt><trkpt lat="43.4134501" lon="11.9688868"><ele>416.0</ele><time>2026-03-28T12:21:01.1Z</time></trkpt><trkpt lat="43.41353" lon="11.9688953"><ele>415.99999999999994</ele><time>2026-03-28T12:21:05.06Z</time></trkpt><trkpt lat="43.4136138" lon="11.9689023"><ele>416.0</ele><time>2026-03-28T12:21:09.067Z</time></trkpt><trkpt lat="43.4136897" lon="11.968928"><ele>416.0</ele><time>2026-03-28T12:21:13.101Z</time></trkpt><trkpt lat="43.4137527" lon="11.9689502"><ele>416.0</ele><time>2026-03-28T12:21:17.026Z</time></trkpt><trkpt lat="43.4138279" lon="11.9689952"><ele>415.99999999999994</ele><time>2026-03-28T12:21:22.092Z</time></trkpt><trkpt lat="43.4138983" lon="11.9690398"><ele>416.0</ele><time>2026-03-28T12:21:26.09Z</time></trkpt><trkpt lat="43.4139707" lon="11.9691001"><ele>415.7142857142857</ele><time>2026-03-28T12:21:30.087Z</time></trkpt><trkpt lat="43.4140258" lon="11.9691593"><ele>415.42857142857144</ele><time>2026-03-28T12:21:33.075Z</time></trkpt><trkpt lat="43.4140836" lon="11.9692106"><ele>415.14285714285717</ele><time>2026-03-28T12:21:36.101Z</time></trkpt><trkpt lat="43.4141411" lon="11.9692599"><ele>414.8571428571429</ele><time>2026-03-28T12:21:39.089Z</time></trkpt><trkpt lat="43.4141973" lon="11.9693146"><ele>414.57142857142856</ele><time>2026-03-28T12:21:42.129Z</time></trkpt><trkpt lat="43.4142541" lon="11.9693699"><ele>414.28571428571433</ele><time>2026-03-28T12:21:45.087Z</time></trkpt><trkpt lat="43.4143093" lon="11.9694288"><ele>414.0</ele><time>2026-03-28T12:21:48.089Z</time></trkpt><trkpt lat="43.4143685" lon="11.9695038"><ele>414.00000000000006</ele><time>2026-03-28T12:21:51.096Z</time></trkpt><trkpt lat="43.414415" lon="11.9695768"><ele>414.0</ele><time>2026-03-28T12:21:54.079Z</time></trkpt><trkpt lat="43.4144554" lon="11.9696595"><ele>414.0</ele><time>2026-03-28T12:21:57.074Z</time></trkpt><trkpt lat="43.4144977" lon="11.9697387"><ele>414.0</ele><time>2026-03-28T12:22:00.09Z</time></trkpt><trkpt lat="43.4145467" lon="11.9698322"><ele>414.0</ele><time>2026-03-28T12:22:04.08Z</time></trkpt><trkpt lat="43.4145771" lon="11.9699096"><ele>414.00000000000006</ele><time>2026-03-28T12:22:07.112Z</time></trkpt><trkpt lat="43.4146219" lon="11.9700111"><ele>414.0</ele><time>2026-03-28T12:22:11.078Z</time></trkpt><trkpt lat="43.4146554" lon="11.9700869"><ele>414.5714285714286</ele><time>2026-03-28T12:22:13.99Z</time></trkpt><trkpt lat="43.4147008" lon="11.9701585"><ele>415.14285714285717</ele><time>2026-03-28T12:22:17.099Z</time></trkpt><trkpt lat="43.4147414" lon="11.9702304"><ele>415.7142857142857</ele><time>2026-03-28T12:22:20.106Z</time></trkpt><trkpt lat="43.4147743" lon="11.9703068"><ele>416.28571428571433</ele><time>2026-03-28T12:22:22.974Z</time></trkpt><trkpt lat="43.4148106" lon="11.9703932"><ele>416.85714285714283</ele><time>2026-03-28T12:22:26.098Z</time></trkpt><trkpt lat="43.4148407" lon="11.9704775"><ele>417.42857142857144</ele><time>2026-03-28T12:22:29.099Z</time></trkpt><trkpt lat="43.4148663" lon="11.9705821"><ele>418.0</ele><time>2026-03-28T12:22:33.067Z</time></trkpt><trkpt lat="43.4148953" lon="11.9706874"><ele>418.0</ele><time>2026-03-28T12:22:37.052Z</time></trkpt><trkpt lat="43.4149164" lon="11.970796"><ele>418.0</ele><time>2026-03-28T12:22:41.095Z</time></trkpt><trkpt lat="43.4149252" lon="11.9708916"><ele>418.0</ele><time>2026-03-28T12:22:44.09Z</time></trkpt><trkpt lat="43.4149413" lon="11.9709766"><ele>418.0</ele><time>2026-03-28T12:22:47.074Z</time></trkpt><trkpt lat="43.4149593" lon="11.9710648"><ele>418.0</ele><time>2026-03-28T12:22:50.078Z</time></trkpt><trkpt lat="43.414988" lon="11.9711542"><ele>418.0</ele><time>2026-03-28T12:22:53.092Z</time></trkpt><trkpt lat="43.4150212" lon="11.9712349"><ele>418.0</ele><time>2026-03-28T12:22:56.068Z</time></trkpt><trkpt lat="43.4150554" lon="11.9713119"><ele>417.42857142857144</ele><time>2026-03-28T12:22:59.095Z</time></trkpt><trkpt lat="43.4150844" lon="11.9713903"><ele>416.85714285714283</ele><time>2026-03-28T12:23:02.106Z</time></trkpt><trkpt lat="43.4151299" lon="11.9714574"><ele>416.28571428571433</ele><time>2026-03-28T12:23:05.1Z</time></trkpt><trkpt lat="43.4151856" lon="11.9715057"><ele>415.7142857142857</ele><time>2026-03-28T12:23:08.045Z</time></trkpt><trkpt lat="43.4152274" lon="11.9715717"><ele>415.14285714285717</ele><time>2026-03-28T12:23:11.072Z</time></trkpt><trkpt lat="43.4152671" lon="11.9716482"><ele>414.5714285714286</ele><time>2026-03-28T12:23:14.928Z</time></trkpt><trkpt lat="43.4153036" lon="11.9717268"><ele>414.0</ele><time>2026-03-28T12:23:19.102Z</time></trkpt><trkpt lat="43.4153394" lon="11.9718252"><ele>414.5</ele><time>2026-03-28T12:23:23.088Z</time></trkpt><trkpt lat="43.4153775" lon="11.9719208"><ele>415.0</ele><time>2026-03-28T12:23:27.121Z</time></trkpt><trkpt lat="43.4154264" lon="11.9720015"><ele>415.5</ele><time>2026-03-28T12:23:31.106Z</time></trkpt><trkpt lat="43.4154914" lon="11.9720786"><ele>416.0</ele><time>2026-03-28T12:23:35.11Z</time></trkpt><trkpt lat="43.4155354" lon="11.9721533"><ele>416.5</ele><time>2026-03-28T12:23:38.097Z</time></trkpt><trkpt lat="43.4155808" lon="11.9722343"><ele>417.0</ele><time>2026-03-28T12:23:41.088Z</time></trkpt><trkpt lat="43.4156288" lon="11.9723147"><ele>417.0</ele><time>2026-03-28T12:23:44.103Z</time></trkpt><trkpt lat="43.4156753" lon="11.9723912"><ele>417.0</ele><time>2026-03-28T12:23:46.971Z</time></trkpt><trkpt lat="43.4157341" lon="11.9724652"><ele>417.0</ele><time>2026-03-28T12:23:50.084Z</time></trkpt><trkpt lat="43.4157941" lon="11.9725312"><ele>417.0</ele><time>2026-03-28T12:23:53.111Z</time></trkpt><trkpt lat="43.4158529" lon="11.9726025"><ele>417.0</ele><time>2026-03-28T12:23:56.074Z</time></trkpt><trkpt lat="43.4159106" lon="11.9726702"><ele>417.0</ele><time>2026-03-28T12:23:59.114Z</time></trkpt><trkpt lat="43.4159632" lon="11.9727362"><ele>416.1666666666667</ele><time>2026-03-28T12:24:02.124Z</time></trkpt><trkpt lat="43.4160282" lon="11.9728118"><ele>415.33333333333337</ele><time>2026-03-28T12:24:06.053Z</time></trkpt><trkpt lat="43.4161034" lon="11.9728662"><ele>414.5</ele><time>2026-03-28T12:24:10.087Z</time></trkpt><trkpt lat="43.4161646" lon="11.9729225"><ele>413.6666666666667</ele><time>2026-03-28T12:24:14.031Z</time></trkpt><trkpt lat="43.4162304" lon="11.9729946"><ele>412.83333333333337</ele><time>2026-03-28T12:24:18.008Z</time></trkpt><trkpt lat="43.4162898" lon="11.9730397"><ele>412.0</ele><time>2026-03-28T12:24:21.102Z</time></trkpt><trkpt lat="43.4163503" lon="11.9730785"><ele>411.99999999999994</ele><time>2026-03-28T12:24:24.1Z</time></trkpt><trkpt lat="43.4164154" lon="11.9731107"><ele>412.0</ele><time>2026-03-28T12:24:27.041Z</time></trkpt><trkpt lat="43.4164813" lon="11.9731323"><ele>412.0</ele><time>2026-03-28T12:24:30.072Z</time></trkpt><trkpt lat="43.4165447" lon="11.973142"><ele>412.0</ele><time>2026-03-28T12:24:33.096Z</time></trkpt><trkpt lat="43.4166266" lon="11.9731406"><ele>412.0</ele><time>2026-03-28T12:24:37.068Z</time></trkpt><trkpt lat="43.41669" lon="11.9731389"><ele>411.99999999999994</ele><time>2026-03-28T12:24:40.096Z</time></trkpt><trkpt lat="43.4167559" lon="11.9731364"><ele>412.0</ele><time>2026-03-28T12:24:43.118Z</time></trkpt><trkpt lat="43.41682" lon="11.9731313"><ele>411.99999999999994</ele><time>2026-03-28T12:24:46.097Z</time></trkpt><trkpt lat="43.4169003" lon="11.9731194"><ele>412.0</ele><time>2026-03-28T12:24:50.064Z</time></trkpt><trkpt lat="43.4169644" lon="11.9731098"><ele>412.0</ele><time>2026-03-28T12:24:53.098Z</time></trkpt><trkpt lat="43.4170423" lon="11.9731038"><ele>412.0</ele><time>2026-03-28T12:24:57.008Z</time></trkpt><trkpt lat="43.4171085" lon="11.9730939"><ele>412.0</ele><time>2026-03-28T12:25:00.081Z</time></trkpt><trkpt lat="43.4171753" lon="11.9730853"><ele>411.99999999999994</ele><time>2026-03-28T12:25:03.094Z</time></trkpt><trkpt lat="43.4172569" lon="11.9730824"><ele>412.0</ele><time>2026-03-28T12:25:07.13Z</time></trkpt><trkpt lat="43.4173207" lon="11.9730735"><ele>411.6666666666667</ele><time>2026-03-28T12:25:10.034Z</time></trkpt><trkpt lat="43.417392" lon="11.9730662"><ele>411.33333333333337</ele><time>2026-03-28T12:25:13.095Z</time></trkpt><trkpt lat="43.4174566" lon="11.9730576"><ele>411.0</ele><time>2026-03-28T12:25:16.081Z</time></trkpt><trkpt lat="43.4175336" lon="11.9730359"><ele>410.66666666666663</ele><time>2026-03-28T12:25:20.09Z</time></trkpt><trkpt lat="43.4176099" lon="11.9730192"><ele>410.3333333333333</ele><time>2026-03-28T12:25:24.138Z</time></trkpt><trkpt lat="43.4176987" lon="11.9729957"><ele>410.0</ele><time>2026-03-28T12:25:28.914Z</time></trkpt><trkpt lat="43.4177681" lon="11.9729844"><ele>410.0</ele><time>2026-03-28T12:25:32.087Z</time></trkpt><trkpt lat="43.4178382" lon="11.9729761"><ele>410.0</ele><time>2026-03-28T12:25:35.029Z</time></trkpt><trkpt lat="43.4179098" lon="11.972953"><ele>410.0</ele><time>2026-03-28T12:25:38.102Z</time></trkpt><trkpt lat="43.4179805" lon="11.9729334"><ele>410.0</ele><time>2026-03-28T12:25:41.081Z</time></trkpt><trkpt lat="43.4180537" lon="11.9729203"><ele>410.0</ele><time>2026-03-28T12:25:44.052Z</time></trkpt><trkpt lat="43.4181301" lon="11.9729247"><ele>410.0</ele><time>2026-03-28T12:25:47.098Z</time></trkpt><trkpt lat="43.4182071" lon="11.9729393"><ele>410.0</ele><time>2026-03-28T12:25:50.124Z</time></trkpt><trkpt lat="43.4182866" lon="11.9729386"><ele>409.8571428571429</ele><time>2026-03-28T12:25:53.093Z</time></trkpt><trkpt lat="43.4183604" lon="11.9729399"><ele>409.71428571428567</ele><time>2026-03-28T12:25:55.989Z</time></trkpt><trkpt lat="43.4184234" lon="11.9729381"><ele>409.57142857142856</ele><time>2026-03-28T12:25:59.103Z</time></trkpt><trkpt lat="43.418504" lon="11.9729473"><ele>409.42857142857144</ele><time>2026-03-28T12:26:03.086Z</time></trkpt><trkpt lat="43.4185693" lon="11.9729556"><ele>409.28571428571433</ele><time>2026-03-28T12:26:06.104Z</time></trkpt><trkpt lat="43.4186325" lon="11.9729687"><ele>409.1428571428571</ele><time>2026-03-28T12:26:09.101Z</time></trkpt><trkpt lat="43.4187097" lon="11.9730095"><ele>409.0</ele><time>2026-03-28T12:26:13.031Z</time></trkpt><trkpt lat="43.4187797" lon="11.9730422"><ele>409.57142857142856</ele><time>2026-03-28T12:26:16.082Z</time></trkpt><trkpt lat="43.4188541" lon="11.9730623"><ele>410.14285714285717</ele><time>2026-03-28T12:26:19.101Z</time></trkpt><trkpt lat="43.4189167" lon="11.9730839"><ele>410.7142857142857</ele><time>2026-03-28T12:26:22.094Z</time></trkpt><trkpt lat="43.4189983" lon="11.9731045"><ele>411.2857142857143</ele><time>2026-03-28T12:26:26.05Z</time></trkpt><trkpt lat="43.4190671" lon="11.9731377"><ele>411.8571428571429</ele><time>2026-03-28T12:26:29.084Z</time></trkpt><trkpt lat="43.4191279" lon="11.9731705"><ele>412.42857142857144</ele><time>2026-03-28T12:26:32.071Z</time></trkpt><trkpt lat="43.4191895" lon="11.9732214"><ele>413.0</ele><time>2026-03-28T12:26:36.111Z</time></trkpt><trkpt lat="43.4192562" lon="11.973272"><ele>412.99999999999994</ele><time>2026-03-28T12:26:40.08Z</time></trkpt><trkpt lat="43.4193292" lon="11.9733331"><ele>413.0</ele><time>2026-03-28T12:26:44.089Z</time></trkpt><trkpt lat="43.4193948" lon="11.9733785"><ele>413.0</ele><time>2026-03-28T12:26:47.109Z</time></trkpt><trkpt lat="43.4194517" lon="11.9734227"><ele>413.0</ele><time>2026-03-28T12:26:49.991Z</time></trkpt><trkpt lat="43.4195239" lon="11.9734741"><ele>412.99999999999994</ele><time>2026-03-28T12:26:53.078Z</time></trkpt><trkpt lat="43.4195966" lon="11.9735262"><ele>413.0</ele><time>2026-03-28T12:26:56.076Z</time></trkpt><trkpt lat="43.4196642" lon="11.9735837"><ele>412.0</ele><time>2026-03-28T12:26:59.027Z</time></trkpt><trkpt lat="43.4197345" lon="11.9736264"><ele>411.0</ele><time>2026-03-28T12:27:02.115Z</time></trkpt><trkpt lat="43.4197898" lon="11.9736775"><ele>410.0</ele><time>2026-03-28T12:27:05.082Z</time></trkpt><trkpt lat="43.4198443" lon="11.9737211"><ele>409.0</ele><time>2026-03-28T12:27:08.089Z</time></trkpt><trkpt lat="43.4199142" lon="11.9737719"><ele>408.0</ele><time>2026-03-28T12:27:12.082Z</time></trkpt><trkpt lat="43.4199667" lon="11.9738338"><ele>407.0</ele><time>2026-03-28T12:27:15.105Z</time></trkpt><trkpt lat="43.4200243" lon="11.9738969"><ele>406.0</ele><time>2026-03-28T12:27:18.088Z</time></trkpt><trkpt lat="43.420084" lon="11.9739562"><ele>406.0</ele><time>2026-03-28T12:27:21.06Z</time></trkpt><trkpt lat="43.4201406" lon="11.9740191"><ele>406.0</ele><time>2026-03-28T12:27:24.097Z</time></trkpt><trkpt lat="43.4201953" lon="11.9740768"><ele>406.0</ele><time>2026-03-28T12:27:27.068Z</time></trkpt><trkpt lat="43.4202577" lon="11.9741155"><ele>406.0</ele><time>2026-03-28T12:27:30.066Z</time></trkpt><trkpt lat="43.420322" lon="11.9741406"><ele>406.0</ele><time>2026-03-28T12:27:33.048Z</time></trkpt><trkpt lat="43.4203908" lon="11.9741563"><ele>406.0</ele><time>2026-03-28T12:27:36.087Z</time></trkpt><trkpt lat="43.4204663" lon="11.9741734"><ele>406.0</ele><time>2026-03-28T12:27:40.106Z</time></trkpt><trkpt lat="43.4205293" lon="11.9741848"><ele>405.50000000000006</ele><time>2026-03-28T12:27:43.043Z</time></trkpt><trkpt lat="43.4205965" lon="11.9741924"><ele>405.0</ele><time>2026-03-28T12:27:46.104Z</time></trkpt><trkpt lat="43.420674" lon="11.974201"><ele>404.5</ele><time>2026-03-28T12:27:50.106Z</time></trkpt><trkpt lat="43.4207595" lon="11.9742092"><ele>404.0</ele><time>2026-03-28T12:27:54.085Z</time></trkpt><trkpt lat="43.4208286" lon="11.974216"><ele>403.50000000000006</ele><time>2026-03-28T12:27:57.075Z</time></trkpt><trkpt lat="43.4209135" lon="11.9742161"><ele>403.0</ele><time>2026-03-28T12:28:02.086Z</time></trkpt><trkpt lat="43.4209839" lon="11.9742272"><ele>403.0</ele><time>2026-03-28T12:28:06.079Z</time></trkpt><trkpt lat="43.4210586" lon="11.974219"><ele>403.0</ele><time>2026-03-28T12:28:10.127Z</time></trkpt><trkpt lat="43.4211254" lon="11.9742164"><ele>403.0</ele><time>2026-03-28T12:28:14.114Z</time></trkpt><trkpt lat="43.4211961" lon="11.9742004"><ele>403.0</ele><time>2026-03-28T12:28:18.103Z</time></trkpt><trkpt lat="43.4212786" lon="11.9741872"><ele>403.0</ele><time>2026-03-28T12:28:22.106Z</time></trkpt><trkpt lat="43.4213577" lon="11.9741928"><ele>403.0</ele><time>2026-03-28T12:28:25.104Z</time></trkpt><trkpt lat="43.4214209" lon="11.9742175"><ele>403.0</ele><time>2026-03-28T12:28:27.101Z</time></trkpt><trkpt lat="43.4214785" lon="11.9742858"><ele>403.14285714285717</ele><time>2026-03-28T12:28:30.108Z</time></trkpt><trkpt lat="43.4215127" lon="11.9743627"><ele>403.2857142857143</ele><time>2026-03-28T12:28:33.005Z</time></trkpt><trkpt lat="43.4215363" lon="11.9744535"><ele>403.42857142857144</ele><time>2026-03-28T12:28:36.08Z</time></trkpt><trkpt lat="43.4215659" lon="11.974535"><ele>403.57142857142856</ele><time>2026-03-28T12:28:39.083Z</time></trkpt><trkpt lat="43.4216056" lon="11.974605"><ele>403.71428571428567</ele><time>2026-03-28T12:28:42.049Z</time></trkpt><trkpt lat="43.4216494" lon="11.9746763"><ele>403.85714285714283</ele><time>2026-03-28T12:28:46.059Z</time></trkpt><trkpt lat="43.4217197" lon="11.9747034"><ele>404.0</ele><time>2026-03-28T12:28:54.094Z</time></trkpt><trkpt lat="43.4218336" lon="11.9747481"><ele>404.0</ele><time>2026-03-28T12:29:40.067Z</time></trkpt><trkpt lat="43.4218553" lon="11.9748298"><ele>404.0</ele><time>2026-03-28T12:29:57.077Z</time></trkpt><trkpt lat="43.4218593" lon="11.9749203"><ele>404.0</ele><time>2026-03-28T12:30:00.106Z</time></trkpt><trkpt lat="43.4218627" lon="11.975025"><ele>404.0</ele><time>2026-03-28T12:30:05.1Z</time></trkpt><trkpt lat="43.4218639" lon="11.9751242"><ele>404.0</ele><time>2026-03-28T12:30:11.103Z</time></trkpt><trkpt lat="43.4218957" lon="11.9752135"><ele>404.0</ele><time>2026-03-28T12:30:16.23Z</time></trkpt><trkpt lat="43.4219132" lon="11.9753181"><ele>404.0</ele><time>2026-03-28T12:30:21.114Z</time></trkpt><trkpt lat="43.4219258" lon="11.9754126"><ele>403.85714285714283</ele><time>2026-03-28T12:30:26.11Z</time></trkpt><trkpt lat="43.4219312" lon="11.9755101"><ele>403.71428571428567</ele><time>2026-03-28T12:30:31.13Z</time></trkpt><trkpt lat="43.4219505" lon="11.9756116"><ele>403.57142857142856</ele><time>2026-03-28T12:30:36.098Z</time></trkpt><trkpt lat="43.4219535" lon="11.9756986"><ele>403.42857142857144</ele><time>2026-03-28T12:30:41.095Z</time></trkpt><trkpt lat="43.4219868" lon="11.9757877"><ele>403.2857142857143</ele><time>2026-03-28T12:30:46.085Z</time></trkpt><trkpt lat="43.4220027" lon="11.9758734"><ele>403.14285714285717</ele><time>2026-03-28T12:30:51.086Z</time></trkpt><trkpt lat="43.4220215" lon="11.9759722"><ele>403.0</ele><time>2026-03-28T12:30:57.078Z</time></trkpt><trkpt lat="43.4220283" lon="11.9760586"><ele>403.0</ele><time>2026-03-28T12:31:02.045Z</time></trkpt><trkpt lat="43.4220545" lon="11.9761451"><ele>403.0</ele><time>2026-03-28T12:31:07.086Z</time></trkpt><trkpt lat="43.4220697" lon="11.9762305"><ele>403.0</ele><time>2026-03-28T12:31:12.128Z</time></trkpt><trkpt lat="43.4221079" lon="11.9763029"><ele>403.0</ele><time>2026-03-28T12:31:20.086Z</time></trkpt><trkpt lat="43.4221349" lon="11.9763881"><ele>403.0</ele><time>2026-03-28T12:31:27.113Z</time></trkpt><trkpt lat="43.4221005" lon="11.9764655"><ele>403.0</ele><time>2026-03-28T12:32:00.116Z</time></trkpt><trkpt lat="43.4221066" lon="11.9765525"><ele>403.0</ele><time>2026-03-28T12:33:34.112Z</time></trkpt><trkpt lat="43.4220972" lon="11.9766542"><ele>403.2857142857143</ele><time>2026-03-28T12:33:38.106Z</time></trkpt><trkpt lat="43.4220878" lon="11.9767509"><ele>403.57142857142856</ele><time>2026-03-28T12:33:41.065Z</time></trkpt><trkpt lat="43.4220731" lon="11.9768365"><ele>403.85714285714283</ele><time>2026-03-28T12:33:44.095Z</time></trkpt><trkpt lat="43.4220563" lon="11.9769228"><ele>404.1428571428571</ele><time>2026-03-28T12:33:47.096Z</time></trkpt><trkpt lat="43.4220415" lon="11.9770116"><ele>404.42857142857144</ele><time>2026-03-28T12:33:50.025Z</time></trkpt><trkpt lat="43.4220293" lon="11.9771018"><ele>404.71428571428567</ele><time>2026-03-28T12:33:53.134Z</time></trkpt><trkpt lat="43.4220163" lon="11.977211"><ele>405.0</ele><time>2026-03-28T12:33:57.083Z</time></trkpt><trkpt lat="43.4219848" lon="11.9772916"><ele>404.99999999999994</ele><time>2026-03-28T12:34:01.094Z</time></trkpt><trkpt lat="43.4219522" lon="11.9773937"><ele>405.0</ele><time>2026-03-28T12:34:05.094Z</time></trkpt><trkpt lat="43.4219246" lon="11.977491"><ele>405.0</ele><time>2026-03-28T12:34:08.079Z</time></trkpt><trkpt lat="43.4219012" lon="11.9775821"><ele>405.0</ele><time>2026-03-28T12:34:11.104Z</time></trkpt><trkpt lat="43.4218826" lon="11.9776659"><ele>405.0</ele><time>2026-03-28T12:34:14.122Z</time></trkpt><trkpt lat="43.4218504" lon="11.9777807"><ele>404.99999999999994</ele><time>2026-03-28T12:34:18.101Z</time></trkpt><trkpt lat="43.4218225" lon="11.9778668"><ele>405.0</ele><time>2026-03-28T12:34:21.087Z</time></trkpt><trkpt lat="43.4217817" lon="11.9779438"><ele>405.57142857142856</ele><time>2026-03-28T12:34:24.108Z</time></trkpt><trkpt lat="43.4217375" lon="11.9780093"><ele>406.1428571428571</ele><time>2026-03-28T12:34:27.114Z</time></trkpt><trkpt lat="43.4216736" lon="11.9780808"><ele>406.71428571428567</ele><time>2026-03-28T12:34:31.089Z</time></trkpt><trkpt lat="43.4216109" lon="11.9781007"><ele>407.2857142857143</ele><time>2026-03-28T12:34:34.071Z</time></trkpt><trkpt lat="43.4215388" lon="11.9781044"><ele>407.8571428571429</ele><time>2026-03-28T12:34:37.081Z</time></trkpt><trkpt lat="43.4214575" lon="11.9781087"><ele>408.4285714285714</ele><time>2026-03-28T12:34:41.078Z</time></trkpt><trkpt lat="43.4213897" lon="11.9781068"><ele>409.0</ele><time>2026-03-28T12:34:44.114Z</time></trkpt><trkpt lat="43.4213223" lon="11.9781042"><ele>408.85714285714283</ele><time>2026-03-28T12:34:47.085Z</time></trkpt><trkpt lat="43.4212588" lon="11.9780946"><ele>408.7142857142857</ele><time>2026-03-28T12:34:49.984Z</time></trkpt><trkpt lat="43.4211919" lon="11.9780943"><ele>408.57142857142856</ele><time>2026-03-28T12:34:53.095Z</time></trkpt><trkpt lat="43.421126" lon="11.9781074"><ele>408.42857142857144</ele><time>2026-03-28T12:34:56.114Z</time></trkpt><trkpt lat="43.4210599" lon="11.978114"><ele>408.28571428571433</ele><time>2026-03-28T12:34:59.085Z</time></trkpt><trkpt lat="43.4209886" lon="11.9781211"><ele>408.14285714285717</ele><time>2026-03-28T12:35:02.111Z</time></trkpt><trkpt lat="43.4209017" lon="11.9781257"><ele>408.0</ele><time>2026-03-28T12:35:05.983Z</time></trkpt><trkpt lat="43.4208212" lon="11.978138"><ele>408.0</ele><time>2026-03-28T12:35:09.988Z</time></trkpt><trkpt lat="43.4207401" lon="11.97815"><ele>408.0</ele><time>2026-03-28T12:35:14.013Z</time></trkpt><trkpt lat="43.4206756" lon="11.9781303"><ele>408.0</ele><time>2026-03-28T12:35:17.115Z</time></trkpt><trkpt lat="43.4206047" lon="11.9781183"><ele>408.0</ele><time>2026-03-28T12:35:20.101Z</time></trkpt><trkpt lat="43.4205325" lon="11.9781123"><ele>408.0</ele><time>2026-03-28T12:35:23.12Z</time></trkpt><trkpt lat="43.4204621" lon="11.978106"><ele>408.0</ele><time>2026-03-28T12:35:26.091Z</time></trkpt><trkpt lat="43.4203978" lon="11.9780945"><ele>408.0</ele><time>2026-03-28T12:35:29.088Z</time></trkpt><trkpt lat="43.4203201" lon="11.9780776"><ele>407.8571428571429</ele><time>2026-03-28T12:35:33.104Z</time></trkpt><trkpt lat="43.4202547" lon="11.9780663"><ele>407.7142857142857</ele><time>2026-03-28T12:35:36.088Z</time></trkpt><trkpt lat="43.4201888" lon="11.9780623"><ele>407.57142857142856</ele><time>2026-03-28T12:35:39.008Z</time></trkpt><trkpt lat="43.4201223" lon="11.9780596"><ele>407.42857142857144</ele><time>2026-03-28T12:35:42.083Z</time></trkpt><trkpt lat="43.4200551" lon="11.9780554"><ele>407.2857142857143</ele><time>2026-03-28T12:35:45.083Z</time></trkpt><trkpt lat="43.4199907" lon="11.9780474"><ele>407.14285714285717</ele><time>2026-03-28T12:35:48.098Z</time></trkpt><trkpt lat="43.4199054" lon="11.9780315"><ele>407.0</ele><time>2026-03-28T12:35:52.124Z</time></trkpt><trkpt lat="43.419832" lon="11.9780198"><ele>407.00000000000006</ele><time>2026-03-28T12:35:56.098Z</time></trkpt><trkpt lat="43.4197515" lon="11.9780079"><ele>407.0</ele><time>2026-03-28T12:36:00.107Z</time></trkpt><trkpt lat="43.4196752" lon="11.9780004"><ele>407.0</ele><time>2026-03-28T12:36:04.086Z</time></trkpt><trkpt lat="43.4196074" lon="11.9779896"><ele>407.0</ele><time>2026-03-28T12:36:07.105Z</time></trkpt><trkpt lat="43.4195359" lon="11.9779777"><ele>407.0</ele><time>2026-03-28T12:36:10.086Z</time></trkpt><trkpt lat="43.4194684" lon="11.9779553"><ele>407.00000000000006</ele><time>2026-03-28T12:36:13.096Z</time></trkpt><trkpt lat="43.419388" lon="11.9779532"><ele>407.0</ele><time>2026-03-28T12:36:18.099Z</time></trkpt><trkpt lat="43.4193076" lon="11.9779353"><ele>407.5714285714286</ele><time>2026-03-28T12:36:22.086Z</time></trkpt><trkpt lat="43.4192425" lon="11.9779629"><ele>408.14285714285717</ele><time>2026-03-28T12:36:26.993Z</time></trkpt><trkpt lat="43.4191734" lon="11.9780056"><ele>408.7142857142857</ele><time>2026-03-28T12:36:32.009Z</time></trkpt><trkpt lat="43.419108" lon="11.9780156"><ele>409.28571428571433</ele><time>2026-03-28T12:36:36.011Z</time></trkpt><trkpt lat="43.4190265" lon="11.9780152"><ele>409.85714285714283</ele><time>2026-03-28T12:36:40.046Z</time></trkpt><trkpt lat="43.418966" lon="11.9779906"><ele>410.42857142857144</ele><time>2026-03-28T12:36:43.095Z</time></trkpt><trkpt lat="43.4188873" lon="11.9779691"><ele>411.0</ele><time>2026-03-28T12:36:47.091Z</time></trkpt><trkpt lat="43.4188144" lon="11.9779449"><ele>412.0</ele><time>2026-03-28T12:36:51.105Z</time></trkpt><trkpt lat="43.4187324" lon="11.9779343"><ele>413.0</ele><time>2026-03-28T12:36:55.064Z</time></trkpt><trkpt lat="43.4186668" lon="11.9779279"><ele>414.0</ele><time>2026-03-28T12:36:58.105Z</time></trkpt><trkpt lat="43.4185862" lon="11.9779212"><ele>415.0</ele><time>2026-03-28T12:37:02.103Z</time></trkpt><trkpt lat="43.4185208" lon="11.977912"><ele>416.0</ele><time>2026-03-28T12:37:05.107Z</time></trkpt><trkpt lat="43.4184462" lon="11.9779097"><ele>417.0</ele><time>2026-03-28T12:37:09.097Z</time></trkpt><trkpt lat="43.4183748" lon="11.9779073"><ele>418.0</ele><time>2026-03-28T12:37:14.114Z</time></trkpt><trkpt lat="43.4183067" lon="11.9779175"><ele>418.0</ele><time>2026-03-28T12:37:18.132Z</time></trkpt><trkpt lat="43.4182459" lon="11.9779417"><ele>418.0</ele><time>2026-03-28T12:37:21.146Z</time></trkpt><trkpt lat="43.4181793" lon="11.9779673"><ele>418.0</ele><time>2026-03-28T12:37:24.08Z</time></trkpt><trkpt lat="43.4181129" lon="11.9779988"><ele>418.0</ele><time>2026-03-28T12:37:27.077Z</time></trkpt><trkpt lat="43.4180471" lon="11.9780278"><ele>418.0</ele><time>2026-03-28T12:37:30.101Z</time></trkpt><trkpt lat="43.4179788" lon="11.9780494"><ele>418.0</ele><time>2026-03-28T12:37:33.119Z</time></trkpt><trkpt lat="43.4179171" lon="11.978076"><ele>418.0</ele><time>2026-03-28T12:37:36.125Z</time></trkpt><trkpt lat="43.4178381" lon="11.9781156"><ele>417.42857142857144</ele><time>2026-03-28T12:37:40.09Z</time></trkpt><trkpt lat="43.4177638" lon="11.9781447"><ele>416.85714285714283</ele><time>2026-03-28T12:37:44.086Z</time></trkpt><trkpt lat="43.4176942" lon="11.9781847"><ele>416.28571428571433</ele><time>2026-03-28T12:37:48.129Z</time></trkpt><trkpt lat="43.4176181" lon="11.9782168"><ele>415.7142857142857</ele><time>2026-03-28T12:37:52.134Z</time></trkpt><trkpt lat="43.4175582" lon="11.9782446"><ele>415.14285714285717</ele><time>2026-03-28T12:37:55.077Z</time></trkpt><trkpt lat="43.4174973" lon="11.9782796"><ele>414.5714285714286</ele><time>2026-03-28T12:37:58.369Z</time></trkpt><trkpt lat="43.4174191" lon="11.9783195"><ele>414.0</ele><time>2026-03-28T12:38:02.713Z</time></trkpt><trkpt lat="43.4173553" lon="11.9783553"><ele>414.7142857142857</ele><time>2026-03-28T12:38:05.894Z</time></trkpt><trkpt lat="43.417288" lon="11.9783916"><ele>415.42857142857144</ele><time>2026-03-28T12:38:09.126Z</time></trkpt><trkpt lat="43.4172309" lon="11.9784281"><ele>416.1428571428571</ele><time>2026-03-28T12:38:12.093Z</time></trkpt><trkpt lat="43.4171565" lon="11.9784687"><ele>416.8571428571429</ele><time>2026-03-28T12:38:16.051Z</time></trkpt><trkpt lat="43.4170897" lon="11.9784924"><ele>417.57142857142856</ele><time>2026-03-28T12:38:19.069Z</time></trkpt><trkpt lat="43.4170351" lon="11.9785418"><ele>418.2857142857143</ele><time>2026-03-28T12:38:23.058Z</time></trkpt><trkpt lat="43.416969" lon="11.9785624"><ele>419.0</ele><time>2026-03-28T12:38:32.057Z</time></trkpt><trkpt lat="43.4169016" lon="11.9785875"><ele>418.99999999999994</ele><time>2026-03-28T12:38:35.052Z</time></trkpt><trkpt lat="43.4168385" lon="11.9786423"><ele>419.0</ele><time>2026-03-28T12:38:38.052Z</time></trkpt><trkpt lat="43.4167852" lon="11.9786921"><ele>419.0</ele><time>2026-03-28T12:38:41.055Z</time></trkpt><trkpt lat="43.4167264" lon="11.9787238"><ele>419.0</ele><time>2026-03-28T12:38:44.058Z</time></trkpt><trkpt lat="43.4166502" lon="11.9787542"><ele>419.0</ele><time>2026-03-28T12:38:48.062Z</time></trkpt><trkpt lat="43.4165774" lon="11.9787763"><ele>418.99999999999994</ele><time>2026-03-28T12:38:51.104Z</time></trkpt><trkpt lat="43.4165083" lon="11.9787968"><ele>419.0</ele><time>2026-03-28T12:38:54.03Z</time></trkpt><trkpt lat="43.4164501" lon="11.9788397"><ele>418.99999999999994</ele><time>2026-03-28T12:38:57.053Z</time></trkpt><trkpt lat="43.4163839" lon="11.9788795"><ele>419.0</ele><time>2026-03-28T12:39:00.094Z</time></trkpt><trkpt lat="43.41631" lon="11.9789318"><ele>419.0</ele><time>2026-03-28T12:39:04.108Z</time></trkpt><trkpt lat="43.416247" lon="11.9789669"><ele>419.0</ele><time>2026-03-28T12:39:09.065Z</time></trkpt><trkpt lat="43.4161756" lon="11.9789745"><ele>419.0</ele><time>2026-03-28T12:39:26.055Z</time></trkpt><trkpt lat="43.4161201" lon="11.9790431"><ele>418.99999999999994</ele><time>2026-03-28T12:39:31.082Z</time></trkpt><trkpt lat="43.4160718" lon="11.9791006"><ele>419.0</ele><time>2026-03-28T12:39:35.063Z</time></trkpt><trkpt lat="43.4160024" lon="11.9791282"><ele>419.16666666666663</ele><time>2026-03-28T12:39:40.032Z</time></trkpt><trkpt lat="43.415934" lon="11.9791506"><ele>419.3333333333333</ele><time>2026-03-28T12:39:43.065Z</time></trkpt><trkpt lat="43.4158615" lon="11.9792116"><ele>419.5</ele><time>2026-03-28T12:39:47.117Z</time></trkpt><trkpt lat="43.4158147" lon="11.9792831"><ele>419.66666666666663</ele><time>2026-03-28T12:39:50.036Z</time></trkpt><trkpt lat="43.4157575" lon="11.9793542"><ele>419.8333333333333</ele><time>2026-03-28T12:39:53.091Z</time></trkpt><trkpt lat="43.415698" lon="11.9794215"><ele>420.0</ele><time>2026-03-28T12:39:56.086Z</time></trkpt><trkpt lat="43.4156436" lon="11.979491"><ele>420.0</ele><time>2026-03-28T12:39:59.009Z</time></trkpt><trkpt lat="43.4155866" lon="11.9795586"><ele>420.0</ele><time>2026-03-28T12:40:02.107Z</time></trkpt><trkpt lat="43.4155257" lon="11.9796171"><ele>420.0</ele><time>2026-03-28T12:40:05.155Z</time></trkpt><trkpt lat="43.4154746" lon="11.9796743"><ele>420.0</ele><time>2026-03-28T12:40:08.03Z</time></trkpt><trkpt lat="43.4154174" lon="11.9797411"><ele>420.0</ele><time>2026-03-28T12:40:11.091Z</time></trkpt><trkpt lat="43.4153643" lon="11.9798003"><ele>420.0</ele><time>2026-03-28T12:40:14.098Z</time></trkpt><trkpt lat="43.4152979" lon="11.9798688"><ele>420.0</ele><time>2026-03-28T12:40:18.114Z</time></trkpt><trkpt lat="43.4152366" lon="11.9799309"><ele>420.42857142857144</ele><time>2026-03-28T12:40:22.105Z</time></trkpt><trkpt lat="43.4151755" lon="11.9799849"><ele>420.8571428571429</ele><time>2026-03-28T12:40:26.116Z</time></trkpt><trkpt lat="43.4151206" lon="11.980045"><ele>421.2857142857143</ele><time>2026-03-28T12:40:30.132Z</time></trkpt><trkpt lat="43.4150584" lon="11.9801093"><ele>421.7142857142857</ele><time>2026-03-28T12:40:35.107Z</time></trkpt><trkpt lat="43.4149992" lon="11.9801791"><ele>422.14285714285717</ele><time>2026-03-28T12:40:39.096Z</time></trkpt><trkpt lat="43.4149497" lon="11.980234"><ele>422.57142857142856</ele><time>2026-03-28T12:40:42.116Z</time></trkpt><trkpt lat="43.4148911" lon="11.9802983"><ele>423.0</ele><time>2026-03-28T12:40:46.089Z</time></trkpt><trkpt lat="43.4148319" lon="11.9803579"><ele>423.0</ele><time>2026-03-28T12:40:50.092Z</time></trkpt><trkpt lat="43.414783" lon="11.9804143"><ele>423.0</ele><time>2026-03-28T12:40:54.112Z</time></trkpt><trkpt lat="43.4147184" lon="11.9804828"><ele>423.0</ele><time>2026-03-28T12:40:59.136Z</time></trkpt><trkpt lat="43.4146594" lon="11.980548"><ele>423.0</ele><time>2026-03-28T12:41:03.086Z</time></trkpt><trkpt lat="43.4146063" lon="11.9805955"><ele>423.0</ele><time>2026-03-28T12:41:06.059Z</time></trkpt><trkpt lat="43.4145382" lon="11.9806717"><ele>423.0</ele><time>2026-03-28T12:41:10.095Z</time></trkpt><trkpt lat="43.4144814" lon="11.9807206"><ele>423.0</ele><time>2026-03-28T12:41:12.979Z</time></trkpt><trkpt lat="43.4144129" lon="11.980785"><ele>423.0</ele><time>2026-03-28T12:41:17.08Z</time></trkpt><trkpt lat="43.4143582" lon="11.9808413"><ele>423.0</ele><time>2026-03-28T12:41:21.984Z</time></trkpt><trkpt lat="43.4142882" lon="11.9808903"><ele>423.0</ele><time>2026-03-28T12:41:26.097Z</time></trkpt><trkpt lat="43.4142171" lon="11.980943"><ele>423.0</ele><time>2026-03-28T12:41:30.099Z</time></trkpt><trkpt lat="43.4141631" lon="11.9809932"><ele>423.0</ele><time>2026-03-28T12:41:33.113Z</time></trkpt><trkpt lat="43.4140973" lon="11.9810514"><ele>423.0</ele><time>2026-03-28T12:41:37.101Z</time></trkpt><trkpt lat="43.4140395" lon="11.9811122"><ele>423.0</ele><time>2026-03-28T12:41:40.012Z</time></trkpt><trkpt lat="43.4139787" lon="11.981169"><ele>423.0</ele><time>2026-03-28T12:41:43.114Z</time></trkpt><trkpt lat="43.4139208" lon="11.981225"><ele>423.0</ele><time>2026-03-28T12:41:46.091Z</time></trkpt><trkpt lat="43.4138608" lon="11.9812747"><ele>423.0</ele><time>2026-03-28T12:41:49.031Z</time></trkpt><trkpt lat="43.4137932" lon="11.9813158"><ele>423.0</ele><time>2026-03-28T12:41:52.1Z</time></trkpt><trkpt lat="43.4137272" lon="11.9813574"><ele>423.0</ele><time>2026-03-28T12:41:55.073Z</time></trkpt><trkpt lat="43.4136599" lon="11.9814076"><ele>423.0</ele><time>2026-03-28T12:41:58.107Z</time></trkpt><trkpt lat="43.413595" lon="11.9814649"><ele>423.0</ele><time>2026-03-28T12:42:01.119Z</time></trkpt><trkpt lat="43.4135324" lon="11.9815148"><ele>422.7142857142857</ele><time>2026-03-28T12:42:04.116Z</time></trkpt><trkpt lat="43.4134719" lon="11.9815633"><ele>422.42857142857144</ele><time>2026-03-28T12:42:07.08Z</time></trkpt><trkpt lat="43.4134154" lon="11.9816161"><ele>422.14285714285717</ele><time>2026-03-28T12:42:10.089Z</time></trkpt><trkpt lat="43.4133596" lon="11.9816607"><ele>421.8571428571429</ele><time>2026-03-28T12:42:13.1Z</time></trkpt><trkpt lat="43.413302" lon="11.9816974"><ele>421.57142857142856</ele><time>2026-03-28T12:42:16.059Z</time></trkpt><trkpt lat="43.4132354" lon="11.98176"><ele>421.28571428571433</ele><time>2026-03-28T12:42:20.097Z</time></trkpt><trkpt lat="43.4131655" lon="11.981811"><ele>421.0</ele><time>2026-03-28T12:42:24.097Z</time></trkpt><trkpt lat="43.4130915" lon="11.9818641"><ele>421.00000000000006</ele><time>2026-03-28T12:42:28.114Z</time></trkpt><trkpt lat="43.4130306" lon="11.9818954"><ele>421.0</ele><time>2026-03-28T12:42:31.08Z</time></trkpt><trkpt lat="43.412967" lon="11.9818946"><ele>421.0</ele><time>2026-03-28T12:42:34.103Z</time></trkpt><trkpt lat="43.4129222" lon="11.9818333"><ele>421.0</ele><time>2026-03-28T12:42:37.109Z</time></trkpt><trkpt lat="43.4128993" lon="11.9817474"><ele>421.0</ele><time>2026-03-28T12:42:40.113Z</time></trkpt><trkpt lat="43.4128722" lon="11.981669"><ele>421.00000000000006</ele><time>2026-03-28T12:42:43.036Z</time></trkpt><trkpt lat="43.4128382" lon="11.9815951"><ele>421.0</ele><time>2026-03-28T12:42:46.093Z</time></trkpt><trkpt lat="43.4127999" lon="11.9814976"><ele>420.33333333333337</ele><time>2026-03-28T12:42:50.088Z</time></trkpt><trkpt lat="43.4127655" lon="11.9814039"><ele>419.6666666666667</ele><time>2026-03-28T12:42:54.107Z</time></trkpt><trkpt lat="43.4127364" lon="11.9813043"><ele>419.0</ele><time>2026-03-28T12:42:58.101Z</time></trkpt><trkpt lat="43.4127055" lon="11.9811968"><ele>418.33333333333337</ele><time>2026-03-28T12:43:02.118Z</time></trkpt><trkpt lat="43.4126821" lon="11.9811058"><ele>417.6666666666667</ele><time>2026-03-28T12:43:05.11Z</time></trkpt><trkpt lat="43.4126613" lon="11.9810148"><ele>417.0</ele><time>2026-03-28T12:43:08.062Z</time></trkpt><trkpt lat="43.4126353" lon="11.9809079"><ele>416.3333333333333</ele><time>2026-03-28T12:43:12.073Z</time></trkpt><trkpt lat="43.4126046" lon="11.9808274"><ele>415.66666666666663</ele><time>2026-03-28T12:43:15.095Z</time></trkpt><trkpt lat="43.4125569" lon="11.9807367"><ele>415.0</ele><time>2026-03-28T12:43:19.098Z</time></trkpt><trkpt lat="43.4125096" lon="11.9806793"><ele>414.3333333333333</ele><time>2026-03-28T12:43:22.115Z</time></trkpt><trkpt lat="43.4124435" lon="11.9806203"><ele>413.66666666666663</ele><time>2026-03-28T12:43:26.123Z</time></trkpt><trkpt lat="43.4123695" lon="11.9805751"><ele>413.0</ele><time>2026-03-28T12:43:30.112Z</time></trkpt><trkpt lat="43.4122989" lon="11.9805177"><ele>413.0</ele><time>2026-03-28T12:43:34.09Z</time></trkpt><trkpt lat="43.4122581" lon="11.9804414"><ele>413.0</ele><time>2026-03-28T12:43:37.075Z</time></trkpt><trkpt lat="43.4122068" lon="11.9803831"><ele>413.0</ele><time>2026-03-28T12:43:39.952Z</time></trkpt><trkpt lat="43.4121586" lon="11.9802982"><ele>413.0</ele><time>2026-03-28T12:43:44.07Z</time></trkpt><trkpt lat="43.4121464" lon="11.9802115"><ele>413.0</ele><time>2026-03-28T12:43:48.073Z</time></trkpt><trkpt lat="43.4121397" lon="11.9801252"><ele>413.0</ele><time>2026-03-28T12:43:52.072Z</time></trkpt><trkpt lat="43.4121495" lon="11.9800253"><ele>413.0</ele><time>2026-03-28T12:43:55.993Z</time></trkpt><trkpt lat="43.412163" lon="11.9799201"><ele>412.85714285714283</ele><time>2026-03-28T12:44:00.055Z</time></trkpt><trkpt lat="43.4121684" lon="11.9798156"><ele>412.7142857142857</ele><time>2026-03-28T12:44:04.117Z</time></trkpt><trkpt lat="43.4121826" lon="11.9797151"><ele>412.57142857142856</ele><time>2026-03-28T12:44:08.08Z</time></trkpt><trkpt lat="43.4121931" lon="11.9796148"><ele>412.42857142857144</ele><time>2026-03-28T12:44:12.104Z</time></trkpt><trkpt lat="43.412199" lon="11.9795238"><ele>412.2857142857143</ele><time>2026-03-28T12:44:18.107Z</time></trkpt><trkpt lat="43.4122155" lon="11.9794176"><ele>412.1428571428571</ele><time>2026-03-28T12:44:23.033Z</time></trkpt><trkpt lat="43.4122233" lon="11.9793281"><ele>412.0</ele><time>2026-03-28T12:44:27.11Z</time></trkpt><trkpt lat="43.4122444" lon="11.9792407"><ele>412.71428571428567</ele><time>2026-03-28T12:44:32.109Z</time></trkpt><trkpt lat="43.4122505" lon="11.9791504"><ele>413.42857142857144</ele><time>2026-03-28T12:44:37.091Z</time></trkpt><trkpt lat="43.4122531" lon="11.979039"><ele>414.1428571428571</ele><time>2026-03-28T12:44:42.116Z</time></trkpt><trkpt lat="43.4122655" lon="11.9789473"><ele>414.85714285714283</ele><time>2026-03-28T12:44:47.03Z</time></trkpt><trkpt lat="43.4122837" lon="11.9788537"><ele>415.57142857142856</ele><time>2026-03-28T12:44:52.078Z</time></trkpt><trkpt lat="43.4122839" lon="11.9787546"><ele>416.2857142857143</ele><time>2026-03-28T12:44:57.113Z</time></trkpt><trkpt lat="43.4122908" lon="11.9786661"><ele>417.0</ele><time>2026-03-28T12:45:02.126Z</time></trkpt><trkpt lat="43.412293" lon="11.9785749"><ele>417.0</ele><time>2026-03-28T12:45:07.103Z</time></trkpt><trkpt lat="43.412303" lon="11.9784758"><ele>417.0</ele><time>2026-03-28T12:45:12.136Z</time></trkpt><trkpt lat="43.4123131" lon="11.9783666"><ele>417.0</ele><time>2026-03-28T12:45:17.1Z</time></trkpt><trkpt lat="43.4123308" lon="11.9782781"><ele>417.0</ele><time>2026-03-28T12:45:21.082Z</time></trkpt><trkpt lat="43.4123429" lon="11.9781893"><ele>417.0</ele><time>2026-03-28T12:45:25.066Z</time></trkpt><trkpt lat="43.4123461" lon="11.9780962"><ele>417.0</ele><time>2026-03-28T12:45:29.09Z</time></trkpt><trkpt lat="43.4123467" lon="11.9780017"><ele>417.0</ele><time>2026-03-28T12:45:33.102Z</time></trkpt><trkpt lat="43.4123523" lon="11.9779128"><ele>418.0</ele><time>2026-03-28T12:45:36.991Z</time></trkpt><trkpt lat="43.4123519" lon="11.9778198"><ele>419.0</ele><time>2026-03-28T12:45:40.981Z</time></trkpt><trkpt lat="43.4123502" lon="11.9777281"><ele>420.0</ele><time>2026-03-28T12:45:45.112Z</time></trkpt><trkpt lat="43.4123487" lon="11.9776335"><ele>421.0</ele><time>2026-03-28T12:45:50.095Z</time></trkpt><trkpt lat="43.4123404" lon="11.9775463"><ele>422.0</ele><time>2026-03-28T12:45:55.11Z</time></trkpt><trkpt lat="43.4123154" lon="11.9774524"><ele>423.0</ele><time>2026-03-28T12:46:01.062Z</time></trkpt><trkpt lat="43.4122785" lon="11.9773785"><ele>424.0</ele><time>2026-03-28T12:46:06.094Z</time></trkpt><trkpt lat="43.4122189" lon="11.9773147"><ele>425.0</ele><time>2026-03-28T12:46:11.104Z</time></trkpt><trkpt lat="43.4121703" lon="11.9772595"><ele>426.0</ele><time>2026-03-28T12:46:15.036Z</time></trkpt><trkpt lat="43.4121272" lon="11.9771876"><ele>427.0</ele><time>2026-03-28T12:46:19.112Z</time></trkpt><trkpt lat="43.4120953" lon="11.9770889"><ele>428.0</ele><time>2026-03-28T12:46:24.09Z</time></trkpt><trkpt lat="43.4120781" lon="11.976996"><ele>429.0</ele><time>2026-03-28T12:46:28.093Z</time></trkpt><trkpt lat="43.412079" lon="11.9769055"><ele>430.0</ele><time>2026-03-28T12:46:32.082Z</time></trkpt><trkpt lat="43.4120925" lon="11.9767997"><ele>431.0</ele><time>2026-03-28T12:46:37.116Z</time></trkpt><trkpt lat="43.4121108" lon="11.9767107"><ele>436.28571428571433</ele><time>2026-03-28T12:46:41.102Z</time></trkpt><trkpt lat="43.4121159" lon="11.9766157"><ele>441.57142857142856</ele><time>2026-03-28T12:46:45.069Z</time></trkpt><trkpt lat="43.4121215" lon="11.9765199"><ele>446.8571428571429</ele><time>2026-03-28T12:46:50.085Z</time></trkpt><trkpt lat="43.4121109" lon="11.9764141"><ele>452.14285714285717</ele><time>2026-03-28T12:46:55.092Z</time></trkpt><trkpt lat="43.4120887" lon="11.9763322"><ele>457.42857142857144</ele><time>2026-03-28T12:46:59.013Z</time></trkpt><trkpt lat="43.4120719" lon="11.9762486"><ele>462.7142857142857</ele><time>2026-03-28T12:47:03.112Z</time></trkpt><trkpt lat="43.4120442" lon="11.9761552"><ele>468.0</ele><time>2026-03-28T12:47:08.013Z</time></trkpt><trkpt lat="43.4120182" lon="11.9760752"><ele>468.0</ele><time>2026-03-28T12:47:12.101Z</time></trkpt><trkpt lat="43.4119782" lon="11.9760053"><ele>468.00000000000006</ele><time>2026-03-28T12:47:16.033Z</time></trkpt><trkpt lat="43.4119421" lon="11.9759171"><ele>468.0</ele><time>2026-03-28T12:47:21.085Z</time></trkpt><trkpt lat="43.4119083" lon="11.975839"><ele>468.0</ele><time>2026-03-28T12:47:25.12Z</time></trkpt><trkpt lat="43.41187" lon="11.9757473"><ele>468.00000000000006</ele><time>2026-03-28T12:47:30.156Z</time></trkpt><trkpt lat="43.4118303" lon="11.975678"><ele>468.0</ele><time>2026-03-28T12:47:35.013Z</time></trkpt><trkpt lat="43.4117817" lon="11.9756185"><ele>468.0</ele><time>2026-03-28T12:47:40.094Z</time></trkpt><trkpt lat="43.4117396" lon="11.9755475"><ele>467.42857142857144</ele><time>2026-03-28T12:47:44.134Z</time></trkpt><trkpt lat="43.41167" lon="11.9754747"><ele>466.8571428571429</ele><time>2026-03-28T12:47:49.017Z</time></trkpt><trkpt lat="43.4116159" lon="11.9754126"><ele>466.28571428571433</ele><time>2026-03-28T12:47:54.1Z</time></trkpt><trkpt lat="43.41156" lon="11.9753695"><ele>465.7142857142858</ele><time>2026-03-28T12:48:00.035Z</time></trkpt><trkpt lat="43.4115043" lon="11.9753151"><ele>465.14285714285717</ele><time>2026-03-28T12:48:05.088Z</time></trkpt><trkpt lat="43.4114457" lon="11.9752541"><ele>464.57142857142867</ele><time>2026-03-28T12:48:10.088Z</time></trkpt><trkpt lat="43.4113856" lon="11.9751965"><ele>464.00000000000006</ele><time>2026-03-28T12:48:15.1Z</time></trkpt><trkpt lat="43.4113533" lon="11.9751137"><ele>465.1428571428572</ele><time>2026-03-28T12:48:19.115Z</time></trkpt><trkpt lat="43.4113069" lon="11.9750446"><ele>466.28571428571433</ele><time>2026-03-28T12:48:23.096Z</time></trkpt><trkpt lat="43.41124" lon="11.9749919"><ele>467.42857142857144</ele><time>2026-03-28T12:48:27.113Z</time></trkpt><trkpt lat="43.4111714" lon="11.9749603"><ele>468.5714285714286</ele><time>2026-03-28T12:48:31.075Z</time></trkpt><trkpt lat="43.4110962" lon="11.9749541"><ele>469.7142857142858</ele><time>2026-03-28T12:48:36.106Z</time></trkpt><trkpt lat="43.4110205" lon="11.9749715"><ele>470.85714285714283</ele><time>2026-03-28T12:48:41.114Z</time></trkpt><trkpt lat="43.4109534" lon="11.9750198"><ele>472.0</ele><time>2026-03-28T12:48:47.098Z</time></trkpt><trkpt lat="43.4109598" lon="11.975113"><ele>474.2857142857143</ele><time>2026-03-28T12:48:54.083Z</time></trkpt><trkpt lat="43.4110105" lon="11.9751878"><ele>476.57142857142856</ele><time>2026-03-28T12:49:00.103Z</time></trkpt><trkpt lat="43.4110659" lon="11.9752615"><ele>478.85714285714283</ele><time>2026-03-28T12:49:06.075Z</time></trkpt><trkpt lat="43.4111028" lon="11.9753334"><ele>481.1428571428571</ele><time>2026-03-28T12:49:11.1Z</time></trkpt><trkpt lat="43.4111472" lon="11.9753996"><ele>483.42857142857144</ele><time>2026-03-28T12:49:16.093Z</time></trkpt><trkpt lat="43.4111883" lon="11.975471"><ele>485.71428571428567</ele><time>2026-03-28T12:49:21.107Z</time></trkpt><trkpt lat="43.4112359" lon="11.9755424"><ele>487.99999999999994</ele><time>2026-03-28T12:49:26.085Z</time></trkpt><trkpt lat="43.4112887" lon="11.9756132"><ele>485.1428571428571</ele><time>2026-03-28T12:49:32.082Z</time></trkpt><trkpt lat="43.4113315" lon="11.9756925"><ele>482.2857142857143</ele><time>2026-03-28T12:49:39.109Z</time></trkpt><trkpt lat="43.4113557" lon="11.9757813"><ele>479.42857142857144</ele><time>2026-03-28T12:49:44.108Z</time></trkpt><trkpt lat="43.4113746" lon="11.9758711"><ele>476.57142857142856</ele><time>2026-03-28T12:49:49.123Z</time></trkpt><trkpt lat="43.411392" lon="11.9759679"><ele>473.7142857142858</ele><time>2026-03-28T12:49:54.104Z</time></trkpt><trkpt lat="43.4114155" lon="11.9760594"><ele>470.8571428571429</ele><time>2026-03-28T12:49:59.118Z</time></trkpt><trkpt lat="43.4114336" lon="11.9761487"><ele>468.0</ele><time>2026-03-28T12:50:04.076Z</time></trkpt><trkpt lat="43.4114411" lon="11.9762441"><ele>468.0</ele><time>2026-03-28T12:50:09.103Z</time></trkpt><trkpt lat="43.4114352" lon="11.9763385"><ele>468.00000000000006</ele><time>2026-03-28T12:50:14.106Z</time></trkpt><trkpt lat="43.4114362" lon="11.9764413"><ele>468.0</ele><time>2026-03-28T12:50:19.105Z</time></trkpt><trkpt lat="43.4114218" lon="11.9765278"><ele>468.0</ele><time>2026-03-28T12:50:23.124Z</time></trkpt><trkpt lat="43.4114026" lon="11.9766312"><ele>468.00000000000006</ele><time>2026-03-28T12:50:28.073Z</time></trkpt><trkpt lat="43.4113877" lon="11.9767219"><ele>468.0</ele><time>2026-03-28T12:50:33.11Z</time></trkpt><trkpt lat="43.4113793" lon="11.9768189"><ele>468.0</ele><time>2026-03-28T12:50:39.096Z</time></trkpt><trkpt lat="43.4113843" lon="11.9769148"><ele>468.14285714285717</ele><time>2026-03-28T12:50:45.098Z</time></trkpt><trkpt lat="43.4113888" lon="11.9770034"><ele>468.28571428571433</ele><time>2026-03-28T12:50:50.093Z</time></trkpt><trkpt lat="43.411396" lon="11.9771075"><ele>468.42857142857144</ele><time>2026-03-28T12:50:56.051Z</time></trkpt><trkpt lat="43.4113583" lon="11.9771903"><ele>468.57142857142856</ele><time>2026-03-28T12:51:01.119Z</time></trkpt><trkpt lat="43.4112845" lon="11.9772025"><ele>468.7142857142857</ele><time>2026-03-28T12:51:06.072Z</time></trkpt><trkpt lat="43.4112278" lon="11.9771555"><ele>468.8571428571429</ele><time>2026-03-28T12:51:11.1Z</time></trkpt><trkpt lat="43.4111687" lon="11.9771256"><ele>469.0</ele><time>2026-03-28T12:51:17.104Z</time></trkpt><trkpt lat="43.4111065" lon="11.9770649"><ele>470.2857142857143</ele><time>2026-03-28T12:51:23.125Z</time></trkpt><trkpt lat="43.411047" lon="11.9770334"><ele>471.57142857142856</ele><time>2026-03-28T12:51:32.106Z</time></trkpt><trkpt lat="43.4109787" lon="11.9769943"><ele>472.8571428571429</ele><time>2026-03-28T12:51:37.106Z</time></trkpt><trkpt lat="43.4109144" lon="11.9769534"><ele>474.14285714285717</ele><time>2026-03-28T12:51:42.104Z</time></trkpt><trkpt lat="43.4108562" lon="11.9768902"><ele>475.42857142857144</ele><time>2026-03-28T12:51:47.096Z</time></trkpt><trkpt lat="43.4107901" lon="11.9768354"><ele>476.7142857142858</ele><time>2026-03-28T12:51:52.057Z</time></trkpt><trkpt lat="43.4107277" lon="11.9767731"><ele>478.00000000000006</ele><time>2026-03-28T12:51:57.043Z</time></trkpt><trkpt lat="43.410675" lon="11.9767018"><ele>479.7142857142858</ele><time>2026-03-28T12:52:02.114Z</time></trkpt><trkpt lat="43.4106306" lon="11.9766376"><ele>481.42857142857144</ele><time>2026-03-28T12:52:07.084Z</time></trkpt><trkpt lat="43.410589" lon="11.9765642"><ele>483.14285714285717</ele><time>2026-03-28T12:52:12.104Z</time></trkpt><trkpt lat="43.4105436" lon="11.976486"><ele>484.8571428571429</ele><time>2026-03-28T12:52:18.123Z</time></trkpt><trkpt lat="43.4104918" lon="11.9764112"><ele>486.57142857142856</ele><time>2026-03-28T12:52:24.117Z</time></trkpt><trkpt lat="43.4104455" lon="11.9763471"><ele>488.2857142857143</ele><time>2026-03-28T12:52:29.105Z</time></trkpt><trkpt lat="43.4103889" lon="11.9762802"><ele>490.0</ele><time>2026-03-28T12:52:35.07Z</time></trkpt><trkpt lat="43.4103265" lon="11.9762279"><ele>490.7142857142857</ele><time>2026-03-28T12:52:41.114Z</time></trkpt><trkpt lat="43.4102663" lon="11.9762017"><ele>491.42857142857144</ele><time>2026-03-28T12:52:46.067Z</time></trkpt><trkpt lat="43.4101932" lon="11.9761892"><ele>492.1428571428571</ele><time>2026-03-28T12:52:52.118Z</time></trkpt><trkpt lat="43.4101224" lon="11.9762036"><ele>492.85714285714283</ele><time>2026-03-28T12:52:58.093Z</time></trkpt><trkpt lat="43.4100461" lon="11.9761968"><ele>493.57142857142856</ele><time>2026-03-28T12:53:04.133Z</time></trkpt><trkpt lat="43.4099789" lon="11.9762168"><ele>494.2857142857142</ele><time>2026-03-28T12:53:09.11Z</time></trkpt><trkpt lat="43.4099168" lon="11.9762448"><ele>494.99999999999994</ele><time>2026-03-28T12:53:15.086Z</time></trkpt><trkpt lat="43.4098479" lon="11.9762534"><ele>494.99999999999994</ele><time>2026-03-28T12:53:19.978Z</time></trkpt><trkpt lat="43.4097719" lon="11.9762496"><ele>495.0</ele><time>2026-03-28T12:53:26.131Z</time></trkpt><trkpt lat="43.4097086" lon="11.9762424"><ele>494.99999999999994</ele><time>2026-03-28T12:53:31.079Z</time></trkpt><trkpt lat="43.4096447" lon="11.976249"><ele>494.99999999999994</ele><time>2026-03-28T12:53:36.077Z</time></trkpt><trkpt lat="43.4095795" lon="11.9762285"><ele>495.0</ele><time>2026-03-28T12:53:41.093Z</time></trkpt><trkpt lat="43.4095104" lon="11.9761986"><ele>494.99999999999994</ele><time>2026-03-28T12:53:46.095Z</time></trkpt><trkpt lat="43.4094488" lon="11.9761657"><ele>494.99999999999994</ele><time>2026-03-28T12:53:51.101Z</time></trkpt><trkpt lat="43.4093805" lon="11.976121"><ele>495.42857142857133</ele><time>2026-03-28T12:53:56.108Z</time></trkpt><trkpt lat="43.4093191" lon="11.9760665"><ele>495.85714285714283</ele><time>2026-03-28T12:54:01.103Z</time></trkpt><trkpt lat="43.4092601" lon="11.9760182"><ele>496.2857142857142</ele><time>2026-03-28T12:54:06.097Z</time></trkpt><trkpt lat="43.4092043" lon="11.9759693"><ele>496.71428571428567</ele><time>2026-03-28T12:54:11.094Z</time></trkpt><trkpt lat="43.409155" lon="11.9759019"><ele>497.1428571428571</ele><time>2026-03-28T12:54:16.036Z</time></trkpt><trkpt lat="43.4091076" lon="11.9758429"><ele>497.57142857142856</ele><time>2026-03-28T12:54:20.084Z</time></trkpt><trkpt lat="43.4090534" lon="11.9757884"><ele>498.0</ele><time>2026-03-28T12:54:25.102Z</time></trkpt><trkpt lat="43.4090004" lon="11.9757158"><ele>500.57142857142856</ele><time>2026-03-28T12:54:30.098Z</time></trkpt><trkpt lat="43.4089553" lon="11.9756324"><ele>503.1428571428571</ele><time>2026-03-28T12:54:34.108Z</time></trkpt><trkpt lat="43.4089109" lon="11.9755467"><ele>505.71428571428567</ele><time>2026-03-28T12:54:39.095Z</time></trkpt><trkpt lat="43.4088612" lon="11.9754723"><ele>508.2857142857142</ele><time>2026-03-28T12:54:44.091Z</time></trkpt><trkpt lat="43.4088066" lon="11.9754188"><ele>510.85714285714283</ele><time>2026-03-28T12:54:49.088Z</time></trkpt><trkpt lat="43.4087502" lon="11.9753716"><ele>513.4285714285713</ele><time>2026-03-28T12:54:54.099Z</time></trkpt><trkpt lat="43.4086912" lon="11.9753195"><ele>516.0</ele><time>2026-03-28T12:54:59.02Z</time></trkpt><trkpt lat="43.4086194" lon="11.9752968"><ele>516.4285714285713</ele><time>2026-03-28T12:55:04.04Z</time></trkpt><trkpt lat="43.4085491" lon="11.975291"><ele>516.8571428571429</ele><time>2026-03-28T12:55:08.998Z</time></trkpt><trkpt lat="43.4084861" lon="11.9752948"><ele>517.2857142857142</ele><time>2026-03-28T12:55:13.097Z</time></trkpt><trkpt lat="43.4084142" lon="11.9753257"><ele>517.7142857142857</ele><time>2026-03-28T12:55:18.11Z</time></trkpt><trkpt lat="43.4083507" lon="11.9753479"><ele>518.1428571428571</ele><time>2026-03-28T12:55:23.099Z</time></trkpt><trkpt lat="43.4082844" lon="11.9753441"><ele>518.5714285714286</ele><time>2026-03-28T12:55:28.117Z</time></trkpt><trkpt lat="43.408219" lon="11.9753374"><ele>519.0</ele><time>2026-03-28T12:55:32.012Z</time></trkpt><trkpt lat="43.4081523" lon="11.9753311"><ele>519.0</ele><time>2026-03-28T12:55:37.059Z</time></trkpt><trkpt lat="43.4080823" lon="11.9753204"><ele>519.0</ele><time>2026-03-28T12:55:42.059Z</time></trkpt><trkpt lat="43.4080181" lon="11.9752881"><ele>519.0</ele><time>2026-03-28T12:55:47.076Z</time></trkpt><trkpt lat="43.407952" lon="11.9752546"><ele>519.0</ele><time>2026-03-28T12:55:52.093Z</time></trkpt><trkpt lat="43.4079022" lon="11.9751965"><ele>519.0</ele><time>2026-03-28T12:55:57.012Z</time></trkpt><trkpt lat="43.4078511" lon="11.9751408"><ele>519.0</ele><time>2026-03-28T12:56:02.101Z</time></trkpt><trkpt lat="43.4077933" lon="11.9750996"><ele>519.0</ele><time>2026-03-28T12:56:07.05Z</time></trkpt><trkpt lat="43.407731" lon="11.9750744"><ele>519.8571428571429</ele><time>2026-03-28T12:56:10.817Z</time></trkpt><trkpt lat="43.4076701" lon="11.9750476"><ele>520.7142857142857</ele><time>2026-03-28T12:56:15.086Z</time></trkpt><trkpt lat="43.4076069" lon="11.9750234"><ele>521.5714285714286</ele><time>2026-03-28T12:56:19.055Z</time></trkpt><trkpt lat="43.407534" lon="11.9750298"><ele>522.4285714285714</ele><time>2026-03-28T12:56:24.1Z</time></trkpt><trkpt lat="43.4074575" lon="11.9750357"><ele>523.2857142857142</ele><time>2026-03-28T12:56:29.107Z</time></trkpt><trkpt lat="43.4073881" lon="11.9750351"><ele>524.1428571428571</ele><time>2026-03-28T12:56:33.096Z</time></trkpt><trkpt lat="43.4073206" lon="11.975031"><ele>525.0</ele><time>2026-03-28T12:56:37.098Z</time></trkpt><trkpt lat="43.407257" lon="11.9750516"><ele>525.0</ele><time>2026-03-28T12:56:41.014Z</time></trkpt><trkpt lat="43.4071893" lon="11.9750749"><ele>525.0</ele><time>2026-03-28T12:56:45.098Z</time></trkpt><trkpt lat="43.4071238" lon="11.9751192"><ele>525.0</ele><time>2026-03-28T12:56:49.128Z</time></trkpt><trkpt lat="43.4070692" lon="11.9751761"><ele>525.0</ele><time>2026-03-28T12:56:53.092Z</time></trkpt><trkpt lat="43.4069998" lon="11.9752327"><ele>525.0</ele><time>2026-03-28T12:56:57.097Z</time></trkpt><trkpt lat="43.4069418" lon="11.9752668"><ele>525.0</ele><time>2026-03-28T12:57:01.995Z</time></trkpt><trkpt lat="43.406873" lon="11.9752947"><ele>525.0</ele><time>2026-03-28T12:57:07.104Z</time></trkpt><trkpt lat="43.4068091" lon="11.9753095"><ele>527.1428571428571</ele><time>2026-03-28T12:57:11.051Z</time></trkpt><trkpt lat="43.4067422" lon="11.9753382"><ele>529.2857142857142</ele><time>2026-03-28T12:57:16.088Z</time></trkpt><trkpt lat="43.4066762" lon="11.9753594"><ele>531.4285714285714</ele><time>2026-03-28T12:57:21.092Z</time></trkpt><trkpt lat="43.4066052" lon="11.9753649"><ele>533.5714285714286</ele><time>2026-03-28T12:57:26.108Z</time></trkpt><trkpt lat="43.4065415" lon="11.9753826"><ele>535.7142857142857</ele><time>2026-03-28T12:57:30.057Z</time></trkpt><trkpt lat="43.4064667" lon="11.9754019"><ele>537.8571428571429</ele><time>2026-03-28T12:57:35.08Z</time></trkpt><trkpt lat="43.4063987" lon="11.9754112"><ele>540.0</ele><time>2026-03-28T12:57:39.777Z</time></trkpt><trkpt lat="43.4063229" lon="11.975423"><ele>542.5714285714286</ele><time>2026-03-28T12:57:45.097Z</time></trkpt><trkpt lat="43.4062549" lon="11.9754355"><ele>545.1428571428571</ele><time>2026-03-28T12:57:50.037Z</time></trkpt><trkpt lat="43.4061891" lon="11.975445"><ele>547.7142857142857</ele><time>2026-03-28T12:57:55.023Z</time></trkpt><trkpt lat="43.4061279" lon="11.9754671"><ele>550.2857142857142</ele><time>2026-03-28T12:58:00.1Z</time></trkpt><trkpt lat="43.4060658" lon="11.9754885"><ele>552.8571428571429</ele><time>2026-03-28T12:58:06.122Z</time></trkpt><trkpt lat="43.4059993" lon="11.9755015"><ele>555.4285714285713</ele><time>2026-03-28T12:58:10.098Z</time></trkpt><trkpt lat="43.4059368" lon="11.9755257"><ele>558.0</ele><time>2026-03-28T12:58:14.094Z</time></trkpt><trkpt lat="43.4058733" lon="11.9755598"><ele>557.9999999999999</ele><time>2026-03-28T12:58:19.08Z</time></trkpt><trkpt lat="43.4058218" lon="11.975622"><ele>558.0</ele><time>2026-03-28T12:58:24.113Z</time></trkpt><trkpt lat="43.4057803" lon="11.9756891"><ele>558.0</ele><time>2026-03-28T12:58:28.143Z</time></trkpt><trkpt lat="43.4057321" lon="11.9757674"><ele>558.0</ele><time>2026-03-28T12:58:34.097Z</time></trkpt><trkpt lat="43.405693" lon="11.9758551"><ele>558.0</ele><time>2026-03-28T12:58:39.101Z</time></trkpt><trkpt lat="43.4056475" lon="11.9759284"><ele>557.9999999999999</ele><time>2026-03-28T12:58:43.105Z</time></trkpt><trkpt lat="43.4056091" lon="11.9760054"><ele>558.0</ele><time>2026-03-28T12:58:47.089Z</time></trkpt><trkpt lat="43.4055595" lon="11.9760769"><ele>558.7142857142857</ele><time>2026-03-28T12:58:51.081Z</time></trkpt><trkpt lat="43.4055152" lon="11.9761525"><ele>559.4285714285714</ele><time>2026-03-28T12:58:55.112Z</time></trkpt><trkpt lat="43.4054662" lon="11.9762275"><ele>560.1428571428571</ele><time>2026-03-28T12:58:59.996Z</time></trkpt><trkpt lat="43.4054055" lon="11.9762855"><ele>560.8571428571429</ele><time>2026-03-28T12:59:05.108Z</time></trkpt><trkpt lat="43.4053407" lon="11.9763201"><ele>561.5714285714286</ele><time>2026-03-28T12:59:10.131Z</time></trkpt><trkpt lat="43.4052667" lon="11.9763296"><ele>562.2857142857142</ele><time>2026-03-28T12:59:16.117Z</time></trkpt><trkpt lat="43.4051937" lon="11.9763152"><ele>563.0</ele><time>2026-03-28T12:59:22.04Z</time></trkpt><trkpt lat="43.4051171" lon="11.9763247"><ele>563.0</ele><time>2026-03-28T12:59:27.019Z</time></trkpt><trkpt lat="43.4050444" lon="11.9762989"><ele>563.0</ele><time>2026-03-28T12:59:33.089Z</time></trkpt><trkpt lat="43.4049774" lon="11.9762903"><ele>563.0</ele><time>2026-03-28T12:59:38.017Z</time></trkpt><trkpt lat="43.4049188" lon="11.9763422"><ele>563.0</ele><time>2026-03-28T12:59:43.097Z</time></trkpt><trkpt lat="43.4048746" lon="11.9764258"><ele>563.0</ele><time>2026-03-28T12:59:49.106Z</time></trkpt><trkpt lat="43.4048403" lon="11.9765132"><ele>563.0</ele><time>2026-03-28T12:59:54.114Z</time></trkpt><trkpt lat="43.4048007" lon="11.9765983"><ele>563.0</ele><time>2026-03-28T12:59:59.059Z</time></trkpt><trkpt lat="43.4047675" lon="11.9766843"><ele>562.0</ele><time>2026-03-28T13:00:04.075Z</time></trkpt><trkpt lat="43.4047356" lon="11.9767734"><ele>561.0</ele><time>2026-03-28T13:00:08.043Z</time></trkpt><trkpt lat="43.4047054" lon="11.9768535"><ele>560.0</ele><time>2026-03-28T13:00:12.114Z</time></trkpt><trkpt lat="43.4046594" lon="11.9769311"><ele>559.0</ele><time>2026-03-28T13:00:16.111Z</time></trkpt><trkpt lat="43.4046152" lon="11.977015"><ele>558.0</ele><time>2026-03-28T13:00:20.1Z</time></trkpt><trkpt lat="43.4045769" lon="11.9770851"><ele>557.0</ele><time>2026-03-28T13:00:24.001Z</time></trkpt><trkpt lat="43.4045404" lon="11.9771587"><ele>556.0</ele><time>2026-03-28T13:00:28.134Z</time></trkpt><trkpt lat="43.4044965" lon="11.9772386"><ele>557.2857142857142</ele><time>2026-03-28T13:00:33.081Z</time></trkpt><trkpt lat="43.4044482" lon="11.9773085"><ele>558.5714285714286</ele><time>2026-03-28T13:00:37.083Z</time></trkpt><trkpt lat="43.4043941" lon="11.9773739"><ele>559.8571428571429</ele><time>2026-03-28T13:00:41.103Z</time></trkpt><trkpt lat="43.4043423" lon="11.9774373"><ele>561.1428571428571</ele><time>2026-03-28T13:00:45.004Z</time></trkpt><trkpt lat="43.4042789" lon="11.9774993"><ele>562.4285714285714</ele><time>2026-03-28T13:00:50.089Z</time></trkpt><trkpt lat="43.4042189" lon="11.977556"><ele>563.7142857142857</ele><time>2026-03-28T13:00:56.003Z</time></trkpt><trkpt lat="43.4041612" lon="11.9776"><ele>565.0</ele><time>2026-03-28T13:01:02.019Z</time></trkpt><trkpt lat="43.4040946" lon="11.9776392"><ele>564.9999999999999</ele><time>2026-03-28T13:01:07.084Z</time></trkpt><trkpt lat="43.4040313" lon="11.9776763"><ele>565.0</ele><time>2026-03-28T13:01:11.095Z</time></trkpt><trkpt lat="43.4039693" lon="11.9777191"><ele>565.0</ele><time>2026-03-28T13:01:15.097Z</time></trkpt><trkpt lat="43.4039004" lon="11.977759"><ele>565.0</ele><time>2026-03-28T13:01:19.038Z</time></trkpt><trkpt lat="43.4038281" lon="11.9777969"><ele>565.0</ele><time>2026-03-28T13:01:23.109Z</time></trkpt><trkpt lat="43.4037661" lon="11.9778401"><ele>564.9999999999999</ele><time>2026-03-28T13:01:27.101Z</time></trkpt><trkpt lat="43.4037061" lon="11.9778776"><ele>565.0</ele><time>2026-03-28T13:01:31.083Z</time></trkpt><trkpt lat="43.4036448" lon="11.9779058"><ele>567.5714285714286</ele><time>2026-03-28T13:01:35.025Z</time></trkpt><trkpt lat="43.403586" lon="11.9779459"><ele>570.1428571428571</ele><time>2026-03-28T13:01:39.122Z</time></trkpt><trkpt lat="43.4035348" lon="11.9780112"><ele>572.7142857142858</ele><time>2026-03-28T13:01:43.098Z</time></trkpt><trkpt lat="43.4035063" lon="11.9780938"><ele>575.2857142857142</ele><time>2026-03-28T13:01:47.097Z</time></trkpt><trkpt lat="43.4035105" lon="11.978197"><ele>577.8571428571429</ele><time>2026-03-28T13:01:52.102Z</time></trkpt><trkpt lat="43.4035128" lon="11.9783021"><ele>580.4285714285714</ele><time>2026-03-28T13:01:57.058Z</time></trkpt><trkpt lat="43.4034876" lon="11.9784004"><ele>583.0</ele><time>2026-03-28T13:02:02.114Z</time></trkpt><trkpt lat="43.4034496" lon="11.9784823"><ele>583.0000000000001</ele><time>2026-03-28T13:02:07.098Z</time></trkpt><trkpt lat="43.4033867" lon="11.9785166"><ele>583.0</ele><time>2026-03-28T13:02:11.076Z</time></trkpt><trkpt lat="43.4033171" lon="11.9785393"><ele>583.0</ele><time>2026-03-28T13:02:16.002Z</time></trkpt><trkpt lat="43.4032383" lon="11.9785541"><ele>583.0</ele><time>2026-03-28T13:02:22.136Z</time></trkpt><trkpt lat="43.4031607" lon="11.9785595"><ele>583.0</ele><time>2026-03-28T13:02:30.071Z</time></trkpt><trkpt lat="43.4030988" lon="11.978593"><ele>583.0000000000001</ele><time>2026-03-28T13:02:42.095Z</time></trkpt><trkpt lat="43.4030172" lon="11.9786153"><ele>583.0</ele><time>2026-03-28T13:02:45.105Z</time></trkpt><trkpt lat="43.4029484" lon="11.9786482"><ele>583.1428571428572</ele><time>2026-03-28T13:02:48.096Z</time></trkpt><trkpt lat="43.4028875" lon="11.9786952"><ele>583.2857142857143</ele><time>2026-03-28T13:02:51.123Z</time></trkpt><trkpt lat="43.4028359" lon="11.9787481"><ele>583.4285714285714</ele><time>2026-03-28T13:02:56.07Z</time></trkpt><trkpt lat="43.4027585" lon="11.978754"><ele>583.5714285714287</ele><time>2026-03-28T13:03:00.077Z</time></trkpt><trkpt lat="43.4026987" lon="11.978723"><ele>583.7142857142858</ele><time>2026-03-28T13:03:04.121Z</time></trkpt><trkpt lat="43.4026391" lon="11.9787536"><ele>583.8571428571429</ele><time>2026-03-28T13:03:08.086Z</time></trkpt><trkpt lat="43.4025669" lon="11.9787855"><ele>584.0</ele><time>2026-03-28T13:03:12.085Z</time></trkpt><trkpt lat="43.4024917" lon="11.9787896"><ele>584.0</ele><time>2026-03-28T13:03:16.063Z</time></trkpt><trkpt lat="43.4024243" lon="11.9787755"><ele>584.0</ele><time>2026-03-28T13:03:20.093Z</time></trkpt><trkpt lat="43.402365" lon="11.9787185"><ele>584.0</ele><time>2026-03-28T13:03:25.114Z</time></trkpt><trkpt lat="43.4023201" lon="11.9786442"><ele>584.0</ele><time>2026-03-28T13:03:32.087Z</time></trkpt><trkpt lat="43.4022775" lon="11.9785712"><ele>584.0</ele><time>2026-03-28T13:03:38.095Z</time></trkpt><trkpt lat="43.4022242" lon="11.9785"><ele>584.0</ele><time>2026-03-28T13:03:44.095Z</time></trkpt><trkpt lat="43.4021607" lon="11.9784424"><ele>584.0</ele><time>2026-03-28T13:03:50.116Z</time></trkpt><trkpt lat="43.4020942" lon="11.9784164"><ele>583.0</ele><time>2026-03-28T13:03:57.098Z</time></trkpt><trkpt lat="43.4020287" lon="11.9783735"><ele>582.0</ele><time>2026-03-28T13:04:02.105Z</time></trkpt><trkpt lat="43.4019578" lon="11.9783498"><ele>581.0</ele><time>2026-03-28T13:04:07.098Z</time></trkpt><trkpt lat="43.4018889" lon="11.9783584"><ele>580.0</ele><time>2026-03-28T13:04:12.042Z</time></trkpt><trkpt lat="43.4018174" lon="11.9783632"><ele>579.0</ele><time>2026-03-28T13:04:17.087Z</time></trkpt><trkpt lat="43.401741" lon="11.978362"><ele>578.0</ele><time>2026-03-28T13:04:22.121Z</time></trkpt><trkpt lat="43.401663" lon="11.9783646"><ele>577.0</ele><time>2026-03-28T13:04:27.069Z</time></trkpt><trkpt lat="43.4015928" lon="11.9783557"><ele>580.7142857142857</ele><time>2026-03-28T13:04:32.04Z</time></trkpt><trkpt lat="43.4015273" lon="11.9783391"><ele>584.4285714285714</ele><time>2026-03-28T13:04:37.014Z</time></trkpt><trkpt lat="43.4014544" lon="11.9783352"><ele>588.1428571428571</ele><time>2026-03-28T13:04:42.016Z</time></trkpt><trkpt lat="43.4013897" lon="11.9783266"><ele>591.8571428571429</ele><time>2026-03-28T13:04:47.076Z</time></trkpt><trkpt lat="43.4013176" lon="11.978291"><ele>595.5714285714286</ele><time>2026-03-28T13:04:53.108Z</time></trkpt><trkpt lat="43.4012485" lon="11.9782521"><ele>599.2857142857143</ele><time>2026-03-28T13:04:59.025Z</time></trkpt><trkpt lat="43.401175" lon="11.9782151"><ele>603.0</ele><time>2026-03-28T13:05:05.081Z</time></trkpt><trkpt lat="43.4011138" lon="11.9781888"><ele>603.0</ele><time>2026-03-28T13:05:11.095Z</time></trkpt><trkpt lat="43.4010555" lon="11.9781393"><ele>603.0</ele><time>2026-03-28T13:05:17.104Z</time></trkpt><trkpt lat="43.4009979" lon="11.9780948"><ele>603.0</ele><time>2026-03-28T13:05:22.001Z</time></trkpt><trkpt lat="43.4009238" lon="11.9780679"><ele>603.0</ele><time>2026-03-28T13:05:27.738Z</time></trkpt><trkpt lat="43.4008735" lon="11.9780109"><ele>603.0</ele><time>2026-03-28T13:05:33.102Z</time></trkpt><trkpt lat="43.4008289" lon="11.977934"><ele>603.0</ele><time>2026-03-28T13:05:39.103Z</time></trkpt><trkpt lat="43.4007836" lon="11.9778529"><ele>603.0</ele><time>2026-03-28T13:05:44.088Z</time></trkpt><trkpt lat="43.4007404" lon="11.9777884"><ele>603.0</ele><time>2026-03-28T13:05:48.051Z</time></trkpt><trkpt lat="43.400699" lon="11.9777117"><ele>603.0</ele><time>2026-03-28T13:05:53.087Z</time></trkpt><trkpt lat="43.4006332" lon="11.9776543"><ele>603.0</ele><time>2026-03-28T13:05:58.121Z</time></trkpt><trkpt lat="43.4005685" lon="11.9776294"><ele>603.0</ele><time>2026-03-28T13:06:03.101Z</time></trkpt><trkpt lat="43.4004949" lon="11.9776216"><ele>603.0</ele><time>2026-03-28T13:06:08.115Z</time></trkpt><trkpt lat="43.4004288" lon="11.9776069"><ele>603.0</ele><time>2026-03-28T13:06:13.121Z</time></trkpt><trkpt lat="43.4003635" lon="11.9776137"><ele>603.0</ele><time>2026-03-28T13:06:17.1Z</time></trkpt><trkpt lat="43.400296" lon="11.977629"><ele>605.4285714285714</ele><time>2026-03-28T13:06:21.023Z</time></trkpt><trkpt lat="43.4002272" lon="11.9776605"><ele>607.8571428571428</ele><time>2026-03-28T13:06:26.109Z</time></trkpt><trkpt lat="43.4001669" lon="11.9777089"><ele>610.2857142857142</ele><time>2026-03-28T13:06:31.09Z</time></trkpt><trkpt lat="43.4001088" lon="11.9777617"><ele>612.7142857142858</ele><time>2026-03-28T13:06:35.095Z</time></trkpt><trkpt lat="43.4000514" lon="11.977816"><ele>615.1428571428571</ele><time>2026-03-28T13:06:39.072Z</time></trkpt><trkpt lat="43.4000016" lon="11.9778835"><ele>617.5714285714286</ele><time>2026-03-28T13:06:44.107Z</time></trkpt><trkpt lat="43.399944" lon="11.9779529"><ele>620.0</ele><time>2026-03-28T13:06:49.062Z</time></trkpt><trkpt lat="43.399896" lon="11.9780104"><ele>620.0</ele><time>2026-03-28T13:06:53.105Z</time></trkpt><trkpt lat="43.3998416" lon="11.9780635"><ele>620.0</ele><time>2026-03-28T13:06:57.126Z</time></trkpt><trkpt lat="43.3997842" lon="11.978105"><ele>620.0</ele><time>2026-03-28T13:07:01.086Z</time></trkpt><trkpt lat="43.3997227" lon="11.9781329"><ele>620.0</ele><time>2026-03-28T13:07:05.081Z</time></trkpt><trkpt lat="43.3996589" lon="11.9781386"><ele>620.0</ele><time>2026-03-28T13:07:09.092Z</time></trkpt><trkpt lat="43.3995959" lon="11.9781538"><ele>620.0</ele><time>2026-03-28T13:07:13.071Z</time></trkpt><trkpt lat="43.3995335" lon="11.978169"><ele>620.0</ele><time>2026-03-28T13:07:17.035Z</time></trkpt><trkpt lat="43.3994584" lon="11.9781681"><ele>619.5714285714286</ele><time>2026-03-28T13:07:22.098Z</time></trkpt><trkpt lat="43.3993813" lon="11.9781489"><ele>619.1428571428571</ele><time>2026-03-28T13:07:27.098Z</time></trkpt><trkpt lat="43.3993177" lon="11.9780976"><ele>618.7142857142858</ele><time>2026-03-28T13:07:32.095Z</time></trkpt><trkpt lat="43.3992827" lon="11.9780207"><ele>618.2857142857142</ele><time>2026-03-28T13:07:36.135Z</time></trkpt><trkpt lat="43.3992626" lon="11.977924"><ele>617.8571428571428</ele><time>2026-03-28T13:07:41.075Z</time></trkpt><trkpt lat="43.3992482" lon="11.9778289"><ele>617.4285714285714</ele><time>2026-03-28T13:07:46.103Z</time></trkpt><trkpt lat="43.399227" lon="11.9777413"><ele>617.0</ele><time>2026-03-28T13:07:50.055Z</time></trkpt><trkpt lat="43.3991833" lon="11.9776532"><ele>617.0</ele><time>2026-03-28T13:07:56.04Z</time></trkpt><trkpt lat="43.399143" lon="11.9775842"><ele>617.0</ele><time>2026-03-28T13:08:01.746Z</time></trkpt><trkpt lat="43.3990768" lon="11.9775453"><ele>617.0</ele><time>2026-03-28T13:08:08.113Z</time></trkpt><trkpt lat="43.3990104" lon="11.9775159"><ele>617.0</ele><time>2026-03-28T13:08:13.011Z</time></trkpt><trkpt lat="43.398945" lon="11.977496"><ele>617.0</ele><time>2026-03-28T13:08:17.062Z</time></trkpt><trkpt lat="43.3988931" lon="11.9774093"><ele>617.0</ele><time>2026-03-28T13:08:21.05Z</time></trkpt><trkpt lat="43.398864" lon="11.9773304"><ele>617.0</ele><time>2026-03-28T13:08:24.051Z</time></trkpt><trkpt lat="43.3988171" lon="11.9772576"><ele>616.8571428571429</ele><time>2026-03-28T13:08:28.058Z</time></trkpt><trkpt lat="43.3987623" lon="11.9771914"><ele>616.7142857142857</ele><time>2026-03-28T13:08:31.065Z</time></trkpt><trkpt lat="43.3986963" lon="11.9771383"><ele>616.5714285714286</ele><time>2026-03-28T13:08:35.067Z</time></trkpt><trkpt lat="43.3986295" lon="11.9770608"><ele>616.4285714285714</ele><time>2026-03-28T13:08:38.992Z</time></trkpt><trkpt lat="43.3985842" lon="11.9769871"><ele>616.2857142857142</ele><time>2026-03-28T13:08:43.112Z</time></trkpt><trkpt lat="43.3985541" lon="11.9769025"><ele>616.1428571428571</ele><time>2026-03-28T13:08:47.108Z</time></trkpt><trkpt lat="43.3985235" lon="11.976825"><ele>616.0</ele><time>2026-03-28T13:08:51.097Z</time></trkpt><trkpt lat="43.3984959" lon="11.976742"><ele>618.8571428571429</ele><time>2026-03-28T13:08:56.106Z</time></trkpt><trkpt lat="43.3984547" lon="11.9766729"><ele>621.7142857142858</ele><time>2026-03-28T13:09:00.114Z</time></trkpt><trkpt lat="43.398436" lon="11.9765844"><ele>624.5714285714286</ele><time>2026-03-28T13:09:04.112Z</time></trkpt><trkpt lat="43.3984499" lon="11.9764978"><ele>627.4285714285714</ele><time>2026-03-28T13:09:08.047Z</time></trkpt><trkpt lat="43.3984575" lon="11.9764094"><ele>630.2857142857143</ele><time>2026-03-28T13:09:13.267Z</time></trkpt><trkpt lat="43.3984919" lon="11.9763335"><ele>633.1428571428571</ele><time>2026-03-28T13:09:18.1Z</time></trkpt><trkpt lat="43.3985395" lon="11.9762631"><ele>636.0</ele><time>2026-03-28T13:09:24.069Z</time></trkpt><trkpt lat="43.3986226" lon="11.9762634"><ele>636.0</ele><time>2026-03-28T13:09:27.113Z</time></trkpt><trkpt lat="43.3986536" lon="11.9761744"><ele>636.0</ele><time>2026-03-28T13:09:32.083Z</time></trkpt><trkpt lat="43.3986166" lon="11.976074"><ele>636.0</ele><time>2026-03-28T13:09:34.076Z</time></trkpt><trkpt lat="43.3986595" lon="11.9759905"><ele>636.0</ele><time>2026-03-28T13:09:39.067Z</time></trkpt><trkpt lat="43.3987003" lon="11.9759057"><ele>636.0</ele><time>2026-03-28T13:09:44.078Z</time></trkpt><trkpt lat="43.3987171" lon="11.9758169"><ele>636.0</ele><time>2026-03-28T13:09:50.013Z</time></trkpt><trkpt lat="43.3987177" lon="11.9757232"><ele>636.0</ele><time>2026-03-28T13:09:57.119Z</time></trkpt><trkpt lat="43.3987221" lon="11.9756251"><ele>636.0</ele><time>2026-03-28T13:10:03.087Z</time></trkpt><trkpt lat="43.3986874" lon="11.9755439"><ele>636.0</ele><time>2026-03-28T13:10:07.071Z</time></trkpt><trkpt lat="43.3986643" lon="11.9754607"><ele>636.0</ele><time>2026-03-28T13:10:11.08Z</time></trkpt><trkpt lat="43.3986602" lon="11.9753725"><ele>636.0</ele><time>2026-03-28T13:10:15.016Z</time></trkpt><trkpt lat="43.3986431" lon="11.975281"><ele>636.0</ele><time>2026-03-28T13:10:19.076Z</time></trkpt><trkpt lat="43.3986056" lon="11.975197"><ele>636.0</ele><time>2026-03-28T13:10:23.066Z</time></trkpt><trkpt lat="43.3985606" lon="11.9751261"><ele>636.0</ele><time>2026-03-28T13:10:27.011Z</time></trkpt><trkpt lat="43.398515" lon="11.9750654"><ele>636.5714285714286</ele><time>2026-03-28T13:10:31.051Z</time></trkpt><trkpt lat="43.3984578" lon="11.9749957"><ele>637.1428571428572</ele><time>2026-03-28T13:10:36.076Z</time></trkpt><trkpt lat="43.3983959" lon="11.9749548"><ele>637.7142857142858</ele><time>2026-03-28T13:10:39.989Z</time></trkpt><trkpt lat="43.3983324" lon="11.9749234"><ele>638.2857142857142</ele><time>2026-03-28T13:10:44.063Z</time></trkpt><trkpt lat="43.3982725" lon="11.9748905"><ele>638.8571428571429</ele><time>2026-03-28T13:10:48.083Z</time></trkpt><trkpt lat="43.3982001" lon="11.9748443"><ele>639.4285714285714</ele><time>2026-03-28T13:10:53.053Z</time></trkpt><trkpt lat="43.3981363" lon="11.9748093"><ele>640.0</ele><time>2026-03-28T13:10:57.084Z</time></trkpt><trkpt lat="43.3980697" lon="11.9747739"><ele>640.0</ele><time>2026-03-28T13:11:01.089Z</time></trkpt><trkpt lat="43.3980045" lon="11.9747201"><ele>640.0</ele><time>2026-03-28T13:11:05.077Z</time></trkpt><trkpt lat="43.3979398" lon="11.9746681"><ele>640.0</ele><time>2026-03-28T13:11:09.085Z</time></trkpt><trkpt lat="43.3978719" lon="11.9746214"><ele>640.0</ele><time>2026-03-28T13:11:13.062Z</time></trkpt><trkpt lat="43.3978095" lon="11.9745818"><ele>640.0</ele><time>2026-03-28T13:11:17.097Z</time></trkpt><trkpt lat="43.3977482" lon="11.974517"><ele>640.0</ele><time>2026-03-28T13:11:22.081Z</time></trkpt><trkpt lat="43.3977064" lon="11.9744493"><ele>640.0</ele><time>2026-03-28T13:11:26.089Z</time></trkpt><trkpt lat="43.3976654" lon="11.9743608"><ele>640.5714285714286</ele><time>2026-03-28T13:11:31.076Z</time></trkpt><trkpt lat="43.3976284" lon="11.9742881"><ele>641.1428571428571</ele><time>2026-03-28T13:11:35.084Z</time></trkpt><trkpt lat="43.397584" lon="11.9742029"><ele>641.7142857142858</ele><time>2026-03-28T13:11:39.08Z</time></trkpt><trkpt lat="43.3975277" lon="11.9741504"><ele>642.2857142857142</ele><time>2026-03-28T13:11:43.082Z</time></trkpt><trkpt lat="43.3974686" lon="11.9741071"><ele>642.8571428571429</ele><time>2026-03-28T13:11:47.092Z</time></trkpt><trkpt lat="43.3974025" lon="11.9740858"><ele>643.4285714285714</ele><time>2026-03-28T13:11:51.056Z</time></trkpt><trkpt lat="43.3973134" lon="11.9740806"><ele>644.0</ele><time>2026-03-28T13:11:57.047Z</time></trkpt><trkpt lat="43.3972438" lon="11.9740641"><ele>644.0</ele><time>2026-03-28T13:12:02.049Z</time></trkpt><trkpt lat="43.3971797" lon="11.9740841"><ele>644.0</ele><time>2026-03-28T13:12:07.056Z</time></trkpt><trkpt lat="43.397118" lon="11.9741384"><ele>644.0</ele><time>2026-03-28T13:12:12.055Z</time></trkpt><trkpt lat="43.3970706" lon="11.9741955"><ele>644.0</ele><time>2026-03-28T13:12:15.065Z</time></trkpt><trkpt lat="43.3970011" lon="11.9742241"><ele>644.0</ele><time>2026-03-28T13:12:19.061Z</time></trkpt><trkpt lat="43.3969274" lon="11.9742229"><ele>644.0</ele><time>2026-03-28T13:12:23.058Z</time></trkpt><trkpt lat="43.3968655" lon="11.9741832"><ele>644.0</ele><time>2026-03-28T13:12:27.077Z</time></trkpt><trkpt lat="43.396799" lon="11.9741409"><ele>644.5714285714286</ele><time>2026-03-28T13:12:31.076Z</time></trkpt><trkpt lat="43.396739" lon="11.9741023"><ele>645.1428571428571</ele><time>2026-03-28T13:12:35.075Z</time></trkpt><trkpt lat="43.3966869" lon="11.9740371"><ele>645.7142857142858</ele><time>2026-03-28T13:12:40.07Z</time></trkpt><trkpt lat="43.3966441" lon="11.9739441"><ele>646.2857142857142</ele><time>2026-03-28T13:12:45.063Z</time></trkpt><trkpt lat="43.3965995" lon="11.9738767"><ele>646.8571428571429</ele><time>2026-03-28T13:12:49.054Z</time></trkpt><trkpt lat="43.3965557" lon="11.9738042"><ele>647.4285714285714</ele><time>2026-03-28T13:12:54.086Z</time></trkpt><trkpt lat="43.3965151" lon="11.9737299"><ele>648.0</ele><time>2026-03-28T13:13:00.079Z</time></trkpt><trkpt lat="43.396477" lon="11.9736594"><ele>648.0</ele><time>2026-03-28T13:13:05.079Z</time></trkpt><trkpt lat="43.3964316" lon="11.9735988"><ele>648.0</ele><time>2026-03-28T13:13:09.067Z</time></trkpt><trkpt lat="43.3963703" lon="11.9735598"><ele>648.0</ele><time>2026-03-28T13:13:14.073Z</time></trkpt><trkpt lat="43.3963126" lon="11.9735015"><ele>648.0</ele><time>2026-03-28T13:13:21.066Z</time></trkpt><trkpt lat="43.3962437" lon="11.9734573"><ele>648.0</ele><time>2026-03-28T13:13:29.083Z</time></trkpt><trkpt lat="43.3961743" lon="11.9734337"><ele>648.0</ele><time>2026-03-28T13:13:36.069Z</time></trkpt><trkpt lat="43.3961094" lon="11.9734107"><ele>648.0</ele><time>2026-03-28T13:13:42.068Z</time></trkpt><trkpt lat="43.3960465" lon="11.9733826"><ele>648.1428571428571</ele><time>2026-03-28T13:13:47.072Z</time></trkpt><trkpt lat="43.3959805" lon="11.9733884"><ele>648.2857142857142</ele><time>2026-03-28T13:13:53.081Z</time></trkpt><trkpt lat="43.3959042" lon="11.9733419"><ele>648.4285714285713</ele><time>2026-03-28T13:14:00.066Z</time></trkpt><trkpt lat="43.3958419" lon="11.9733061"><ele>648.5714285714286</ele><time>2026-03-28T13:14:06.077Z</time></trkpt><trkpt lat="43.3957852" lon="11.973253"><ele>648.7142857142857</ele><time>2026-03-28T13:14:12.077Z</time></trkpt><trkpt lat="43.395736" lon="11.9731949"><ele>648.8571428571428</ele><time>2026-03-28T13:14:17.076Z</time></trkpt><trkpt lat="43.395684" lon="11.9731404"><ele>649.0</ele><time>2026-03-28T13:14:23.073Z</time></trkpt><trkpt lat="43.3956428" lon="11.9730709"><ele>650.8571428571428</ele><time>2026-03-28T13:14:29.069Z</time></trkpt><trkpt lat="43.3955986" lon="11.9729982"><ele>652.7142857142857</ele><time>2026-03-28T13:14:35.073Z</time></trkpt><trkpt lat="43.3955547" lon="11.9729328"><ele>654.5714285714286</ele><time>2026-03-28T13:14:41.046Z</time></trkpt><trkpt lat="43.3954913" lon="11.9728984"><ele>656.4285714285713</ele><time>2026-03-28T13:14:50.089Z</time></trkpt><trkpt lat="43.3954301" lon="11.9728244"><ele>658.2857142857142</ele><time>2026-03-28T13:14:54.087Z</time></trkpt><trkpt lat="43.3953984" lon="11.9727444"><ele>660.1428571428571</ele><time>2026-03-28T13:14:57.092Z</time></trkpt><trkpt lat="43.3953607" lon="11.9726678"><ele>662.0</ele><time>2026-03-28T13:15:00.073Z</time></trkpt><trkpt lat="43.3953257" lon="11.9725953"><ele>664.1428571428571</ele><time>2026-03-28T13:15:03.011Z</time></trkpt><trkpt lat="43.3952936" lon="11.9725199"><ele>666.2857142857142</ele><time>2026-03-28T13:15:06.083Z</time></trkpt><trkpt lat="43.395244" lon="11.9724418"><ele>668.4285714285713</ele><time>2026-03-28T13:15:10.104Z</time></trkpt><trkpt lat="43.3951965" lon="11.9723795"><ele>670.5714285714286</ele><time>2026-03-28T13:15:14.012Z</time></trkpt><trkpt lat="43.3951357" lon="11.9723178"><ele>672.7142857142857</ele><time>2026-03-28T13:15:20.081Z</time></trkpt><trkpt lat="43.3950801" lon="11.9722551"><ele>674.8571428571428</ele><time>2026-03-28T13:15:25.104Z</time></trkpt><trkpt lat="43.3950259" lon="11.9721998"><ele>677.0</ele><time>2026-03-28T13:15:29.999Z</time></trkpt><trkpt lat="43.3949669" lon="11.9721436"><ele>677.0</ele><time>2026-03-28T13:15:35.054Z</time></trkpt><trkpt lat="43.394894" lon="11.972097"><ele>677.0</ele><time>2026-03-28T13:15:40.074Z</time></trkpt><trkpt lat="43.3948324" lon="11.9720508"><ele>677.0</ele><time>2026-03-28T13:15:46.084Z</time></trkpt><trkpt lat="43.394764" lon="11.9719948"><ele>677.0</ele><time>2026-03-28T13:15:52.12Z</time></trkpt><trkpt lat="43.3946972" lon="11.9719459"><ele>677.0</ele><time>2026-03-28T13:15:56.082Z</time></trkpt><trkpt lat="43.3946308" lon="11.971893"><ele>677.0</ele><time>2026-03-28T13:16:00.052Z</time></trkpt><trkpt lat="43.3945683" lon="11.9718397"><ele>678.7142857142857</ele><time>2026-03-28T13:16:04.042Z</time></trkpt><trkpt lat="43.3945051" lon="11.9717987"><ele>680.4285714285714</ele><time>2026-03-28T13:16:08.059Z</time></trkpt><trkpt lat="43.3944402" lon="11.9717692"><ele>682.1428571428571</ele><time>2026-03-28T13:16:12.076Z</time></trkpt><trkpt lat="43.3943784" lon="11.9717516"><ele>683.8571428571429</ele><time>2026-03-28T13:16:16.11Z</time></trkpt><trkpt lat="43.3943056" lon="11.9717344"><ele>685.5714285714286</ele><time>2026-03-28T13:16:21.093Z</time></trkpt><trkpt lat="43.3942459" lon="11.9717036"><ele>687.2857142857142</ele><time>2026-03-28T13:16:25.104Z</time></trkpt><trkpt lat="43.3941773" lon="11.9716522"><ele>689.0</ele><time>2026-03-28T13:16:29.111Z</time></trkpt><trkpt lat="43.3941088" lon="11.9715862"><ele>689.0</ele><time>2026-03-28T13:16:33.109Z</time></trkpt><trkpt lat="43.394057" lon="11.9715349"><ele>689.0</ele><time>2026-03-28T13:16:36.077Z</time></trkpt><trkpt lat="43.394" lon="11.9714782"><ele>689.0</ele><time>2026-03-28T13:16:40.108Z</time></trkpt><trkpt lat="43.3939396" lon="11.9714221"><ele>689.0</ele><time>2026-03-28T13:16:44.217Z</time></trkpt><trkpt lat="43.3938724" lon="11.9713963"><ele>689.0</ele><time>2026-03-28T13:16:48.576Z</time></trkpt><trkpt lat="43.3938002" lon="11.9713794"><ele>689.0</ele><time>2026-03-28T13:16:52.952Z</time></trkpt><trkpt lat="43.3937221" lon="11.9713523"><ele>689.0</ele><time>2026-03-28T13:16:57.093Z</time></trkpt><trkpt lat="43.3936528" lon="11.9713358"><ele>692.1666666666666</ele><time>2026-03-28T13:17:00.087Z</time></trkpt><trkpt lat="43.3935831" lon="11.971309"><ele>695.3333333333333</ele><time>2026-03-28T13:17:03.096Z</time></trkpt><trkpt lat="43.3935076" lon="11.9712864"><ele>698.5</ele><time>2026-03-28T13:17:05.999Z</time></trkpt><trkpt lat="43.3934312" lon="11.9712438"><ele>701.6666666666666</ele><time>2026-03-28T13:17:10.088Z</time></trkpt><trkpt lat="43.393362" lon="11.9711846"><ele>704.8333333333334</ele><time>2026-03-28T13:17:14.084Z</time></trkpt><trkpt lat="43.3932979" lon="11.9711195"><ele>708.0</ele><time>2026-03-28T13:17:18.115Z</time></trkpt><trkpt lat="43.3932357" lon="11.9710506"><ele>708.0</ele><time>2026-03-28T13:17:22.121Z</time></trkpt><trkpt lat="43.393182" lon="11.9709611"><ele>708.0</ele><time>2026-03-28T13:17:25.854Z</time></trkpt><trkpt lat="43.3931371" lon="11.9708708"><ele>708.0</ele><time>2026-03-28T13:17:30.085Z</time></trkpt><trkpt lat="43.3931033" lon="11.970797"><ele>708.0</ele><time>2026-03-28T13:17:33.088Z</time></trkpt><trkpt lat="43.3930634" lon="11.9707284"><ele>708.0</ele><time>2026-03-28T13:17:37.074Z</time></trkpt><trkpt lat="43.3930024" lon="11.9706884"><ele>708.0</ele><time>2026-03-28T13:17:41.084Z</time></trkpt><trkpt lat="43.3929371" lon="11.9706472"><ele>708.0</ele><time>2026-03-28T13:17:45.082Z</time></trkpt><trkpt lat="43.392866" lon="11.9706209"><ele>708.2857142857143</ele><time>2026-03-28T13:17:49.121Z</time></trkpt><trkpt lat="43.392796" lon="11.9706211"><ele>708.5714285714286</ele><time>2026-03-28T13:17:52.976Z</time></trkpt><trkpt lat="43.3927296" lon="11.9706474"><ele>708.8571428571429</ele><time>2026-03-28T13:17:57.059Z</time></trkpt><trkpt lat="43.3926724" lon="11.9707102"><ele>709.1428571428571</ele><time>2026-03-28T13:18:03.084Z</time></trkpt><trkpt lat="43.3926254" lon="11.9707863"><ele>709.4285714285714</ele><time>2026-03-28T13:18:09.088Z</time></trkpt><trkpt lat="43.3925603" lon="11.9708315"><ele>709.7142857142857</ele><time>2026-03-28T13:18:13.089Z</time></trkpt><trkpt lat="43.3925038" lon="11.9708861"><ele>710.0</ele><time>2026-03-28T13:18:16.976Z</time></trkpt><trkpt lat="43.3924459" lon="11.9709524"><ele>710.0</ele><time>2026-03-28T13:18:21.06Z</time></trkpt><trkpt lat="43.3923968" lon="11.971014"><ele>710.0</ele><time>2026-03-28T13:18:25.074Z</time></trkpt><trkpt lat="43.392338" lon="11.9710804"><ele>710.0</ele><time>2026-03-28T13:18:30.106Z</time></trkpt><trkpt lat="43.3922803" lon="11.9711247"><ele>710.0</ele><time>2026-03-28T13:18:35.07Z</time></trkpt><trkpt lat="43.3922216" lon="11.9711918"><ele>710.0</ele><time>2026-03-28T13:18:41.071Z</time></trkpt><trkpt lat="43.3921719" lon="11.9712599"><ele>710.0</ele><time>2026-03-28T13:18:46.098Z</time></trkpt><trkpt lat="43.3921251" lon="11.9713324"><ele>710.0</ele><time>2026-03-28T13:18:50.094Z</time></trkpt><trkpt lat="43.392069" lon="11.9714072"><ele>708.7142857142857</ele><time>2026-03-28T13:18:54.087Z</time></trkpt><trkpt lat="43.3920147" lon="11.97148"><ele>707.4285714285714</ele><time>2026-03-28T13:18:58.03Z</time></trkpt><trkpt lat="43.3919695" lon="11.9715516"><ele>706.1428571428571</ele><time>2026-03-28T13:19:02.101Z</time></trkpt><trkpt lat="43.3919182" lon="11.9716172"><ele>704.8571428571429</ele><time>2026-03-28T13:19:06.124Z</time></trkpt><trkpt lat="43.3918745" lon="11.9716952"><ele>703.5714285714286</ele><time>2026-03-28T13:19:11.099Z</time></trkpt><trkpt lat="43.3918408" lon="11.971779"><ele>702.2857142857143</ele><time>2026-03-28T13:19:15.098Z</time></trkpt><trkpt lat="43.3918238" lon="11.9718834"><ele>701.0</ele><time>2026-03-28T13:19:20.049Z</time></trkpt><trkpt lat="43.3918119" lon="11.9719857"><ele>701.0</ele><time>2026-03-28T13:19:24.107Z</time></trkpt><trkpt lat="43.3917909" lon="11.9720795"><ele>701.0</ele><time>2026-03-28T13:19:28.124Z</time></trkpt><trkpt lat="43.3917804" lon="11.9721785"><ele>701.0</ele><time>2026-03-28T13:19:32.115Z</time></trkpt><trkpt lat="43.3917611" lon="11.9722919"><ele>701.0</ele><time>2026-03-28T13:19:36.105Z</time></trkpt><trkpt lat="43.3917351" lon="11.9723867"><ele>701.0</ele><time>2026-03-28T13:19:40.116Z</time></trkpt><trkpt lat="43.3917086" lon="11.972477"><ele>701.0</ele><time>2026-03-28T13:19:44.087Z</time></trkpt><trkpt lat="43.3916686" lon="11.9725528"><ele>701.0</ele><time>2026-03-28T13:19:49.069Z</time></trkpt><trkpt lat="43.3916082" lon="11.9726133"><ele>703.1666666666666</ele><time>2026-03-28T13:19:54.009Z</time></trkpt><trkpt lat="43.3915425" lon="11.9726647"><ele>705.3333333333333</ele><time>2026-03-28T13:19:58.092Z</time></trkpt><trkpt lat="43.3914842" lon="11.9727178"><ele>707.5</ele><time>2026-03-28T13:20:02.117Z</time></trkpt><trkpt lat="43.3914352" lon="11.9727989"><ele>709.6666666666666</ele><time>2026-03-28T13:20:06.094Z</time></trkpt><trkpt lat="43.3913912" lon="11.9728973"><ele>711.8333333333334</ele><time>2026-03-28T13:20:10.112Z</time></trkpt><trkpt lat="43.3913609" lon="11.9729953"><ele>714.0</ele><time>2026-03-28T13:20:14.102Z</time></trkpt><trkpt lat="43.3913423" lon="11.9730882"><ele>712.0</ele><time>2026-03-28T13:20:19.083Z</time></trkpt><trkpt lat="43.3913344" lon="11.9731777"><ele>710.0</ele><time>2026-03-28T13:20:24.131Z</time></trkpt><trkpt lat="43.3913339" lon="11.9732709"><ele>708.0</ele><time>2026-03-28T13:20:29.123Z</time></trkpt><trkpt lat="43.3913206" lon="11.9733782"><ele>706.0</ele><time>2026-03-28T13:20:34.047Z</time></trkpt><trkpt lat="43.3913105" lon="11.9734644"><ele>704.0</ele><time>2026-03-28T13:20:38.102Z</time></trkpt><trkpt lat="43.3912943" lon="11.9735541"><ele>702.0</ele><time>2026-03-28T13:20:42.071Z</time></trkpt><trkpt lat="43.3912753" lon="11.9736469"><ele>700.0</ele><time>2026-03-28T13:20:46.085Z</time></trkpt><trkpt lat="43.3912529" lon="11.9737382"><ele>700.0</ele><time>2026-03-28T13:20:49.997Z</time></trkpt><trkpt lat="43.3912384" lon="11.9738292"><ele>700.0</ele><time>2026-03-28T13:20:54.114Z</time></trkpt><trkpt lat="43.3912043" lon="11.9739203"><ele>700.0</ele><time>2026-03-28T13:20:59.03Z</time></trkpt><trkpt lat="43.3911624" lon="11.9739944"><ele>700.0</ele><time>2026-03-28T13:21:03.101Z</time></trkpt><trkpt lat="43.3911135" lon="11.9740777"><ele>700.0</ele><time>2026-03-28T13:21:07.088Z</time></trkpt><trkpt lat="43.39107" lon="11.9741621"><ele>700.0</ele><time>2026-03-28T13:21:11.034Z</time></trkpt><trkpt lat="43.391032" lon="11.9742407"><ele>700.0</ele><time>2026-03-28T13:21:15.109Z</time></trkpt><trkpt lat="43.3910051" lon="11.9743304"><ele>701.8571428571429</ele><time>2026-03-28T13:21:20.077Z</time></trkpt><trkpt lat="43.3909744" lon="11.9744076"><ele>703.7142857142858</ele><time>2026-03-28T13:21:24.092Z</time></trkpt><trkpt lat="43.3909456" lon="11.9744958"><ele>705.5714285714286</ele><time>2026-03-28T13:21:28.135Z</time></trkpt><trkpt lat="43.3909173" lon="11.9745922"><ele>707.4285714285714</ele><time>2026-03-28T13:21:34.116Z</time></trkpt><trkpt lat="43.390886" lon="11.9746871"><ele>709.2857142857143</ele><time>2026-03-28T13:21:39.103Z</time></trkpt><trkpt lat="43.3908572" lon="11.9747687"><ele>711.1428571428571</ele><time>2026-03-28T13:21:43.033Z</time></trkpt><trkpt lat="43.3908248" lon="11.9748517"><ele>713.0</ele><time>2026-03-28T13:21:47.054Z</time></trkpt><trkpt lat="43.3907687" lon="11.9749521"><ele>712.6666666666666</ele><time>2026-03-28T13:21:55.019Z</time></trkpt><trkpt lat="43.3907479" lon="11.9750554"><ele>712.3333333333333</ele><time>2026-03-28T13:21:57.087Z</time></trkpt><trkpt lat="43.390733" lon="11.9751522"><ele>712.0</ele><time>2026-03-28T13:22:01.09Z</time></trkpt><trkpt lat="43.390743" lon="11.9752666"><ele>711.6666666666666</ele><time>2026-03-28T13:22:05.119Z</time></trkpt><trkpt lat="43.3906781" lon="11.9752593"><ele>711.3333333333334</ele><time>2026-03-28T13:22:06.037Z</time></trkpt><trkpt lat="43.3906036" lon="11.9752969"><ele>711.0</ele><time>2026-03-28T13:22:08.133Z</time></trkpt><trkpt lat="43.390554" lon="11.9753699"><ele>711.0</ele><time>2026-03-28T13:22:11.133Z</time></trkpt><trkpt lat="43.390495" lon="11.9754387"><ele>711.0</ele><time>2026-03-28T13:22:15.137Z</time></trkpt><trkpt lat="43.3904258" lon="11.9754971"><ele>711.0</ele><time>2026-03-28T13:22:19.103Z</time></trkpt><trkpt lat="43.3903543" lon="11.9755382"><ele>711.0</ele><time>2026-03-28T13:22:23.085Z</time></trkpt><trkpt lat="43.3902814" lon="11.975562"><ele>711.0</ele><time>2026-03-28T13:22:28.061Z</time></trkpt><trkpt lat="43.3902172" lon="11.9755773"><ele>711.0</ele><time>2026-03-28T13:22:32.029Z</time></trkpt><trkpt lat="43.3901504" lon="11.9755849"><ele>711.0</ele><time>2026-03-28T13:22:36.057Z</time></trkpt><trkpt lat="43.390077" lon="11.9755915"><ele>711.0</ele><time>2026-03-28T13:22:40.075Z</time></trkpt><trkpt lat="43.3900031" lon="11.9756155"><ele>711.0</ele><time>2026-03-28T13:22:44.108Z</time></trkpt><trkpt lat="43.3899315" lon="11.975637"><ele>711.0</ele><time>2026-03-28T13:22:48.101Z</time></trkpt><trkpt lat="43.3898671" lon="11.9756579"><ele>711.0</ele><time>2026-03-28T13:22:52.099Z</time></trkpt><trkpt lat="43.3897985" lon="11.9756866"><ele>711.0</ele><time>2026-03-28T13:22:57.077Z</time></trkpt><trkpt lat="43.3897278" lon="11.9757257"><ele>711.0</ele><time>2026-03-28T13:23:02.11Z</time></trkpt><trkpt lat="43.389668" lon="11.975767"><ele>711.0</ele><time>2026-03-28T13:23:06.113Z</time></trkpt><trkpt lat="43.3896004" lon="11.9758213"><ele>711.8571428571429</ele><time>2026-03-28T13:23:10.105Z</time></trkpt><trkpt lat="43.3895556" lon="11.9758859"><ele>712.7142857142857</ele><time>2026-03-28T13:23:13.116Z</time></trkpt><trkpt lat="43.389509" lon="11.9759486"><ele>713.5714285714286</ele><time>2026-03-28T13:23:16.094Z</time></trkpt><trkpt lat="43.389459" lon="11.9760042"><ele>714.4285714285714</ele><time>2026-03-28T13:23:19.105Z</time></trkpt><trkpt lat="43.389406" lon="11.9760687"><ele>715.2857142857142</ele><time>2026-03-28T13:23:23.09Z</time></trkpt><trkpt lat="43.3893574" lon="11.9761346"><ele>716.1428571428571</ele><time>2026-03-28T13:23:27.094Z</time></trkpt><trkpt lat="43.3892948" lon="11.9761806"><ele>717.0</ele><time>2026-03-28T13:23:31.113Z</time></trkpt><trkpt lat="43.3892299" lon="11.9762141"><ele>717.0</ele><time>2026-03-28T13:23:35.078Z</time></trkpt><trkpt lat="43.3891629" lon="11.9762375"><ele>717.0</ele><time>2026-03-28T13:23:39.064Z</time></trkpt><trkpt lat="43.3890915" lon="11.9762531"><ele>717.0</ele><time>2026-03-28T13:23:43.075Z</time></trkpt><trkpt lat="43.3890135" lon="11.9762728"><ele>717.0</ele><time>2026-03-28T13:23:48.095Z</time></trkpt><trkpt lat="43.3889417" lon="11.9762884"><ele>717.0</ele><time>2026-03-28T13:23:52.11Z</time></trkpt><trkpt lat="43.3888682" lon="11.976308"><ele>717.0</ele><time>2026-03-28T13:23:56.096Z</time></trkpt><trkpt lat="43.3887975" lon="11.9763321"><ele>717.0</ele><time>2026-03-28T13:24:00.112Z</time></trkpt><trkpt lat="43.388723" lon="11.9763581"><ele>715.8571428571429</ele><time>2026-03-28T13:24:04.1Z</time></trkpt><trkpt lat="43.3886647" lon="11.9763927"><ele>714.7142857142857</ele><time>2026-03-28T13:24:07.076Z</time></trkpt><trkpt lat="43.388596" lon="11.9764314"><ele>713.5714285714287</ele><time>2026-03-28T13:24:11.12Z</time></trkpt><trkpt lat="43.3885388" lon="11.9764726"><ele>712.4285714285714</ele><time>2026-03-28T13:24:15.069Z</time></trkpt><trkpt lat="43.3884792" lon="11.9765034"><ele>711.2857142857143</ele><time>2026-03-28T13:24:22.093Z</time></trkpt><trkpt lat="43.3884087" lon="11.9765456"><ele>710.1428571428572</ele><time>2026-03-28T13:24:28.074Z</time></trkpt><trkpt lat="43.3883509" lon="11.9765946"><ele>709.0</ele><time>2026-03-28T13:24:32.1Z</time></trkpt><trkpt lat="43.3882902" lon="11.9766395"><ele>709.0000000000001</ele><time>2026-03-28T13:24:35.119Z</time></trkpt><trkpt lat="43.3882236" lon="11.976671"><ele>709.0</ele><time>2026-03-28T13:24:38.141Z</time></trkpt><trkpt lat="43.3881589" lon="11.9767129"><ele>709.0</ele><time>2026-03-28T13:24:41.072Z</time></trkpt><trkpt lat="43.3880834" lon="11.9767503"><ele>709.0</ele><time>2026-03-28T13:24:44.127Z</time></trkpt><trkpt lat="43.3880145" lon="11.9767912"><ele>709.0</ele><time>2026-03-28T13:24:47.082Z</time></trkpt><trkpt lat="43.3879492" lon="11.9768369"><ele>709.0000000000001</ele><time>2026-03-28T13:24:50.112Z</time></trkpt><trkpt lat="43.3878897" lon="11.9768883"><ele>709.0</ele><time>2026-03-28T13:24:53.014Z</time></trkpt><trkpt lat="43.3878313" lon="11.9769528"><ele>708.7142857142858</ele><time>2026-03-28T13:24:56.111Z</time></trkpt><trkpt lat="43.3877889" lon="11.9770208"><ele>708.4285714285714</ele><time>2026-03-28T13:24:59.112Z</time></trkpt><trkpt lat="43.3877652" lon="11.9771146"><ele>708.1428571428571</ele><time>2026-03-28T13:25:02.113Z</time></trkpt><trkpt lat="43.387756" lon="11.9772131"><ele>707.8571428571429</ele><time>2026-03-28T13:25:05.103Z</time></trkpt><trkpt lat="43.3877584" lon="11.9773123"><ele>707.5714285714286</ele><time>2026-03-28T13:25:08.048Z</time></trkpt><trkpt lat="43.3877682" lon="11.9774254"><ele>707.2857142857143</ele><time>2026-03-28T13:25:11.126Z</time></trkpt><trkpt lat="43.3877938" lon="11.9775133"><ele>707.0</ele><time>2026-03-28T13:25:14.118Z</time></trkpt><trkpt lat="43.3878275" lon="11.9775928"><ele>707.0</ele><time>2026-03-28T13:25:17.054Z</time></trkpt><trkpt lat="43.3878471" lon="11.9776931"><ele>707.0</ele><time>2026-03-28T13:25:21.014Z</time></trkpt><trkpt lat="43.3878076" lon="11.9777812"><ele>707.0</ele><time>2026-03-28T13:25:25.104Z</time></trkpt><trkpt lat="43.3877586" lon="11.9778671"><ele>707.0</ele><time>2026-03-28T13:25:29.091Z</time></trkpt><trkpt lat="43.3877223" lon="11.9779469"><ele>707.0</ele><time>2026-03-28T13:25:32.111Z</time></trkpt><trkpt lat="43.3876894" lon="11.9780251"><ele>707.0</ele><time>2026-03-28T13:25:35.118Z</time></trkpt><trkpt lat="43.3876585" lon="11.9781026"><ele>707.0</ele><time>2026-03-28T13:25:38.018Z</time></trkpt><trkpt lat="43.3876133" lon="11.9781985"><ele>707.0</ele><time>2026-03-28T13:25:42.013Z</time></trkpt><trkpt lat="43.3875656" lon="11.9782861"><ele>707.0</ele><time>2026-03-28T13:25:46.104Z</time></trkpt><trkpt lat="43.3875171" lon="11.9783607"><ele>707.0</ele><time>2026-03-28T13:25:50.099Z</time></trkpt><trkpt lat="43.387459" lon="11.9784361"><ele>707.0</ele><time>2026-03-28T13:25:55.005Z</time></trkpt><trkpt lat="43.3874243" lon="11.9785337"><ele>707.0</ele><time>2026-03-28T13:26:00.037Z</time></trkpt><trkpt lat="43.3873782" lon="11.9785976"><ele>707.0</ele><time>2026-03-28T13:26:05.092Z</time></trkpt><trkpt lat="43.3873281" lon="11.978656"><ele>707.0</ele><time>2026-03-28T13:26:10.097Z</time></trkpt><trkpt lat="43.3872766" lon="11.9787335"><ele>707.2857142857143</ele><time>2026-03-28T13:26:16.056Z</time></trkpt><trkpt lat="43.387238" lon="11.9788195"><ele>707.5714285714286</ele><time>2026-03-28T13:26:20.018Z</time></trkpt><trkpt lat="43.3871882" lon="11.9789009"><ele>707.8571428571429</ele><time>2026-03-28T13:26:24.028Z</time></trkpt><trkpt lat="43.387166" lon="11.978988"><ele>708.1428571428571</ele><time>2026-03-28T13:26:29.094Z</time></trkpt><trkpt lat="43.3871585" lon="11.9790901"><ele>708.4285714285714</ele><time>2026-03-28T13:26:34.101Z</time></trkpt><trkpt lat="43.3871516" lon="11.9791768"><ele>708.7142857142858</ele><time>2026-03-28T13:26:38.017Z</time></trkpt><trkpt lat="43.3871486" lon="11.9792819"><ele>709.0</ele><time>2026-03-28T13:26:43.116Z</time></trkpt><trkpt lat="43.3871511" lon="11.9793695"><ele>709.0000000000001</ele><time>2026-03-28T13:26:47.117Z</time></trkpt><trkpt lat="43.3871511" lon="11.9794734"><ele>709.0</ele><time>2026-03-28T13:26:52.097Z</time></trkpt><trkpt lat="43.3871441" lon="11.9795708"><ele>709.0</ele><time>2026-03-28T13:26:56.087Z</time></trkpt><trkpt lat="43.3871187" lon="11.9796685"><ele>709.0</ele><time>2026-03-28T13:27:00.091Z</time></trkpt><trkpt lat="43.3870846" lon="11.9797681"><ele>709.0</ele><time>2026-03-28T13:27:04.123Z</time></trkpt><trkpt lat="43.387046" lon="11.9798559"><ele>709.0000000000001</ele><time>2026-03-28T13:27:08.057Z</time></trkpt><trkpt lat="43.3870027" lon="11.9799348"><ele>709.0</ele><time>2026-03-28T13:27:12.079Z</time></trkpt><trkpt lat="43.3869603" lon="11.9799991"><ele>710.1428571428572</ele><time>2026-03-28T13:27:16.1Z</time></trkpt><trkpt lat="43.3869205" lon="11.9800667"><ele>711.2857142857143</ele><time>2026-03-28T13:27:20.107Z</time></trkpt><trkpt lat="43.3868771" lon="11.9801436"><ele>712.4285714285714</ele><time>2026-03-28T13:27:24.092Z</time></trkpt><trkpt lat="43.3868393" lon="11.9802139"><ele>713.5714285714287</ele><time>2026-03-28T13:27:28.089Z</time></trkpt><trkpt lat="43.3867841" lon="11.980298"><ele>714.7142857142857</ele><time>2026-03-28T13:27:33.086Z</time></trkpt><trkpt lat="43.3867568" lon="11.9803906"><ele>715.8571428571429</ele><time>2026-03-28T13:27:38.06Z</time></trkpt><trkpt lat="43.3867909" lon="11.9804651"><ele>717.0</ele><time>2026-03-28T13:27:44.089Z</time></trkpt><trkpt lat="43.3868453" lon="11.9805345"><ele>717.0</ele><time>2026-03-28T13:27:51.091Z</time></trkpt><trkpt lat="43.3869057" lon="11.9805672"><ele>717.0</ele><time>2026-03-28T13:27:58.113Z</time></trkpt><trkpt lat="43.3869658" lon="11.9806252"><ele>717.0</ele><time>2026-03-28T13:28:05.107Z</time></trkpt><trkpt lat="43.3869843" lon="11.9807102"><ele>717.0</ele><time>2026-03-28T13:28:13.088Z</time></trkpt><trkpt lat="43.3869374" lon="11.9807825"><ele>717.0</ele><time>2026-03-28T13:28:22.075Z</time></trkpt><trkpt lat="43.3868743" lon="11.9807995"><ele>717.0</ele><time>2026-03-28T13:28:29.057Z</time></trkpt><trkpt lat="43.3868193" lon="11.9807521"><ele>717.0</ele><time>2026-03-28T13:28:34.049Z</time></trkpt><trkpt lat="43.3869404" lon="11.9807953"><ele>717.0</ele><time>2026-03-28T13:29:08.033Z</time></trkpt><trkpt lat="43.3869495" lon="11.9807043"><ele>717.0</ele><time>2026-03-28T13:29:31.052Z</time></trkpt><trkpt lat="43.3869285" lon="11.9805815"><ele>717.0</ele><time>2026-03-28T13:29:33.062Z</time></trkpt><trkpt lat="43.3868652" lon="11.9806704"><ele>717.0</ele><time>2026-03-28T13:29:34.046Z</time></trkpt><trkpt lat="43.3868297" lon="11.9807504"><ele>717.0</ele><time>2026-03-28T13:29:35.044Z</time></trkpt><trkpt lat="43.3868435" lon="11.9808494"><ele>717.0</ele><time>2026-03-28T13:29:38.053Z</time></trkpt><trkpt lat="43.3869045" lon="11.9808757"><ele>716.5714285714286</ele><time>2026-03-28T13:29:40.048Z</time></trkpt><trkpt lat="43.38697" lon="11.9808523"><ele>716.1428571428571</ele><time>2026-03-28T13:29:43.058Z</time></trkpt><trkpt lat="43.3869355" lon="11.980934"><ele>715.7142857142858</ele><time>2026-03-28T13:30:14.057Z</time></trkpt><trkpt lat="43.386958" lon="11.9810288"><ele>715.2857142857142</ele><time>2026-03-28T13:30:24.072Z</time></trkpt><trkpt lat="43.3870061" lon="11.9810908"><ele>714.8571428571429</ele><time>2026-03-28T13:30:29.112Z</time></trkpt><trkpt lat="43.3870506" lon="11.9811574"><ele>714.4285714285714</ele><time>2026-03-28T13:30:34.075Z</time></trkpt><trkpt lat="43.387099" lon="11.9812187"><ele>714.0</ele><time>2026-03-28T13:30:39.057Z</time></trkpt><trkpt lat="43.3871472" lon="11.9812755"><ele>713.4285714285714</ele><time>2026-03-28T13:30:45.065Z</time></trkpt><trkpt lat="43.3872079" lon="11.9813227"><ele>712.8571428571429</ele><time>2026-03-28T13:31:02.071Z</time></trkpt><trkpt lat="43.3872506" lon="11.9813877"><ele>712.2857142857142</ele><time>2026-03-28T13:31:08.068Z</time></trkpt><trkpt lat="43.3873146" lon="11.9814273"><ele>711.7142857142858</ele><time>2026-03-28T13:31:15.086Z</time></trkpt><trkpt lat="43.387342" lon="11.9815342"><ele>711.1428571428571</ele><time>2026-03-28T13:31:28.074Z</time></trkpt><trkpt lat="43.3873658" lon="11.9816197"><ele>710.5714285714286</ele><time>2026-03-28T13:31:35.07Z</time></trkpt><trkpt lat="43.3873372" lon="11.9817026"><ele>710.0</ele><time>2026-03-28T13:31:41.112Z</time></trkpt><trkpt lat="43.3872987" lon="11.9817815"><ele>709.2857142857142</ele><time>2026-03-28T13:31:49.063Z</time></trkpt><trkpt lat="43.387242" lon="11.9818231"><ele>708.5714285714286</ele><time>2026-03-28T13:31:54.081Z</time></trkpt><trkpt lat="43.3871982" lon="11.9818856"><ele>707.8571428571429</ele><time>2026-03-28T13:31:59.061Z</time></trkpt><trkpt lat="43.387127" lon="11.9818996"><ele>707.1428571428571</ele><time>2026-03-28T13:32:06.079Z</time></trkpt><trkpt lat="43.3870321" lon="11.9819034"><ele>706.4285714285714</ele><time>2026-03-28T13:32:10.081Z</time></trkpt><trkpt lat="43.3869615" lon="11.9819134"><ele>705.7142857142857</ele><time>2026-03-28T13:32:14.091Z</time></trkpt><trkpt lat="43.3869074" lon="11.9819782"><ele>705.0</ele><time>2026-03-28T13:32:19.015Z</time></trkpt><trkpt lat="43.3868649" lon="11.9820572"><ele>704.9999999999999</ele><time>2026-03-28T13:32:26.101Z</time></trkpt><trkpt lat="43.386818" lon="11.9821296"><ele>705.0</ele><time>2026-03-28T13:32:33.098Z</time></trkpt><trkpt lat="43.3867502" lon="11.9821682"><ele>705.0</ele><time>2026-03-28T13:32:40.072Z</time></trkpt><trkpt lat="43.3866887" lon="11.9822049"><ele>705.0</ele><time>2026-03-28T13:32:46.091Z</time></trkpt><trkpt lat="43.3866273" lon="11.9822452"><ele>705.0</ele><time>2026-03-28T13:32:52.104Z</time></trkpt><trkpt lat="43.3865689" lon="11.982296"><ele>704.9999999999999</ele><time>2026-03-28T13:32:58.083Z</time></trkpt><trkpt lat="43.3865185" lon="11.9823602"><ele>705.0</ele><time>2026-03-28T13:33:04.102Z</time></trkpt><trkpt lat="43.3864928" lon="11.9824502"><ele>703.5714285714286</ele><time>2026-03-28T13:33:11.016Z</time></trkpt><trkpt lat="43.3864614" lon="11.9825304"><ele>702.1428571428571</ele><time>2026-03-28T13:33:16.679Z</time></trkpt><trkpt lat="43.3864503" lon="11.9826275"><ele>700.7142857142858</ele><time>2026-03-28T13:33:24.119Z</time></trkpt><trkpt lat="43.38645" lon="11.9827218"><ele>699.2857142857142</ele><time>2026-03-28T13:33:30.046Z</time></trkpt><trkpt lat="43.3864332" lon="11.9828187"><ele>697.8571428571429</ele><time>2026-03-28T13:33:36.133Z</time></trkpt><trkpt lat="43.3864325" lon="11.9829141"><ele>696.4285714285714</ele><time>2026-03-28T13:33:41.122Z</time></trkpt><trkpt lat="43.3864275" lon="11.9830099"><ele>695.0</ele><time>2026-03-28T13:33:47.09Z</time></trkpt><trkpt lat="43.3864117" lon="11.9831038"><ele>695.0000000000001</ele><time>2026-03-28T13:33:53.137Z</time></trkpt><trkpt lat="43.3863612" lon="11.9831624"><ele>695.0</ele><time>2026-03-28T13:34:01.101Z</time></trkpt><trkpt lat="43.3863169" lon="11.983234"><ele>695.0</ele><time>2026-03-28T13:34:11.118Z</time></trkpt><trkpt lat="43.3862501" lon="11.9832646"><ele>695.0</ele><time>2026-03-28T13:34:16.088Z</time></trkpt><trkpt lat="43.3861804" lon="11.9832563"><ele>695.0</ele><time>2026-03-28T13:34:22.111Z</time></trkpt><trkpt lat="43.3861089" lon="11.9832716"><ele>695.0000000000001</ele><time>2026-03-28T13:34:29.122Z</time></trkpt><trkpt lat="43.3860425" lon="11.9832653"><ele>695.0</ele><time>2026-03-28T13:34:35.123Z</time></trkpt><trkpt lat="43.3859768" lon="11.983229"><ele>694.7142857142858</ele><time>2026-03-28T13:34:40.981Z</time></trkpt><trkpt lat="43.3859172" lon="11.9831778"><ele>694.4285714285714</ele><time>2026-03-28T13:34:47.063Z</time></trkpt><trkpt lat="43.385855" lon="11.98315"><ele>694.1428571428571</ele><time>2026-03-28T13:34:53.103Z</time></trkpt><trkpt lat="43.3857912" lon="11.9831436"><ele>693.8571428571429</ele><time>2026-03-28T13:35:00.135Z</time></trkpt><trkpt lat="43.3857214" lon="11.9831326"><ele>693.5714285714286</ele><time>2026-03-28T13:35:08.107Z</time></trkpt><trkpt lat="43.385661" lon="11.9831757"><ele>693.2857142857143</ele><time>2026-03-28T13:35:14.1Z</time></trkpt><trkpt lat="43.385586" lon="11.9831798"><ele>693.0</ele><time>2026-03-28T13:35:21.091Z</time></trkpt><trkpt lat="43.3855169" lon="11.9831991"><ele>692.0</ele><time>2026-03-28T13:35:27.095Z</time></trkpt><trkpt lat="43.3854372" lon="11.983206"><ele>691.0</ele><time>2026-03-28T13:35:33.964Z</time></trkpt><trkpt lat="43.3853606" lon="11.9832068"><ele>690.0</ele><time>2026-03-28T13:35:40.137Z</time></trkpt><trkpt lat="43.3852887" lon="11.9832122"><ele>689.0</ele><time>2026-03-28T13:35:46.135Z</time></trkpt><trkpt lat="43.385224" lon="11.9832449"><ele>688.0</ele><time>2026-03-28T13:35:54.092Z</time></trkpt><trkpt lat="43.3851624" lon="11.9832789"><ele>687.0</ele><time>2026-03-28T13:36:12.075Z</time></trkpt><trkpt lat="43.3851056" lon="11.9833358"><ele>686.0</ele><time>2026-03-28T13:36:20.094Z</time></trkpt><trkpt lat="43.3850374" lon="11.9833659"><ele>686.0</ele><time>2026-03-28T13:36:26.087Z</time></trkpt><trkpt lat="43.3849706" lon="11.9833631"><ele>686.0</ele><time>2026-03-28T13:36:32.095Z</time></trkpt><trkpt lat="43.3849095" lon="11.9833318"><ele>686.0</ele><time>2026-03-28T13:36:39.086Z</time></trkpt><trkpt lat="43.3848359" lon="11.983341"><ele>686.0</ele><time>2026-03-28T13:36:45.074Z</time></trkpt><trkpt lat="43.3847692" lon="11.9833652"><ele>686.0</ele><time>2026-03-28T13:36:51.087Z</time></trkpt><trkpt lat="43.3847058" lon="11.9833888"><ele>686.0</ele><time>2026-03-28T13:36:57.108Z</time></trkpt><trkpt lat="43.384649" lon="11.9834444"><ele>686.0</ele><time>2026-03-28T13:37:04.073Z</time></trkpt><trkpt lat="43.3846185" lon="11.9835372"><ele>686.0</ele><time>2026-03-28T13:37:10.085Z</time></trkpt><trkpt lat="43.3846011" lon="11.9836211"><ele>686.0</ele><time>2026-03-28T13:37:13.076Z</time></trkpt><trkpt lat="43.3845716" lon="11.9837292"><ele>686.0</ele><time>2026-03-28T13:37:17.115Z</time></trkpt><trkpt lat="43.3845427" lon="11.9838247"><ele>686.0</ele><time>2026-03-28T13:37:21.015Z</time></trkpt><trkpt lat="43.3845046" lon="11.9839216"><ele>686.0</ele><time>2026-03-28T13:37:25.124Z</time></trkpt><trkpt lat="43.384473" lon="11.9840079"><ele>686.0</ele><time>2026-03-28T13:37:29.038Z</time></trkpt><trkpt lat="43.3844458" lon="11.9840948"><ele>686.0</ele><time>2026-03-28T13:37:33.082Z</time></trkpt><trkpt lat="43.3844164" lon="11.9841841"><ele>687.0</ele><time>2026-03-28T13:37:37.098Z</time></trkpt><trkpt lat="43.3843854" lon="11.9842714"><ele>688.0</ele><time>2026-03-28T13:37:41.117Z</time></trkpt><trkpt lat="43.3843415" lon="11.9843532"><ele>689.0</ele><time>2026-03-28T13:37:45.092Z</time></trkpt><trkpt lat="43.3842793" lon="11.9844132"><ele>690.0</ele><time>2026-03-28T13:37:49.089Z</time></trkpt><trkpt lat="43.3842079" lon="11.9844459"><ele>691.0</ele><time>2026-03-28T13:37:53.096Z</time></trkpt><trkpt lat="43.3841644" lon="11.9845158"><ele>692.0</ele><time>2026-03-28T13:37:57.053Z</time></trkpt><trkpt lat="43.3841044" lon="11.984576"><ele>693.0</ele><time>2026-03-28T13:38:02.098Z</time></trkpt><trkpt lat="43.3840391" lon="11.9846044"><ele>693.0</ele><time>2026-03-28T13:38:08.079Z</time></trkpt><trkpt lat="43.3839793" lon="11.9846504"><ele>693.0</ele><time>2026-03-28T13:38:14.113Z</time></trkpt><trkpt lat="43.3839115" lon="11.9846871"><ele>693.0</ele><time>2026-03-28T13:38:21.997Z</time></trkpt><trkpt lat="43.383856" lon="11.9847378"><ele>693.0</ele><time>2026-03-28T13:38:27.106Z</time></trkpt><trkpt lat="43.3837969" lon="11.9847782"><ele>693.0</ele><time>2026-03-28T13:38:35.078Z</time></trkpt><trkpt lat="43.3837341" lon="11.984818"><ele>693.0</ele><time>2026-03-28T13:38:40.096Z</time></trkpt><trkpt lat="43.3836586" lon="11.9848233"><ele>693.0</ele><time>2026-03-28T13:38:46.086Z</time></trkpt><trkpt lat="43.3836004" lon="11.984864"><ele>694.5714285714286</ele><time>2026-03-28T13:38:51.126Z</time></trkpt><trkpt lat="43.3835414" lon="11.9849012"><ele>696.1428571428571</ele><time>2026-03-28T13:38:56.037Z</time></trkpt><trkpt lat="43.3834871" lon="11.984951"><ele>697.7142857142858</ele><time>2026-03-28T13:39:03.113Z</time></trkpt><trkpt lat="43.3834262" lon="11.9849973"><ele>699.2857142857142</ele><time>2026-03-28T13:39:09.076Z</time></trkpt><trkpt lat="43.3833681" lon="11.9850332"><ele>700.8571428571429</ele><time>2026-03-28T13:39:14.1Z</time></trkpt><trkpt lat="43.3833074" lon="11.9850618"><ele>702.4285714285714</ele><time>2026-03-28T13:39:19.041Z</time></trkpt><trkpt lat="43.3832432" lon="11.985102"><ele>704.0</ele><time>2026-03-28T13:39:25.094Z</time></trkpt><trkpt lat="43.3831741" lon="11.9851204"><ele>705.2857142857143</ele><time>2026-03-28T13:39:31.091Z</time></trkpt><trkpt lat="43.3831039" lon="11.9851564"><ele>706.5714285714286</ele><time>2026-03-28T13:39:37.073Z</time></trkpt><trkpt lat="43.383055" lon="11.9852178"><ele>707.8571428571429</ele><time>2026-03-28T13:39:41.077Z</time></trkpt><trkpt lat="43.3830057" lon="11.9852873"><ele>709.1428571428571</ele><time>2026-03-28T13:39:46.079Z</time></trkpt><trkpt lat="43.3829386" lon="11.985323"><ele>710.4285714285714</ele><time>2026-03-28T13:39:51.093Z</time></trkpt><trkpt lat="43.382877" lon="11.9853518"><ele>711.7142857142857</ele><time>2026-03-28T13:39:55.046Z</time></trkpt><trkpt lat="43.3828096" lon="11.9853844"><ele>713.0</ele><time>2026-03-28T13:40:00.103Z</time></trkpt><trkpt lat="43.382755" lon="11.9854311"><ele>713.0</ele><time>2026-03-28T13:40:05.076Z</time></trkpt><trkpt lat="43.3826904" lon="11.9854548"><ele>713.0</ele><time>2026-03-28T13:40:10.072Z</time></trkpt><trkpt lat="43.3826315" lon="11.9854899"><ele>713.0</ele><time>2026-03-28T13:40:14.082Z</time></trkpt><trkpt lat="43.3825646" lon="11.9855363"><ele>713.0</ele><time>2026-03-28T13:40:18.081Z</time></trkpt><trkpt lat="43.3825001" lon="11.9855867"><ele>713.0</ele><time>2026-03-28T13:40:22.115Z</time></trkpt><trkpt lat="43.3824511" lon="11.9856488"><ele>713.0</ele><time>2026-03-28T13:40:26.101Z</time></trkpt><trkpt lat="43.3823905" lon="11.985719"><ele>713.0</ele><time>2026-03-28T13:40:30.097Z</time></trkpt><trkpt lat="43.3823471" lon="11.9857894"><ele>713.6666666666666</ele><time>2026-03-28T13:40:33.109Z</time></trkpt><trkpt lat="43.3822842" lon="11.9858452"><ele>714.3333333333333</ele><time>2026-03-28T13:40:37.085Z</time></trkpt><trkpt lat="43.3822234" lon="11.9859053"><ele>715.0</ele><time>2026-03-28T13:40:42.114Z</time></trkpt><trkpt lat="43.3821485" lon="11.9859144"><ele>715.6666666666666</ele><time>2026-03-28T13:40:46.095Z</time></trkpt><trkpt lat="43.3820728" lon="11.9859595"><ele>716.3333333333334</ele><time>2026-03-28T13:40:50.055Z</time></trkpt><trkpt lat="43.3820138" lon="11.9859947"><ele>717.0</ele><time>2026-03-28T13:40:53.063Z</time></trkpt><trkpt lat="43.3819395" lon="11.9860268"><ele>717.7142857142857</ele><time>2026-03-28T13:40:57.087Z</time></trkpt><trkpt lat="43.3818738" lon="11.9860613"><ele>718.4285714285713</ele><time>2026-03-28T13:41:01.077Z</time></trkpt><trkpt lat="43.3818111" lon="11.9860985"><ele>719.1428571428571</ele><time>2026-03-28T13:41:05.094Z</time></trkpt><trkpt lat="43.3817503" lon="11.9861408"><ele>719.8571428571429</ele><time>2026-03-28T13:41:09.035Z</time></trkpt><trkpt lat="43.3816766" lon="11.9861378"><ele>720.5714285714286</ele><time>2026-03-28T13:41:13.102Z</time></trkpt><trkpt lat="43.381604" lon="11.9861481"><ele>721.2857142857143</ele><time>2026-03-28T13:41:17.096Z</time></trkpt><trkpt lat="43.3815268" lon="11.9861896"><ele>722.0</ele><time>2026-03-28T13:41:21.068Z</time></trkpt><trkpt lat="43.3814736" lon="11.9862371"><ele>722.0</ele><time>2026-03-28T13:41:25.082Z</time></trkpt><trkpt lat="43.3814173" lon="11.9862904"><ele>722.0</ele><time>2026-03-28T13:41:30.095Z</time></trkpt><trkpt lat="43.3813385" lon="11.9863219"><ele>722.0</ele><time>2026-03-28T13:41:34.041Z</time></trkpt><trkpt lat="43.3812718" lon="11.9863313"><ele>722.0</ele><time>2026-03-28T13:41:37.249Z</time></trkpt><trkpt lat="43.3811913" lon="11.9863264"><ele>722.0</ele><time>2026-03-28T13:41:40.512Z</time></trkpt><trkpt lat="43.3811134" lon="11.9863035"><ele>722.0</ele><time>2026-03-28T13:41:43.727Z</time></trkpt><trkpt lat="43.3810449" lon="11.9862857"><ele>722.0</ele><time>2026-03-28T13:41:46.906Z</time></trkpt><trkpt lat="43.3809844" lon="11.9862589"><ele>722.4285714285714</ele><time>2026-03-28T13:41:50.163Z</time></trkpt><trkpt lat="43.3809043" lon="11.9862315"><ele>722.8571428571428</ele><time>2026-03-28T13:41:54.085Z</time></trkpt><trkpt lat="43.380838" lon="11.9862363"><ele>723.2857142857142</ele><time>2026-03-28T13:41:57.197Z</time></trkpt><trkpt lat="43.3807743" lon="11.9861958"><ele>723.7142857142858</ele><time>2026-03-28T13:42:00.098Z</time></trkpt><trkpt lat="43.3807324" lon="11.9861297"><ele>724.1428571428571</ele><time>2026-03-28T13:42:03.089Z</time></trkpt><trkpt lat="43.3806977" lon="11.9860497"><ele>724.5714285714286</ele><time>2026-03-28T13:42:07.101Z</time></trkpt><trkpt lat="43.3806661" lon="11.9859686"><ele>725.0</ele><time>2026-03-28T13:42:11.133Z</time></trkpt><trkpt lat="43.3806112" lon="11.9858942"><ele>725.0</ele><time>2026-03-28T13:42:15.097Z</time></trkpt><trkpt lat="43.3805362" lon="11.9858615"><ele>725.0</ele><time>2026-03-28T13:42:19.012Z</time></trkpt><trkpt lat="43.3804605" lon="11.9858527"><ele>725.0</ele><time>2026-03-28T13:42:23.083Z</time></trkpt><trkpt lat="43.3803896" lon="11.98585"><ele>725.0</ele><time>2026-03-28T13:42:27.073Z</time></trkpt><trkpt lat="43.3803231" lon="11.9858316"><ele>725.0</ele><time>2026-03-28T13:42:31.11Z</time></trkpt><trkpt lat="43.380251" lon="11.9858479"><ele>725.0</ele><time>2026-03-28T13:42:36.057Z</time></trkpt><trkpt lat="43.3801883" lon="11.9858826"><ele>725.0</ele><time>2026-03-28T13:42:40.095Z</time></trkpt><trkpt lat="43.3801145" lon="11.9858829"><ele>726.6666666666666</ele><time>2026-03-28T13:42:45.083Z</time></trkpt><trkpt lat="43.3800372" lon="11.9858482"><ele>728.3333333333333</ele><time>2026-03-28T13:42:50.091Z</time></trkpt><trkpt lat="43.3799633" lon="11.9858363"><ele>730.0</ele><time>2026-03-28T13:42:54.029Z</time></trkpt><trkpt lat="43.3798975" lon="11.9857766"><ele>731.6666666666666</ele><time>2026-03-28T13:43:01.081Z</time></trkpt><trkpt lat="43.3798343" lon="11.9857265"><ele>733.3333333333334</ele><time>2026-03-28T13:43:04.086Z</time></trkpt><trkpt lat="43.3797784" lon="11.9856809"><ele>735.0</ele><time>2026-03-28T13:43:07.116Z</time></trkpt><trkpt lat="43.3797187" lon="11.9856088"><ele>731.8571428571429</ele><time>2026-03-28T13:43:11.078Z</time></trkpt><trkpt lat="43.3796711" lon="11.9855335"><ele>728.7142857142858</ele><time>2026-03-28T13:43:15.072Z</time></trkpt><trkpt lat="43.3796214" lon="11.9854668"><ele>725.5714285714286</ele><time>2026-03-28T13:43:19.034Z</time></trkpt><trkpt lat="43.3795806" lon="11.9853789"><ele>722.4285714285714</ele><time>2026-03-28T13:43:24.088Z</time></trkpt><trkpt lat="43.3795361" lon="11.9852868"><ele>719.2857142857143</ele><time>2026-03-28T13:43:29.165Z</time></trkpt><trkpt lat="43.3795184" lon="11.9851967"><ele>716.1428571428571</ele><time>2026-03-28T13:43:33.107Z</time></trkpt><trkpt lat="43.3795089" lon="11.9850978"><ele>713.0</ele><time>2026-03-28T13:43:38.106Z</time></trkpt><trkpt lat="43.3794806" lon="11.9850139"><ele>712.4285714285714</ele><time>2026-03-28T13:43:43.094Z</time></trkpt><trkpt lat="43.3794492" lon="11.9849367"><ele>711.8571428571429</ele><time>2026-03-28T13:43:48.101Z</time></trkpt><trkpt lat="43.3794145" lon="11.9848566"><ele>711.2857142857143</ele><time>2026-03-28T13:43:53.08Z</time></trkpt><trkpt lat="43.3793635" lon="11.9847861"><ele>710.7142857142858</ele><time>2026-03-28T13:43:58.071Z</time></trkpt><trkpt lat="43.3793398" lon="11.9846926"><ele>710.1428571428571</ele><time>2026-03-28T13:44:04.086Z</time></trkpt><trkpt lat="43.3792795" lon="11.9846315"><ele>709.5714285714287</ele><time>2026-03-28T13:44:08.002Z</time></trkpt><trkpt lat="43.3792223" lon="11.9845905"><ele>709.0</ele><time>2026-03-28T13:44:12.085Z</time></trkpt><trkpt lat="43.3791818" lon="11.9845195"><ele>709.0000000000001</ele><time>2026-03-28T13:44:16.087Z</time></trkpt><trkpt lat="43.3791517" lon="11.9844246"><ele>709.0</ele><time>2026-03-28T13:44:21.051Z</time></trkpt><trkpt lat="43.3791233" lon="11.9843455"><ele>709.0</ele><time>2026-03-28T13:44:25.127Z</time></trkpt><trkpt lat="43.3790975" lon="11.9842541"><ele>709.0</ele><time>2026-03-28T13:44:29.061Z</time></trkpt><trkpt lat="43.3790708" lon="11.9841658"><ele>709.0</ele><time>2026-03-28T13:44:32.992Z</time></trkpt><trkpt lat="43.3790382" lon="11.9840824"><ele>709.0000000000001</ele><time>2026-03-28T13:44:37.048Z</time></trkpt><trkpt lat="43.3790124" lon="11.9839994"><ele>709.0</ele><time>2026-03-28T13:44:41.107Z</time></trkpt><trkpt lat="43.3790025" lon="11.983911"><ele>710.4285714285714</ele><time>2026-03-28T13:44:45.088Z</time></trkpt><trkpt lat="43.3790034" lon="11.983809"><ele>711.8571428571429</ele><time>2026-03-28T13:44:49.084Z</time></trkpt><trkpt lat="43.3789984" lon="11.9836989"><ele>713.2857142857142</ele><time>2026-03-28T13:44:53.092Z</time></trkpt><trkpt lat="43.3789912" lon="11.9836042"><ele>714.7142857142858</ele><time>2026-03-28T13:44:57.098Z</time></trkpt><trkpt lat="43.3789908" lon="11.9834999"><ele>716.1428571428571</ele><time>2026-03-28T13:45:03.077Z</time></trkpt><trkpt lat="43.3790135" lon="11.9834105"><ele>717.5714285714286</ele><time>2026-03-28T13:45:07.095Z</time></trkpt><trkpt lat="43.379018" lon="11.9833234"><ele>719.0</ele><time>2026-03-28T13:45:11.049Z</time></trkpt><trkpt lat="43.3790467" lon="11.9832333"><ele>720.0</ele><time>2026-03-28T13:45:15.095Z</time></trkpt><trkpt lat="43.3790492" lon="11.9831236"><ele>721.0</ele><time>2026-03-28T13:45:19.095Z</time></trkpt><trkpt lat="43.3790303" lon="11.983011"><ele>722.0</ele><time>2026-03-28T13:45:23.083Z</time></trkpt><trkpt lat="43.379006" lon="11.9829277"><ele>723.0</ele><time>2026-03-28T13:45:26.086Z</time></trkpt><trkpt lat="43.3789858" lon="11.9828162"><ele>724.0</ele><time>2026-03-28T13:45:30.093Z</time></trkpt><trkpt lat="43.3789669" lon="11.9827288"><ele>725.0</ele><time>2026-03-28T13:45:33.1Z</time></trkpt><trkpt lat="43.3789359" lon="11.9826327"><ele>725.0</ele><time>2026-03-28T13:45:37.07Z</time></trkpt><trkpt lat="43.3789007" lon="11.9825283"><ele>725.0</ele><time>2026-03-28T13:45:42.105Z</time></trkpt><trkpt lat="43.3788764" lon="11.9824373"><ele>725.0</ele><time>2026-03-28T13:45:45.989Z</time></trkpt><trkpt lat="43.3788297" lon="11.9823549"><ele>725.0</ele><time>2026-03-28T13:45:50.095Z</time></trkpt><trkpt lat="43.378787" lon="11.9822613"><ele>725.0</ele><time>2026-03-28T13:45:54.1Z</time></trkpt><trkpt lat="43.3787466" lon="11.9821903"><ele>725.0</ele><time>2026-03-28T13:45:57.097Z</time></trkpt><trkpt lat="43.3786985" lon="11.9820972"><ele>723.4285714285714</ele><time>2026-03-28T13:46:01.07Z</time></trkpt><trkpt lat="43.3786492" lon="11.98202"><ele>721.8571428571429</ele><time>2026-03-28T13:46:04.096Z</time></trkpt><trkpt lat="43.37859" lon="11.9819746"><ele>720.2857142857142</ele><time>2026-03-28T13:46:08.07Z</time></trkpt><trkpt lat="43.3785405" lon="11.9818892"><ele>718.7142857142858</ele><time>2026-03-28T13:46:12.104Z</time></trkpt><trkpt lat="43.3784817" lon="11.9818127"><ele>717.1428571428571</ele><time>2026-03-28T13:46:16.124Z</time></trkpt><trkpt lat="43.3784336" lon="11.9817313"><ele>715.5714285714286</ele><time>2026-03-28T13:46:20.088Z</time></trkpt><trkpt lat="43.3783802" lon="11.981679"><ele>714.0</ele><time>2026-03-28T13:46:23.081Z</time></trkpt><trkpt lat="43.3783212" lon="11.9816108"><ele>714.0</ele><time>2026-03-28T13:46:27.094Z</time></trkpt><trkpt lat="43.3782424" lon="11.9815858"><ele>714.0</ele><time>2026-03-28T13:46:31.044Z</time></trkpt><trkpt lat="43.3781649" lon="11.9815367"><ele>714.0</ele><time>2026-03-28T13:46:35.088Z</time></trkpt><trkpt lat="43.3781087" lon="11.9814547"><ele>714.0</ele><time>2026-03-28T13:46:39.038Z</time></trkpt><trkpt lat="43.3780322" lon="11.9814235"><ele>714.0</ele><time>2026-03-28T13:46:43.115Z</time></trkpt><trkpt lat="43.3779672" lon="11.9814397"><ele>714.0</ele><time>2026-03-28T13:46:46.051Z</time></trkpt><trkpt lat="43.3779016" lon="11.9814442"><ele>712.7142857142857</ele><time>2026-03-28T13:46:49.096Z</time></trkpt><trkpt lat="43.3778384" lon="11.9814355"><ele>711.4285714285714</ele><time>2026-03-28T13:46:52.102Z</time></trkpt><trkpt lat="43.3777601" lon="11.9814372"><ele>710.1428571428571</ele><time>2026-03-28T13:46:56.104Z</time></trkpt><trkpt lat="43.3776912" lon="11.9814352"><ele>708.8571428571429</ele><time>2026-03-28T13:47:00.029Z</time></trkpt><trkpt lat="43.3776078" lon="11.9814324"><ele>707.5714285714286</ele><time>2026-03-28T13:47:04.121Z</time></trkpt><trkpt lat="43.3775416" lon="11.9814561"><ele>706.2857142857142</ele><time>2026-03-28T13:47:07.09Z</time></trkpt><trkpt lat="43.377478" lon="11.9814724"><ele>705.0</ele><time>2026-03-28T13:47:10.113Z</time></trkpt><trkpt lat="43.3774116" lon="11.9814655"><ele>704.9999999999999</ele><time>2026-03-28T13:47:13.126Z</time></trkpt><trkpt lat="43.3773402" lon="11.9814631"><ele>705.0</ele><time>2026-03-28T13:47:16.048Z</time></trkpt><trkpt lat="43.3772656" lon="11.9814555"><ele>705.0</ele><time>2026-03-28T13:47:19.118Z</time></trkpt><trkpt lat="43.3771907" lon="11.9814579"><ele>705.0</ele><time>2026-03-28T13:47:22.119Z</time></trkpt><trkpt lat="43.3771197" lon="11.9814577"><ele>705.0</ele><time>2026-03-28T13:47:25.115Z</time></trkpt><trkpt lat="43.3770538" lon="11.9814424"><ele>704.9999999999999</ele><time>2026-03-28T13:47:28.126Z</time></trkpt><trkpt lat="43.3769867" lon="11.981444"><ele>705.0</ele><time>2026-03-28T13:47:31.105Z</time></trkpt><trkpt lat="43.3769103" lon="11.9814496"><ele>704.1666666666666</ele><time>2026-03-28T13:47:35.092Z</time></trkpt><trkpt lat="43.376832" lon="11.9814378"><ele>703.3333333333334</ele><time>2026-03-28T13:47:39.013Z</time></trkpt><trkpt lat="43.3767568" lon="11.9814604"><ele>702.5</ele><time>2026-03-28T13:47:43.065Z</time></trkpt><trkpt lat="43.3766851" lon="11.9814874"><ele>701.6666666666667</ele><time>2026-03-28T13:47:47.077Z</time></trkpt><trkpt lat="43.3766147" lon="11.9815168"><ele>700.8333333333334</ele><time>2026-03-28T13:47:51.115Z</time></trkpt><trkpt lat="43.3765387" lon="11.9814983"><ele>700.0</ele><time>2026-03-28T13:47:55.101Z</time></trkpt><trkpt lat="43.3764894" lon="11.9814131"><ele>700.0</ele><time>2026-03-28T13:47:59.104Z</time></trkpt><trkpt lat="43.3764766" lon="11.9813121"><ele>700.0</ele><time>2026-03-28T13:48:03.092Z</time></trkpt><trkpt lat="43.3764951" lon="11.9812275"><ele>700.0</ele><time>2026-03-28T13:48:07.01Z</time></trkpt><trkpt lat="43.3764825" lon="11.9811384"><ele>700.0</ele><time>2026-03-28T13:48:14.083Z</time></trkpt><trkpt lat="43.3764659" lon="11.9810409"><ele>700.0</ele><time>2026-03-28T13:48:20.077Z</time></trkpt><trkpt lat="43.3764466" lon="11.9809561"><ele>700.0</ele><time>2026-03-28T13:48:24.084Z</time></trkpt><trkpt lat="43.3764531" lon="11.9808596"><ele>700.0</ele><time>2026-03-28T13:48:27.109Z</time></trkpt><trkpt lat="43.3764671" lon="11.9807586"><ele>699.5</ele><time>2026-03-28T13:48:30.988Z</time></trkpt><trkpt lat="43.3764778" lon="11.9806481"><ele>699.0</ele><time>2026-03-28T13:48:35.097Z</time></trkpt><trkpt lat="43.3764596" lon="11.9805622"><ele>698.5</ele><time>2026-03-28T13:48:38.09Z</time></trkpt><trkpt lat="43.3764495" lon="11.9804628"><ele>698.0</ele><time>2026-03-28T13:48:41.091Z</time></trkpt><trkpt lat="43.3764279" lon="11.9803656"><ele>697.5</ele><time>2026-03-28T13:48:44.083Z</time></trkpt><trkpt lat="43.3764102" lon="11.9802603"><ele>697.0</ele><time>2026-03-28T13:48:47.08Z</time></trkpt><trkpt lat="43.3763868" lon="11.9801578"><ele>697.0</ele><time>2026-03-28T13:48:50.098Z</time></trkpt><trkpt lat="43.3763534" lon="11.9800579"><ele>697.0</ele><time>2026-03-28T13:48:53.108Z</time></trkpt><trkpt lat="43.3763257" lon="11.9799563"><ele>697.0</ele><time>2026-03-28T13:48:56.106Z</time></trkpt><trkpt lat="43.3763064" lon="11.9798686"><ele>697.0</ele><time>2026-03-28T13:48:59.076Z</time></trkpt><trkpt lat="43.3762832" lon="11.9797836"><ele>697.0</ele><time>2026-03-28T13:49:02.026Z</time></trkpt><trkpt lat="43.3762602" lon="11.9796952"><ele>697.0</ele><time>2026-03-28T13:49:05.097Z</time></trkpt><trkpt lat="43.376247" lon="11.9795963"><ele>697.0</ele><time>2026-03-28T13:49:09.029Z</time></trkpt><trkpt lat="43.376253" lon="11.9794961"><ele>694.1428571428571</ele><time>2026-03-28T13:49:13.144Z</time></trkpt><trkpt lat="43.3762073" lon="11.9794116"><ele>691.2857142857142</ele><time>2026-03-28T13:49:17.115Z</time></trkpt><trkpt lat="43.376175" lon="11.9793214"><ele>688.4285714285713</ele><time>2026-03-28T13:49:21.067Z</time></trkpt><trkpt lat="43.376146" lon="11.9792416"><ele>685.5714285714286</ele><time>2026-03-28T13:49:26.082Z</time></trkpt><trkpt lat="43.3761113" lon="11.9791531"><ele>682.7142857142857</ele><time>2026-03-28T13:49:32.102Z</time></trkpt><trkpt lat="43.3760607" lon="11.9790873"><ele>679.8571428571428</ele><time>2026-03-28T13:49:37.106Z</time></trkpt><trkpt lat="43.3760212" lon="11.9790109"><ele>677.0</ele><time>2026-03-28T13:49:42.1Z</time></trkpt><trkpt lat="43.3759723" lon="11.9789535"><ele>676.9999999999999</ele><time>2026-03-28T13:49:46.091Z</time></trkpt><trkpt lat="43.3759276" lon="11.9788813"><ele>677.0</ele><time>2026-03-28T13:49:50.116Z</time></trkpt><trkpt lat="43.3758671" lon="11.9788241"><ele>677.0</ele><time>2026-03-28T13:49:54.628Z</time></trkpt><trkpt lat="43.3758251" lon="11.9787393"><ele>677.0</ele><time>2026-03-28T13:49:59.024Z</time></trkpt><trkpt lat="43.3757863" lon="11.9786679"><ele>677.0</ele><time>2026-03-28T13:50:03.09Z</time></trkpt><trkpt lat="43.375743" lon="11.9785854"><ele>676.9999999999999</ele><time>2026-03-28T13:50:07.044Z</time></trkpt><trkpt lat="43.37572" lon="11.9784866"><ele>677.0</ele><time>2026-03-28T13:50:11.102Z</time></trkpt><trkpt lat="43.3756851" lon="11.9783847"><ele>678.8571428571428</ele><time>2026-03-28T13:50:15.085Z</time></trkpt><trkpt lat="43.3756574" lon="11.9782998"><ele>680.7142857142857</ele><time>2026-03-28T13:50:18.108Z</time></trkpt><trkpt lat="43.3756431" lon="11.9782086"><ele>682.5714285714286</ele><time>2026-03-28T13:50:21.102Z</time></trkpt><trkpt lat="43.3756198" lon="11.9781118"><ele>684.4285714285713</ele><time>2026-03-28T13:50:24.13Z</time></trkpt><trkpt lat="43.3756008" lon="11.9780108"><ele>686.2857142857142</ele><time>2026-03-28T13:50:27.111Z</time></trkpt><trkpt lat="43.3755785" lon="11.9779182"><ele>688.1428571428571</ele><time>2026-03-28T13:50:30.113Z</time></trkpt><trkpt lat="43.3755655" lon="11.9778112"><ele>690.0</ele><time>2026-03-28T13:50:34.081Z</time></trkpt><trkpt lat="43.3755456" lon="11.9777102"><ele>690.0</ele><time>2026-03-28T13:50:38.114Z</time></trkpt><trkpt lat="43.3755349" lon="11.9776238"><ele>690.0</ele><time>2026-03-28T13:50:41.071Z</time></trkpt><trkpt lat="43.3755276" lon="11.977521"><ele>690.0</ele><time>2026-03-28T13:50:44.097Z</time></trkpt><trkpt lat="43.3755177" lon="11.977418"><ele>690.0</ele><time>2026-03-28T13:50:47.083Z</time></trkpt><trkpt lat="43.3755133" lon="11.9773216"><ele>690.0</ele><time>2026-03-28T13:50:50.102Z</time></trkpt><trkpt lat="43.3755211" lon="11.9772246"><ele>690.0</ele><time>2026-03-28T13:50:53.094Z</time></trkpt><trkpt lat="43.3755019" lon="11.9771305"><ele>690.0</ele><time>2026-03-28T13:50:56.087Z</time></trkpt><trkpt lat="43.3754912" lon="11.9770445"><ele>687.0</ele><time>2026-03-28T13:50:59.046Z</time></trkpt><trkpt lat="43.3754784" lon="11.976955"><ele>684.0</ele><time>2026-03-28T13:51:02.062Z</time></trkpt><trkpt lat="43.3754541" lon="11.9768487"><ele>681.0</ele><time>2026-03-28T13:51:06.092Z</time></trkpt><trkpt lat="43.375439" lon="11.9767389"><ele>678.0</ele><time>2026-03-28T13:51:10.032Z</time></trkpt><trkpt lat="43.3754443" lon="11.9766183"><ele>675.0</ele><time>2026-03-28T13:51:14.092Z</time></trkpt><trkpt lat="43.3754542" lon="11.9765094"><ele>672.0</ele><time>2026-03-28T13:51:17.095Z</time></trkpt><trkpt lat="43.3754748" lon="11.9763959"><ele>671.2857142857143</ele><time>2026-03-28T13:51:20.095Z</time></trkpt><trkpt lat="43.3754808" lon="11.9762895"><ele>670.5714285714286</ele><time>2026-03-28T13:51:23.066Z</time></trkpt><trkpt lat="43.3754897" lon="11.9761925"><ele>669.8571428571429</ele><time>2026-03-28T13:51:30.105Z</time></trkpt><trkpt lat="43.3754833" lon="11.9760947"><ele>669.1428571428571</ele><time>2026-03-28T13:51:33.109Z</time></trkpt><trkpt lat="43.3754844" lon="11.9760027"><ele>668.4285714285714</ele><time>2026-03-28T13:51:36.072Z</time></trkpt><trkpt lat="43.3754938" lon="11.975903"><ele>667.7142857142858</ele><time>2026-03-28T13:51:40.098Z</time></trkpt><trkpt lat="43.3755148" lon="11.9758197"><ele>667.0</ele><time>2026-03-28T13:51:43.119Z</time></trkpt><trkpt lat="43.375534" lon="11.9757333"><ele>668.8571428571429</ele><time>2026-03-28T13:51:46.078Z</time></trkpt><trkpt lat="43.3755396" lon="11.9756327"><ele>670.7142857142858</ele><time>2026-03-28T13:51:50.102Z</time></trkpt><trkpt lat="43.3755446" lon="11.9755252"><ele>672.5714285714287</ele><time>2026-03-28T13:51:55.043Z</time></trkpt><trkpt lat="43.3755836" lon="11.9754559"><ele>674.4285714285714</ele><time>2026-03-28T13:51:59.09Z</time></trkpt><trkpt lat="43.3756094" lon="11.9753466"><ele>676.2857142857142</ele><time>2026-03-28T13:52:03.096Z</time></trkpt><trkpt lat="43.3756305" lon="11.9752554"><ele>678.1428571428572</ele><time>2026-03-28T13:52:06.026Z</time></trkpt><trkpt lat="43.3756658" lon="11.9751656"><ele>680.0</ele><time>2026-03-28T13:52:09.086Z</time></trkpt><trkpt lat="43.3756931" lon="11.9750781"><ele>678.5714285714286</ele><time>2026-03-28T13:52:12.087Z</time></trkpt><trkpt lat="43.3757216" lon="11.9749957"><ele>677.1428571428571</ele><time>2026-03-28T13:52:15.079Z</time></trkpt><trkpt lat="43.3757424" lon="11.974901"><ele>675.7142857142857</ele><time>2026-03-28T13:52:19.042Z</time></trkpt><trkpt lat="43.3757519" lon="11.9748065"><ele>674.2857142857142</ele><time>2026-03-28T13:52:23.095Z</time></trkpt><trkpt lat="43.3757904" lon="11.9747351"><ele>672.8571428571429</ele><time>2026-03-28T13:52:26.063Z</time></trkpt><trkpt lat="43.3758367" lon="11.9746385"><ele>671.4285714285713</ele><time>2026-03-28T13:52:29.013Z</time></trkpt><trkpt lat="43.3758337" lon="11.974551"><ele>670.0</ele><time>2026-03-28T13:52:31.993Z</time></trkpt><trkpt lat="43.3758229" lon="11.9744486"><ele>670.0</ele><time>2026-03-28T13:52:35.05Z</time></trkpt><trkpt lat="43.3758343" lon="11.9743405"><ele>670.0</ele><time>2026-03-28T13:52:39.109Z</time></trkpt><trkpt lat="43.375864" lon="11.9742432"><ele>670.0</ele><time>2026-03-28T13:52:43.072Z</time></trkpt><trkpt lat="43.3758708" lon="11.9741322"><ele>670.0</ele><time>2026-03-28T13:52:47.107Z</time></trkpt><trkpt lat="43.3758647" lon="11.9740255"><ele>670.0</ele><time>2026-03-28T13:52:51.112Z</time></trkpt><trkpt lat="43.37583" lon="11.9739401"><ele>670.0</ele><time>2026-03-28T13:52:54.115Z</time></trkpt><trkpt lat="43.3757873" lon="11.9738468"><ele>669.9999999999999</ele><time>2026-03-28T13:52:57.096Z</time></trkpt><trkpt lat="43.3757509" lon="11.9737726"><ele>670.0</ele><time>2026-03-28T13:53:00.122Z</time></trkpt><trkpt lat="43.3757117" lon="11.9736955"><ele>670.0</ele><time>2026-03-28T13:53:04.102Z</time></trkpt><trkpt lat="43.3757235" lon="11.9735828"><ele>670.0</ele><time>2026-03-28T13:53:09.075Z</time></trkpt><trkpt lat="43.3757124" lon="11.9734815"><ele>670.0</ele><time>2026-03-28T13:53:13.132Z</time></trkpt><trkpt lat="43.3757057" lon="11.9733863"><ele>669.9999999999999</ele><time>2026-03-28T13:53:17.111Z</time></trkpt><trkpt lat="43.3756937" lon="11.9732907"><ele>670.0</ele><time>2026-03-28T13:53:21.094Z</time></trkpt><trkpt lat="43.3756809" lon="11.9731996"><ele>669.9999999999999</ele><time>2026-03-28T13:53:24.992Z</time></trkpt><trkpt lat="43.3756929" lon="11.9731078"><ele>670.0</ele><time>2026-03-28T13:53:28.105Z</time></trkpt><trkpt lat="43.3756809" lon="11.9730166"><ele>670.0</ele><time>2026-03-28T13:53:31.125Z</time></trkpt><trkpt lat="43.3756787" lon="11.9729214"><ele>670.0</ele><time>2026-03-28T13:53:34.148Z</time></trkpt><trkpt lat="43.3756741" lon="11.9728212"><ele>670.0</ele><time>2026-03-28T13:53:37.047Z</time></trkpt><trkpt lat="43.3756669" lon="11.9727106"><ele>669.9999999999999</ele><time>2026-03-28T13:53:41.084Z</time></trkpt><trkpt lat="43.3757002" lon="11.9726173"><ele>670.0</ele><time>2026-03-28T13:53:44.071Z</time></trkpt><trkpt lat="43.3757215" lon="11.9725108"><ele>669.7142857142857</ele><time>2026-03-28T13:53:48.095Z</time></trkpt><trkpt lat="43.3757036" lon="11.9724193"><ele>669.4285714285714</ele><time>2026-03-28T13:53:51.097Z</time></trkpt><trkpt lat="43.375722" lon="11.9723254"><ele>669.1428571428571</ele><time>2026-03-28T13:53:54.078Z</time></trkpt><trkpt lat="43.3757544" lon="11.9722369"><ele>668.8571428571429</ele><time>2026-03-28T13:53:57.067Z</time></trkpt><trkpt lat="43.3757706" lon="11.9721265"><ele>668.5714285714286</ele><time>2026-03-28T13:54:01.067Z</time></trkpt><trkpt lat="43.3757908" lon="11.9720352"><ele>668.2857142857142</ele><time>2026-03-28T13:54:05.024Z</time></trkpt><trkpt lat="43.3758404" lon="11.9719662"><ele>668.0</ele><time>2026-03-28T13:54:12.044Z</time></trkpt><trkpt lat="43.3758411" lon="11.9718554"><ele>668.0</ele><time>2026-03-28T13:54:15.091Z</time></trkpt><trkpt lat="43.3758373" lon="11.9717413"><ele>668.0</ele><time>2026-03-28T13:54:18.105Z</time></trkpt><trkpt lat="43.3758305" lon="11.9716273"><ele>668.0</ele><time>2026-03-28T13:54:21.11Z</time></trkpt><trkpt lat="43.3758509" lon="11.9715219"><ele>668.0</ele><time>2026-03-28T13:54:24.071Z</time></trkpt><trkpt lat="43.3758935" lon="11.9714323"><ele>668.0</ele><time>2026-03-28T13:54:27.021Z</time></trkpt><trkpt lat="43.3758954" lon="11.9713421"><ele>668.0</ele><time>2026-03-28T13:54:30.076Z</time></trkpt><trkpt lat="43.3758843" lon="11.9712554"><ele>667.4285714285714</ele><time>2026-03-28T13:54:33.079Z</time></trkpt><trkpt lat="43.375883" lon="11.9711442"><ele>666.8571428571429</ele><time>2026-03-28T13:54:37.097Z</time></trkpt><trkpt lat="43.3758574" lon="11.971034"><ele>666.2857142857142</ele><time>2026-03-28T13:54:41.091Z</time></trkpt><trkpt lat="43.3758299" lon="11.970956"><ele>665.7142857142858</ele><time>2026-03-28T13:54:44.068Z</time></trkpt><trkpt lat="43.3758194" lon="11.970867"><ele>665.1428571428572</ele><time>2026-03-28T13:54:47.1Z</time></trkpt><trkpt lat="43.3757796" lon="11.970771"><ele>664.5714285714286</ele><time>2026-03-28T13:54:51.065Z</time></trkpt><trkpt lat="43.3757379" lon="11.9706884"><ele>664.0</ele><time>2026-03-28T13:54:55.097Z</time></trkpt><trkpt lat="43.3757192" lon="11.9705844"><ele>663.5714285714286</ele><time>2026-03-28T13:54:59.084Z</time></trkpt><trkpt lat="43.3756954" lon="11.9704717"><ele>663.1428571428572</ele><time>2026-03-28T13:55:03.083Z</time></trkpt><trkpt lat="43.375675" lon="11.9703656"><ele>662.7142857142858</ele><time>2026-03-28T13:55:07.056Z</time></trkpt><trkpt lat="43.3756742" lon="11.9702746"><ele>662.2857142857142</ele><time>2026-03-28T13:55:11.024Z</time></trkpt><trkpt lat="43.3756927" lon="11.9701898"><ele>661.8571428571429</ele><time>2026-03-28T13:55:16.086Z</time></trkpt><trkpt lat="43.375696" lon="11.9700955"><ele>661.4285714285714</ele><time>2026-03-28T13:55:21.102Z</time></trkpt><trkpt lat="43.375694" lon="11.9700009"><ele>661.0</ele><time>2026-03-28T13:55:27.071Z</time></trkpt><trkpt lat="43.3756842" lon="11.9699015"><ele>662.0</ele><time>2026-03-28T13:55:32.079Z</time></trkpt><trkpt lat="43.3756584" lon="11.9697987"><ele>663.0</ele><time>2026-03-28T13:55:37.076Z</time></trkpt><trkpt lat="43.3756347" lon="11.9697001"><ele>664.0</ele><time>2026-03-28T13:55:41.58Z</time></trkpt><trkpt lat="43.3756086" lon="11.9696066"><ele>665.0</ele><time>2026-03-28T13:55:46.09Z</time></trkpt><trkpt lat="43.3755648" lon="11.9695141"><ele>666.0</ele><time>2026-03-28T13:55:51.024Z</time></trkpt><trkpt lat="43.3755678" lon="11.9694178"><ele>667.0</ele><time>2026-03-28T13:55:56.119Z</time></trkpt><trkpt lat="43.375558" lon="11.9693268"><ele>668.0</ele><time>2026-03-28T13:56:00.022Z</time></trkpt><trkpt lat="43.3755571" lon="11.9692254"><ele>668.0</ele><time>2026-03-28T13:56:04.102Z</time></trkpt><trkpt lat="43.3755685" lon="11.969114"><ele>668.0</ele><time>2026-03-28T13:56:08.114Z</time></trkpt><trkpt lat="43.3755443" lon="11.9690239"><ele>668.0</ele><time>2026-03-28T13:56:11.073Z</time></trkpt><trkpt lat="43.3755217" lon="11.9689382"><ele>668.0</ele><time>2026-03-28T13:56:15.043Z</time></trkpt><trkpt lat="43.375492" lon="11.9688512"><ele>668.0</ele><time>2026-03-28T13:56:18Z</time></trkpt><trkpt lat="43.3754567" lon="11.9687622"><ele>668.0</ele><time>2026-03-28T13:56:22.022Z</time></trkpt><trkpt lat="43.3754134" lon="11.9686794"><ele>668.0</ele><time>2026-03-28T13:56:26.018Z</time></trkpt><trkpt lat="43.3753804" lon="11.9685878"><ele>666.2857142857142</ele><time>2026-03-28T13:56:30.077Z</time></trkpt><trkpt lat="43.3753432" lon="11.9685062"><ele>664.5714285714286</ele><time>2026-03-28T13:56:34.104Z</time></trkpt><trkpt lat="43.3752863" lon="11.9684523"><ele>662.8571428571429</ele><time>2026-03-28T13:56:38.11Z</time></trkpt><trkpt lat="43.3752851" lon="11.9683457"><ele>661.1428571428571</ele><time>2026-03-28T13:56:42.086Z</time></trkpt><trkpt lat="43.3752772" lon="11.968257"><ele>659.4285714285714</ele><time>2026-03-28T13:56:46.122Z</time></trkpt><trkpt lat="43.3752728" lon="11.968163"><ele>657.7142857142857</ele><time>2026-03-28T13:56:50.121Z</time></trkpt><trkpt lat="43.3753028" lon="11.9680764"><ele>656.0</ele><time>2026-03-28T13:56:54.112Z</time></trkpt><trkpt lat="43.3753355" lon="11.9679909"><ele>655.9999999999999</ele><time>2026-03-28T13:56:58.099Z</time></trkpt><trkpt lat="43.3753794" lon="11.9678971"><ele>656.0</ele><time>2026-03-28T13:57:02.438Z</time></trkpt><trkpt lat="43.3753678" lon="11.9677983"><ele>656.0</ele><time>2026-03-28T13:57:06.943Z</time></trkpt><trkpt lat="43.375384" lon="11.9677111"><ele>656.0</ele><time>2026-03-28T13:57:11.027Z</time></trkpt><trkpt lat="43.37541" lon="11.9676104"><ele>656.0</ele><time>2026-03-28T13:57:16.09Z</time></trkpt><trkpt lat="43.3753973" lon="11.9675118"><ele>655.9999999999999</ele><time>2026-03-28T13:57:20.127Z</time></trkpt><trkpt lat="43.3753671" lon="11.9674106"><ele>656.0</ele><time>2026-03-28T13:57:24.099Z</time></trkpt><trkpt lat="43.3753326" lon="11.9673337"><ele>656.1428571428571</ele><time>2026-03-28T13:57:27.114Z</time></trkpt><trkpt lat="43.3752919" lon="11.9672436"><ele>656.2857142857142</ele><time>2026-03-28T13:57:31.087Z</time></trkpt><trkpt lat="43.375243" lon="11.9671655"><ele>656.4285714285713</ele><time>2026-03-28T13:57:36.08Z</time></trkpt><trkpt lat="43.375197" lon="11.9671014"><ele>656.5714285714286</ele><time>2026-03-28T13:57:40.101Z</time></trkpt><trkpt lat="43.3751469" lon="11.9670488"><ele>656.7142857142858</ele><time>2026-03-28T13:57:44.022Z</time></trkpt><trkpt lat="43.3750875" lon="11.9669893"><ele>656.8571428571428</ele><time>2026-03-28T13:57:49.007Z</time></trkpt><trkpt lat="43.3750336" lon="11.9669416"><ele>657.0</ele><time>2026-03-28T13:57:55.109Z</time></trkpt><trkpt lat="43.3749707" lon="11.9668907"><ele>657.0</ele><time>2026-03-28T13:58:01.086Z</time></trkpt><trkpt lat="43.3749155" lon="11.9668282"><ele>657.0</ele><time>2026-03-28T13:58:07.107Z</time></trkpt><trkpt lat="43.3748613" lon="11.9667758"><ele>657.0</ele><time>2026-03-28T13:58:12.106Z</time></trkpt><trkpt lat="43.3748082" lon="11.9667094"><ele>657.0</ele><time>2026-03-28T13:58:17.058Z</time></trkpt><trkpt lat="43.374765" lon="11.9666423"><ele>657.0</ele><time>2026-03-28T13:58:21.093Z</time></trkpt><trkpt lat="43.3747113" lon="11.9665672"><ele>657.0</ele><time>2026-03-28T13:58:25.118Z</time></trkpt><trkpt lat="43.3746643" lon="11.9664961"><ele>657.0</ele><time>2026-03-28T13:58:29.104Z</time></trkpt><trkpt lat="43.3746218" lon="11.9664153"><ele>655.8333333333334</ele><time>2026-03-28T13:58:33.104Z</time></trkpt><trkpt lat="43.3745712" lon="11.9663453"><ele>654.6666666666666</ele><time>2026-03-28T13:58:37.07Z</time></trkpt><trkpt lat="43.3745244" lon="11.9662582"><ele>653.5</ele><time>2026-03-28T13:58:41.143Z</time></trkpt><trkpt lat="43.3744835" lon="11.966165"><ele>652.3333333333333</ele><time>2026-03-28T13:58:45.119Z</time></trkpt><trkpt lat="43.3744489" lon="11.9660715"><ele>651.1666666666666</ele><time>2026-03-28T13:58:49.091Z</time></trkpt><trkpt lat="43.3744109" lon="11.9659787"><ele>650.0</ele><time>2026-03-28T13:58:53.123Z</time></trkpt><trkpt lat="43.3743723" lon="11.9659011"><ele>650.8571428571428</ele><time>2026-03-28T13:58:57.122Z</time></trkpt><trkpt lat="43.3743242" lon="11.9658271"><ele>651.7142857142858</ele><time>2026-03-28T13:59:03.018Z</time></trkpt><trkpt lat="43.3742811" lon="11.9657522"><ele>652.5714285714286</ele><time>2026-03-28T13:59:09.093Z</time></trkpt><trkpt lat="43.3742347" lon="11.9656822"><ele>653.4285714285713</ele><time>2026-03-28T13:59:16.092Z</time></trkpt><trkpt lat="43.3742244" lon="11.9655878"><ele>654.2857142857142</ele><time>2026-03-28T13:59:45.075Z</time></trkpt><trkpt lat="43.3741878" lon="11.9655059"><ele>655.1428571428571</ele><time>2026-03-28T13:59:51.087Z</time></trkpt><trkpt lat="43.3741551" lon="11.965413"><ele>656.0</ele><time>2026-03-28T13:59:58.117Z</time></trkpt><trkpt lat="43.3741273" lon="11.9653351"><ele>655.9999999999999</ele><time>2026-03-28T14:00:04.108Z</time></trkpt><trkpt lat="43.3740902" lon="11.9652608"><ele>656.0</ele><time>2026-03-28T14:00:11.142Z</time></trkpt><trkpt lat="43.374048" lon="11.9651857"><ele>656.0</ele><time>2026-03-28T14:00:19.128Z</time></trkpt><trkpt lat="43.3740115" lon="11.9651113"><ele>656.0</ele><time>2026-03-28T14:00:25.104Z</time></trkpt><trkpt lat="43.3739807" lon="11.9650355"><ele>656.0</ele><time>2026-03-28T14:00:30.108Z</time></trkpt><trkpt lat="43.373937" lon="11.9649541"><ele>655.9999999999999</ele><time>2026-03-28T14:00:37.121Z</time></trkpt><trkpt lat="43.3738902" lon="11.9648764"><ele>656.0</ele><time>2026-03-28T14:00:43.098Z</time></trkpt><trkpt lat="43.373842" lon="11.9648154"><ele>654.8571428571428</ele><time>2026-03-28T14:00:50.101Z</time></trkpt><trkpt lat="43.3738013" lon="11.9647443"><ele>653.7142857142857</ele><time>2026-03-28T14:00:57.143Z</time></trkpt><trkpt lat="43.3737414" lon="11.9646946"><ele>652.5714285714286</ele><time>2026-03-28T14:01:04.102Z</time></trkpt><trkpt lat="43.3736896" lon="11.964641"><ele>651.4285714285713</ele><time>2026-03-28T14:01:11.103Z</time></trkpt><trkpt lat="43.3736417" lon="11.9645818"><ele>650.2857142857142</ele><time>2026-03-28T14:01:17.109Z</time></trkpt><trkpt lat="43.3735878" lon="11.9645197"><ele>649.1428571428571</ele><time>2026-03-28T14:01:23.103Z</time></trkpt><trkpt lat="43.3735523" lon="11.9644262"><ele>648.0</ele><time>2026-03-28T14:01:29.126Z</time></trkpt><trkpt lat="43.3735261" lon="11.964347"><ele>648.0</ele><time>2026-03-28T14:01:33.119Z</time></trkpt><trkpt lat="43.3734736" lon="11.9642867"><ele>648.0</ele><time>2026-03-28T14:01:38.112Z</time></trkpt><trkpt lat="43.3734209" lon="11.9642327"><ele>648.0</ele><time>2026-03-28T14:01:43.142Z</time></trkpt><trkpt lat="43.3733642" lon="11.9641729"><ele>648.0</ele><time>2026-03-28T14:01:49.105Z</time></trkpt><trkpt lat="43.3733168" lon="11.9641115"><ele>648.0</ele><time>2026-03-28T14:01:55.097Z</time></trkpt><trkpt lat="43.3732683" lon="11.9640389"><ele>648.0</ele><time>2026-03-28T14:02:01.073Z</time></trkpt><trkpt lat="43.3732225" lon="11.9639748"><ele>648.0</ele><time>2026-03-28T14:02:06.127Z</time></trkpt><trkpt lat="43.3731838" lon="11.9638852"><ele>647.1428571428571</ele><time>2026-03-28T14:02:13.068Z</time></trkpt><trkpt lat="43.3731229" lon="11.9638283"><ele>646.2857142857142</ele><time>2026-03-28T14:02:18.065Z</time></trkpt><trkpt lat="43.3730809" lon="11.9637446"><ele>645.4285714285713</ele><time>2026-03-28T14:02:22.066Z</time></trkpt><trkpt lat="43.3730668" lon="11.9636557"><ele>644.5714285714286</ele><time>2026-03-28T14:02:27.062Z</time></trkpt><trkpt lat="43.3730497" lon="11.9635626"><ele>643.7142857142857</ele><time>2026-03-28T14:02:34.071Z</time></trkpt><trkpt lat="43.3730415" lon="11.9634673"><ele>642.8571428571428</ele><time>2026-03-28T14:02:41.051Z</time></trkpt><trkpt lat="43.373022" lon="11.9633731"><ele>642.0</ele><time>2026-03-28T14:02:47.068Z</time></trkpt><trkpt lat="43.3730043" lon="11.9632742"><ele>641.9999999999999</ele><time>2026-03-28T14:02:53.084Z</time></trkpt><trkpt lat="43.3730076" lon="11.9631872"><ele>642.0</ele><time>2026-03-28T14:02:59.092Z</time></trkpt><trkpt lat="43.3730095" lon="11.9630976"><ele>642.0</ele><time>2026-03-28T14:03:06.069Z</time></trkpt><trkpt lat="43.3730081" lon="11.9630074"><ele>642.0</ele><time>2026-03-28T14:03:10.111Z</time></trkpt><trkpt lat="43.373014" lon="11.9629128"><ele>642.0</ele><time>2026-03-28T14:03:14.077Z</time></trkpt><trkpt lat="43.3730006" lon="11.9628269"><ele>641.9999999999999</ele><time>2026-03-28T14:03:20.079Z</time></trkpt><trkpt lat="43.3729834" lon="11.9627306"><ele>642.0</ele><time>2026-03-28T14:03:26.104Z</time></trkpt><trkpt lat="43.3729602" lon="11.9626468"><ele>641.9999999999999</ele><time>2026-03-28T14:03:32.073Z</time></trkpt><trkpt lat="43.3729193" lon="11.9625706"><ele>642.0</ele><time>2026-03-28T14:03:38.06Z</time></trkpt><trkpt lat="43.3728631" lon="11.9625303"><ele>642.0</ele><time>2026-03-28T14:03:43.08Z</time></trkpt><trkpt lat="43.3727982" lon="11.962514"><ele>642.0</ele><time>2026-03-28T14:03:50.11Z</time></trkpt><trkpt lat="43.3727298" lon="11.9624793"><ele>642.0</ele><time>2026-03-28T14:03:57.117Z</time></trkpt><trkpt lat="43.372668" lon="11.9624454"><ele>641.9999999999999</ele><time>2026-03-28T14:04:03.078Z</time></trkpt><trkpt lat="43.3726133" lon="11.9624012"><ele>642.0</ele><time>2026-03-28T14:04:09.091Z</time></trkpt><trkpt lat="43.3725584" lon="11.9623437"><ele>640.6666666666666</ele><time>2026-03-28T14:04:15.103Z</time></trkpt><trkpt lat="43.3725003" lon="11.9622837"><ele>639.3333333333334</ele><time>2026-03-28T14:04:21.091Z</time></trkpt><trkpt lat="43.3724345" lon="11.9622354"><ele>638.0</ele><time>2026-03-28T14:04:27.087Z</time></trkpt><trkpt lat="43.3723635" lon="11.9621808"><ele>636.6666666666667</ele><time>2026-03-28T14:04:31.066Z</time></trkpt><trkpt lat="43.3722999" lon="11.9621128"><ele>635.3333333333334</ele><time>2026-03-28T14:04:35.084Z</time></trkpt><trkpt lat="43.3722472" lon="11.9620292"><ele>634.0</ele><time>2026-03-28T14:04:39.033Z</time></trkpt><trkpt lat="43.372189" lon="11.9619516"><ele>634.0</ele><time>2026-03-28T14:04:43.007Z</time></trkpt><trkpt lat="43.3721311" lon="11.9619097"><ele>634.0</ele><time>2026-03-28T14:04:46.086Z</time></trkpt><trkpt lat="43.3720677" lon="11.9618379"><ele>634.0</ele><time>2026-03-28T14:04:50.081Z</time></trkpt><trkpt lat="43.3720269" lon="11.9617638"><ele>634.0</ele><time>2026-03-28T14:04:53.123Z</time></trkpt><trkpt lat="43.3719898" lon="11.9616662"><ele>634.0</ele><time>2026-03-28T14:04:57.119Z</time></trkpt><trkpt lat="43.3719536" lon="11.961584"><ele>634.0</ele><time>2026-03-28T14:05:01.103Z</time></trkpt><trkpt lat="43.3719105" lon="11.9614985"><ele>634.0</ele><time>2026-03-28T14:05:05.043Z</time></trkpt><trkpt lat="43.3718637" lon="11.9614333"><ele>636.1428571428571</ele><time>2026-03-28T14:05:08.111Z</time></trkpt><trkpt lat="43.3718214" lon="11.9613574"><ele>638.2857142857142</ele><time>2026-03-28T14:05:11.094Z</time></trkpt><trkpt lat="43.3717951" lon="11.9612713"><ele>640.4285714285713</ele><time>2026-03-28T14:05:14.044Z</time></trkpt><trkpt lat="43.3717698" lon="11.9611859"><ele>642.5714285714286</ele><time>2026-03-28T14:05:17.086Z</time></trkpt><trkpt lat="43.3717338" lon="11.9611131"><ele>644.7142857142857</ele><time>2026-03-28T14:05:20.111Z</time></trkpt><trkpt lat="43.3716917" lon="11.9610279"><ele>646.8571428571428</ele><time>2026-03-28T14:05:23.777Z</time></trkpt><trkpt lat="43.371652" lon="11.960956"><ele>649.0</ele><time>2026-03-28T14:05:27.099Z</time></trkpt><trkpt lat="43.3716016" lon="11.9608975"><ele>648.5</ele><time>2026-03-28T14:05:31.113Z</time></trkpt><trkpt lat="43.3715333" lon="11.96084"><ele>648.0</ele><time>2026-03-28T14:05:36.085Z</time></trkpt><trkpt lat="43.3714779" lon="11.960779"><ele>647.5</ele><time>2026-03-28T14:05:40.098Z</time></trkpt><trkpt lat="43.3714133" lon="11.9607221"><ele>647.0</ele><time>2026-03-28T14:05:44.107Z</time></trkpt><trkpt lat="43.371356" lon="11.9606768"><ele>646.5</ele><time>2026-03-28T14:05:47.126Z</time></trkpt><trkpt lat="43.3713132" lon="11.9605937"><ele>646.0</ele><time>2026-03-28T14:05:50.022Z</time></trkpt><trkpt lat="43.371267" lon="11.9604984"><ele>644.2857142857143</ele><time>2026-03-28T14:05:53.005Z</time></trkpt><trkpt lat="43.3712152" lon="11.9604243"><ele>642.5714285714286</ele><time>2026-03-28T14:05:56.108Z</time></trkpt><trkpt lat="43.3711565" lon="11.9603688"><ele>640.8571428571429</ele><time>2026-03-28T14:05:59.099Z</time></trkpt><trkpt lat="43.3711198" lon="11.960289"><ele>639.1428571428571</ele><time>2026-03-28T14:06:02.08Z</time></trkpt><trkpt lat="43.3710884" lon="11.9602061"><ele>637.4285714285714</ele><time>2026-03-28T14:06:05.081Z</time></trkpt><trkpt lat="43.3710669" lon="11.9601237"><ele>635.7142857142858</ele><time>2026-03-28T14:06:08.096Z</time></trkpt><trkpt lat="43.3710493" lon="11.9600368"><ele>634.0</ele><time>2026-03-28T14:06:11.116Z</time></trkpt><trkpt lat="43.3710379" lon="11.9599421"><ele>634.0</ele><time>2026-03-28T14:06:14.105Z</time></trkpt><trkpt lat="43.3710319" lon="11.9598465"><ele>634.0</ele><time>2026-03-28T14:06:17.094Z</time></trkpt><trkpt lat="43.3710041" lon="11.95976"><ele>634.0</ele><time>2026-03-28T14:06:20.027Z</time></trkpt><trkpt lat="43.3709837" lon="11.9596663"><ele>634.0</ele><time>2026-03-28T14:06:23.094Z</time></trkpt><trkpt lat="43.3709614" lon="11.959583"><ele>634.0</ele><time>2026-03-28T14:06:26.109Z</time></trkpt><trkpt lat="43.3709547" lon="11.9594932"><ele>634.0</ele><time>2026-03-28T14:06:29.091Z</time></trkpt><trkpt lat="43.3709401" lon="11.9593948"><ele>634.0</ele><time>2026-03-28T14:06:32.101Z</time></trkpt><trkpt lat="43.3709243" lon="11.9592962"><ele>634.0</ele><time>2026-03-28T14:06:35.1Z</time></trkpt><trkpt lat="43.3709268" lon="11.9592033"><ele>634.0</ele><time>2026-03-28T14:06:38.028Z</time></trkpt><trkpt lat="43.3709688" lon="11.9591255"><ele>634.0</ele><time>2026-03-28T14:06:41.106Z</time></trkpt><trkpt lat="43.3709879" lon="11.9590258"><ele>634.0</ele><time>2026-03-28T14:06:44.088Z</time></trkpt><trkpt lat="43.370982" lon="11.9589228"><ele>634.0</ele><time>2026-03-28T14:06:47.078Z</time></trkpt><trkpt lat="43.3709773" lon="11.9588194"><ele>634.0</ele><time>2026-03-28T14:06:50.184Z</time></trkpt><trkpt lat="43.3709734" lon="11.9587172"><ele>634.0</ele><time>2026-03-28T14:06:53.087Z</time></trkpt><trkpt lat="43.3709647" lon="11.9586254"><ele>633.5714285714286</ele><time>2026-03-28T14:06:56.069Z</time></trkpt><trkpt lat="43.3709458" lon="11.9585312"><ele>633.1428571428571</ele><time>2026-03-28T14:07:00.041Z</time></trkpt><trkpt lat="43.3709237" lon="11.9584319"><ele>632.7142857142858</ele><time>2026-03-28T14:07:05.102Z</time></trkpt><trkpt lat="43.3708843" lon="11.9583443"><ele>632.2857142857142</ele><time>2026-03-28T14:07:10.095Z</time></trkpt><trkpt lat="43.3708364" lon="11.9582635"><ele>631.8571428571428</ele><time>2026-03-28T14:07:15.037Z</time></trkpt><trkpt lat="43.3707854" lon="11.9582004"><ele>631.4285714285714</ele><time>2026-03-28T14:07:19.085Z</time></trkpt><trkpt lat="43.3707401" lon="11.9581241"><ele>631.0</ele><time>2026-03-28T14:07:23.092Z</time></trkpt><trkpt lat="43.3706922" lon="11.9580495"><ele>630.4285714285714</ele><time>2026-03-28T14:07:27.103Z</time></trkpt><trkpt lat="43.3706563" lon="11.9579678"><ele>629.8571428571428</ele><time>2026-03-28T14:07:31.13Z</time></trkpt><trkpt lat="43.3705985" lon="11.9578962"><ele>629.2857142857142</ele><time>2026-03-28T14:07:35.106Z</time></trkpt><trkpt lat="43.3705534" lon="11.9578311"><ele>628.7142857142858</ele><time>2026-03-28T14:07:39.086Z</time></trkpt><trkpt lat="43.3705034" lon="11.9577742"><ele>628.1428571428571</ele><time>2026-03-28T14:07:43.062Z</time></trkpt><trkpt lat="43.3704529" lon="11.9576964"><ele>627.5714285714286</ele><time>2026-03-28T14:07:47.08Z</time></trkpt><trkpt lat="43.3704086" lon="11.9576326"><ele>627.0</ele><time>2026-03-28T14:07:50.15Z</time></trkpt><trkpt lat="43.3703776" lon="11.9575437"><ele>625.7142857142858</ele><time>2026-03-28T14:07:54.109Z</time></trkpt><trkpt lat="43.3703346" lon="11.9574622"><ele>624.4285714285714</ele><time>2026-03-28T14:07:58.083Z</time></trkpt><trkpt lat="43.3702961" lon="11.9573685"><ele>623.1428571428571</ele><time>2026-03-28T14:08:02.019Z</time></trkpt><trkpt lat="43.3702624" lon="11.9572939"><ele>621.8571428571429</ele><time>2026-03-28T14:08:05.069Z</time></trkpt><trkpt lat="43.3702277" lon="11.9571992"><ele>620.5714285714286</ele><time>2026-03-28T14:08:09.084Z</time></trkpt><trkpt lat="43.3701863" lon="11.9571277"><ele>619.2857142857143</ele><time>2026-03-28T14:08:13.149Z</time></trkpt><trkpt lat="43.3701502" lon="11.9570432"><ele>618.0</ele><time>2026-03-28T14:08:18.095Z</time></trkpt><trkpt lat="43.3700952" lon="11.9569782"><ele>618.0000000000001</ele><time>2026-03-28T14:08:22.038Z</time></trkpt><trkpt lat="43.3700429" lon="11.956919"><ele>618.0</ele><time>2026-03-28T14:08:26.137Z</time></trkpt><trkpt lat="43.3700371" lon="11.9568225"><ele>618.0</ele><time>2026-03-28T14:08:30.077Z</time></trkpt><trkpt lat="43.3700432" lon="11.9567295"><ele>618.0</ele><time>2026-03-28T14:08:34.105Z</time></trkpt><trkpt lat="43.3700627" lon="11.9566343"><ele>618.0</ele><time>2026-03-28T14:08:39.089Z</time></trkpt><trkpt lat="43.3700939" lon="11.9565445"><ele>618.0000000000001</ele><time>2026-03-28T14:08:44.006Z</time></trkpt><trkpt lat="43.370121" lon="11.9564615"><ele>618.0</ele><time>2026-03-28T14:08:48.107Z</time></trkpt><trkpt lat="43.3701308" lon="11.956372"><ele>618.5714285714287</ele><time>2026-03-28T14:08:52.076Z</time></trkpt><trkpt lat="43.3701472" lon="11.9562825"><ele>619.1428571428571</ele><time>2026-03-28T14:08:56.105Z</time></trkpt><trkpt lat="43.3701519" lon="11.9561827"><ele>619.7142857142858</ele><time>2026-03-28T14:09:01.089Z</time></trkpt><trkpt lat="43.3701162" lon="11.9561041"><ele>620.2857142857143</ele><time>2026-03-28T14:09:04.937Z</time></trkpt><trkpt lat="43.3701042" lon="11.956007"><ele>620.8571428571429</ele><time>2026-03-28T14:09:09.093Z</time></trkpt><trkpt lat="43.3700405" lon="11.9559552"><ele>621.4285714285714</ele><time>2026-03-28T14:09:14.087Z</time></trkpt><trkpt lat="43.3699852" lon="11.9559103"><ele>622.0</ele><time>2026-03-28T14:09:18.104Z</time></trkpt><trkpt lat="43.3699732" lon="11.9558211"><ele>620.7142857142857</ele><time>2026-03-28T14:09:22.089Z</time></trkpt><trkpt lat="43.3699637" lon="11.9557172"><ele>619.4285714285714</ele><time>2026-03-28T14:09:26.089Z</time></trkpt><trkpt lat="43.3699562" lon="11.955626"><ele>618.1428571428571</ele><time>2026-03-28T14:09:30.077Z</time></trkpt><trkpt lat="43.3699461" lon="11.955517"><ele>616.8571428571429</ele><time>2026-03-28T14:09:34.081Z</time></trkpt><trkpt lat="43.3699043" lon="11.9554338"><ele>615.5714285714286</ele><time>2026-03-28T14:09:38.098Z</time></trkpt><trkpt lat="43.3698417" lon="11.9553774"><ele>614.2857142857143</ele><time>2026-03-28T14:09:42.047Z</time></trkpt><trkpt lat="43.3698136" lon="11.9552899"><ele>613.0</ele><time>2026-03-28T14:09:46.099Z</time></trkpt><trkpt lat="43.3697785" lon="11.9551966"><ele>613.0</ele><time>2026-03-28T14:09:50.106Z</time></trkpt><trkpt lat="43.3697366" lon="11.9551263"><ele>613.0</ele><time>2026-03-28T14:09:53.045Z</time></trkpt><trkpt lat="43.3696919" lon="11.9550579"><ele>613.0</ele><time>2026-03-28T14:09:56.042Z</time></trkpt><trkpt lat="43.3696408" lon="11.9549743"><ele>613.0</ele><time>2026-03-28T14:10:00.099Z</time></trkpt><trkpt lat="43.3695788" lon="11.9549182"><ele>613.0</ele><time>2026-03-28T14:10:04.119Z</time></trkpt><trkpt lat="43.3695213" lon="11.9548449"><ele>613.0</ele><time>2026-03-28T14:10:08.983Z</time></trkpt><trkpt lat="43.3694567" lon="11.9548108"><ele>613.0</ele><time>2026-03-28T14:10:13.121Z</time></trkpt><trkpt lat="43.3693902" lon="11.9547721"><ele>610.5714285714286</ele><time>2026-03-28T14:10:17.107Z</time></trkpt><trkpt lat="43.3693232" lon="11.9547224"><ele>608.1428571428571</ele><time>2026-03-28T14:10:21.101Z</time></trkpt><trkpt lat="43.3692791" lon="11.9546335"><ele>605.7142857142857</ele><time>2026-03-28T14:10:25.095Z</time></trkpt><trkpt lat="43.3692425" lon="11.9545333"><ele>603.2857142857142</ele><time>2026-03-28T14:10:29.052Z</time></trkpt><trkpt lat="43.3692064" lon="11.9544619"><ele>600.8571428571428</ele><time>2026-03-28T14:10:32.064Z</time></trkpt><trkpt lat="43.3691524" lon="11.95441"><ele>598.4285714285714</ele><time>2026-03-28T14:10:35.095Z</time></trkpt><trkpt lat="43.3691289" lon="11.9543218"><ele>596.0</ele><time>2026-03-28T14:10:38.003Z</time></trkpt><trkpt lat="43.3690988" lon="11.9542453"><ele>596.0</ele><time>2026-03-28T14:10:41.09Z</time></trkpt><trkpt lat="43.3690444" lon="11.9541992"><ele>596.0</ele><time>2026-03-28T14:10:44.096Z</time></trkpt><trkpt lat="43.3689843" lon="11.9541548"><ele>596.0</ele><time>2026-03-28T14:10:48.006Z</time></trkpt><trkpt lat="43.3689176" lon="11.9540881"><ele>596.0</ele><time>2026-03-28T14:10:52.083Z</time></trkpt><trkpt lat="43.3688622" lon="11.9540248"><ele>596.0</ele><time>2026-03-28T14:10:56.075Z</time></trkpt><trkpt lat="43.3688142" lon="11.9539687"><ele>596.0</ele><time>2026-03-28T14:10:59.098Z</time></trkpt><trkpt lat="43.3687628" lon="11.9538997"><ele>596.0</ele><time>2026-03-28T14:11:02.984Z</time></trkpt><trkpt lat="43.3687174" lon="11.9538142"><ele>596.1428571428571</ele><time>2026-03-28T14:11:07.112Z</time></trkpt><trkpt lat="43.368684" lon="11.953736"><ele>596.2857142857142</ele><time>2026-03-28T14:11:11.047Z</time></trkpt><trkpt lat="43.3686323" lon="11.9536646"><ele>596.4285714285714</ele><time>2026-03-28T14:11:16.107Z</time></trkpt><trkpt lat="43.3685882" lon="11.9535729"><ele>596.5714285714286</ele><time>2026-03-28T14:11:21.121Z</time></trkpt><trkpt lat="43.3685358" lon="11.9535027"><ele>596.7142857142858</ele><time>2026-03-28T14:11:27.134Z</time></trkpt><trkpt lat="43.3684883" lon="11.9534164"><ele>596.8571428571429</ele><time>2026-03-28T14:11:32.086Z</time></trkpt><trkpt lat="43.3684438" lon="11.9533536"><ele>597.0</ele><time>2026-03-28T14:11:35.098Z</time></trkpt><trkpt lat="43.3683784" lon="11.9532996"><ele>597.0000000000001</ele><time>2026-03-28T14:11:39.091Z</time></trkpt><trkpt lat="43.3682973" lon="11.9532881"><ele>597.0</ele><time>2026-03-28T14:11:43.098Z</time></trkpt><trkpt lat="43.3682351" lon="11.9532688"><ele>597.0</ele><time>2026-03-28T14:11:46.04Z</time></trkpt><trkpt lat="43.3681586" lon="11.9532315"><ele>597.0</ele><time>2026-03-28T14:11:50.105Z</time></trkpt><trkpt lat="43.3681092" lon="11.9531768"><ele>597.0</ele><time>2026-03-28T14:11:53.079Z</time></trkpt><trkpt lat="43.368049" lon="11.953102"><ele>597.0000000000001</ele><time>2026-03-28T14:11:57.109Z</time></trkpt><trkpt lat="43.3680085" lon="11.9530258"><ele>597.0</ele><time>2026-03-28T14:12:03.113Z</time></trkpt><trkpt lat="43.3679667" lon="11.9529552"><ele>593.4285714285714</ele><time>2026-03-28T14:12:09.119Z</time></trkpt><trkpt lat="43.3679254" lon="11.9528828"><ele>589.8571428571429</ele><time>2026-03-28T14:12:13.095Z</time></trkpt><trkpt lat="43.3678753" lon="11.9528038"><ele>586.2857142857142</ele><time>2026-03-28T14:12:19.088Z</time></trkpt><trkpt lat="43.3678279" lon="11.9527204"><ele>582.7142857142858</ele><time>2026-03-28T14:12:24.106Z</time></trkpt><trkpt lat="43.3677917" lon="11.9526429"><ele>579.1428571428571</ele><time>2026-03-28T14:12:32.087Z</time></trkpt><trkpt lat="43.3677461" lon="11.9525764"><ele>575.5714285714286</ele><time>2026-03-28T14:12:35.09Z</time></trkpt><trkpt lat="43.3677203" lon="11.9524898"><ele>572.0</ele><time>2026-03-28T14:12:38.106Z</time></trkpt><trkpt lat="43.3676735" lon="11.9524176"><ele>572.0</ele><time>2026-03-28T14:12:42.084Z</time></trkpt><trkpt lat="43.3676844" lon="11.9523119"><ele>572.0</ele><time>2026-03-28T14:12:46.087Z</time></trkpt><trkpt lat="43.3677291" lon="11.9522246"><ele>572.0</ele><time>2026-03-28T14:12:49.1Z</time></trkpt><trkpt lat="43.367755" lon="11.9521176"><ele>572.0</ele><time>2026-03-28T14:12:52.095Z</time></trkpt><trkpt lat="43.3677623" lon="11.9520101"><ele>572.0</ele><time>2026-03-28T14:12:55.042Z</time></trkpt><trkpt lat="43.3677569" lon="11.9518876"><ele>572.0</ele><time>2026-03-28T14:12:58.107Z</time></trkpt><trkpt lat="43.3677621" lon="11.9517706"><ele>573.5</ele><time>2026-03-28T14:13:01.114Z</time></trkpt><trkpt lat="43.3677677" lon="11.9516578"><ele>575.0</ele><time>2026-03-28T14:13:04.116Z</time></trkpt><trkpt lat="43.367779" lon="11.951531"><ele>576.5</ele><time>2026-03-28T14:13:07.18Z</time></trkpt><trkpt lat="43.367779" lon="11.9514239"><ele>578.0</ele><time>2026-03-28T14:13:10.092Z</time></trkpt><trkpt lat="43.3677668" lon="11.9513235"><ele>579.5</ele><time>2026-03-28T14:13:13.06Z</time></trkpt><trkpt lat="43.3677384" lon="11.9512085"><ele>581.0</ele><time>2026-03-28T14:13:17.039Z</time></trkpt><trkpt lat="43.3677014" lon="11.9511157"><ele>581.0</ele><time>2026-03-28T14:13:22.068Z</time></trkpt><trkpt lat="43.3676648" lon="11.951027"><ele>581.0</ele><time>2026-03-28T14:13:26.02Z</time></trkpt><trkpt lat="43.3676216" lon="11.9509383"><ele>581.0</ele><time>2026-03-28T14:13:30.093Z</time></trkpt><trkpt lat="43.3675783" lon="11.9508749"><ele>581.0</ele><time>2026-03-28T14:13:33.09Z</time></trkpt><trkpt lat="43.3675441" lon="11.9507971"><ele>581.0</ele><time>2026-03-28T14:13:36.09Z</time></trkpt><trkpt lat="43.3675108" lon="11.9507099"><ele>581.0</ele><time>2026-03-28T14:13:39.026Z</time></trkpt><trkpt lat="43.3674972" lon="11.9506056"><ele>581.0</ele><time>2026-03-28T14:13:42.084Z</time></trkpt><trkpt lat="43.3675003" lon="11.9505039"><ele>580.6666666666666</ele><time>2026-03-28T14:13:45.083Z</time></trkpt><trkpt lat="43.367511" lon="11.9504024"><ele>580.3333333333333</ele><time>2026-03-28T14:13:48.104Z</time></trkpt><trkpt lat="43.3675339" lon="11.9503031"><ele>580.0</ele><time>2026-03-28T14:13:51.007Z</time></trkpt><trkpt lat="43.3675571" lon="11.9502154"><ele>579.6666666666666</ele><time>2026-03-28T14:13:54.083Z</time></trkpt><trkpt lat="43.3675534" lon="11.9501027"><ele>579.3333333333334</ele><time>2026-03-28T14:13:58.111Z</time></trkpt><trkpt lat="43.3675285" lon="11.9500005"><ele>579.0</ele><time>2026-03-28T14:14:02.094Z</time></trkpt><trkpt lat="43.3675251" lon="11.9498958"><ele>578.1666666666666</ele><time>2026-03-28T14:14:06.07Z</time></trkpt><trkpt lat="43.3675198" lon="11.9497911"><ele>577.3333333333334</ele><time>2026-03-28T14:14:10.069Z</time></trkpt><trkpt lat="43.3675038" lon="11.9496842"><ele>576.5</ele><time>2026-03-28T14:14:14.086Z</time></trkpt><trkpt lat="43.3674879" lon="11.9495787"><ele>575.6666666666667</ele><time>2026-03-28T14:14:18.085Z</time></trkpt><trkpt lat="43.3674866" lon="11.9494645"><ele>574.8333333333334</ele><time>2026-03-28T14:14:22.079Z</time></trkpt><trkpt lat="43.3674865" lon="11.9493669"><ele>574.0</ele><time>2026-03-28T14:14:25.088Z</time></trkpt><trkpt lat="43.3674904" lon="11.9492735"><ele>575.1428571428571</ele><time>2026-03-28T14:14:28.096Z</time></trkpt><trkpt lat="43.3674975" lon="11.9491584"><ele>576.2857142857142</ele><time>2026-03-28T14:14:32.067Z</time></trkpt><trkpt lat="43.3675027" lon="11.9490708"><ele>577.4285714285714</ele><time>2026-03-28T14:14:35.054Z</time></trkpt><trkpt lat="43.3675059" lon="11.948983"><ele>578.5714285714286</ele><time>2026-03-28T14:14:38.109Z</time></trkpt><trkpt lat="43.3675179" lon="11.9488713"><ele>579.7142857142857</ele><time>2026-03-28T14:14:42.079Z</time></trkpt><trkpt lat="43.3675362" lon="11.9487863"><ele>580.8571428571429</ele><time>2026-03-28T14:14:45.083Z</time></trkpt><trkpt lat="43.3675531" lon="11.9486813"><ele>582.0</ele><time>2026-03-28T14:14:49.09Z</time></trkpt><trkpt lat="43.3675606" lon="11.9485851"><ele>582.0</ele><time>2026-03-28T14:14:53.005Z</time></trkpt><trkpt lat="43.367575" lon="11.9484977"><ele>582.0</ele><time>2026-03-28T14:14:57.069Z</time></trkpt><trkpt lat="43.3675704" lon="11.9484092"><ele>582.0</ele><time>2026-03-28T14:15:01.074Z</time></trkpt><trkpt lat="43.3675489" lon="11.9483246"><ele>582.0</ele><time>2026-03-28T14:15:06.048Z</time></trkpt><trkpt lat="43.367517" lon="11.9482341"><ele>582.0</ele><time>2026-03-28T14:15:12.02Z</time></trkpt><trkpt lat="43.3674829" lon="11.9481453"><ele>582.0</ele><time>2026-03-28T14:15:18.096Z</time></trkpt><trkpt lat="43.3674548" lon="11.9480485"><ele>582.0</ele><time>2026-03-28T14:15:24.076Z</time></trkpt><trkpt lat="43.3674637" lon="11.9479522"><ele>582.7142857142857</ele><time>2026-03-28T14:15:29.055Z</time></trkpt><trkpt lat="43.3674872" lon="11.9478705"><ele>583.4285714285713</ele><time>2026-03-28T14:15:33.075Z</time></trkpt><trkpt lat="43.3675201" lon="11.9477741"><ele>584.1428571428571</ele><time>2026-03-28T14:15:37.083Z</time></trkpt><trkpt lat="43.367539" lon="11.9476761"><ele>584.8571428571429</ele><time>2026-03-28T14:15:41.022Z</time></trkpt><trkpt lat="43.3675426" lon="11.9475748"><ele>585.5714285714287</ele><time>2026-03-28T14:15:46.091Z</time></trkpt><trkpt lat="43.3675526" lon="11.9474796"><ele>586.2857142857143</ele><time>2026-03-28T14:15:52.074Z</time></trkpt><trkpt lat="43.3675974" lon="11.9474129"><ele>587.0</ele><time>2026-03-28T14:15:55.071Z</time></trkpt><trkpt lat="43.3676374" lon="11.9473418"><ele>588.1428571428571</ele><time>2026-03-28T14:15:58.059Z</time></trkpt><trkpt lat="43.3676874" lon="11.9472523"><ele>589.2857142857143</ele><time>2026-03-28T14:16:02.067Z</time></trkpt><trkpt lat="43.3677382" lon="11.9471974"><ele>590.4285714285714</ele><time>2026-03-28T14:16:05.056Z</time></trkpt><trkpt lat="43.3677909" lon="11.9471143"><ele>591.5714285714286</ele><time>2026-03-28T14:16:09.056Z</time></trkpt><trkpt lat="43.3678468" lon="11.9470472"><ele>592.7142857142858</ele><time>2026-03-28T14:16:13.054Z</time></trkpt><trkpt lat="43.3679028" lon="11.9469762"><ele>593.8571428571429</ele><time>2026-03-28T14:16:18.06Z</time></trkpt><trkpt lat="43.3679566" lon="11.9469289"><ele>595.0</ele><time>2026-03-28T14:16:24.055Z</time></trkpt><trkpt lat="43.3680169" lon="11.9468839"><ele>595.0</ele><time>2026-03-28T14:16:31.063Z</time></trkpt><trkpt lat="43.368075" lon="11.9468337"><ele>595.0</ele><time>2026-03-28T14:16:40.058Z</time></trkpt><trkpt lat="43.368137" lon="11.9467946"><ele>595.0</ele><time>2026-03-28T14:16:47.052Z</time></trkpt><trkpt lat="43.3682021" lon="11.9467513"><ele>595.0</ele><time>2026-03-28T14:16:55.068Z</time></trkpt><trkpt lat="43.3682688" lon="11.9467192"><ele>595.0</ele><time>2026-03-28T14:17:02.063Z</time></trkpt><trkpt lat="43.3682962" lon="11.94663"><ele>595.0</ele><time>2026-03-28T14:17:06.071Z</time></trkpt><trkpt lat="43.3683572" lon="11.946593"><ele>595.0</ele><time>2026-03-28T14:17:10.044Z</time></trkpt><trkpt lat="43.368407" lon="11.9465342"><ele>595.0</ele><time>2026-03-28T14:17:16.069Z</time></trkpt><trkpt lat="43.3684709" lon="11.9464941"><ele>595.0</ele><time>2026-03-28T14:17:23.085Z</time></trkpt><trkpt lat="43.3685313" lon="11.9464444"><ele>595.0</ele><time>2026-03-28T14:17:27.084Z</time></trkpt><trkpt lat="43.3685825" lon="11.9463715"><ele>595.0</ele><time>2026-03-28T14:17:33.084Z</time></trkpt><trkpt lat="43.3685904" lon="11.9462795"><ele>595.0</ele><time>2026-03-28T14:17:41.072Z</time></trkpt><trkpt lat="43.3686411" lon="11.9462048"><ele>595.0</ele><time>2026-03-28T14:17:49.077Z</time></trkpt><trkpt lat="43.3687004" lon="11.9461497"><ele>595.0</ele><time>2026-03-28T14:17:56.065Z</time></trkpt><trkpt lat="43.3687485" lon="11.9460884"><ele>595.0</ele><time>2026-03-28T14:18:03.085Z</time></trkpt><trkpt lat="43.3687835" lon="11.946016"><ele>595.0</ele><time>2026-03-28T14:18:09.076Z</time></trkpt><trkpt lat="43.3688178" lon="11.9459426"><ele>595.0</ele><time>2026-03-28T14:18:15.07Z</time></trkpt><trkpt lat="43.3688605" lon="11.945868"><ele>595.0</ele><time>2026-03-28T14:18:22.1Z</time></trkpt><trkpt lat="43.3688994" lon="11.945787"><ele>595.0</ele><time>2026-03-28T14:18:29.105Z</time></trkpt><trkpt lat="43.3689566" lon="11.9457268"><ele>595.0</ele><time>2026-03-28T14:18:35.083Z</time></trkpt><trkpt lat="43.3690084" lon="11.945658"><ele>595.0</ele><time>2026-03-28T14:18:43.108Z</time></trkpt><trkpt lat="43.3690546" lon="11.9455915"><ele>596.7142857142857</ele><time>2026-03-28T14:18:50.099Z</time></trkpt><trkpt lat="43.3690859" lon="11.9455109"><ele>598.4285714285714</ele><time>2026-03-28T14:18:58.106Z</time></trkpt><trkpt lat="43.3691251" lon="11.9454428"><ele>600.1428571428571</ele><time>2026-03-28T14:19:08.113Z</time></trkpt><trkpt lat="43.3691678" lon="11.9453779"><ele>601.8571428571429</ele><time>2026-03-28T14:19:14.06Z</time></trkpt><trkpt lat="43.3691923" lon="11.9452961"><ele>603.5714285714286</ele><time>2026-03-28T14:19:19.067Z</time></trkpt><trkpt lat="43.3692198" lon="11.9452039"><ele>605.2857142857142</ele><time>2026-03-28T14:19:24.069Z</time></trkpt><trkpt lat="43.369252" lon="11.9451241"><ele>607.0</ele><time>2026-03-28T14:19:28.096Z</time></trkpt><trkpt lat="43.3692854" lon="11.945043"><ele>608.7142857142857</ele><time>2026-03-28T14:19:32.044Z</time></trkpt><trkpt lat="43.3693198" lon="11.9449544"><ele>610.4285714285714</ele><time>2026-03-28T14:19:36.98Z</time></trkpt><trkpt lat="43.3693511" lon="11.9448785"><ele>612.1428571428571</ele><time>2026-03-28T14:19:43.086Z</time></trkpt><trkpt lat="43.3693638" lon="11.9447846"><ele>613.8571428571429</ele><time>2026-03-28T14:19:57.006Z</time></trkpt><trkpt lat="43.3693997" lon="11.9446959"><ele>615.5714285714286</ele><time>2026-03-28T14:20:01.088Z</time></trkpt><trkpt lat="43.3694308" lon="11.9446198"><ele>617.2857142857142</ele><time>2026-03-28T14:20:05.509Z</time></trkpt><trkpt lat="43.3694539" lon="11.9445342"><ele>619.0</ele><time>2026-03-28T14:20:10.076Z</time></trkpt><trkpt lat="43.369454" lon="11.9444255"><ele>619.0</ele><time>2026-03-28T14:20:15.069Z</time></trkpt><trkpt lat="43.36942" lon="11.9443384"><ele>619.0</ele><time>2026-03-28T14:20:20.055Z</time></trkpt><trkpt lat="43.3694233" lon="11.9442502"><ele>619.0</ele><time>2026-03-28T14:20:25.005Z</time></trkpt><trkpt lat="43.369423" lon="11.9441563"><ele>619.0</ele><time>2026-03-28T14:20:31.052Z</time></trkpt><trkpt lat="43.3694216" lon="11.9440657"><ele>619.0</ele><time>2026-03-28T14:20:35.046Z</time></trkpt><trkpt lat="43.3694233" lon="11.9439644"><ele>619.0</ele><time>2026-03-28T14:20:40.068Z</time></trkpt><trkpt lat="43.3694453" lon="11.9438741"><ele>619.0</ele><time>2026-03-28T14:20:44.056Z</time></trkpt><trkpt lat="43.3694742" lon="11.9437821"><ele>620.5714285714286</ele><time>2026-03-28T14:20:48.057Z</time></trkpt><trkpt lat="43.3694994" lon="11.943689"><ele>622.1428571428571</ele><time>2026-03-28T14:20:53.07Z</time></trkpt><trkpt lat="43.369521" lon="11.9436035"><ele>623.7142857142858</ele><time>2026-03-28T14:20:57.101Z</time></trkpt><trkpt lat="43.3695614" lon="11.9435082"><ele>625.2857142857142</ele><time>2026-03-28T14:21:01.063Z</time></trkpt><trkpt lat="43.3696081" lon="11.9434479"><ele>626.8571428571429</ele><time>2026-03-28T14:21:04.077Z</time></trkpt><trkpt lat="43.3696617" lon="11.9433828"><ele>628.4285714285714</ele><time>2026-03-28T14:21:08.095Z</time></trkpt><trkpt lat="43.3697147" lon="11.9433354"><ele>630.0</ele><time>2026-03-28T14:21:12.091Z</time></trkpt><trkpt lat="43.369781" lon="11.9433056"><ele>630.0</ele><time>2026-03-28T14:21:15.981Z</time></trkpt><trkpt lat="43.3698513" lon="11.94327"><ele>630.0</ele><time>2026-03-28T14:21:20.089Z</time></trkpt><trkpt lat="43.3699171" lon="11.9432253"><ele>630.0</ele><time>2026-03-28T14:21:24.078Z</time></trkpt><trkpt lat="43.3699975" lon="11.9431924"><ele>630.0</ele><time>2026-03-28T14:21:28.066Z</time></trkpt><trkpt lat="43.3700618" lon="11.9431664"><ele>630.0</ele><time>2026-03-28T14:21:32.012Z</time></trkpt><trkpt lat="43.3701245" lon="11.9431534"><ele>630.0</ele><time>2026-03-28T14:21:36.109Z</time></trkpt><trkpt lat="43.3701953" lon="11.9431944"><ele>630.0</ele><time>2026-03-28T14:21:41.089Z</time></trkpt><trkpt lat="43.3702494" lon="11.9432583"><ele>630.0</ele><time>2026-03-28T14:21:45.022Z</time></trkpt><trkpt lat="43.370252" lon="11.9433496"><ele>630.0</ele><time>2026-03-28T14:21:49.107Z</time></trkpt><trkpt lat="43.3702141" lon="11.9434306"><ele>630.0</ele><time>2026-03-28T14:21:56.105Z</time></trkpt><trkpt lat="43.3701633" lon="11.9434987"><ele>630.0</ele><time>2026-03-28T14:22:02.989Z</time></trkpt><trkpt lat="43.3701231" lon="11.9435738"><ele>630.0</ele><time>2026-03-28T14:22:09.082Z</time></trkpt><trkpt lat="43.370088" lon="11.9436519"><ele>630.0</ele><time>2026-03-28T14:22:15.102Z</time></trkpt><trkpt lat="43.3700674" lon="11.9437508"><ele>630.0</ele><time>2026-03-28T14:22:22.11Z</time></trkpt><trkpt lat="43.3700769" lon="11.9438522"><ele>629.1428571428571</ele><time>2026-03-28T14:22:29.111Z</time></trkpt><trkpt lat="43.370101" lon="11.9439403"><ele>628.2857142857142</ele><time>2026-03-28T14:22:35.092Z</time></trkpt><trkpt lat="43.3701513" lon="11.9440151"><ele>627.4285714285714</ele><time>2026-03-28T14:22:41.053Z</time></trkpt><trkpt lat="43.3702052" lon="11.9440826"><ele>626.5714285714286</ele><time>2026-03-28T14:22:48.107Z</time></trkpt><trkpt lat="43.3702615" lon="11.9441281"><ele>625.7142857142857</ele><time>2026-03-28T14:22:56.104Z</time></trkpt><trkpt lat="43.3703062" lon="11.9441939"><ele>624.8571428571429</ele><time>2026-03-28T14:23:04.096Z</time></trkpt><trkpt lat="43.3703671" lon="11.9442414"><ele>624.0</ele><time>2026-03-28T14:23:13.113Z</time></trkpt><trkpt lat="43.3704268" lon="11.9442802"><ele>623.1428571428572</ele><time>2026-03-28T14:23:21.08Z</time></trkpt><trkpt lat="43.3704837" lon="11.9443189"><ele>622.2857142857142</ele><time>2026-03-28T14:23:33.091Z</time></trkpt><trkpt lat="43.3705357" lon="11.944375"><ele>621.4285714285714</ele><time>2026-03-28T14:23:41.095Z</time></trkpt><trkpt lat="43.3705919" lon="11.9444262"><ele>620.5714285714287</ele><time>2026-03-28T14:23:50.102Z</time></trkpt><trkpt lat="43.3706368" lon="11.9443645"><ele>619.7142857142858</ele><time>2026-03-28T14:24:01.101Z</time></trkpt><trkpt lat="43.3706518" lon="11.94428"><ele>618.8571428571429</ele><time>2026-03-28T14:24:10.081Z</time></trkpt><trkpt lat="43.3706703" lon="11.9441839"><ele>618.0</ele><time>2026-03-28T14:24:19.023Z</time></trkpt><trkpt lat="43.3707179" lon="11.9441172"><ele>623.4285714285714</ele><time>2026-03-28T14:24:27.083Z</time></trkpt><trkpt lat="43.3707796" lon="11.9440783"><ele>628.8571428571429</ele><time>2026-03-28T14:24:35.087Z</time></trkpt><trkpt lat="43.3708415" lon="11.9440613"><ele>634.2857142857142</ele><time>2026-03-28T14:24:41.086Z</time></trkpt><trkpt lat="43.3709131" lon="11.9440611"><ele>639.7142857142858</ele><time>2026-03-28T14:24:48.092Z</time></trkpt><trkpt lat="43.3709779" lon="11.9440419"><ele>645.1428571428571</ele><time>2026-03-28T14:24:55.056Z</time></trkpt><trkpt lat="43.3710432" lon="11.9440335"><ele>650.5714285714286</ele><time>2026-03-28T14:25:03.082Z</time></trkpt><trkpt lat="43.3711015" lon="11.9439966"><ele>656.0</ele><time>2026-03-28T14:25:11.097Z</time></trkpt><trkpt lat="43.3711523" lon="11.9439452"><ele>655.9999999999999</ele><time>2026-03-28T14:25:17.101Z</time></trkpt><trkpt lat="43.3712017" lon="11.9438836"><ele>656.0</ele><time>2026-03-28T14:25:22.103Z</time></trkpt><trkpt lat="43.3712601" lon="11.9438284"><ele>656.0</ele><time>2026-03-28T14:25:29.085Z</time></trkpt><trkpt lat="43.3713109" lon="11.9437683"><ele>656.0</ele><time>2026-03-28T14:25:34.106Z</time></trkpt><trkpt lat="43.3713606" lon="11.9437069"><ele>656.0</ele><time>2026-03-28T14:25:40.103Z</time></trkpt><trkpt lat="43.3714112" lon="11.9436541"><ele>655.9999999999999</ele><time>2026-03-28T14:25:46.097Z</time></trkpt><trkpt lat="43.3714739" lon="11.9436164"><ele>656.0</ele><time>2026-03-28T14:25:52.094Z</time></trkpt><trkpt lat="43.3715281" lon="11.943572"><ele>657.2857142857142</ele><time>2026-03-28T14:25:59.085Z</time></trkpt><trkpt lat="43.3715908" lon="11.9435311"><ele>658.5714285714286</ele><time>2026-03-28T14:26:06.086Z</time></trkpt><trkpt lat="43.3716534" lon="11.9435075"><ele>659.8571428571429</ele><time>2026-03-28T14:26:13.085Z</time></trkpt><trkpt lat="43.3717234" lon="11.9434726"><ele>661.1428571428571</ele><time>2026-03-28T14:26:19.085Z</time></trkpt><trkpt lat="43.3717885" lon="11.943431"><ele>662.4285714285714</ele><time>2026-03-28T14:26:24.103Z</time></trkpt><trkpt lat="43.3718551" lon="11.9434186"><ele>663.7142857142857</ele><time>2026-03-28T14:26:28.073Z</time></trkpt><trkpt lat="43.371923" lon="11.9434139"><ele>665.0</ele><time>2026-03-28T14:26:33.078Z</time></trkpt><trkpt lat="43.3719733" lon="11.9433429"><ele>665.0</ele><time>2026-03-28T14:26:39.117Z</time></trkpt><trkpt lat="43.3719857" lon="11.9432442"><ele>665.0</ele><time>2026-03-28T14:26:45.093Z</time></trkpt><trkpt lat="43.3719974" lon="11.9431583"><ele>665.0</ele><time>2026-03-28T14:26:51.081Z</time></trkpt><trkpt lat="43.3720091" lon="11.9430661"><ele>665.0</ele><time>2026-03-28T14:26:57.182Z</time></trkpt><trkpt lat="43.3720359" lon="11.9429801"><ele>665.0</ele><time>2026-03-28T14:27:04.062Z</time></trkpt><trkpt lat="43.3720588" lon="11.9428854"><ele>665.0</ele><time>2026-03-28T14:27:11.109Z</time></trkpt><trkpt lat="43.3720632" lon="11.9427985"><ele>665.0</ele><time>2026-03-28T14:27:17.089Z</time></trkpt><trkpt lat="43.372036" lon="11.9427196"><ele>665.0</ele><time>2026-03-28T14:27:23.067Z</time></trkpt><trkpt lat="43.3719861" lon="11.9426604"><ele>665.0</ele><time>2026-03-28T14:27:32.067Z</time></trkpt><trkpt lat="43.3719542" lon="11.9425732"><ele>665.0</ele><time>2026-03-28T14:27:40.11Z</time></trkpt><trkpt lat="43.3719326" lon="11.9424813"><ele>665.0</ele><time>2026-03-28T14:27:48.094Z</time></trkpt><trkpt lat="43.3719142" lon="11.9423895"><ele>665.0</ele><time>2026-03-28T14:27:57.105Z</time></trkpt><trkpt lat="43.3719064" lon="11.9423016"><ele>665.0</ele><time>2026-03-28T14:28:05.107Z</time></trkpt><trkpt lat="43.3719126" lon="11.9422075"><ele>665.0</ele><time>2026-03-28T14:28:13.124Z</time></trkpt><trkpt lat="43.3719114" lon="11.9421134"><ele>666.0</ele><time>2026-03-28T14:28:20.085Z</time></trkpt><trkpt lat="43.3719208" lon="11.9420221"><ele>667.0</ele><time>2026-03-28T14:28:29.092Z</time></trkpt><trkpt lat="43.3719627" lon="11.9419392"><ele>668.0</ele><time>2026-03-28T14:28:38.112Z</time></trkpt><trkpt lat="43.3719966" lon="11.9418597"><ele>669.0</ele><time>2026-03-28T14:28:44.088Z</time></trkpt><trkpt lat="43.3720239" lon="11.9417728"><ele>670.0</ele><time>2026-03-28T14:28:51.077Z</time></trkpt><trkpt lat="43.3720604" lon="11.9416818"><ele>671.0</ele><time>2026-03-28T14:28:58.091Z</time></trkpt><trkpt lat="43.3720871" lon="11.9415978"><ele>672.0</ele><time>2026-03-28T14:29:04.106Z</time></trkpt><trkpt lat="43.3721056" lon="11.9415112"><ele>673.4285714285714</ele><time>2026-03-28T14:29:10.094Z</time></trkpt><trkpt lat="43.3721129" lon="11.9414248"><ele>674.8571428571429</ele><time>2026-03-28T14:29:15.097Z</time></trkpt><trkpt lat="43.3720916" lon="11.9413406"><ele>676.2857142857142</ele><time>2026-03-28T14:29:21.104Z</time></trkpt><trkpt lat="43.3720426" lon="11.9412624"><ele>677.7142857142858</ele><time>2026-03-28T14:29:28.108Z</time></trkpt><trkpt lat="43.3719881" lon="11.941203"><ele>679.1428571428571</ele><time>2026-03-28T14:29:33.096Z</time></trkpt><trkpt lat="43.3719402" lon="11.9411334"><ele>680.5714285714286</ele><time>2026-03-28T14:29:39.091Z</time></trkpt><trkpt lat="43.3718954" lon="11.9410648"><ele>682.0</ele><time>2026-03-28T14:29:45.101Z</time></trkpt><trkpt lat="43.3718493" lon="11.940985"><ele>682.0</ele><time>2026-03-28T14:29:51.078Z</time></trkpt><trkpt lat="43.3717965" lon="11.9409238"><ele>682.0</ele><time>2026-03-28T14:29:57.119Z</time></trkpt><trkpt lat="43.3717398" lon="11.9408574"><ele>682.0</ele><time>2026-03-28T14:30:03.089Z</time></trkpt><trkpt lat="43.3716974" lon="11.9407822"><ele>682.0</ele><time>2026-03-28T14:30:09.099Z</time></trkpt><trkpt lat="43.3716746" lon="11.9407003"><ele>682.0</ele><time>2026-03-28T14:30:15.109Z</time></trkpt><trkpt lat="43.3716455" lon="11.9406144"><ele>682.0</ele><time>2026-03-28T14:30:21.072Z</time></trkpt><trkpt lat="43.3716134" lon="11.940535"><ele>682.0</ele><time>2026-03-28T14:30:27.096Z</time></trkpt><trkpt lat="43.3715925" lon="11.9404466"><ele>683.7142857142857</ele><time>2026-03-28T14:30:34.146Z</time></trkpt><trkpt lat="43.3715677" lon="11.9403537"><ele>685.4285714285714</ele><time>2026-03-28T14:30:40.093Z</time></trkpt><trkpt lat="43.3715538" lon="11.9402629"><ele>687.1428571428571</ele><time>2026-03-28T14:30:46.109Z</time></trkpt><trkpt lat="43.3715512" lon="11.9401738"><ele>688.8571428571429</ele><time>2026-03-28T14:30:52.12Z</time></trkpt><trkpt lat="43.3715567" lon="11.9400746"><ele>690.5714285714286</ele><time>2026-03-28T14:30:59.112Z</time></trkpt><trkpt lat="43.3715636" lon="11.939984"><ele>692.2857142857143</ele><time>2026-03-28T14:31:05.072Z</time></trkpt><trkpt lat="43.3715765" lon="11.9398985"><ele>694.0</ele><time>2026-03-28T14:31:10.08Z</time></trkpt><trkpt lat="43.3715918" lon="11.9398138"><ele>696.1428571428572</ele><time>2026-03-28T14:31:15.119Z</time></trkpt><trkpt lat="43.3716121" lon="11.9397282"><ele>698.2857142857142</ele><time>2026-03-28T14:31:21.095Z</time></trkpt><trkpt lat="43.3716387" lon="11.9396415"><ele>700.4285714285714</ele><time>2026-03-28T14:31:28.099Z</time></trkpt><trkpt lat="43.371667" lon="11.9395622"><ele>702.5714285714287</ele><time>2026-03-28T14:31:35.027Z</time></trkpt><trkpt lat="43.3716849" lon="11.9394717"><ele>704.7142857142858</ele><time>2026-03-28T14:31:42.098Z</time></trkpt><trkpt lat="43.3717169" lon="11.93939"><ele>706.8571428571429</ele><time>2026-03-28T14:31:49.08Z</time></trkpt><trkpt lat="43.3717471" lon="11.939308"><ele>709.0</ele><time>2026-03-28T14:31:56.103Z</time></trkpt><trkpt lat="43.3717642" lon="11.9392218"><ele>709.7142857142858</ele><time>2026-03-28T14:32:02.111Z</time></trkpt><trkpt lat="43.3717948" lon="11.939139"><ele>710.4285714285714</ele><time>2026-03-28T14:32:08.114Z</time></trkpt><trkpt lat="43.3718158" lon="11.9390524"><ele>711.1428571428571</ele><time>2026-03-28T14:32:15.012Z</time></trkpt><trkpt lat="43.371842" lon="11.9389641"><ele>711.8571428571429</ele><time>2026-03-28T14:32:22.084Z</time></trkpt><trkpt lat="43.3718602" lon="11.9388713"><ele>712.5714285714286</ele><time>2026-03-28T14:32:28.099Z</time></trkpt><trkpt lat="43.3718648" lon="11.9387838"><ele>713.2857142857143</ele><time>2026-03-28T14:32:33.167Z</time></trkpt><trkpt lat="43.3718466" lon="11.9387003"><ele>714.0</ele><time>2026-03-28T14:32:39.098Z</time></trkpt><trkpt lat="43.3717841" lon="11.9386653"><ele>714.0</ele><time>2026-03-28T14:32:47.096Z</time></trkpt><trkpt lat="43.3717118" lon="11.9386561"><ele>714.0</ele><time>2026-03-28T14:32:54.088Z</time></trkpt><trkpt lat="43.3716427" lon="11.9386546"><ele>714.0</ele><time>2026-03-28T14:33:00.112Z</time></trkpt><trkpt lat="43.3715741" lon="11.9386294"><ele>714.0</ele><time>2026-03-28T14:33:07.088Z</time></trkpt><trkpt lat="43.371517" lon="11.9385782"><ele>714.0</ele><time>2026-03-28T14:33:13.07Z</time></trkpt><trkpt lat="43.371529" lon="11.9384927"><ele>714.0</ele><time>2026-03-28T14:33:20.113Z</time></trkpt><trkpt lat="43.3715726" lon="11.9384298"><ele>714.0</ele><time>2026-03-28T14:33:26.108Z</time></trkpt><trkpt lat="43.3716415" lon="11.9384059"><ele>715.0</ele><time>2026-03-28T14:33:32.104Z</time></trkpt><trkpt lat="43.3717057" lon="11.9383613"><ele>716.0</ele><time>2026-03-28T14:33:39.08Z</time></trkpt><trkpt lat="43.3717343" lon="11.9382805"><ele>717.0</ele><time>2026-03-28T14:33:54.126Z</time></trkpt><trkpt lat="43.3716699" lon="11.9383268"><ele>718.0</ele><time>2026-03-28T14:34:18.061Z</time></trkpt><trkpt lat="43.371622" lon="11.9382689"><ele>719.0</ele><time>2026-03-28T14:36:17.093Z</time></trkpt><trkpt lat="43.3716008" lon="11.9381813"><ele>720.0</ele><time>2026-03-28T14:37:25.11Z</time></trkpt><trkpt lat="43.3715769" lon="11.9380994"><ele>721.0</ele><time>2026-03-28T14:37:32.074Z</time></trkpt><trkpt lat="43.371514" lon="11.9381031"><ele>721.0</ele><time>2026-03-28T14:37:40.064Z</time></trkpt><trkpt lat="43.3715054" lon="11.9380097"><ele>721.0</ele><time>2026-03-28T14:37:51.097Z</time></trkpt><trkpt lat="43.3714449" lon="11.937983"><ele>721.0</ele><time>2026-03-28T14:37:58.063Z</time></trkpt><trkpt lat="43.3713978" lon="11.937923"><ele>721.0</ele><time>2026-03-28T14:38:08.081Z</time></trkpt><trkpt lat="43.3713398" lon="11.9378718"><ele>721.0</ele><time>2026-03-28T14:38:23.07Z</time></trkpt><trkpt lat="43.371279" lon="11.937835"><ele>721.0</ele><time>2026-03-28T14:38:33.101Z</time></trkpt><trkpt lat="43.3712268" lon="11.9377752"><ele>721.0</ele><time>2026-03-28T14:38:42.074Z</time></trkpt><trkpt lat="43.3711834" lon="11.9376945"><ele>721.6666666666667</ele><time>2026-03-28T14:38:48.018Z</time></trkpt><trkpt lat="43.3711709" lon="11.9375843"><ele>722.3333333333334</ele><time>2026-03-28T14:38:55.074Z</time></trkpt><trkpt lat="43.3711173" lon="11.9375351"><ele>723.0</ele><time>2026-03-28T14:38:57.06Z</time></trkpt><trkpt lat="43.3710666" lon="11.9374537"><ele>723.6666666666666</ele><time>2026-03-28T14:39:00.099Z</time></trkpt><trkpt lat="43.3710177" lon="11.9373666"><ele>724.3333333333333</ele><time>2026-03-28T14:39:03.018Z</time></trkpt><trkpt lat="43.3709548" lon="11.9372916"><ele>725.0</ele><time>2026-03-28T14:39:07.006Z</time></trkpt><trkpt lat="43.3709025" lon="11.9372067"><ele>724.5714285714286</ele><time>2026-03-28T14:39:11.094Z</time></trkpt><trkpt lat="43.3708461" lon="11.9371336"><ele>724.1428571428571</ele><time>2026-03-28T14:39:15.089Z</time></trkpt><trkpt lat="43.3707935" lon="11.9370797"><ele>723.7142857142858</ele><time>2026-03-28T14:39:18.126Z</time></trkpt><trkpt lat="43.3707335" lon="11.9370467"><ele>723.2857142857142</ele><time>2026-03-28T14:39:21.07Z</time></trkpt><trkpt lat="43.3706642" lon="11.9370233"><ele>722.8571428571428</ele><time>2026-03-28T14:39:24.094Z</time></trkpt><trkpt lat="43.3705968" lon="11.9369933"><ele>722.4285714285714</ele><time>2026-03-28T14:39:27.087Z</time></trkpt><trkpt lat="43.3705244" lon="11.9369583"><ele>722.0</ele><time>2026-03-28T14:39:31.09Z</time></trkpt><trkpt lat="43.3704519" lon="11.9369393"><ele>722.0</ele><time>2026-03-28T14:39:35.098Z</time></trkpt><trkpt lat="43.3703779" lon="11.9369234"><ele>722.0</ele><time>2026-03-28T14:39:39.083Z</time></trkpt><trkpt lat="43.3702981" lon="11.9368861"><ele>722.0</ele><time>2026-03-28T14:39:43.092Z</time></trkpt><trkpt lat="43.3702398" lon="11.9368489"><ele>722.0</ele><time>2026-03-28T14:39:46.107Z</time></trkpt><trkpt lat="43.3701807" lon="11.936816"><ele>722.0</ele><time>2026-03-28T14:39:49.056Z</time></trkpt><trkpt lat="43.3701175" lon="11.9367823"><ele>722.0</ele><time>2026-03-28T14:39:52.066Z</time></trkpt><trkpt lat="43.3700469" lon="11.9367524"><ele>722.0</ele><time>2026-03-28T14:39:55.998Z</time></trkpt><trkpt lat="43.3699888" lon="11.936718"><ele>721.1428571428572</ele><time>2026-03-28T14:39:59.084Z</time></trkpt><trkpt lat="43.3699109" lon="11.9366905"><ele>720.2857142857142</ele><time>2026-03-28T14:40:03.086Z</time></trkpt><trkpt lat="43.3698455" lon="11.9367002"><ele>719.4285714285714</ele><time>2026-03-28T14:40:06.107Z</time></trkpt><trkpt lat="43.3697699" lon="11.9367048"><ele>718.5714285714287</ele><time>2026-03-28T14:40:09.091Z</time></trkpt><trkpt lat="43.3696981" lon="11.9367005"><ele>717.7142857142858</ele><time>2026-03-28T14:40:12.081Z</time></trkpt><trkpt lat="43.3696266" lon="11.9367115"><ele>716.8571428571429</ele><time>2026-03-28T14:40:15.056Z</time></trkpt><trkpt lat="43.3695536" lon="11.9367146"><ele>716.0</ele><time>2026-03-28T14:40:18.105Z</time></trkpt><trkpt lat="43.3694812" lon="11.9367363"><ele>716.0000000000001</ele><time>2026-03-28T14:40:21.077Z</time></trkpt><trkpt lat="43.3694011" lon="11.9367368"><ele>716.0</ele><time>2026-03-28T14:40:24.102Z</time></trkpt><trkpt lat="43.3693247" lon="11.9367647"><ele>716.0</ele><time>2026-03-28T14:40:27.11Z</time></trkpt><trkpt lat="43.3692555" lon="11.936804"><ele>716.0</ele><time>2026-03-28T14:40:30.09Z</time></trkpt><trkpt lat="43.3691957" lon="11.9368559"><ele>716.0</ele><time>2026-03-28T14:40:33.105Z</time></trkpt><trkpt lat="43.3691293" lon="11.9368932"><ele>716.0000000000001</ele><time>2026-03-28T14:40:36.09Z</time></trkpt><trkpt lat="43.3690691" lon="11.9369308"><ele>716.0</ele><time>2026-03-28T14:40:39.107Z</time></trkpt><trkpt lat="43.3689928" lon="11.9369752"><ele>716.0000000000001</ele><time>2026-03-28T14:40:43.102Z</time></trkpt><trkpt lat="43.3689373" lon="11.937049"><ele>716.0</ele><time>2026-03-28T14:40:47.081Z</time></trkpt><trkpt lat="43.3689042" lon="11.9371241"><ele>716.0</ele><time>2026-03-28T14:40:50.096Z</time></trkpt><trkpt lat="43.3688671" lon="11.9372155"><ele>716.0</ele><time>2026-03-28T14:40:54.083Z</time></trkpt><trkpt lat="43.368813" lon="11.9372621"><ele>716.0</ele><time>2026-03-28T14:40:56.964Z</time></trkpt><trkpt lat="43.3687377" lon="11.937297"><ele>716.0000000000001</ele><time>2026-03-28T14:41:01.077Z</time></trkpt><trkpt lat="43.3686708" lon="11.9373073"><ele>716.0</ele><time>2026-03-28T14:41:05.073Z</time></trkpt><trkpt lat="43.3686267" lon="11.937215"><ele>715.2857142857143</ele><time>2026-03-28T14:41:09.094Z</time></trkpt><trkpt lat="43.3685872" lon="11.9371241"><ele>714.5714285714286</ele><time>2026-03-28T14:41:30.067Z</time></trkpt><trkpt lat="43.368575" lon="11.9370219"><ele>713.8571428571429</ele><time>2026-03-28T14:41:33.02Z</time></trkpt><trkpt lat="43.3685511" lon="11.9369335"><ele>713.1428571428571</ele><time>2026-03-28T14:41:36.095Z</time></trkpt><trkpt lat="43.3685029" lon="11.9368543"><ele>712.4285714285714</ele><time>2026-03-28T14:41:40.087Z</time></trkpt><trkpt lat="43.3684643" lon="11.9367668"><ele>711.7142857142858</ele><time>2026-03-28T14:41:44.097Z</time></trkpt><trkpt lat="43.3684472" lon="11.9366829"><ele>711.0</ele><time>2026-03-28T14:41:47.129Z</time></trkpt><trkpt lat="43.3684192" lon="11.9365862"><ele>708.7142857142858</ele><time>2026-03-28T14:41:51.05Z</time></trkpt><trkpt lat="43.3683975" lon="11.9365008"><ele>706.4285714285714</ele><time>2026-03-28T14:41:55.088Z</time></trkpt><trkpt lat="43.3683486" lon="11.9364078"><ele>704.1428571428571</ele><time>2026-03-28T14:41:59.069Z</time></trkpt><trkpt lat="43.3682992" lon="11.9363378"><ele>701.8571428571429</ele><time>2026-03-28T14:42:02.108Z</time></trkpt><trkpt lat="43.3682379" lon="11.9362758"><ele>699.5714285714286</ele><time>2026-03-28T14:42:05.899Z</time></trkpt><trkpt lat="43.3681819" lon="11.9361982"><ele>697.2857142857143</ele><time>2026-03-28T14:42:10.099Z</time></trkpt><trkpt lat="43.3681219" lon="11.9361519"><ele>695.0</ele><time>2026-03-28T14:42:13.015Z</time></trkpt><trkpt lat="43.3680629" lon="11.9361077"><ele>695.4285714285714</ele><time>2026-03-28T14:42:16.038Z</time></trkpt><trkpt lat="43.3680018" lon="11.936067"><ele>695.8571428571429</ele><time>2026-03-28T14:42:19.066Z</time></trkpt><trkpt lat="43.3679359" lon="11.9360284"><ele>696.2857142857142</ele><time>2026-03-28T14:42:22.102Z</time></trkpt><trkpt lat="43.3678853" lon="11.9359688"><ele>696.7142857142858</ele><time>2026-03-28T14:42:25.075Z</time></trkpt><trkpt lat="43.3678299" lon="11.9359149"><ele>697.1428571428571</ele><time>2026-03-28T14:42:28.087Z</time></trkpt><trkpt lat="43.3677691" lon="11.9358737"><ele>697.5714285714286</ele><time>2026-03-28T14:42:31.094Z</time></trkpt><trkpt lat="43.3677014" lon="11.935854"><ele>698.0</ele><time>2026-03-28T14:42:34.095Z</time></trkpt><trkpt lat="43.367628" lon="11.9358419"><ele>695.1428571428571</ele><time>2026-03-28T14:42:37.089Z</time></trkpt><trkpt lat="43.3675578" lon="11.9358211"><ele>692.2857142857142</ele><time>2026-03-28T14:42:40.642Z</time></trkpt><trkpt lat="43.367487" lon="11.9357992"><ele>689.4285714285713</ele><time>2026-03-28T14:42:44.095Z</time></trkpt><trkpt lat="43.3674079" lon="11.9357927"><ele>686.5714285714286</ele><time>2026-03-28T14:42:48.07Z</time></trkpt><trkpt lat="43.3673355" lon="11.9358047"><ele>683.7142857142858</ele><time>2026-03-28T14:42:52.043Z</time></trkpt><trkpt lat="43.3672734" lon="11.9358441"><ele>680.8571428571428</ele><time>2026-03-28T14:42:55.083Z</time></trkpt><trkpt lat="43.3671949" lon="11.9358479"><ele>678.0</ele><time>2026-03-28T14:42:58.093Z</time></trkpt><trkpt lat="43.3671274" lon="11.9358318"><ele>677.4285714285714</ele><time>2026-03-28T14:43:01.042Z</time></trkpt><trkpt lat="43.3670579" lon="11.9358632"><ele>676.8571428571429</ele><time>2026-03-28T14:43:04.084Z</time></trkpt><trkpt lat="43.3669897" lon="11.9359049"><ele>676.2857142857143</ele><time>2026-03-28T14:43:07.06Z</time></trkpt><trkpt lat="43.3669158" lon="11.9358962"><ele>675.7142857142858</ele><time>2026-03-28T14:43:10.104Z</time></trkpt><trkpt lat="43.3668524" lon="11.9358699"><ele>675.1428571428571</ele><time>2026-03-28T14:43:13.081Z</time></trkpt><trkpt lat="43.3667888" lon="11.935851"><ele>674.5714285714287</ele><time>2026-03-28T14:43:16.077Z</time></trkpt><trkpt lat="43.3667117" lon="11.9358334"><ele>674.0</ele><time>2026-03-28T14:43:20.023Z</time></trkpt><trkpt lat="43.3666475" lon="11.9358441"><ele>674.0000000000001</ele><time>2026-03-28T14:43:23.002Z</time></trkpt><trkpt lat="43.3665839" lon="11.9358527"><ele>674.0</ele><time>2026-03-28T14:43:26.001Z</time></trkpt><trkpt lat="43.3665148" lon="11.9358751"><ele>674.0</ele><time>2026-03-28T14:43:29.095Z</time></trkpt><trkpt lat="43.3664489" lon="11.9358785"><ele>674.0</ele><time>2026-03-28T14:43:32.087Z</time></trkpt><trkpt lat="43.3663841" lon="11.9358981"><ele>674.0</ele><time>2026-03-28T14:43:35.087Z</time></trkpt><trkpt lat="43.3663193" lon="11.9359127"><ele>674.0000000000001</ele><time>2026-03-28T14:43:38.089Z</time></trkpt><trkpt lat="43.3662512" lon="11.9359247"><ele>674.0</ele><time>2026-03-28T14:43:41.105Z</time></trkpt><trkpt lat="43.36618" lon="11.9359477"><ele>676.2857142857143</ele><time>2026-03-28T14:43:44.08Z</time></trkpt><trkpt lat="43.3661238" lon="11.9359983"><ele>678.5714285714286</ele><time>2026-03-28T14:43:47.072Z</time></trkpt><trkpt lat="43.3660955" lon="11.9360923"><ele>680.8571428571429</ele><time>2026-03-28T14:43:51.024Z</time></trkpt><trkpt lat="43.3660387" lon="11.9361614"><ele>683.1428571428571</ele><time>2026-03-28T14:43:54.983Z</time></trkpt><trkpt lat="43.3659614" lon="11.9361663"><ele>685.4285714285714</ele><time>2026-03-28T14:43:59.025Z</time></trkpt><trkpt lat="43.3658931" lon="11.9361515"><ele>687.7142857142858</ele><time>2026-03-28T14:44:04.082Z</time></trkpt><trkpt lat="43.3658374" lon="11.9361063"><ele>690.0</ele><time>2026-03-28T14:44:08.086Z</time></trkpt><trkpt lat="43.3657742" lon="11.9360604"><ele>690.0</ele><time>2026-03-28T14:44:12.088Z</time></trkpt><trkpt lat="43.3657178" lon="11.9359879"><ele>690.0</ele><time>2026-03-28T14:44:16.015Z</time></trkpt><trkpt lat="43.3656377" lon="11.9360008"><ele>690.0</ele><time>2026-03-28T14:44:20.064Z</time></trkpt><trkpt lat="43.3655711" lon="11.9360241"><ele>690.0</ele><time>2026-03-28T14:44:23.074Z</time></trkpt><trkpt lat="43.3654988" lon="11.9360644"><ele>690.0</ele><time>2026-03-28T14:44:27.079Z</time></trkpt><trkpt lat="43.3654343" lon="11.9360638"><ele>690.0</ele><time>2026-03-28T14:44:32.068Z</time></trkpt><trkpt lat="43.3653801" lon="11.9360136"><ele>690.0</ele><time>2026-03-28T14:44:37.09Z</time></trkpt><trkpt lat="43.365329" lon="11.9359417"><ele>687.8333333333334</ele><time>2026-03-28T14:44:41.093Z</time></trkpt><trkpt lat="43.3652709" lon="11.9358641"><ele>685.6666666666666</ele><time>2026-03-28T14:44:45.096Z</time></trkpt><trkpt lat="43.3652155" lon="11.9357776"><ele>683.5</ele><time>2026-03-28T14:44:49.023Z</time></trkpt><trkpt lat="43.3651751" lon="11.935702"><ele>681.3333333333333</ele><time>2026-03-28T14:44:52.093Z</time></trkpt><trkpt lat="43.365115" lon="11.9356336"><ele>679.1666666666666</ele><time>2026-03-28T14:44:56.082Z</time></trkpt><trkpt lat="43.3650493" lon="11.9355997"><ele>677.0</ele><time>2026-03-28T14:45:00.021Z</time></trkpt><trkpt lat="43.364997" lon="11.9355365"><ele>676.9999999999999</ele><time>2026-03-28T14:45:04.093Z</time></trkpt><trkpt lat="43.3649373" lon="11.935479"><ele>677.0</ele><time>2026-03-28T14:45:08.076Z</time></trkpt><trkpt lat="43.3648882" lon="11.9354123"><ele>677.0</ele><time>2026-03-28T14:45:12.121Z</time></trkpt><trkpt lat="43.3648396" lon="11.9353423"><ele>677.0</ele><time>2026-03-28T14:45:16.089Z</time></trkpt><trkpt lat="43.3647814" lon="11.9352954"><ele>677.0</ele><time>2026-03-28T14:45:20.087Z</time></trkpt><trkpt lat="43.3647157" lon="11.935238"><ele>676.9999999999999</ele><time>2026-03-28T14:45:24.085Z</time></trkpt><trkpt lat="43.3646583" lon="11.9351543"><ele>677.0</ele><time>2026-03-28T14:45:28.079Z</time></trkpt><trkpt lat="43.3646008" lon="11.9350764"><ele>674.2857142857142</ele><time>2026-03-28T14:45:32.005Z</time></trkpt><trkpt lat="43.3645499" lon="11.9350166"><ele>671.5714285714286</ele><time>2026-03-28T14:45:35.094Z</time></trkpt><trkpt lat="43.3644937" lon="11.9349529"><ele>668.8571428571429</ele><time>2026-03-28T14:45:39.098Z</time></trkpt><trkpt lat="43.364414" lon="11.9349341"><ele>666.1428571428571</ele><time>2026-03-28T14:45:43.117Z</time></trkpt><trkpt lat="43.3643479" lon="11.9349131"><ele>663.4285714285714</ele><time>2026-03-28T14:45:46.039Z</time></trkpt><trkpt lat="43.3642832" lon="11.9348593"><ele>660.7142857142857</ele><time>2026-03-28T14:45:49.065Z</time></trkpt><trkpt lat="43.3642142" lon="11.9348275"><ele>658.0</ele><time>2026-03-28T14:45:52.081Z</time></trkpt><trkpt lat="43.3641462" lon="11.9348502"><ele>658.0</ele><time>2026-03-28T14:45:55.086Z</time></trkpt><trkpt lat="43.3640783" lon="11.9348425"><ele>658.0</ele><time>2026-03-28T14:45:58.096Z</time></trkpt><trkpt lat="43.3640097" lon="11.934866"><ele>658.0</ele><time>2026-03-28T14:46:02.038Z</time></trkpt><trkpt lat="43.3639376" lon="11.9349033"><ele>658.0</ele><time>2026-03-28T14:46:06.107Z</time></trkpt><trkpt lat="43.3638688" lon="11.9349394"><ele>658.0</ele><time>2026-03-28T14:46:10.1Z</time></trkpt><trkpt lat="43.3638042" lon="11.9350051"><ele>658.0</ele><time>2026-03-28T14:46:14.058Z</time></trkpt><trkpt lat="43.3637566" lon="11.9350942"><ele>658.2857142857143</ele><time>2026-03-28T14:46:18.061Z</time></trkpt><trkpt lat="43.3636853" lon="11.93511"><ele>658.5714285714286</ele><time>2026-03-28T14:46:22.147Z</time></trkpt><trkpt lat="43.3636328" lon="11.9350357"><ele>658.8571428571429</ele><time>2026-03-28T14:46:27.104Z</time></trkpt><trkpt lat="43.3635794" lon="11.9349639"><ele>659.1428571428571</ele><time>2026-03-28T14:46:31.108Z</time></trkpt><trkpt lat="43.3635163" lon="11.9349272"><ele>659.4285714285714</ele><time>2026-03-28T14:46:34.081Z</time></trkpt><trkpt lat="43.3634413" lon="11.934887"><ele>659.7142857142858</ele><time>2026-03-28T14:46:38.081Z</time></trkpt><trkpt lat="43.3633812" lon="11.9348331"><ele>660.0</ele><time>2026-03-28T14:46:42.018Z</time></trkpt><trkpt lat="43.3633209" lon="11.9347918"><ele>657.7142857142858</ele><time>2026-03-28T14:46:45.088Z</time></trkpt><trkpt lat="43.3632572" lon="11.9347777"><ele>655.4285714285714</ele><time>2026-03-28T14:46:48.112Z</time></trkpt><trkpt lat="43.3631893" lon="11.9347708"><ele>653.1428571428571</ele><time>2026-03-28T14:46:51.088Z</time></trkpt><trkpt lat="43.3630988" lon="11.9347935"><ele>650.8571428571429</ele><time>2026-03-28T14:46:55.108Z</time></trkpt><trkpt lat="43.3630254" lon="11.934839"><ele>648.5714285714286</ele><time>2026-03-28T14:46:58.957Z</time></trkpt><trkpt lat="43.36297" lon="11.9349028"><ele>646.2857142857143</ele><time>2026-03-28T14:47:03.059Z</time></trkpt><trkpt lat="43.3629206" lon="11.9349667"><ele>644.0</ele><time>2026-03-28T14:47:07.097Z</time></trkpt><trkpt lat="43.3628698" lon="11.935021"><ele>643.8571428571429</ele><time>2026-03-28T14:47:11.111Z</time></trkpt><trkpt lat="43.3627956" lon="11.935"><ele>643.7142857142858</ele><time>2026-03-28T14:47:17.09Z</time></trkpt><trkpt lat="43.3627294" lon="11.9349698"><ele>643.5714285714286</ele><time>2026-03-28T14:47:22.018Z</time></trkpt><trkpt lat="43.3626716" lon="11.9348969"><ele>643.4285714285714</ele><time>2026-03-28T14:47:27.086Z</time></trkpt><trkpt lat="43.3626088" lon="11.9348466"><ele>643.2857142857143</ele><time>2026-03-28T14:47:31.084Z</time></trkpt><trkpt lat="43.3625769" lon="11.9347535"><ele>643.1428571428571</ele><time>2026-03-28T14:47:35.104Z</time></trkpt><trkpt lat="43.3625125" lon="11.9346958"><ele>643.0</ele><time>2026-03-28T14:47:40.101Z</time></trkpt><trkpt lat="43.3624703" lon="11.9346161"><ele>643.0</ele><time>2026-03-28T14:47:45.126Z</time></trkpt><trkpt lat="43.3624149" lon="11.9345565"><ele>643.0</ele><time>2026-03-28T14:47:50.107Z</time></trkpt><trkpt lat="43.362369" lon="11.934492"><ele>643.0</ele><time>2026-03-28T14:47:54.088Z</time></trkpt><trkpt lat="43.3623146" lon="11.9344049"><ele>643.0</ele><time>2026-03-28T14:47:58.111Z</time></trkpt><trkpt lat="43.3622902" lon="11.9343137"><ele>643.0</ele><time>2026-03-28T14:48:01.088Z</time></trkpt><trkpt lat="43.3622473" lon="11.9342484"><ele>643.0</ele><time>2026-03-28T14:48:04.103Z</time></trkpt><trkpt lat="43.3622201" lon="11.9341646"><ele>643.0</ele><time>2026-03-28T14:48:08.092Z</time></trkpt><trkpt lat="43.3622464" lon="11.9340626"><ele>643.1428571428571</ele><time>2026-03-28T14:48:12.093Z</time></trkpt><trkpt lat="43.3622517" lon="11.93397"><ele>643.2857142857143</ele><time>2026-03-28T14:48:16.115Z</time></trkpt><trkpt lat="43.3622542" lon="11.9338813"><ele>643.4285714285714</ele><time>2026-03-28T14:48:19.109Z</time></trkpt><trkpt lat="43.3622605" lon="11.9337928"><ele>643.5714285714286</ele><time>2026-03-28T14:48:22.121Z</time></trkpt><trkpt lat="43.362234" lon="11.9337131"><ele>643.7142857142858</ele><time>2026-03-28T14:48:25.101Z</time></trkpt><trkpt lat="43.3622018" lon="11.9336169"><ele>643.8571428571429</ele><time>2026-03-28T14:48:29.069Z</time></trkpt><trkpt lat="43.3621715" lon="11.9335262"><ele>644.0</ele><time>2026-03-28T14:48:34.108Z</time></trkpt><trkpt lat="43.3621519" lon="11.9334225"><ele>642.8571428571429</ele><time>2026-03-28T14:48:39.088Z</time></trkpt><trkpt lat="43.3621329" lon="11.9333374"><ele>641.7142857142858</ele><time>2026-03-28T14:48:43.094Z</time></trkpt><trkpt lat="43.3621125" lon="11.9332374"><ele>640.5714285714286</ele><time>2026-03-28T14:48:47.083Z</time></trkpt><trkpt lat="43.3620814" lon="11.9331464"><ele>639.4285714285714</ele><time>2026-03-28T14:48:50.073Z</time></trkpt><trkpt lat="43.3620397" lon="11.9330514"><ele>638.2857142857143</ele><time>2026-03-28T14:48:53.068Z</time></trkpt><trkpt lat="43.3620097" lon="11.9329513"><ele>637.1428571428571</ele><time>2026-03-28T14:48:56.115Z</time></trkpt><trkpt lat="43.3619651" lon="11.9328787"><ele>636.0</ele><time>2026-03-28T14:48:59.077Z</time></trkpt><trkpt lat="43.3619344" lon="11.9327932"><ele>636.0</ele><time>2026-03-28T14:49:02.04Z</time></trkpt><trkpt lat="43.361899" lon="11.9326977"><ele>636.0</ele><time>2026-03-28T14:49:05.104Z</time></trkpt><trkpt lat="43.3618669" lon="11.9325995"><ele>636.0</ele><time>2026-03-28T14:49:08.091Z</time></trkpt><trkpt lat="43.361835" lon="11.932493"><ele>636.0</ele><time>2026-03-28T14:49:11.1Z</time></trkpt><trkpt lat="43.3617753" lon="11.9323955"><ele>636.0</ele><time>2026-03-28T14:49:14.108Z</time></trkpt><trkpt lat="43.3617228" lon="11.9323007"><ele>636.0</ele><time>2026-03-28T14:49:17.092Z</time></trkpt><trkpt lat="43.3616762" lon="11.9322371"><ele>634.6666666666666</ele><time>2026-03-28T14:49:20.095Z</time></trkpt><trkpt lat="43.3616312" lon="11.9321425"><ele>633.3333333333334</ele><time>2026-03-28T14:49:24.089Z</time></trkpt><trkpt lat="43.3616329" lon="11.9320552"><ele>632.0</ele><time>2026-03-28T14:49:26.984Z</time></trkpt><trkpt lat="43.3616151" lon="11.9319486"><ele>630.6666666666667</ele><time>2026-03-28T14:49:30.105Z</time></trkpt><trkpt lat="43.3616037" lon="11.9318344"><ele>629.3333333333334</ele><time>2026-03-28T14:49:33.003Z</time></trkpt><trkpt lat="43.3615821" lon="11.9317234"><ele>628.0</ele><time>2026-03-28T14:49:36.087Z</time></trkpt><trkpt lat="43.3615766" lon="11.9316214"><ele>626.9999999999999</ele><time>2026-03-28T14:49:39.092Z</time></trkpt><trkpt lat="43.3615832" lon="11.9315266"><ele>626.0</ele><time>2026-03-28T14:49:42.079Z</time></trkpt><trkpt lat="43.3615994" lon="11.9314298"><ele>625.0</ele><time>2026-03-28T14:49:45.043Z</time></trkpt><trkpt lat="43.3615892" lon="11.9313278"><ele>624.0</ele><time>2026-03-28T14:49:48.106Z</time></trkpt><trkpt lat="43.3615738" lon="11.9312318"><ele>623.0</ele><time>2026-03-28T14:49:51.118Z</time></trkpt><trkpt lat="43.361576" lon="11.9311379"><ele>621.9999999999999</ele><time>2026-03-28T14:49:54.116Z</time></trkpt><trkpt lat="43.3615641" lon="11.931037"><ele>621.0</ele><time>2026-03-28T14:49:57.064Z</time></trkpt><trkpt lat="43.3615321" lon="11.9309529"><ele>619.8571428571428</ele><time>2026-03-28T14:50:00.088Z</time></trkpt><trkpt lat="43.361477" lon="11.9308762"><ele>618.7142857142857</ele><time>2026-03-28T14:50:04.002Z</time></trkpt><trkpt lat="43.3614611" lon="11.9307887"><ele>617.5714285714286</ele><time>2026-03-28T14:50:07.09Z</time></trkpt><trkpt lat="43.3614513" lon="11.9307018"><ele>616.4285714285713</ele><time>2026-03-28T14:50:10.117Z</time></trkpt><trkpt lat="43.3614118" lon="11.9306174"><ele>615.2857142857142</ele><time>2026-03-28T14:50:13.108Z</time></trkpt><trkpt lat="43.3613832" lon="11.9305317"><ele>614.1428571428571</ele><time>2026-03-28T14:50:16.076Z</time></trkpt><trkpt lat="43.3613646" lon="11.9304365"><ele>613.0</ele><time>2026-03-28T14:50:19.102Z</time></trkpt><trkpt lat="43.3613335" lon="11.9303423"><ele>610.8571428571429</ele><time>2026-03-28T14:50:23.018Z</time></trkpt><trkpt lat="43.3613083" lon="11.9302421"><ele>608.7142857142857</ele><time>2026-03-28T14:50:27.11Z</time></trkpt><trkpt lat="43.3612838" lon="11.9301531"><ele>606.5714285714286</ele><time>2026-03-28T14:50:30.068Z</time></trkpt><trkpt lat="43.3612576" lon="11.9300678"><ele>604.4285714285714</ele><time>2026-03-28T14:50:33.027Z</time></trkpt><trkpt lat="43.3612182" lon="11.929983"><ele>602.2857142857143</ele><time>2026-03-28T14:50:36.091Z</time></trkpt><trkpt lat="43.3611899" lon="11.9298965"><ele>600.1428571428571</ele><time>2026-03-28T14:50:39.096Z</time></trkpt><trkpt lat="43.3611488" lon="11.9298159"><ele>598.0</ele><time>2026-03-28T14:50:42.105Z</time></trkpt><trkpt lat="43.3611091" lon="11.9297371"><ele>597.2857142857142</ele><time>2026-03-28T14:50:45.102Z</time></trkpt><trkpt lat="43.3610822" lon="11.9296495"><ele>596.5714285714286</ele><time>2026-03-28T14:50:48.078Z</time></trkpt><trkpt lat="43.3610513" lon="11.9295688"><ele>595.8571428571429</ele><time>2026-03-28T14:50:51.104Z</time></trkpt><trkpt lat="43.3610254" lon="11.929476"><ele>595.1428571428571</ele><time>2026-03-28T14:50:54.09Z</time></trkpt><trkpt lat="43.361039" lon="11.9293846"><ele>594.4285714285714</ele><time>2026-03-28T14:50:57.043Z</time></trkpt><trkpt lat="43.3610227" lon="11.9292781"><ele>593.7142857142857</ele><time>2026-03-28T14:51:00.094Z</time></trkpt><trkpt lat="43.3610289" lon="11.9291778"><ele>593.0</ele><time>2026-03-28T14:51:03Z</time></trkpt><trkpt lat="43.3609909" lon="11.9291026"><ele>593.0</ele><time>2026-03-28T14:51:06.037Z</time></trkpt><trkpt lat="43.360936" lon="11.9290209"><ele>593.0</ele><time>2026-03-28T14:51:10.079Z</time></trkpt><trkpt lat="43.3608824" lon="11.9289592"><ele>593.0</ele><time>2026-03-28T14:51:13.068Z</time></trkpt><trkpt lat="43.3608101" lon="11.9289122"><ele>593.0</ele><time>2026-03-28T14:51:16.966Z</time></trkpt><trkpt lat="43.3607301" lon="11.9288806"><ele>593.0</ele><time>2026-03-28T14:51:21.076Z</time></trkpt><trkpt lat="43.3606682" lon="11.9288434"><ele>593.0</ele><time>2026-03-28T14:51:24.02Z</time></trkpt><trkpt lat="43.3605849" lon="11.9288204"><ele>589.2857142857142</ele><time>2026-03-28T14:51:27.101Z</time></trkpt><trkpt lat="43.3605181" lon="11.9287715"><ele>585.5714285714286</ele><time>2026-03-28T14:51:30.074Z</time></trkpt><trkpt lat="43.3604503" lon="11.9287433"><ele>581.8571428571429</ele><time>2026-03-28T14:51:32.978Z</time></trkpt><trkpt lat="43.3603863" lon="11.9287269"><ele>578.1428571428571</ele><time>2026-03-28T14:51:36.08Z</time></trkpt><trkpt lat="43.3603216" lon="11.9287599"><ele>574.4285714285714</ele><time>2026-03-28T14:51:39.041Z</time></trkpt><trkpt lat="43.360247" lon="11.9287331"><ele>570.7142857142857</ele><time>2026-03-28T14:51:43.116Z</time></trkpt><trkpt lat="43.3601861" lon="11.9286846"><ele>567.0</ele><time>2026-03-28T14:51:46.106Z</time></trkpt><trkpt lat="43.3601331" lon="11.9286048"><ele>567.0</ele><time>2026-03-28T14:51:49.026Z</time></trkpt><trkpt lat="43.3601076" lon="11.9285053"><ele>567.0</ele><time>2026-03-28T14:51:52.022Z</time></trkpt><trkpt lat="43.3600676" lon="11.9284344"><ele>567.0</ele><time>2026-03-28T14:51:54.066Z</time></trkpt><trkpt lat="43.3600198" lon="11.928344"><ele>567.0</ele><time>2026-03-28T14:51:57.108Z</time></trkpt><trkpt lat="43.3599669" lon="11.9282704"><ele>567.0</ele><time>2026-03-28T14:51:59.849Z</time></trkpt><trkpt lat="43.3599117" lon="11.9281785"><ele>567.0</ele><time>2026-03-28T14:52:03.092Z</time></trkpt><trkpt lat="43.3598702" lon="11.9280967"><ele>566.1666666666666</ele><time>2026-03-28T14:52:06.043Z</time></trkpt><trkpt lat="43.3598349" lon="11.9280116"><ele>565.3333333333334</ele><time>2026-03-28T14:52:09.112Z</time></trkpt><trkpt lat="43.3597927" lon="11.9279318"><ele>564.5</ele><time>2026-03-28T14:52:12.018Z</time></trkpt><trkpt lat="43.359744" lon="11.9278372"><ele>563.6666666666667</ele><time>2026-03-28T14:52:15.066Z</time></trkpt><trkpt lat="43.3597062" lon="11.9277556"><ele>562.8333333333334</ele><time>2026-03-28T14:52:18.128Z</time></trkpt><trkpt lat="43.359649" lon="11.9276849"><ele>562.0</ele><time>2026-03-28T14:52:21.059Z</time></trkpt><trkpt lat="43.3595922" lon="11.9276143"><ele>559.5714285714287</ele><time>2026-03-28T14:52:24.107Z</time></trkpt><trkpt lat="43.3595594" lon="11.9275319"><ele>557.1428571428571</ele><time>2026-03-28T14:52:27Z</time></trkpt><trkpt lat="43.3595063" lon="11.9274609"><ele>554.7142857142858</ele><time>2026-03-28T14:52:30.09Z</time></trkpt><trkpt lat="43.3594349" lon="11.9274322"><ele>552.2857142857143</ele><time>2026-03-28T14:52:33.092Z</time></trkpt><trkpt lat="43.3593859" lon="11.9273778"><ele>549.8571428571429</ele><time>2026-03-28T14:52:36.095Z</time></trkpt><trkpt lat="43.3593535" lon="11.9273013"><ele>547.4285714285714</ele><time>2026-03-28T14:52:39.084Z</time></trkpt><trkpt lat="43.3593265" lon="11.9272117"><ele>545.0</ele><time>2026-03-28T14:52:42.09Z</time></trkpt><trkpt lat="43.3592786" lon="11.9271287"><ele>545.0</ele><time>2026-03-28T14:52:45.119Z</time></trkpt><trkpt lat="43.3592303" lon="11.9270553"><ele>545.0</ele><time>2026-03-28T14:52:48.077Z</time></trkpt><trkpt lat="43.3591841" lon="11.926983"><ele>545.0</ele><time>2026-03-28T14:52:51.168Z</time></trkpt><trkpt lat="43.3591427" lon="11.9269143"><ele>545.0</ele><time>2026-03-28T14:52:54.024Z</time></trkpt><trkpt lat="43.3591007" lon="11.9268431"><ele>545.0</ele><time>2026-03-28T14:52:56.929Z</time></trkpt><trkpt lat="43.3590547" lon="11.9267546"><ele>545.0</ele><time>2026-03-28T14:53:00.114Z</time></trkpt><trkpt lat="43.3590002" lon="11.9266862"><ele>545.0</ele><time>2026-03-28T14:53:03.085Z</time></trkpt><trkpt lat="43.3589465" lon="11.9266298"><ele>545.8333333333333</ele><time>2026-03-28T14:53:07.08Z</time></trkpt><trkpt lat="43.3589044" lon="11.9265064"><ele>546.6666666666666</ele><time>2026-03-28T14:53:10.057Z</time></trkpt><trkpt lat="43.3589232" lon="11.9264045"><ele>547.5</ele><time>2026-03-28T14:53:13.962Z</time></trkpt><trkpt lat="43.3588532" lon="11.9263487"><ele>548.3333333333334</ele><time>2026-03-28T14:53:16.089Z</time></trkpt><trkpt lat="43.3588017" lon="11.9262771"><ele>549.1666666666667</ele><time>2026-03-28T14:53:18.092Z</time></trkpt><trkpt lat="43.3587533" lon="11.9261933"><ele>550.0</ele><time>2026-03-28T14:53:21.067Z</time></trkpt><trkpt lat="43.3587163" lon="11.9261036"><ele>549.8571428571429</ele><time>2026-03-28T14:53:23.071Z</time></trkpt><trkpt lat="43.3586729" lon="11.9260226"><ele>549.7142857142857</ele><time>2026-03-28T14:53:25.095Z</time></trkpt><trkpt lat="43.3586129" lon="11.9259453"><ele>549.5714285714286</ele><time>2026-03-28T14:53:28.103Z</time></trkpt><trkpt lat="43.3585643" lon="11.9258895"><ele>549.4285714285714</ele><time>2026-03-28T14:53:30.093Z</time></trkpt><trkpt lat="43.3585009" lon="11.9258677"><ele>549.2857142857143</ele><time>2026-03-28T14:53:32.077Z</time></trkpt><trkpt lat="43.3584378" lon="11.9258689"><ele>549.1428571428571</ele><time>2026-03-28T14:53:34.039Z</time></trkpt><trkpt lat="43.358349" lon="11.9258876"><ele>549.0</ele><time>2026-03-28T14:53:37.103Z</time></trkpt><trkpt lat="43.3582578" lon="11.9258941"><ele>549.0</ele><time>2026-03-28T14:53:40.098Z</time></trkpt><trkpt lat="43.3581771" lon="11.9258924"><ele>549.0</ele><time>2026-03-28T14:53:43.094Z</time></trkpt><trkpt lat="43.3581002" lon="11.9258962"><ele>549.0</ele><time>2026-03-28T14:53:46.076Z</time></trkpt><trkpt lat="43.3580241" lon="11.9259"><ele>549.0</ele><time>2026-03-28T14:53:49.094Z</time></trkpt><trkpt lat="43.3579458" lon="11.9258932"><ele>549.0</ele><time>2026-03-28T14:53:52.098Z</time></trkpt><trkpt lat="43.3578676" lon="11.9258889"><ele>549.0</ele><time>2026-03-28T14:53:55.039Z</time></trkpt><trkpt lat="43.357796" lon="11.9258845"><ele>547.8571428571429</ele><time>2026-03-28T14:53:58.101Z</time></trkpt><trkpt lat="43.3577269" lon="11.9258992"><ele>546.7142857142858</ele><time>2026-03-28T14:54:01.043Z</time></trkpt><trkpt lat="43.3576509" lon="11.9258607"><ele>545.5714285714287</ele><time>2026-03-28T14:54:04.103Z</time></trkpt><trkpt lat="43.3575779" lon="11.9258491"><ele>544.4285714285714</ele><time>2026-03-28T14:54:07.086Z</time></trkpt><trkpt lat="43.3575078" lon="11.92583"><ele>543.2857142857143</ele><time>2026-03-28T14:54:10.066Z</time></trkpt><trkpt lat="43.3574321" lon="11.9258204"><ele>542.1428571428572</ele><time>2026-03-28T14:54:13.093Z</time></trkpt><trkpt lat="43.3573649" lon="11.9258189"><ele>541.0</ele><time>2026-03-28T14:54:15.879Z</time></trkpt><trkpt lat="43.357297" lon="11.9258124"><ele>541.0000000000001</ele><time>2026-03-28T14:54:19.018Z</time></trkpt><trkpt lat="43.3572296" lon="11.9257972"><ele>541.0</ele><time>2026-03-28T14:54:23.088Z</time></trkpt><trkpt lat="43.3571568" lon="11.9257636"><ele>541.0</ele><time>2026-03-28T14:54:27.117Z</time></trkpt><trkpt lat="43.3570955" lon="11.9257408"><ele>541.0</ele><time>2026-03-28T14:54:30.066Z</time></trkpt><trkpt lat="43.3570246" lon="11.9257264"><ele>541.0</ele><time>2026-03-28T14:54:33.091Z</time></trkpt><trkpt lat="43.3569525" lon="11.9256863"><ele>541.0000000000001</ele><time>2026-03-28T14:54:36.106Z</time></trkpt><trkpt lat="43.3568733" lon="11.9256802"><ele>541.0</ele><time>2026-03-28T14:54:39.09Z</time></trkpt><trkpt lat="43.3567885" lon="11.925677"><ele>538.8333333333334</ele><time>2026-03-28T14:54:42.163Z</time></trkpt><trkpt lat="43.3567078" lon="11.9256448"><ele>536.6666666666667</ele><time>2026-03-28T14:54:45.026Z</time></trkpt><trkpt lat="43.3566272" lon="11.9256087"><ele>534.5</ele><time>2026-03-28T14:54:48.105Z</time></trkpt><trkpt lat="43.3565737" lon="11.925558"><ele>532.3333333333334</ele><time>2026-03-28T14:54:51.094Z</time></trkpt><trkpt lat="43.3565018" lon="11.925547"><ele>530.1666666666666</ele><time>2026-03-28T14:54:54.085Z</time></trkpt><trkpt lat="43.35643" lon="11.9255521"><ele>528.0</ele><time>2026-03-28T14:54:58.066Z</time></trkpt><trkpt lat="43.3563866" lon="11.9254734"><ele>524.7142857142857</ele><time>2026-03-28T14:55:34.038Z</time></trkpt><trkpt lat="43.3563231" lon="11.9254884"><ele>521.4285714285714</ele><time>2026-03-28T14:56:00.114Z</time></trkpt><trkpt lat="43.3562441" lon="11.92547"><ele>518.1428571428571</ele><time>2026-03-28T14:56:04.098Z</time></trkpt><trkpt lat="43.3561767" lon="11.9254294"><ele>514.8571428571429</ele><time>2026-03-28T14:56:08.09Z</time></trkpt><trkpt lat="43.3561115" lon="11.9253933"><ele>511.57142857142856</ele><time>2026-03-28T14:56:14.067Z</time></trkpt><trkpt lat="43.3560397" lon="11.925392"><ele>508.2857142857143</ele><time>2026-03-28T14:56:17.869Z</time></trkpt><trkpt lat="43.3559672" lon="11.9253894"><ele>505.0</ele><time>2026-03-28T14:56:22.089Z</time></trkpt><trkpt lat="43.3558925" lon="11.925353"><ele>505.0</ele><time>2026-03-28T14:56:27.062Z</time></trkpt><trkpt lat="43.3558209" lon="11.9252944"><ele>504.99999999999994</ele><time>2026-03-28T14:56:31.106Z</time></trkpt><trkpt lat="43.3557591" lon="11.9252719"><ele>505.0</ele><time>2026-03-28T14:56:34.082Z</time></trkpt><trkpt lat="43.3556985" lon="11.9252381"><ele>505.0</ele><time>2026-03-28T14:56:37.091Z</time></trkpt><trkpt lat="43.3556419" lon="11.925197"><ele>504.99999999999994</ele><time>2026-03-28T14:56:39.979Z</time></trkpt><trkpt lat="43.3555855" lon="11.9251436"><ele>505.0</ele><time>2026-03-28T14:56:43.11Z</time></trkpt><trkpt lat="43.3555253" lon="11.9250985"><ele>505.0</ele><time>2026-03-28T14:56:46.004Z</time></trkpt><trkpt lat="43.3554606" lon="11.9250632"><ele>503.1428571428571</ele><time>2026-03-28T14:56:49.079Z</time></trkpt><trkpt lat="43.3553961" lon="11.9249953"><ele>501.2857142857142</ele><time>2026-03-28T14:56:53.069Z</time></trkpt><trkpt lat="43.355349" lon="11.9249304"><ele>499.42857142857144</ele><time>2026-03-28T14:56:56.082Z</time></trkpt><trkpt lat="43.355296" lon="11.9248679"><ele>497.57142857142856</ele><time>2026-03-28T14:56:59.097Z</time></trkpt><trkpt lat="43.3552389" lon="11.9247869"><ele>495.7142857142857</ele><time>2026-03-28T14:57:03.102Z</time></trkpt><trkpt lat="43.3552016" lon="11.9246921"><ele>493.8571428571429</ele><time>2026-03-28T14:57:07.079Z</time></trkpt><trkpt lat="43.3551628" lon="11.9246182"><ele>492.00000000000006</ele><time>2026-03-28T14:57:11.1Z</time></trkpt><trkpt lat="43.3551451" lon="11.9245292"><ele>492.0</ele><time>2026-03-28T14:57:15.065Z</time></trkpt><trkpt lat="43.3550994" lon="11.9244254"><ele>492.0</ele><time>2026-03-28T14:57:19.024Z</time></trkpt><trkpt lat="43.3550324" lon="11.9243721"><ele>492.0</ele><time>2026-03-28T14:57:23.089Z</time></trkpt><trkpt lat="43.3550144" lon="11.9242831"><ele>492.0</ele><time>2026-03-28T14:57:26.04Z</time></trkpt><trkpt lat="43.3549628" lon="11.924192"><ele>492.0</ele><time>2026-03-28T14:57:29.076Z</time></trkpt><trkpt lat="43.3549114" lon="11.9241135"><ele>492.0</ele><time>2026-03-28T14:57:32.042Z</time></trkpt><trkpt lat="43.3548615" lon="11.9240169"><ele>492.1666666666667</ele><time>2026-03-28T14:57:34.921Z</time></trkpt><trkpt lat="43.3547984" lon="11.923934"><ele>492.33333333333337</ele><time>2026-03-28T14:57:37.919Z</time></trkpt><trkpt lat="43.35474" lon="11.9238483"><ele>492.5</ele><time>2026-03-28T14:57:40.937Z</time></trkpt><trkpt lat="43.3547033" lon="11.9237681"><ele>492.6666666666667</ele><time>2026-03-28T14:57:43.087Z</time></trkpt><trkpt lat="43.3546626" lon="11.9236653"><ele>492.83333333333337</ele><time>2026-03-28T14:57:46.039Z</time></trkpt><trkpt lat="43.3546224" lon="11.9235817"><ele>493.0</ele><time>2026-03-28T14:57:48.833Z</time></trkpt><trkpt lat="43.3545765" lon="11.9235057"><ele>488.85714285714283</ele><time>2026-03-28T14:57:51.667Z</time></trkpt><trkpt lat="43.3545213" lon="11.9234378"><ele>484.7142857142858</ele><time>2026-03-28T14:57:54.499Z</time></trkpt><trkpt lat="43.354466" lon="11.9233865"><ele>480.5714285714286</ele><time>2026-03-28T14:57:57.378Z</time></trkpt><trkpt lat="43.3544128" lon="11.9233382"><ele>476.42857142857144</ele><time>2026-03-28T14:58:00.295Z</time></trkpt><trkpt lat="43.354343" lon="11.9232774"><ele>472.28571428571433</ele><time>2026-03-28T14:58:04.081Z</time></trkpt><trkpt lat="43.3542806" lon="11.9232276"><ele>468.1428571428572</ele><time>2026-03-28T14:58:07.076Z</time></trkpt><trkpt lat="43.3542374" lon="11.9231502"><ele>464.00000000000006</ele><time>2026-03-28T14:58:10.014Z</time></trkpt><trkpt lat="43.354263" lon="11.9230569"><ele>464.00000000000006</ele><time>2026-03-28T14:58:13.079Z</time></trkpt><trkpt lat="43.354327" lon="11.9229879"><ele>464.0</ele><time>2026-03-28T14:58:18.101Z</time></trkpt><trkpt lat="43.3543867" lon="11.9229179"><ele>464.00000000000006</ele><time>2026-03-28T14:58:21.997Z</time></trkpt><trkpt lat="43.3544234" lon="11.9228468"><ele>464.00000000000006</ele><time>2026-03-28T14:58:25.099Z</time></trkpt><trkpt lat="43.3544464" lon="11.9227608"><ele>464.0</ele><time>2026-03-28T14:58:28.091Z</time></trkpt><trkpt lat="43.3544622" lon="11.9226684"><ele>464.00000000000006</ele><time>2026-03-28T14:58:31.054Z</time></trkpt><trkpt lat="43.3544845" lon="11.9225707"><ele>464.00000000000006</ele><time>2026-03-28T14:58:34.081Z</time></trkpt><trkpt lat="43.354515" lon="11.9224804"><ele>464.1428571428572</ele><time>2026-03-28T14:58:37.087Z</time></trkpt><trkpt lat="43.3545327" lon="11.9223939"><ele>464.28571428571433</ele><time>2026-03-28T14:58:40.113Z</time></trkpt><trkpt lat="43.3545422" lon="11.9223036"><ele>464.42857142857144</ele><time>2026-03-28T14:58:43.089Z</time></trkpt><trkpt lat="43.3545618" lon="11.922212"><ele>464.5714285714286</ele><time>2026-03-28T14:58:46.037Z</time></trkpt><trkpt lat="43.3545902" lon="11.9221232"><ele>464.7142857142858</ele><time>2026-03-28T14:58:49.137Z</time></trkpt><trkpt lat="43.3546245" lon="11.922047"><ele>464.85714285714283</ele><time>2026-03-28T14:58:52.072Z</time></trkpt><trkpt lat="43.3546697" lon="11.9219786"><ele>465.0</ele><time>2026-03-28T14:58:55.06Z</time></trkpt><trkpt lat="43.3547245" lon="11.9219264"><ele>465.0</ele><time>2026-03-28T14:58:58.075Z</time></trkpt><trkpt lat="43.3547915" lon="11.9218744"><ele>465.0</ele><time>2026-03-28T14:59:02.094Z</time></trkpt><trkpt lat="43.3548538" lon="11.9218335"><ele>465.0</ele><time>2026-03-28T14:59:06.084Z</time></trkpt><trkpt lat="43.3549162" lon="11.9217851"><ele>465.0</ele><time>2026-03-28T14:59:09.978Z</time></trkpt><trkpt lat="43.3549938" lon="11.9217622"><ele>465.0</ele><time>2026-03-28T14:59:14.092Z</time></trkpt><trkpt lat="43.3550713" lon="11.9217745"><ele>465.0</ele><time>2026-03-28T14:59:18.076Z</time></trkpt><trkpt lat="43.3551345" lon="11.9217258"><ele>465.0</ele><time>2026-03-28T14:59:22.092Z</time></trkpt><trkpt lat="43.3552123" lon="11.9217164"><ele>461.0</ele><time>2026-03-28T14:59:27.015Z</time></trkpt><trkpt lat="43.3552829" lon="11.9217091"><ele>457.0</ele><time>2026-03-28T14:59:30.091Z</time></trkpt><trkpt lat="43.3553587" lon="11.9216967"><ele>453.0</ele><time>2026-03-28T14:59:33.032Z</time></trkpt><trkpt lat="43.3554541" lon="11.9217034"><ele>449.0</ele><time>2026-03-28T14:59:36.083Z</time></trkpt><trkpt lat="43.3555251" lon="11.9217002"><ele>445.0</ele><time>2026-03-28T14:59:38.089Z</time></trkpt><trkpt lat="43.3556146" lon="11.9216956"><ele>441.0</ele><time>2026-03-28T14:59:41.09Z</time></trkpt><trkpt lat="43.3556942" lon="11.9216927"><ele>440.42857142857144</ele><time>2026-03-28T14:59:44.092Z</time></trkpt><trkpt lat="43.3557597" lon="11.9217098"><ele>439.8571428571429</ele><time>2026-03-28T14:59:47.083Z</time></trkpt><trkpt lat="43.3558373" lon="11.9217329"><ele>439.2857142857143</ele><time>2026-03-28T14:59:51.011Z</time></trkpt><trkpt lat="43.3559022" lon="11.9217412"><ele>438.7142857142857</ele><time>2026-03-28T14:59:55.079Z</time></trkpt><trkpt lat="43.355975" lon="11.9217638"><ele>438.14285714285717</ele><time>2026-03-28T15:00:00.075Z</time></trkpt><trkpt lat="43.3560319" lon="11.9217098"><ele>437.57142857142856</ele><time>2026-03-28T15:00:04.083Z</time></trkpt><trkpt lat="43.3560504" lon="11.9216267"><ele>437.0</ele><time>2026-03-28T15:00:08.111Z</time></trkpt><trkpt lat="43.3560808" lon="11.9215323"><ele>436.99999999999994</ele><time>2026-03-28T15:00:12.093Z</time></trkpt><trkpt lat="43.3560989" lon="11.9214234"><ele>437.0</ele><time>2026-03-28T15:00:16.101Z</time></trkpt><trkpt lat="43.3561224" lon="11.9213219"><ele>437.0</ele><time>2026-03-28T15:00:20.059Z</time></trkpt><trkpt lat="43.3561268" lon="11.9212111"><ele>437.0</ele><time>2026-03-28T15:00:24.055Z</time></trkpt><trkpt lat="43.3561351" lon="11.9211222"><ele>436.99999999999994</ele><time>2026-03-28T15:00:27.077Z</time></trkpt><trkpt lat="43.3561356" lon="11.9210262"><ele>437.0</ele><time>2026-03-28T15:00:30.075Z</time></trkpt><trkpt lat="43.356125" lon="11.9209129"><ele>433.49999999999994</ele><time>2026-03-28T15:00:34.009Z</time></trkpt><trkpt lat="43.3561085" lon="11.9208119"><ele>430.0</ele><time>2026-03-28T15:00:37.992Z</time></trkpt><trkpt lat="43.3560922" lon="11.9207166"><ele>426.5</ele><time>2026-03-28T15:00:42.098Z</time></trkpt><trkpt lat="43.3560751" lon="11.9206144"><ele>423.0</ele><time>2026-03-28T15:00:47.087Z</time></trkpt><trkpt lat="43.3560315" lon="11.9205236"><ele>419.49999999999994</ele><time>2026-03-28T15:00:51.989Z</time></trkpt><trkpt lat="43.3560108" lon="11.920415"><ele>416.0</ele><time>2026-03-28T15:00:55.994Z</time></trkpt><trkpt lat="43.3560051" lon="11.9203212"><ele>415.99999999999994</ele><time>2026-03-28T15:00:58.995Z</time></trkpt><trkpt lat="43.3559902" lon="11.9202204"><ele>416.0</ele><time>2026-03-28T15:01:03.037Z</time></trkpt><trkpt lat="43.3559601" lon="11.9201379"><ele>416.0</ele><time>2026-03-28T15:01:07.03Z</time></trkpt><trkpt lat="43.3559364" lon="11.9200354"><ele>416.0</ele><time>2026-03-28T15:01:11.096Z</time></trkpt><trkpt lat="43.3559258" lon="11.9199492"><ele>415.99999999999994</ele><time>2026-03-28T15:01:13.914Z</time></trkpt><trkpt lat="43.3558907" lon="11.9198438"><ele>416.0</ele><time>2026-03-28T15:01:18.093Z</time></trkpt><trkpt lat="43.3558397" lon="11.9197519"><ele>414.4285714285714</ele><time>2026-03-28T15:01:22.099Z</time></trkpt><trkpt lat="43.355782" lon="11.9196913"><ele>412.8571428571429</ele><time>2026-03-28T15:01:26.086Z</time></trkpt><trkpt lat="43.3557624" lon="11.9196061"><ele>411.2857142857143</ele><time>2026-03-28T15:01:29.081Z</time></trkpt><trkpt lat="43.355716" lon="11.9195088"><ele>409.71428571428567</ele><time>2026-03-28T15:01:33.106Z</time></trkpt><trkpt lat="43.3556705" lon="11.9194399"><ele>408.1428571428571</ele><time>2026-03-28T15:01:36.113Z</time></trkpt><trkpt lat="43.3556128" lon="11.9193776"><ele>406.57142857142856</ele><time>2026-03-28T15:01:39.017Z</time></trkpt><trkpt lat="43.35555" lon="11.9192967"><ele>405.0</ele><time>2026-03-28T15:01:42.105Z</time></trkpt><trkpt lat="43.355503" lon="11.9192143"><ele>401.71428571428567</ele><time>2026-03-28T15:01:44.755Z</time></trkpt><trkpt lat="43.3554646" lon="11.9191334"><ele>398.42857142857144</ele><time>2026-03-28T15:01:47.104Z</time></trkpt><trkpt lat="43.3554196" lon="11.9190472"><ele>395.1428571428571</ele><time>2026-03-28T15:01:50.075Z</time></trkpt><trkpt lat="43.3553852" lon="11.918958"><ele>391.85714285714283</ele><time>2026-03-28T15:01:53.1Z</time></trkpt><trkpt lat="43.355353" lon="11.9188643"><ele>388.57142857142856</ele><time>2026-03-28T15:01:56.089Z</time></trkpt><trkpt lat="43.3553205" lon="11.9187686"><ele>385.2857142857143</ele><time>2026-03-28T15:01:59.081Z</time></trkpt><trkpt lat="43.3552882" lon="11.9186841"><ele>382.0</ele><time>2026-03-28T15:02:02.111Z</time></trkpt><trkpt lat="43.3552458" lon="11.9185845"><ele>382.0</ele><time>2026-03-28T15:02:06.113Z</time></trkpt><trkpt lat="43.3551958" lon="11.9184886"><ele>382.0</ele><time>2026-03-28T15:02:10.107Z</time></trkpt><trkpt lat="43.3551517" lon="11.9183996"><ele>382.0</ele><time>2026-03-28T15:02:13.095Z</time></trkpt><trkpt lat="43.3551076" lon="11.9183183"><ele>382.0</ele><time>2026-03-28T15:02:16.093Z</time></trkpt><trkpt lat="43.3550711" lon="11.918236"><ele>382.0</ele><time>2026-03-28T15:02:19.11Z</time></trkpt><trkpt lat="43.3550542" lon="11.9181516"><ele>382.0</ele><time>2026-03-28T15:02:22.009Z</time></trkpt><trkpt lat="43.3550289" lon="11.9180605"><ele>382.0</ele><time>2026-03-28T15:02:26.083Z</time></trkpt><trkpt lat="43.3550099" lon="11.9179755"><ele>382.5</ele><time>2026-03-28T15:02:30.097Z</time></trkpt><trkpt lat="43.3550314" lon="11.9178661"><ele>383.0</ele><time>2026-03-28T15:02:34.135Z</time></trkpt><trkpt lat="43.3549882" lon="11.9177868"><ele>383.5</ele><time>2026-03-28T15:02:37.087Z</time></trkpt><trkpt lat="43.3549524" lon="11.9177066"><ele>384.0</ele><time>2026-03-28T15:02:40.079Z</time></trkpt><trkpt lat="43.3549608" lon="11.9176093"><ele>384.50000000000006</ele><time>2026-03-28T15:02:43.052Z</time></trkpt><trkpt lat="43.3549305" lon="11.9174924"><ele>385.0</ele><time>2026-03-28T15:02:47.071Z</time></trkpt><trkpt lat="43.3549045" lon="11.9173993"><ele>385.00000000000006</ele><time>2026-03-28T15:02:50.099Z</time></trkpt><trkpt lat="43.3548787" lon="11.9173109"><ele>385.0</ele><time>2026-03-28T15:02:53.107Z</time></trkpt><trkpt lat="43.3548847" lon="11.917224"><ele>385.0</ele><time>2026-03-28T15:02:56.089Z</time></trkpt><trkpt lat="43.3548441" lon="11.9171571"><ele>385.0</ele><time>2026-03-28T15:03:00.068Z</time></trkpt><trkpt lat="43.3548524" lon="11.9169628"><ele>385.00000000000006</ele><time>2026-03-28T15:03:11.071Z</time></trkpt><trkpt lat="43.3548863" lon="11.9168859"><ele>385.0</ele><time>2026-03-28T15:03:13.122Z</time></trkpt><trkpt lat="43.3548952" lon="11.9167827"><ele>383.2857142857143</ele><time>2026-03-28T15:03:18.051Z</time></trkpt><trkpt lat="43.3549131" lon="11.9166759"><ele>381.57142857142856</ele><time>2026-03-28T15:03:26.993Z</time></trkpt><trkpt lat="43.3549215" lon="11.9165752"><ele>379.8571428571429</ele><time>2026-03-28T15:03:30.009Z</time></trkpt><trkpt lat="43.3549547" lon="11.9164989"><ele>378.1428571428571</ele><time>2026-03-28T15:03:33.027Z</time></trkpt><trkpt lat="43.3550112" lon="11.9164421"><ele>376.42857142857144</ele><time>2026-03-28T15:03:36.055Z</time></trkpt><trkpt lat="43.3550742" lon="11.9163871"><ele>374.7142857142857</ele><time>2026-03-28T15:03:39.061Z</time></trkpt><trkpt lat="43.3550468" lon="11.9163008"><ele>373.0</ele><time>2026-03-28T15:03:41.968Z</time></trkpt><trkpt lat="43.3549767" lon="11.9162639"><ele>373.0</ele><time>2026-03-28T15:03:45.061Z</time></trkpt><trkpt lat="43.3549161" lon="11.9162246"><ele>373.0</ele><time>2026-03-28T15:03:47.948Z</time></trkpt><trkpt lat="43.3548961" lon="11.9161332"><ele>373.0</ele><time>2026-03-28T15:03:51.027Z</time></trkpt><trkpt lat="43.3549343" lon="11.916064"><ele>373.0</ele><time>2026-03-28T15:03:53.055Z</time></trkpt><trkpt lat="43.3549694" lon="11.9159674"><ele>373.0</ele><time>2026-03-28T15:03:56.069Z</time></trkpt><trkpt lat="43.3549805" lon="11.9158787"><ele>373.0</ele><time>2026-03-28T15:03:58.96Z</time></trkpt><trkpt lat="43.3549738" lon="11.915788"><ele>373.0</ele><time>2026-03-28T15:04:02.097Z</time></trkpt><trkpt lat="43.3549736" lon="11.915675"><ele>371.0</ele><time>2026-03-28T15:04:06.112Z</time></trkpt><trkpt lat="43.3549539" lon="11.915592"><ele>369.0</ele><time>2026-03-28T15:04:09.088Z</time></trkpt><trkpt lat="43.3549366" lon="11.9154913"><ele>367.0</ele><time>2026-03-28T15:04:12.091Z</time></trkpt><trkpt lat="43.3549254" lon="11.9153941"><ele>365.0</ele><time>2026-03-28T15:04:15.089Z</time></trkpt><trkpt lat="43.3549184" lon="11.9152939"><ele>363.0</ele><time>2026-03-28T15:04:18.078Z</time></trkpt><trkpt lat="43.3549261" lon="11.9152055"><ele>361.0</ele><time>2026-03-28T15:04:21.078Z</time></trkpt><trkpt lat="43.3548987" lon="11.9151166"><ele>359.0</ele><time>2026-03-28T15:04:24.105Z</time></trkpt><trkpt lat="43.3548882" lon="11.9150286"><ele>357.5</ele><time>2026-03-28T15:04:27.089Z</time></trkpt><trkpt lat="43.3548698" lon="11.9149197"><ele>356.0</ele><time>2026-03-28T15:04:31.008Z</time></trkpt><trkpt lat="43.3549079" lon="11.9148287"><ele>354.5</ele><time>2026-03-28T15:04:34.052Z</time></trkpt><trkpt lat="43.3549368" lon="11.9147395"><ele>353.0</ele><time>2026-03-28T15:04:37.05Z</time></trkpt><trkpt lat="43.3549444" lon="11.9146493"><ele>351.5</ele><time>2026-03-28T15:04:40.048Z</time></trkpt><trkpt lat="43.3549625" lon="11.9145461"><ele>350.0</ele><time>2026-03-28T15:04:44.087Z</time></trkpt><trkpt lat="43.3549797" lon="11.9144354"><ele>350.0</ele><time>2026-03-28T15:04:48.087Z</time></trkpt><trkpt lat="43.3549461" lon="11.9143337"><ele>350.0</ele><time>2026-03-28T15:04:52.095Z</time></trkpt><trkpt lat="43.3548761" lon="11.914312"><ele>350.0</ele><time>2026-03-28T15:04:55.005Z</time></trkpt><trkpt lat="43.3548133" lon="11.9142542"><ele>350.0</ele><time>2026-03-28T15:04:58.083Z</time></trkpt><trkpt lat="43.3547513" lon="11.9141947"><ele>350.0</ele><time>2026-03-28T15:05:01.088Z</time></trkpt><trkpt lat="43.3546807" lon="11.9141367"><ele>350.0</ele><time>2026-03-28T15:05:05.104Z</time></trkpt><trkpt lat="43.3546161" lon="11.9140973"><ele>346.85714285714283</ele><time>2026-03-28T15:05:08.085Z</time></trkpt><trkpt lat="43.3545616" lon="11.9140477"><ele>343.7142857142857</ele><time>2026-03-28T15:05:11.097Z</time></trkpt><trkpt lat="43.3545667" lon="11.9139578"><ele>340.57142857142856</ele><time>2026-03-28T15:05:13.675Z</time></trkpt><trkpt lat="43.3546029" lon="11.9138546"><ele>337.42857142857144</ele><time>2026-03-28T15:05:17.075Z</time></trkpt><trkpt lat="43.354619" lon="11.913747"><ele>334.2857142857143</ele><time>2026-03-28T15:05:20.082Z</time></trkpt><trkpt lat="43.3546452" lon="11.9136499"><ele>331.1428571428571</ele><time>2026-03-28T15:05:23.107Z</time></trkpt><trkpt lat="43.3546675" lon="11.9135617"><ele>328.0</ele><time>2026-03-28T15:05:26.108Z</time></trkpt><trkpt lat="43.3546796" lon="11.9134755"><ele>328.4285714285714</ele><time>2026-03-28T15:05:29.096Z</time></trkpt><trkpt lat="43.3546944" lon="11.9133799"><ele>328.85714285714283</ele><time>2026-03-28T15:05:32.072Z</time></trkpt><trkpt lat="43.3547087" lon="11.9132814"><ele>329.2857142857143</ele><time>2026-03-28T15:05:35.073Z</time></trkpt><trkpt lat="43.3547292" lon="11.9131781"><ele>329.71428571428567</ele><time>2026-03-28T15:05:38.082Z</time></trkpt><trkpt lat="43.3547545" lon="11.91309"><ele>330.1428571428571</ele><time>2026-03-28T15:05:41.079Z</time></trkpt><trkpt lat="43.3547631" lon="11.9129948"><ele>330.57142857142856</ele><time>2026-03-28T15:05:44.093Z</time></trkpt><trkpt lat="43.3547689" lon="11.9129017"><ele>331.0</ele><time>2026-03-28T15:05:47.007Z</time></trkpt><trkpt lat="43.3547893" lon="11.9128084"><ele>331.0</ele><time>2026-03-28T15:05:50.114Z</time></trkpt><trkpt lat="43.3548209" lon="11.9127282"><ele>331.0</ele><time>2026-03-28T15:05:53.087Z</time></trkpt><trkpt lat="43.3548656" lon="11.9126416"><ele>331.0</ele><time>2026-03-28T15:05:57.034Z</time></trkpt><trkpt lat="43.3548983" lon="11.9125668"><ele>331.0</ele><time>2026-03-28T15:06:00.094Z</time></trkpt><trkpt lat="43.3549387" lon="11.9124906"><ele>331.0</ele><time>2026-03-28T15:06:03.031Z</time></trkpt><trkpt lat="43.3549867" lon="11.9124106"><ele>331.0</ele><time>2026-03-28T15:06:06.089Z</time></trkpt><trkpt lat="43.3550457" lon="11.9123347"><ele>331.0</ele><time>2026-03-28T15:06:09.121Z</time></trkpt><trkpt lat="43.3550994" lon="11.9122638"><ele>329.3333333333333</ele><time>2026-03-28T15:06:11.975Z</time></trkpt><trkpt lat="43.3551671" lon="11.9121765"><ele>327.66666666666663</ele><time>2026-03-28T15:06:15.089Z</time></trkpt><trkpt lat="43.3552308" lon="11.9121087"><ele>326.0</ele><time>2026-03-28T15:06:18.075Z</time></trkpt><trkpt lat="43.3552922" lon="11.912033"><ele>324.3333333333333</ele><time>2026-03-28T15:06:21.109Z</time></trkpt><trkpt lat="43.3553401" lon="11.9119476"><ele>322.6666666666667</ele><time>2026-03-28T15:06:24.093Z</time></trkpt><trkpt lat="43.3553841" lon="11.9118719"><ele>321.0</ele><time>2026-03-28T15:06:27.006Z</time></trkpt><trkpt lat="43.3554165" lon="11.9117964"><ele>321.3333333333333</ele><time>2026-03-28T15:06:30.101Z</time></trkpt><trkpt lat="43.3554818" lon="11.9117185"><ele>321.6666666666667</ele><time>2026-03-28T15:06:34.075Z</time></trkpt><trkpt lat="43.3555393" lon="11.9116477"><ele>322.0</ele><time>2026-03-28T15:06:37.072Z</time></trkpt><trkpt lat="43.3556109" lon="11.9115889"><ele>322.33333333333337</ele><time>2026-03-28T15:06:40.006Z</time></trkpt><trkpt lat="43.3556725" lon="11.9115128"><ele>322.6666666666667</ele><time>2026-03-28T15:06:43.101Z</time></trkpt><trkpt lat="43.3557214" lon="11.9114261"><ele>323.0</ele><time>2026-03-28T15:06:46.087Z</time></trkpt><trkpt lat="43.3557725" lon="11.9113509"><ele>321.0</ele><time>2026-03-28T15:06:49.074Z</time></trkpt><trkpt lat="43.3558203" lon="11.9112581"><ele>319.0</ele><time>2026-03-28T15:06:52.105Z</time></trkpt><trkpt lat="43.3558699" lon="11.9111667"><ele>317.0</ele><time>2026-03-28T15:06:55.104Z</time></trkpt><trkpt lat="43.355916" lon="11.9110712"><ele>315.0</ele><time>2026-03-28T15:06:58.073Z</time></trkpt><trkpt lat="43.3559521" lon="11.9109809"><ele>313.0</ele><time>2026-03-28T15:07:01.073Z</time></trkpt><trkpt lat="43.3559539" lon="11.9108679"><ele>311.0</ele><time>2026-03-28T15:07:05.026Z</time></trkpt><trkpt lat="43.3559477" lon="11.9107711"><ele>310.85714285714283</ele><time>2026-03-28T15:07:09.008Z</time></trkpt><trkpt lat="43.3559333" lon="11.9106693"><ele>310.7142857142857</ele><time>2026-03-28T15:07:13.081Z</time></trkpt><trkpt lat="43.3559356" lon="11.910563"><ele>310.57142857142856</ele><time>2026-03-28T15:07:17.028Z</time></trkpt><trkpt lat="43.3559217" lon="11.9104565"><ele>310.42857142857144</ele><time>2026-03-28T15:07:21.079Z</time></trkpt><trkpt lat="43.3559034" lon="11.9103532"><ele>310.2857142857143</ele><time>2026-03-28T15:07:25.034Z</time></trkpt><trkpt lat="43.3558654" lon="11.9102653"><ele>310.14285714285717</ele><time>2026-03-28T15:07:30.091Z</time></trkpt><trkpt lat="43.3558524" lon="11.9101759"><ele>310.0</ele><time>2026-03-28T15:07:34.126Z</time></trkpt><trkpt lat="43.3558587" lon="11.9100823"><ele>309.3333333333333</ele><time>2026-03-28T15:07:38.069Z</time></trkpt><trkpt lat="43.355839" lon="11.9099862"><ele>308.66666666666663</ele><time>2026-03-28T15:07:42.091Z</time></trkpt><trkpt lat="43.3558201" lon="11.9098841"><ele>308.0</ele><time>2026-03-28T15:07:45.093Z</time></trkpt><trkpt lat="43.355774" lon="11.9097977"><ele>307.3333333333333</ele><time>2026-03-28T15:07:48.101Z</time></trkpt><trkpt lat="43.3557484" lon="11.9096833"><ele>306.6666666666667</ele><time>2026-03-28T15:07:51.049Z</time></trkpt><trkpt lat="43.3557294" lon="11.9095562"><ele>306.0</ele><time>2026-03-28T15:07:54.103Z</time></trkpt><trkpt lat="43.3557105" lon="11.9094373"><ele>306.0</ele><time>2026-03-28T15:07:57.132Z</time></trkpt><trkpt lat="43.3556727" lon="11.9093253"><ele>306.0</ele><time>2026-03-28T15:08:00.077Z</time></trkpt><trkpt lat="43.355644" lon="11.9092119"><ele>306.0</ele><time>2026-03-28T15:08:03.1Z</time></trkpt><trkpt lat="43.3556431" lon="11.9090971"><ele>306.0</ele><time>2026-03-28T15:08:06.085Z</time></trkpt><trkpt lat="43.3556371" lon="11.9089876"><ele>306.0</ele><time>2026-03-28T15:08:09.072Z</time></trkpt><trkpt lat="43.3556075" lon="11.9088958"><ele>306.0</ele><time>2026-03-28T15:08:12.072Z</time></trkpt><trkpt lat="43.3555719" lon="11.9088117"><ele>305.1428571428571</ele><time>2026-03-28T15:08:15.087Z</time></trkpt><trkpt lat="43.3555338" lon="11.9087314"><ele>304.2857142857143</ele><time>2026-03-28T15:08:18.079Z</time></trkpt><trkpt lat="43.3555032" lon="11.9086231"><ele>303.42857142857144</ele><time>2026-03-28T15:08:22.117Z</time></trkpt><trkpt lat="43.3554909" lon="11.9085342"><ele>302.57142857142856</ele><time>2026-03-28T15:08:25.105Z</time></trkpt><trkpt lat="43.3554775" lon="11.9084494"><ele>301.7142857142857</ele><time>2026-03-28T15:08:28.021Z</time></trkpt><trkpt lat="43.3554705" lon="11.9083521"><ele>300.85714285714283</ele><time>2026-03-28T15:08:31.09Z</time></trkpt><trkpt lat="43.3554623" lon="11.9082574"><ele>300.0</ele><time>2026-03-28T15:08:34.103Z</time></trkpt><trkpt lat="43.3554573" lon="11.9081661"><ele>299.99999999999994</ele><time>2026-03-28T15:08:37.094Z</time></trkpt><trkpt lat="43.3554572" lon="11.9080746"><ele>300.0</ele><time>2026-03-28T15:08:40.021Z</time></trkpt><trkpt lat="43.3554607" lon="11.9079797"><ele>300.0</ele><time>2026-03-28T15:08:43.099Z</time></trkpt><trkpt lat="43.3554603" lon="11.9078844"><ele>300.0</ele><time>2026-03-28T15:08:46.139Z</time></trkpt><trkpt lat="43.3554556" lon="11.9077903"><ele>300.0</ele><time>2026-03-28T15:08:49.042Z</time></trkpt><trkpt lat="43.3554609" lon="11.9077012"><ele>299.99999999999994</ele><time>2026-03-28T15:08:52.098Z</time></trkpt><trkpt lat="43.3554615" lon="11.9076105"><ele>300.0</ele><time>2026-03-28T15:08:55.066Z</time></trkpt><trkpt lat="43.3554447" lon="11.9075171"><ele>298.99999999999994</ele><time>2026-03-28T15:08:58.077Z</time></trkpt><trkpt lat="43.3554003" lon="11.9074347"><ele>298.0</ele><time>2026-03-28T15:09:01.085Z</time></trkpt><trkpt lat="43.3553552" lon="11.9073551"><ele>297.0</ele><time>2026-03-28T15:09:04.08Z</time></trkpt><trkpt lat="43.3553075" lon="11.9072805"><ele>296.0</ele><time>2026-03-28T15:09:07.092Z</time></trkpt><trkpt lat="43.3552635" lon="11.9072117"><ele>295.0</ele><time>2026-03-28T15:09:10.077Z</time></trkpt><trkpt lat="43.3552225" lon="11.9071382"><ele>293.99999999999994</ele><time>2026-03-28T15:09:13.096Z</time></trkpt><trkpt lat="43.3551838" lon="11.907068"><ele>293.0</ele><time>2026-03-28T15:09:16.101Z</time></trkpt><trkpt lat="43.3551327" lon="11.9069775"><ele>293.0</ele><time>2026-03-28T15:09:20.09Z</time></trkpt><trkpt lat="43.355086" lon="11.9068908"><ele>293.0</ele><time>2026-03-28T15:09:24.103Z</time></trkpt><trkpt lat="43.355036" lon="11.9067979"><ele>293.0</ele><time>2026-03-28T15:09:28.076Z</time></trkpt><trkpt lat="43.3549647" lon="11.9067359"><ele>293.0</ele><time>2026-03-28T15:09:34.07Z</time></trkpt><trkpt lat="43.3549105" lon="11.906671"><ele>293.0</ele><time>2026-03-28T15:09:37.082Z</time></trkpt><trkpt lat="43.3549527" lon="11.9065875"><ele>293.0</ele><time>2026-03-28T15:09:40.103Z</time></trkpt><trkpt lat="43.3549245" lon="11.9064972"><ele>292.1666666666667</ele><time>2026-03-28T15:09:42.098Z</time></trkpt><trkpt lat="43.354894" lon="11.9063779"><ele>291.33333333333337</ele><time>2026-03-28T15:09:45.112Z</time></trkpt><trkpt lat="43.3548538" lon="11.9062798"><ele>290.5</ele><time>2026-03-28T15:09:48.079Z</time></trkpt><trkpt lat="43.3548106" lon="11.9061938"><ele>289.6666666666667</ele><time>2026-03-28T15:09:51.016Z</time></trkpt><trkpt lat="43.3547727" lon="11.9061166"><ele>288.8333333333333</ele><time>2026-03-28T15:09:54.079Z</time></trkpt><trkpt lat="43.3547317" lon="11.9060371"><ele>288.0</ele><time>2026-03-28T15:09:57.073Z</time></trkpt><trkpt lat="43.3546909" lon="11.905952"><ele>287.7142857142857</ele><time>2026-03-28T15:10:00.039Z</time></trkpt><trkpt lat="43.3546467" lon="11.9058688"><ele>287.42857142857144</ele><time>2026-03-28T15:10:03.1Z</time></trkpt><trkpt lat="43.3546095" lon="11.9057898"><ele>287.1428571428571</ele><time>2026-03-28T15:10:06.085Z</time></trkpt><trkpt lat="43.3545752" lon="11.9057128"><ele>286.8571428571429</ele><time>2026-03-28T15:10:09.021Z</time></trkpt><trkpt lat="43.3545457" lon="11.9056351"><ele>286.57142857142856</ele><time>2026-03-28T15:10:12.09Z</time></trkpt><trkpt lat="43.3545099" lon="11.905545"><ele>286.2857142857143</ele><time>2026-03-28T15:10:16.108Z</time></trkpt><trkpt lat="43.3544708" lon="11.9054593"><ele>286.0</ele><time>2026-03-28T15:10:20.108Z</time></trkpt><trkpt lat="43.354436" lon="11.90537"><ele>286.0</ele><time>2026-03-28T15:10:24.113Z</time></trkpt><trkpt lat="43.3543905" lon="11.905281"><ele>286.0</ele><time>2026-03-28T15:10:28.109Z</time></trkpt><trkpt lat="43.3543382" lon="11.9051877"><ele>286.0</ele><time>2026-03-28T15:10:32.112Z</time></trkpt><trkpt lat="43.3542978" lon="11.9051069"><ele>286.0</ele><time>2026-03-28T15:10:35.097Z</time></trkpt><trkpt lat="43.3542585" lon="11.9050184"><ele>286.0</ele><time>2026-03-28T15:10:38.109Z</time></trkpt><trkpt lat="43.3542247" lon="11.9049322"><ele>286.0</ele><time>2026-03-28T15:10:41.115Z</time></trkpt><trkpt lat="43.3541928" lon="11.9048513"><ele>285.85714285714283</ele><time>2026-03-28T15:10:44.099Z</time></trkpt><trkpt lat="43.3541545" lon="11.9047648"><ele>285.7142857142857</ele><time>2026-03-28T15:10:47.113Z</time></trkpt><trkpt lat="43.3541159" lon="11.9046808"><ele>285.57142857142856</ele><time>2026-03-28T15:10:50.076Z</time></trkpt><trkpt lat="43.3540828" lon="11.9045987"><ele>285.42857142857144</ele><time>2026-03-28T15:10:53.111Z</time></trkpt><trkpt lat="43.3540453" lon="11.9045142"><ele>285.2857142857143</ele><time>2026-03-28T15:10:56.107Z</time></trkpt><trkpt lat="43.3540125" lon="11.9044321"><ele>285.1428571428571</ele><time>2026-03-28T15:10:59.043Z</time></trkpt><trkpt lat="43.3539809" lon="11.904341"><ele>285.0</ele><time>2026-03-28T15:11:02.089Z</time></trkpt><trkpt lat="43.3539463" lon="11.904251"><ele>284.85714285714283</ele><time>2026-03-28T15:11:05.1Z</time></trkpt><trkpt lat="43.3539133" lon="11.9041687"><ele>284.7142857142857</ele><time>2026-03-28T15:11:08.093Z</time></trkpt><trkpt lat="43.3538854" lon="11.9040821"><ele>284.57142857142856</ele><time>2026-03-28T15:11:11.109Z</time></trkpt><trkpt lat="43.3538503" lon="11.9040028"><ele>284.42857142857144</ele><time>2026-03-28T15:11:14.137Z</time></trkpt><trkpt lat="43.3538086" lon="11.9039319"><ele>284.2857142857143</ele><time>2026-03-28T15:11:17.039Z</time></trkpt><trkpt lat="43.3537718" lon="11.9038571"><ele>284.1428571428571</ele><time>2026-03-28T15:11:20.084Z</time></trkpt><trkpt lat="43.3537318" lon="11.9037566"><ele>284.0</ele><time>2026-03-28T15:11:24.092Z</time></trkpt><trkpt lat="43.3537017" lon="11.9036748"><ele>284.0</ele><time>2026-03-28T15:11:27.119Z</time></trkpt><trkpt lat="43.3536709" lon="11.9035745"><ele>284.0</ele><time>2026-03-28T15:11:31.102Z</time></trkpt><trkpt lat="43.3536397" lon="11.9034988"><ele>284.0</ele><time>2026-03-28T15:11:34.105Z</time></trkpt><trkpt lat="43.3536084" lon="11.9034204"><ele>284.0</ele><time>2026-03-28T15:11:37.103Z</time></trkpt><trkpt lat="43.3535644" lon="11.9033299"><ele>284.0</ele><time>2026-03-28T15:11:41.1Z</time></trkpt><trkpt lat="43.3534976" lon="11.9033298"><ele>284.0</ele><time>2026-03-28T15:11:45.069Z</time></trkpt><trkpt lat="43.3534852" lon="11.9032436"><ele>284.0</ele><time>2026-03-28T15:11:57.099Z</time></trkpt><trkpt lat="43.353515" lon="11.9031433"><ele>283.57142857142856</ele><time>2026-03-28T15:12:01.142Z</time></trkpt><trkpt lat="43.3534636" lon="11.9030802"><ele>283.1428571428571</ele><time>2026-03-28T15:12:03.995Z</time></trkpt><trkpt lat="43.3533923" lon="11.9030305"><ele>282.7142857142857</ele><time>2026-03-28T15:12:07.097Z</time></trkpt><trkpt lat="43.3533421" lon="11.9029748"><ele>282.2857142857143</ele><time>2026-03-28T15:12:10.089Z</time></trkpt><trkpt lat="43.3532934" lon="11.9029107"><ele>281.8571428571429</ele><time>2026-03-28T15:12:13.09Z</time></trkpt><trkpt lat="43.3532464" lon="11.9028352"><ele>281.42857142857144</ele><time>2026-03-28T15:12:16.098Z</time></trkpt><trkpt lat="43.3531979" lon="11.9027735"><ele>281.0</ele><time>2026-03-28T15:12:19.002Z</time></trkpt><trkpt lat="43.3531465" lon="11.9027166"><ele>281.00000000000006</ele><time>2026-03-28T15:12:22.082Z</time></trkpt><trkpt lat="43.353093" lon="11.9026562"><ele>281.0</ele><time>2026-03-28T15:12:25.083Z</time></trkpt><trkpt lat="43.3530451" lon="11.902599"><ele>281.0</ele><time>2026-03-28T15:12:28.093Z</time></trkpt><trkpt lat="43.3529967" lon="11.9025423"><ele>281.0</ele><time>2026-03-28T15:12:31.106Z</time></trkpt><trkpt lat="43.3529308" lon="11.9024745"><ele>281.0</ele><time>2026-03-28T15:12:35.124Z</time></trkpt><trkpt lat="43.3528777" lon="11.9024218"><ele>281.00000000000006</ele><time>2026-03-28T15:12:38.084Z</time></trkpt><trkpt lat="43.3528228" lon="11.9023591"><ele>281.0</ele><time>2026-03-28T15:12:41.141Z</time></trkpt><trkpt lat="43.3527761" lon="11.9022905"><ele>280.5714285714286</ele><time>2026-03-28T15:12:44Z</time></trkpt><trkpt lat="43.3527252" lon="11.9022227"><ele>280.14285714285717</ele><time>2026-03-28T15:12:47.08Z</time></trkpt><trkpt lat="43.3526754" lon="11.9021599"><ele>279.7142857142857</ele><time>2026-03-28T15:12:50.095Z</time></trkpt><trkpt lat="43.3526062" lon="11.9020959"><ele>279.28571428571433</ele><time>2026-03-28T15:12:54.095Z</time></trkpt><trkpt lat="43.3525525" lon="11.9020413"><ele>278.8571428571429</ele><time>2026-03-28T15:12:57.092Z</time></trkpt><trkpt lat="43.3525008" lon="11.9019767"><ele>278.42857142857144</ele><time>2026-03-28T15:13:00.083Z</time></trkpt><trkpt lat="43.3524482" lon="11.9019149"><ele>278.0</ele><time>2026-03-28T15:13:03.128Z</time></trkpt><trkpt lat="43.3523989" lon="11.9018502"><ele>278.0</ele><time>2026-03-28T15:13:06.122Z</time></trkpt><trkpt lat="43.3523514" lon="11.9017866"><ele>278.0</ele><time>2026-03-28T15:13:09.1Z</time></trkpt><trkpt lat="43.3523059" lon="11.9017247"><ele>278.0</ele><time>2026-03-28T15:13:12.1Z</time></trkpt><trkpt lat="43.3522573" lon="11.9016644"><ele>278.0</ele><time>2026-03-28T15:13:15.098Z</time></trkpt><trkpt lat="43.3522091" lon="11.9015923"><ele>278.0</ele><time>2026-03-28T15:13:18.068Z</time></trkpt><trkpt lat="43.3521639" lon="11.9015155"><ele>278.0</ele><time>2026-03-28T15:13:21.079Z</time></trkpt><trkpt lat="43.3521144" lon="11.9014363"><ele>278.0</ele><time>2026-03-28T15:13:24.079Z</time></trkpt><trkpt lat="43.3520716" lon="11.9013443"><ele>277.6666666666667</ele><time>2026-03-28T15:13:27.055Z</time></trkpt><trkpt lat="43.3520441" lon="11.9012346"><ele>277.33333333333337</ele><time>2026-03-28T15:13:30.108Z</time></trkpt><trkpt lat="43.3520161" lon="11.9011378"><ele>277.0</ele><time>2026-03-28T15:13:33.085Z</time></trkpt><trkpt lat="43.351971" lon="11.9010363"><ele>276.6666666666667</ele><time>2026-03-28T15:13:36.72Z</time></trkpt><trkpt lat="43.3519271" lon="11.9009495"><ele>276.3333333333333</ele><time>2026-03-28T15:13:40.097Z</time></trkpt><trkpt lat="43.3518809" lon="11.9008748"><ele>276.0</ele><time>2026-03-28T15:13:43.113Z</time></trkpt><trkpt lat="43.3518211" lon="11.9007886"><ele>275.57142857142856</ele><time>2026-03-28T15:13:47.039Z</time></trkpt><trkpt lat="43.3517763" lon="11.9007174"><ele>275.14285714285717</ele><time>2026-03-28T15:13:50.07Z</time></trkpt><trkpt lat="43.3517306" lon="11.9006408"><ele>274.7142857142857</ele><time>2026-03-28T15:13:53.097Z</time></trkpt><trkpt lat="43.3516749" lon="11.9005703"><ele>274.2857142857143</ele><time>2026-03-28T15:13:56.097Z</time></trkpt><trkpt lat="43.3516285" lon="11.9005036"><ele>273.8571428571429</ele><time>2026-03-28T15:13:59.11Z</time></trkpt><trkpt lat="43.3515803" lon="11.900439"><ele>273.42857142857144</ele><time>2026-03-28T15:14:02.118Z</time></trkpt><trkpt lat="43.3515247" lon="11.9003828"><ele>273.0</ele><time>2026-03-28T15:14:05.103Z</time></trkpt><trkpt lat="43.351457" lon="11.9003218"><ele>273.0</ele><time>2026-03-28T15:14:09.109Z</time></trkpt><trkpt lat="43.3513849" lon="11.900264"><ele>273.0</ele><time>2026-03-28T15:14:13.005Z</time></trkpt><trkpt lat="43.3513308" lon="11.9002069"><ele>273.0</ele><time>2026-03-28T15:14:16.097Z</time></trkpt><trkpt lat="43.3512714" lon="11.9001383"><ele>273.0</ele><time>2026-03-28T15:14:20.083Z</time></trkpt><trkpt lat="43.3512083" lon="11.9000681"><ele>273.0</ele><time>2026-03-28T15:14:24.094Z</time></trkpt><trkpt lat="43.3511535" lon="11.8999953"><ele>273.0</ele><time>2026-03-28T15:14:28.126Z</time></trkpt><trkpt lat="43.351097" lon="11.8999213"><ele>272.85714285714283</ele><time>2026-03-28T15:14:32.064Z</time></trkpt><trkpt lat="43.3510484" lon="11.8998602"><ele>272.7142857142857</ele><time>2026-03-28T15:14:35.089Z</time></trkpt><trkpt lat="43.3510039" lon="11.8997861"><ele>272.57142857142856</ele><time>2026-03-28T15:14:38.097Z</time></trkpt><trkpt lat="43.3509666" lon="11.8997052"><ele>272.42857142857144</ele><time>2026-03-28T15:14:41.096Z</time></trkpt><trkpt lat="43.3509275" lon="11.8996237"><ele>272.2857142857143</ele><time>2026-03-28T15:14:44.103Z</time></trkpt><trkpt lat="43.3508911" lon="11.8995325"><ele>272.1428571428571</ele><time>2026-03-28T15:14:47.617Z</time></trkpt><trkpt lat="43.3508681" lon="11.8994419"><ele>272.0</ele><time>2026-03-28T15:14:51.081Z</time></trkpt><trkpt lat="43.3507871" lon="11.8994453"><ele>271.99999999999994</ele><time>2026-03-28T15:14:55.082Z</time></trkpt><trkpt lat="43.3507457" lon="11.8995124"><ele>272.0</ele><time>2026-03-28T15:14:58.076Z</time></trkpt><trkpt lat="43.3506943" lon="11.8995857"><ele>272.0</ele><time>2026-03-28T15:15:02.079Z</time></trkpt><trkpt lat="43.3506312" lon="11.8996386"><ele>272.0</ele><time>2026-03-28T15:15:06.119Z</time></trkpt><trkpt lat="43.3505685" lon="11.8996951"><ele>272.0</ele><time>2026-03-28T15:15:10.069Z</time></trkpt><trkpt lat="43.3505148" lon="11.8997798"><ele>271.99999999999994</ele><time>2026-03-28T15:15:14.095Z</time></trkpt><trkpt lat="43.3504718" lon="11.8998739"><ele>272.0</ele><time>2026-03-28T15:15:18.122Z</time></trkpt><trkpt lat="43.3504305" lon="11.8999514"><ele>271.99999999999994</ele><time>2026-03-28T15:15:21.075Z</time></trkpt><trkpt lat="43.3503868" lon="11.90003"><ele>272.0</ele><time>2026-03-28T15:15:24.108Z</time></trkpt><trkpt lat="43.3503464" lon="11.9001062"><ele>272.0</ele><time>2026-03-28T15:15:27.101Z</time></trkpt><trkpt lat="43.3503052" lon="11.9001745"><ele>272.0</ele><time>2026-03-28T15:15:29.981Z</time></trkpt><trkpt lat="43.3502576" lon="11.900245"><ele>272.0</ele><time>2026-03-28T15:15:33.111Z</time></trkpt><trkpt lat="43.3502826" lon="11.9003412"><ele>271.99999999999994</ele><time>2026-03-28T15:15:37.109Z</time></trkpt><trkpt lat="43.350216" lon="11.90036"><ele>272.0</ele><time>2026-03-28T15:15:41.09Z</time></trkpt><trkpt lat="43.3501534" lon="11.9003757"><ele>272.0</ele><time>2026-03-28T15:15:44.113Z</time></trkpt><trkpt lat="43.3500843" lon="11.9004166"><ele>272.0</ele><time>2026-03-28T15:15:48.064Z</time></trkpt><trkpt lat="43.3500207" lon="11.9004658"><ele>272.0</ele><time>2026-03-28T15:15:53.07Z</time></trkpt><trkpt lat="43.3499482" lon="11.9004984"><ele>272.0</ele><time>2026-03-28T15:15:56.061Z</time></trkpt><trkpt lat="43.349888" lon="11.9005602"><ele>272.0</ele><time>2026-03-28T15:16:00.075Z</time></trkpt><trkpt lat="43.3498409" lon="11.9006557"><ele>272.0</ele><time>2026-03-28T15:16:03.085Z</time></trkpt><trkpt lat="43.34976" lon="11.9006946"><ele>271.85714285714283</ele><time>2026-03-28T15:16:06.022Z</time></trkpt><trkpt lat="43.3497007" lon="11.9007602"><ele>271.7142857142857</ele><time>2026-03-28T15:16:09.093Z</time></trkpt><trkpt lat="43.3496321" lon="11.900799"><ele>271.57142857142856</ele><time>2026-03-28T15:16:12.097Z</time></trkpt><trkpt lat="43.3495676" lon="11.9007947"><ele>271.42857142857144</ele><time>2026-03-28T15:16:14.097Z</time></trkpt><trkpt lat="43.3495018" lon="11.9008321"><ele>271.2857142857143</ele><time>2026-03-28T15:16:17.093Z</time></trkpt><trkpt lat="43.349444" lon="11.9008826"><ele>271.1428571428571</ele><time>2026-03-28T15:16:20.087Z</time></trkpt><trkpt lat="43.3493995" lon="11.9009524"><ele>271.0</ele><time>2026-03-28T15:16:23.087Z</time></trkpt><trkpt lat="43.3493631" lon="11.9010345"><ele>270.85714285714283</ele><time>2026-03-28T15:16:26.087Z</time></trkpt><trkpt lat="43.3493343" lon="11.9011214"><ele>270.7142857142857</ele><time>2026-03-28T15:16:29.103Z</time></trkpt><trkpt lat="43.3493111" lon="11.9012019"><ele>270.57142857142856</ele><time>2026-03-28T15:16:32.095Z</time></trkpt><trkpt lat="43.3492851" lon="11.9012818"><ele>270.42857142857144</ele><time>2026-03-28T15:16:35.091Z</time></trkpt><trkpt lat="43.3492577" lon="11.9013719"><ele>270.2857142857143</ele><time>2026-03-28T15:16:38.091Z</time></trkpt><trkpt lat="43.3492311" lon="11.9014554"><ele>270.1428571428571</ele><time>2026-03-28T15:16:41.078Z</time></trkpt><trkpt lat="43.3492054" lon="11.9015365"><ele>270.0</ele><time>2026-03-28T15:16:44.099Z</time></trkpt><trkpt lat="43.349179" lon="11.901622"><ele>270.0</ele><time>2026-03-28T15:16:47.097Z</time></trkpt><trkpt lat="43.3491506" lon="11.9017133"><ele>270.0</ele><time>2026-03-28T15:16:50.108Z</time></trkpt><trkpt lat="43.349129" lon="11.9017954"><ele>270.0</ele><time>2026-03-28T15:16:53.112Z</time></trkpt><trkpt lat="43.3490892" lon="11.9019018"><ele>270.0</ele><time>2026-03-28T15:16:57.058Z</time></trkpt><trkpt lat="43.3490606" lon="11.901988"><ele>270.0</ele><time>2026-03-28T15:17:00.023Z</time></trkpt><trkpt lat="43.3490296" lon="11.9020676"><ele>270.0</ele><time>2026-03-28T15:17:03.09Z</time></trkpt><trkpt lat="43.3489899" lon="11.9021447"><ele>270.0</ele><time>2026-03-28T15:17:06.104Z</time></trkpt><trkpt lat="43.3489541" lon="11.902217"><ele>270.0</ele><time>2026-03-28T15:17:08.994Z</time></trkpt><trkpt lat="43.3489217" lon="11.902294"><ele>270.0</ele><time>2026-03-28T15:17:12.096Z</time></trkpt><trkpt lat="43.3488861" lon="11.9023715"><ele>270.0</ele><time>2026-03-28T15:17:15.103Z</time></trkpt><trkpt lat="43.3488507" lon="11.9024569"><ele>270.0</ele><time>2026-03-28T15:17:18.106Z</time></trkpt><trkpt lat="43.3488262" lon="11.9025398"><ele>270.0</ele><time>2026-03-28T15:17:21.085Z</time></trkpt><trkpt lat="43.3487964" lon="11.9026231"><ele>270.0</ele><time>2026-03-28T15:17:24.1Z</time></trkpt><trkpt lat="43.348761" lon="11.9027004"><ele>270.0</ele><time>2026-03-28T15:17:27.085Z</time></trkpt><trkpt lat="43.3487263" lon="11.9027791"><ele>270.0</ele><time>2026-03-28T15:17:30.076Z</time></trkpt><trkpt lat="43.3486899" lon="11.9028569"><ele>270.0</ele><time>2026-03-28T15:17:33.095Z</time></trkpt><trkpt lat="43.3486591" lon="11.9029434"><ele>270.0</ele><time>2026-03-28T15:17:36.103Z</time></trkpt><trkpt lat="43.3486351" lon="11.9030293"><ele>270.0</ele><time>2026-03-28T15:17:39.057Z</time></trkpt><trkpt lat="43.3486032" lon="11.9031331"><ele>270.0</ele><time>2026-03-28T15:17:43.066Z</time></trkpt><trkpt lat="43.3485718" lon="11.9032382"><ele>270.0</ele><time>2026-03-28T15:17:47.094Z</time></trkpt><trkpt lat="43.3485631" lon="11.9033534"><ele>269.7142857142857</ele><time>2026-03-28T15:17:51.082Z</time></trkpt><trkpt lat="43.3485727" lon="11.9034544"><ele>269.4285714285714</ele><time>2026-03-28T15:17:54.105Z</time></trkpt><trkpt lat="43.34859" lon="11.9035386"><ele>269.1428571428571</ele><time>2026-03-28T15:17:56.998Z</time></trkpt><trkpt lat="43.3485785" lon="11.9036246"><ele>268.85714285714283</ele><time>2026-03-28T15:18:00.087Z</time></trkpt><trkpt lat="43.3485386" lon="11.9037063"><ele>268.57142857142856</ele><time>2026-03-28T15:18:03.074Z</time></trkpt><trkpt lat="43.348495" lon="11.9037856"><ele>268.2857142857143</ele><time>2026-03-28T15:18:07.061Z</time></trkpt><trkpt lat="43.3484377" lon="11.903855"><ele>268.0</ele><time>2026-03-28T15:18:10.063Z</time></trkpt><trkpt lat="43.3483856" lon="11.903916"><ele>268.0</ele><time>2026-03-28T15:18:14.105Z</time></trkpt><trkpt lat="43.348368" lon="11.904044"><ele>268.0</ele><time>2026-03-28T15:18:17.118Z</time></trkpt><trkpt lat="43.3483524" lon="11.9041588"><ele>268.0</ele><time>2026-03-28T15:18:20.058Z</time></trkpt><trkpt lat="43.3483208" lon="11.9042552"><ele>268.0</ele><time>2026-03-28T15:18:23.091Z</time></trkpt><trkpt lat="43.3482966" lon="11.904355"><ele>268.0</ele><time>2026-03-28T15:18:27.104Z</time></trkpt><trkpt lat="43.348276" lon="11.9044593"><ele>268.0</ele><time>2026-03-28T15:18:31.108Z</time></trkpt><trkpt lat="43.3482536" lon="11.9045623"><ele>268.0</ele><time>2026-03-28T15:18:34.857Z</time></trkpt><trkpt lat="43.3482474" lon="11.9046716"><ele>268.0</ele><time>2026-03-28T15:18:39.09Z</time></trkpt><trkpt lat="43.3482407" lon="11.9047687"><ele>268.0</ele><time>2026-03-28T15:18:42.474Z</time></trkpt><trkpt lat="43.3482334" lon="11.9048671"><ele>268.0</ele><time>2026-03-28T15:18:45.738Z</time></trkpt><trkpt lat="43.3482266" lon="11.9049743"><ele>268.0</ele><time>2026-03-28T15:18:49.107Z</time></trkpt><trkpt lat="43.3482162" lon="11.9050776"><ele>268.0</ele><time>2026-03-28T15:18:52.104Z</time></trkpt><trkpt lat="43.34821" lon="11.9051733"><ele>268.0</ele><time>2026-03-28T15:18:55.172Z</time></trkpt><trkpt lat="43.3482003" lon="11.9052875"><ele>268.0</ele><time>2026-03-28T15:18:59.117Z</time></trkpt><trkpt lat="43.3481951" lon="11.9053787"><ele>268.0</ele><time>2026-03-28T15:19:02.076Z</time></trkpt><trkpt lat="43.3481945" lon="11.9054932"><ele>268.0</ele><time>2026-03-28T15:19:06.082Z</time></trkpt><trkpt lat="43.3481857" lon="11.905598"><ele>268.0</ele><time>2026-03-28T15:19:10.081Z</time></trkpt><trkpt lat="43.3481692" lon="11.9057098"><ele>268.0</ele><time>2026-03-28T15:19:14.092Z</time></trkpt><trkpt lat="43.3481586" lon="11.9058178"><ele>268.0</ele><time>2026-03-28T15:19:17.975Z</time></trkpt><trkpt lat="43.3481433" lon="11.9059185"><ele>268.0</ele><time>2026-03-28T15:19:21.091Z</time></trkpt><trkpt lat="43.3481271" lon="11.9060353"><ele>268.0</ele><time>2026-03-28T15:19:25.098Z</time></trkpt><trkpt lat="43.3481224" lon="11.9061228"><ele>268.0</ele><time>2026-03-28T15:19:28.103Z</time></trkpt><trkpt lat="43.3481116" lon="11.906233"><ele>268.0</ele><time>2026-03-28T15:19:32.094Z</time></trkpt><trkpt lat="43.3481095" lon="11.9063224"><ele>268.0</ele><time>2026-03-28T15:19:35.098Z</time></trkpt><trkpt lat="43.3481117" lon="11.9064107"><ele>268.0</ele><time>2026-03-28T15:19:38.016Z</time></trkpt><trkpt lat="43.3481086" lon="11.9065017"><ele>268.0</ele><time>2026-03-28T15:19:41.098Z</time></trkpt><trkpt lat="43.3481073" lon="11.9066126"><ele>268.0</ele><time>2026-03-28T15:19:45.098Z</time></trkpt><trkpt lat="43.3481064" lon="11.9067203"><ele>268.0</ele><time>2026-03-28T15:19:49.101Z</time></trkpt><trkpt lat="43.3481053" lon="11.9068087"><ele>268.0</ele><time>2026-03-28T15:19:52.176Z</time></trkpt><trkpt lat="43.3481025" lon="11.9069008"><ele>268.0</ele><time>2026-03-28T15:19:55.056Z</time></trkpt><trkpt lat="43.3480935" lon="11.9069982"><ele>268.0</ele><time>2026-03-28T15:19:58.09Z</time></trkpt><trkpt lat="43.3480835" lon="11.9070955"><ele>268.0</ele><time>2026-03-28T15:20:01.247Z</time></trkpt><trkpt lat="43.3480693" lon="11.9071995"><ele>268.0</ele><time>2026-03-28T15:20:04.485Z</time></trkpt><trkpt lat="43.3480615" lon="11.9072987"><ele>268.14285714285717</ele><time>2026-03-28T15:20:07.784Z</time></trkpt><trkpt lat="43.3480509" lon="11.9074056"><ele>268.2857142857143</ele><time>2026-03-28T15:20:12.112Z</time></trkpt><trkpt lat="43.3480454" lon="11.907502"><ele>268.42857142857144</ele><time>2026-03-28T15:20:16.124Z</time></trkpt><trkpt lat="43.3480417" lon="11.9076039"><ele>268.57142857142856</ele><time>2026-03-28T15:20:21.085Z</time></trkpt><trkpt lat="43.3480374" lon="11.907695"><ele>268.7142857142857</ele><time>2026-03-28T15:20:25.103Z</time></trkpt><trkpt lat="43.3480261" lon="11.9077823"><ele>268.8571428571429</ele><time>2026-03-28T15:20:28.107Z</time></trkpt><trkpt lat="43.3480137" lon="11.9078678"><ele>269.0</ele><time>2026-03-28T15:20:31.065Z</time></trkpt><trkpt lat="43.3479813" lon="11.907945"><ele>269.0</ele><time>2026-03-28T15:20:34.105Z</time></trkpt><trkpt lat="43.3479381" lon="11.9080127"><ele>269.0</ele><time>2026-03-28T15:20:37.083Z</time></trkpt><trkpt lat="43.3478614" lon="11.908027"><ele>269.0</ele><time>2026-03-28T15:20:41.07Z</time></trkpt><trkpt lat="43.3477844" lon="11.9080034"><ele>269.0</ele><time>2026-03-28T15:20:45.092Z</time></trkpt><trkpt lat="43.3477144" lon="11.9079674"><ele>269.0</ele><time>2026-03-28T15:20:49.109Z</time></trkpt><trkpt lat="43.3476366" lon="11.9079273"><ele>269.0</ele><time>2026-03-28T15:20:53.077Z</time></trkpt><trkpt lat="43.3475588" lon="11.9078886"><ele>269.0</ele><time>2026-03-28T15:20:57.088Z</time></trkpt><trkpt lat="43.3474907" lon="11.9078601"><ele>269.0</ele><time>2026-03-28T15:21:00.687Z</time></trkpt><trkpt lat="43.3474308" lon="11.9078203"><ele>269.0</ele><time>2026-03-28T15:21:04.115Z</time></trkpt><trkpt lat="43.3473718" lon="11.9077796"><ele>269.0</ele><time>2026-03-28T15:21:07.139Z</time></trkpt><trkpt lat="43.3472992" lon="11.9077335"><ele>269.0</ele><time>2026-03-28T15:21:11.104Z</time></trkpt><trkpt lat="43.3472397" lon="11.9076994"><ele>269.0</ele><time>2026-03-28T15:21:14.156Z</time></trkpt><trkpt lat="43.3471561" lon="11.9076805"><ele>269.0</ele><time>2026-03-28T15:21:19.07Z</time></trkpt><trkpt lat="43.3471157" lon="11.9076081"><ele>268.6666666666667</ele><time>2026-03-28T15:21:22.08Z</time></trkpt><trkpt lat="43.3470414" lon="11.9075552"><ele>268.33333333333337</ele><time>2026-03-28T15:21:27.046Z</time></trkpt><trkpt lat="43.346977" lon="11.9075027"><ele>268.0</ele><time>2026-03-28T15:21:30.058Z</time></trkpt><trkpt lat="43.3469167" lon="11.9074375"><ele>267.6666666666667</ele><time>2026-03-28T15:21:33.07Z</time></trkpt><trkpt lat="43.346849" lon="11.9073821"><ele>267.3333333333333</ele><time>2026-03-28T15:21:36.125Z</time></trkpt><trkpt lat="43.3467889" lon="11.9073312"><ele>267.0</ele><time>2026-03-28T15:21:39.008Z</time></trkpt><trkpt lat="43.3467294" lon="11.9072868"><ele>267.00000000000006</ele><time>2026-03-28T15:21:42.095Z</time></trkpt><trkpt lat="43.3466729" lon="11.9072372"><ele>267.0</ele><time>2026-03-28T15:21:45.092Z</time></trkpt><trkpt lat="43.3466159" lon="11.9071934"><ele>267.0</ele><time>2026-03-28T15:21:48.119Z</time></trkpt><trkpt lat="43.346554" lon="11.9071471"><ele>267.0</ele><time>2026-03-28T15:21:51.089Z</time></trkpt><trkpt lat="43.346486" lon="11.9071023"><ele>267.0</ele><time>2026-03-28T15:21:54.103Z</time></trkpt><trkpt lat="43.3464305" lon="11.9070609"><ele>267.00000000000006</ele><time>2026-03-28T15:21:57.105Z</time></trkpt><trkpt lat="43.3463717" lon="11.907024"><ele>267.0</ele><time>2026-03-28T15:22:00.073Z</time></trkpt><trkpt lat="43.3463143" lon="11.9069865"><ele>266.5714285714286</ele><time>2026-03-28T15:22:03.086Z</time></trkpt><trkpt lat="43.3462575" lon="11.9069471"><ele>266.14285714285717</ele><time>2026-03-28T15:22:06.122Z</time></trkpt><trkpt lat="43.3462005" lon="11.9069046"><ele>265.7142857142857</ele><time>2026-03-28T15:22:09.107Z</time></trkpt><trkpt lat="43.3461425" lon="11.9068568"><ele>265.28571428571433</ele><time>2026-03-28T15:22:12.11Z</time></trkpt><trkpt lat="43.3460823" lon="11.9068069"><ele>264.8571428571429</ele><time>2026-03-28T15:22:15.098Z</time></trkpt><trkpt lat="43.3460169" lon="11.9067744"><ele>264.42857142857144</ele><time>2026-03-28T15:22:18.05Z</time></trkpt><trkpt lat="43.3459556" lon="11.9068187"><ele>264.0</ele><time>2026-03-28T15:22:21.084Z</time></trkpt><trkpt lat="43.3459019" lon="11.9068995"><ele>264.0</ele><time>2026-03-28T15:22:25.1Z</time></trkpt><trkpt lat="43.3458688" lon="11.9069967"><ele>264.0</ele><time>2026-03-28T15:22:29.104Z</time></trkpt><trkpt lat="43.3458235" lon="11.9070923"><ele>264.0</ele><time>2026-03-28T15:22:33.098Z</time></trkpt><trkpt lat="43.3457847" lon="11.907194"><ele>264.0</ele><time>2026-03-28T15:22:37.083Z</time></trkpt><trkpt lat="43.345753" lon="11.9072729"><ele>264.0</ele><time>2026-03-28T15:22:40.109Z</time></trkpt><trkpt lat="43.3457126" lon="11.9073751"><ele>264.0</ele><time>2026-03-28T15:22:44.111Z</time></trkpt><trkpt lat="43.3456772" lon="11.9074567"><ele>264.0</ele><time>2026-03-28T15:22:47.064Z</time></trkpt><trkpt lat="43.3456461" lon="11.9075401"><ele>264.0</ele><time>2026-03-28T15:22:50.104Z</time></trkpt><trkpt lat="43.3456168" lon="11.9076205"><ele>264.0</ele><time>2026-03-28T15:22:53.103Z</time></trkpt><trkpt lat="43.3455792" lon="11.9076931"><ele>264.0</ele><time>2026-03-28T15:22:56.031Z</time></trkpt><trkpt lat="43.3455352" lon="11.9077659"><ele>264.0</ele><time>2026-03-28T15:22:59.102Z</time></trkpt><trkpt lat="43.3454969" lon="11.907837"><ele>264.0</ele><time>2026-03-28T15:23:02.114Z</time></trkpt><trkpt lat="43.3454321" lon="11.9079053"><ele>264.0</ele><time>2026-03-28T15:23:06.142Z</time></trkpt><trkpt lat="43.3453799" lon="11.9079956"><ele>264.1428571428571</ele><time>2026-03-28T15:23:10.128Z</time></trkpt><trkpt lat="43.3453334" lon="11.9080821"><ele>264.2857142857143</ele><time>2026-03-28T15:23:14.071Z</time></trkpt><trkpt lat="43.3452956" lon="11.9081549"><ele>264.42857142857144</ele><time>2026-03-28T15:23:17.722Z</time></trkpt><trkpt lat="43.3452527" lon="11.9082392"><ele>264.57142857142856</ele><time>2026-03-28T15:23:21.09Z</time></trkpt><trkpt lat="43.3452151" lon="11.9083161"><ele>264.7142857142857</ele><time>2026-03-28T15:23:24.114Z</time></trkpt><trkpt lat="43.3451772" lon="11.9083916"><ele>264.85714285714283</ele><time>2026-03-28T15:23:27.092Z</time></trkpt><trkpt lat="43.3451353" lon="11.9084669"><ele>265.0</ele><time>2026-03-28T15:23:30.085Z</time></trkpt><trkpt lat="43.3450901" lon="11.9085603"><ele>265.1428571428571</ele><time>2026-03-28T15:23:34.095Z</time></trkpt><trkpt lat="43.345043" lon="11.9086478"><ele>265.2857142857143</ele><time>2026-03-28T15:23:38.006Z</time></trkpt><trkpt lat="43.3449993" lon="11.9087427"><ele>265.42857142857144</ele><time>2026-03-28T15:23:42.092Z</time></trkpt><trkpt lat="43.3449667" lon="11.9088171"><ele>265.57142857142856</ele><time>2026-03-28T15:23:45.107Z</time></trkpt><trkpt lat="43.3449319" lon="11.9088951"><ele>265.7142857142857</ele><time>2026-03-28T15:23:48.05Z</time></trkpt><trkpt lat="43.3448945" lon="11.9089948"><ele>265.85714285714283</ele><time>2026-03-28T15:23:52.041Z</time></trkpt><trkpt lat="43.3449057" lon="11.9090834"><ele>266.0</ele><time>2026-03-28T15:23:56.098Z</time></trkpt><trkpt lat="43.3449395" lon="11.9091574"><ele>266.0</ele><time>2026-03-28T15:24:00.098Z</time></trkpt><trkpt lat="43.3450041" lon="11.9092307"><ele>266.0</ele><time>2026-03-28T15:24:04.091Z</time></trkpt><trkpt lat="43.3450446" lon="11.9093048"><ele>266.0</ele><time>2026-03-28T15:24:07.071Z</time></trkpt><trkpt lat="43.3450503" lon="11.9093945"><ele>266.0</ele><time>2026-03-28T15:24:10.086Z</time></trkpt><trkpt lat="43.3450753" lon="11.9094811"><ele>266.0</ele><time>2026-03-28T15:24:13.121Z</time></trkpt><trkpt lat="43.3451211" lon="11.9095536"><ele>266.0</ele><time>2026-03-28T15:24:16.111Z</time></trkpt><trkpt lat="43.3451363" lon="11.9096418"><ele>266.0</ele><time>2026-03-28T15:24:19.095Z</time></trkpt><trkpt lat="43.3450945" lon="11.9097079"><ele>266.14285714285717</ele><time>2026-03-28T15:24:22.04Z</time></trkpt><trkpt lat="43.3450571" lon="11.9097879"><ele>266.2857142857143</ele><time>2026-03-28T15:24:25.105Z</time></trkpt><trkpt lat="43.345019" lon="11.9098697"><ele>266.42857142857144</ele><time>2026-03-28T15:24:28.107Z</time></trkpt><trkpt lat="43.3449753" lon="11.9099443"><ele>266.57142857142856</ele><time>2026-03-28T15:24:31.077Z</time></trkpt><trkpt lat="43.3449293" lon="11.9100222"><ele>266.7142857142857</ele><time>2026-03-28T15:24:34.095Z</time></trkpt><trkpt lat="43.3448759" lon="11.9100948"><ele>266.8571428571429</ele><time>2026-03-28T15:24:37.123Z</time></trkpt><trkpt lat="43.3448282" lon="11.9101627"><ele>267.0</ele><time>2026-03-28T15:24:40.117Z</time></trkpt><trkpt lat="43.3447802" lon="11.9102241"><ele>266.8571428571429</ele><time>2026-03-28T15:24:43.102Z</time></trkpt><trkpt lat="43.3447359" lon="11.9102934"><ele>266.7142857142857</ele><time>2026-03-28T15:24:46.085Z</time></trkpt><trkpt lat="43.3446763" lon="11.9103731"><ele>266.57142857142856</ele><time>2026-03-28T15:24:50.063Z</time></trkpt><trkpt lat="43.3446293" lon="11.910451"><ele>266.42857142857144</ele><time>2026-03-28T15:24:53.11Z</time></trkpt><trkpt lat="43.3445797" lon="11.9105257"><ele>266.2857142857143</ele><time>2026-03-28T15:24:56.147Z</time></trkpt><trkpt lat="43.3445347" lon="11.9105869"><ele>266.14285714285717</ele><time>2026-03-28T15:24:59.026Z</time></trkpt><trkpt lat="43.3444774" lon="11.9106399"><ele>266.0</ele><time>2026-03-28T15:25:02.104Z</time></trkpt><trkpt lat="43.3444231" lon="11.9107006"><ele>266.0</ele><time>2026-03-28T15:25:05.11Z</time></trkpt><trkpt lat="43.3443719" lon="11.910791"><ele>266.0</ele><time>2026-03-28T15:25:09.109Z</time></trkpt><trkpt lat="43.3443343" lon="11.9108654"><ele>266.0</ele><time>2026-03-28T15:25:12.009Z</time></trkpt><trkpt lat="43.3442938" lon="11.9109483"><ele>266.0</ele><time>2026-03-28T15:25:15.125Z</time></trkpt><trkpt lat="43.3442862" lon="11.9110455"><ele>266.0</ele><time>2026-03-28T15:25:18.085Z</time></trkpt><trkpt lat="43.344261" lon="11.9111345"><ele>266.0</ele><time>2026-03-28T15:25:20.905Z</time></trkpt><trkpt lat="43.3442196" lon="11.9112015"><ele>266.0</ele><time>2026-03-28T15:25:24.116Z</time></trkpt><trkpt lat="43.3441847" lon="11.9112976"><ele>266.0</ele><time>2026-03-28T15:25:28.134Z</time></trkpt><trkpt lat="43.3441493" lon="11.9113827"><ele>266.0</ele><time>2026-03-28T15:25:32.114Z</time></trkpt><trkpt lat="43.3441003" lon="11.9114748"><ele>266.0</ele><time>2026-03-28T15:25:36.024Z</time></trkpt><trkpt lat="43.3440493" lon="11.9115438"><ele>266.0</ele><time>2026-03-28T15:25:39.093Z</time></trkpt><trkpt lat="43.3439983" lon="11.9116156"><ele>266.0</ele><time>2026-03-28T15:25:42.145Z</time></trkpt><trkpt lat="43.3439439" lon="11.9116791"><ele>266.0</ele><time>2026-03-28T15:25:45.025Z</time></trkpt><trkpt lat="43.3438949" lon="11.9117459"><ele>266.0</ele><time>2026-03-28T15:25:48.108Z</time></trkpt><trkpt lat="43.3438492" lon="11.9118106"><ele>266.0</ele><time>2026-03-28T15:25:51.116Z</time></trkpt><trkpt lat="43.3437997" lon="11.9118834"><ele>266.0</ele><time>2026-03-28T15:25:54.077Z</time></trkpt><trkpt lat="43.3437404" lon="11.9119481"><ele>266.0</ele><time>2026-03-28T15:25:57.013Z</time></trkpt><trkpt lat="43.3436761" lon="11.912021"><ele>266.0</ele><time>2026-03-28T15:26:00.123Z</time></trkpt><trkpt lat="43.3436209" lon="11.9120939"><ele>266.0</ele><time>2026-03-28T15:26:03.094Z</time></trkpt><trkpt lat="43.3435723" lon="11.9121612"><ele>266.0</ele><time>2026-03-28T15:26:06.022Z</time></trkpt><trkpt lat="43.343526" lon="11.9122334"><ele>266.0</ele><time>2026-03-28T15:26:09.1Z</time></trkpt><trkpt lat="43.3435032" lon="11.9123141"><ele>266.0</ele><time>2026-03-28T15:26:12.114Z</time></trkpt><trkpt lat="43.3435253" lon="11.9124143"><ele>266.0</ele><time>2026-03-28T15:26:15.127Z</time></trkpt><trkpt lat="43.3435769" lon="11.9124895"><ele>266.0</ele><time>2026-03-28T15:26:18.119Z</time></trkpt><trkpt lat="43.343625" lon="11.9125683"><ele>266.0</ele><time>2026-03-28T15:26:21.096Z</time></trkpt><trkpt lat="43.3436638" lon="11.9126433"><ele>266.0</ele><time>2026-03-28T15:26:24.127Z</time></trkpt><trkpt lat="43.3436498" lon="11.9127379"><ele>266.0</ele><time>2026-03-28T15:26:27.087Z</time></trkpt><trkpt lat="43.3436319" lon="11.9128335"><ele>266.0</ele><time>2026-03-28T15:26:30.124Z</time></trkpt><trkpt lat="43.3436672" lon="11.9129384"><ele>266.14285714285717</ele><time>2026-03-28T15:26:34.106Z</time></trkpt><trkpt lat="43.3436978" lon="11.9130286"><ele>266.2857142857143</ele><time>2026-03-28T15:26:38.113Z</time></trkpt><trkpt lat="43.3436919" lon="11.9131344"><ele>266.42857142857144</ele><time>2026-03-28T15:26:42.109Z</time></trkpt><trkpt lat="43.3436596" lon="11.9132307"><ele>266.57142857142856</ele><time>2026-03-28T15:26:46.078Z</time></trkpt><trkpt lat="43.3436166" lon="11.9132989"><ele>266.7142857142857</ele><time>2026-03-28T15:26:49.13Z</time></trkpt><trkpt lat="43.3435731" lon="11.913374"><ele>266.8571428571429</ele><time>2026-03-28T15:26:52.099Z</time></trkpt><trkpt lat="43.3435294" lon="11.9134384"><ele>267.0</ele><time>2026-03-28T15:26:55.124Z</time></trkpt><trkpt lat="43.3434827" lon="11.9135053"><ele>267.00000000000006</ele><time>2026-03-28T15:26:58.116Z</time></trkpt><trkpt lat="43.3434383" lon="11.9135732"><ele>267.0</ele><time>2026-03-28T15:27:01.006Z</time></trkpt><trkpt lat="43.3433968" lon="11.9136458"><ele>267.0</ele><time>2026-03-28T15:27:04.096Z</time></trkpt><trkpt lat="43.3433513" lon="11.9137185"><ele>267.0</ele><time>2026-03-28T15:27:07.13Z</time></trkpt><trkpt lat="43.3433089" lon="11.9137925"><ele>267.0</ele><time>2026-03-28T15:27:10.048Z</time></trkpt><trkpt lat="43.3432648" lon="11.9138592"><ele>267.00000000000006</ele><time>2026-03-28T15:27:13.113Z</time></trkpt><trkpt lat="43.3432124" lon="11.9139478"><ele>267.0</ele><time>2026-03-28T15:27:17.098Z</time></trkpt><trkpt lat="43.3431712" lon="11.9140167"><ele>267.00000000000006</ele><time>2026-03-28T15:27:20.118Z</time></trkpt><trkpt lat="43.3431273" lon="11.9140962"><ele>267.0</ele><time>2026-03-28T15:27:24.104Z</time></trkpt><trkpt lat="43.3430829" lon="11.91416"><ele>267.0</ele><time>2026-03-28T15:27:27.092Z</time></trkpt><trkpt lat="43.3430378" lon="11.9142278"><ele>267.0</ele><time>2026-03-28T15:27:30.083Z</time></trkpt><trkpt lat="43.3429744" lon="11.9142986"><ele>267.0</ele><time>2026-03-28T15:27:34.097Z</time></trkpt><trkpt lat="43.342904" lon="11.9143358"><ele>267.00000000000006</ele><time>2026-03-28T15:27:38.087Z</time></trkpt><trkpt lat="43.3428509" lon="11.9143933"><ele>267.0</ele><time>2026-03-28T15:27:41.098Z</time></trkpt><trkpt lat="43.3428103" lon="11.9144961"><ele>266.8571428571429</ele><time>2026-03-28T15:27:45.104Z</time></trkpt><trkpt lat="43.3427785" lon="11.9145825"><ele>266.7142857142857</ele><time>2026-03-28T15:27:48.046Z</time></trkpt><trkpt lat="43.3427431" lon="11.9146648"><ele>266.57142857142856</ele><time>2026-03-28T15:27:51.099Z</time></trkpt><trkpt lat="43.3426931" lon="11.914729"><ele>266.42857142857144</ele><time>2026-03-28T15:27:54.068Z</time></trkpt><trkpt lat="43.3426565" lon="11.9148035"><ele>266.2857142857143</ele><time>2026-03-28T15:27:57.094Z</time></trkpt><trkpt lat="43.3426089" lon="11.9148907"><ele>266.14285714285717</ele><time>2026-03-28T15:28:00.117Z</time></trkpt><trkpt lat="43.3425589" lon="11.9149854"><ele>266.0</ele><time>2026-03-28T15:28:04.101Z</time></trkpt><trkpt lat="43.3425015" lon="11.9150713"><ele>265.7142857142857</ele><time>2026-03-28T15:28:08.046Z</time></trkpt><trkpt lat="43.3424556" lon="11.9151349"><ele>265.42857142857144</ele><time>2026-03-28T15:28:10.931Z</time></trkpt><trkpt lat="43.3423974" lon="11.9151803"><ele>265.1428571428571</ele><time>2026-03-28T15:28:14.089Z</time></trkpt><trkpt lat="43.3423267" lon="11.9151913"><ele>264.8571428571429</ele><time>2026-03-28T15:28:17.062Z</time></trkpt><trkpt lat="43.3422527" lon="11.9152071"><ele>264.57142857142856</ele><time>2026-03-28T15:28:20.099Z</time></trkpt><trkpt lat="43.3421859" lon="11.915236"><ele>264.2857142857143</ele><time>2026-03-28T15:28:23.097Z</time></trkpt><trkpt lat="43.3421106" lon="11.9152469"><ele>264.0</ele><time>2026-03-28T15:28:26.089Z</time></trkpt><trkpt lat="43.3420412" lon="11.9152538"><ele>264.0</ele><time>2026-03-28T15:28:29.103Z</time></trkpt><trkpt lat="43.3419622" lon="11.9152149"><ele>264.0</ele><time>2026-03-28T15:28:33.108Z</time></trkpt><trkpt lat="43.3418862" lon="11.9151857"><ele>264.0</ele><time>2026-03-28T15:28:37.081Z</time></trkpt><trkpt lat="43.341843" lon="11.9152611"><ele>264.0</ele><time>2026-03-28T15:28:40.109Z</time></trkpt><trkpt lat="43.3418029" lon="11.915333"><ele>264.0</ele><time>2026-03-28T15:28:43.094Z</time></trkpt><trkpt lat="43.3417595" lon="11.9154179"><ele>264.0</ele><time>2026-03-28T15:28:47.095Z</time></trkpt><trkpt lat="43.3417101" lon="11.9155012"><ele>264.0</ele><time>2026-03-28T15:28:51.142Z</time></trkpt><trkpt lat="43.3416614" lon="11.9155773"><ele>264.0</ele><time>2026-03-28T15:28:55.066Z</time></trkpt><trkpt lat="43.3416123" lon="11.9156659"><ele>264.0</ele><time>2026-03-28T15:29:00.077Z</time></trkpt><trkpt lat="43.34154" lon="11.9156887"><ele>264.0</ele><time>2026-03-28T15:29:04.095Z</time></trkpt><trkpt lat="43.3415047" lon="11.9157817"><ele>264.0</ele><time>2026-03-28T15:29:06.099Z</time></trkpt><trkpt lat="43.3414571" lon="11.9158623"><ele>264.0</ele><time>2026-03-28T15:29:09.108Z</time></trkpt><trkpt lat="43.3414123" lon="11.9159403"><ele>263.57142857142856</ele><time>2026-03-28T15:29:12.095Z</time></trkpt><trkpt lat="43.3413649" lon="11.9160069"><ele>263.14285714285717</ele><time>2026-03-28T15:29:15.107Z</time></trkpt><trkpt lat="43.3413131" lon="11.9160849"><ele>262.7142857142857</ele><time>2026-03-28T15:29:18.105Z</time></trkpt><trkpt lat="43.3412681" lon="11.9161507"><ele>262.2857142857143</ele><time>2026-03-28T15:29:21.09Z</time></trkpt><trkpt lat="43.3412217" lon="11.9162176"><ele>261.85714285714283</ele><time>2026-03-28T15:29:24.002Z</time></trkpt><trkpt lat="43.3411692" lon="11.9162774"><ele>261.42857142857144</ele><time>2026-03-28T15:29:27.087Z</time></trkpt><trkpt lat="43.3411087" lon="11.9163448"><ele>261.0</ele><time>2026-03-28T15:29:31.102Z</time></trkpt><trkpt lat="43.341063" lon="11.9164177"><ele>261.0</ele><time>2026-03-28T15:29:35.095Z</time></trkpt><trkpt lat="43.3410174" lon="11.916493"><ele>261.0</ele><time>2026-03-28T15:29:38.964Z</time></trkpt><trkpt lat="43.3409733" lon="11.9165695"><ele>261.0</ele><time>2026-03-28T15:29:43.099Z</time></trkpt><trkpt lat="43.3409234" lon="11.9166469"><ele>261.0</ele><time>2026-03-28T15:29:47.093Z</time></trkpt><trkpt lat="43.3408721" lon="11.9167304"><ele>261.0</ele><time>2026-03-28T15:29:51.084Z</time></trkpt><trkpt lat="43.340825" lon="11.9168159"><ele>261.0</ele><time>2026-03-28T15:29:55.13Z</time></trkpt><trkpt lat="43.3407808" lon="11.9168872"><ele>261.0</ele><time>2026-03-28T15:29:59.151Z</time></trkpt><trkpt lat="43.3407278" lon="11.916963"><ele>261.0</ele><time>2026-03-28T15:30:03.104Z</time></trkpt><trkpt lat="43.3406729" lon="11.9170423"><ele>261.0</ele><time>2026-03-28T15:30:07.11Z</time></trkpt><trkpt lat="43.3406201" lon="11.9171352"><ele>261.0</ele><time>2026-03-28T15:30:11.064Z</time></trkpt><trkpt lat="43.3406227" lon="11.9172274"><ele>261.0</ele><time>2026-03-28T15:30:15.088Z</time></trkpt><trkpt lat="43.340689" lon="11.917278"><ele>261.0</ele><time>2026-03-28T15:30:19.11Z</time></trkpt><trkpt lat="43.3407436" lon="11.9173377"><ele>261.0</ele><time>2026-03-28T15:30:23.099Z</time></trkpt><trkpt lat="43.3407878" lon="11.9174024"><ele>261.0</ele><time>2026-03-28T15:30:27.075Z</time></trkpt><trkpt lat="43.3408367" lon="11.9174645"><ele>261.0</ele><time>2026-03-28T15:30:31.106Z</time></trkpt><trkpt lat="43.3409044" lon="11.917452"><ele>261.0</ele><time>2026-03-28T15:30:37.117Z</time></trkpt><trkpt lat="43.3409472" lon="11.9175343"><ele>261.0</ele><time>2026-03-28T15:30:41.091Z</time></trkpt><trkpt lat="43.3409317" lon="11.9176205"><ele>261.0</ele><time>2026-03-28T15:30:43.096Z</time></trkpt><trkpt lat="43.3408926" lon="11.9176968"><ele>261.0</ele><time>2026-03-28T15:30:46.094Z</time></trkpt><trkpt lat="43.3408388" lon="11.9177754"><ele>261.0</ele><time>2026-03-28T15:30:49.087Z</time></trkpt><trkpt lat="43.3407883" lon="11.9178505"><ele>261.0</ele><time>2026-03-28T15:30:52.094Z</time></trkpt><trkpt lat="43.3407417" lon="11.9179249"><ele>261.0</ele><time>2026-03-28T15:30:55.063Z</time></trkpt><trkpt lat="43.340693" lon="11.9180051"><ele>261.0</ele><time>2026-03-28T15:30:58.108Z</time></trkpt><trkpt lat="43.3406425" lon="11.9180815"><ele>261.0</ele><time>2026-03-28T15:31:01.106Z</time></trkpt><trkpt lat="43.3406039" lon="11.918156"><ele>261.0</ele><time>2026-03-28T15:31:04.112Z</time></trkpt><trkpt lat="43.3405492" lon="11.9182143"><ele>261.0</ele><time>2026-03-28T15:31:07.107Z</time></trkpt><trkpt lat="43.340503" lon="11.9183011"><ele>261.0</ele><time>2026-03-28T15:31:11.105Z</time></trkpt><trkpt lat="43.3404524" lon="11.9183838"><ele>261.0</ele><time>2026-03-28T15:31:15.107Z</time></trkpt><trkpt lat="43.3404012" lon="11.918469"><ele>261.2857142857143</ele><time>2026-03-28T15:31:19.089Z</time></trkpt><trkpt lat="43.3403473" lon="11.9185551"><ele>261.57142857142856</ele><time>2026-03-28T15:31:23.093Z</time></trkpt><trkpt lat="43.3403028" lon="11.9186205"><ele>261.85714285714283</ele><time>2026-03-28T15:31:26.008Z</time></trkpt><trkpt lat="43.3402603" lon="11.9186923"><ele>262.1428571428571</ele><time>2026-03-28T15:31:29.078Z</time></trkpt><trkpt lat="43.3402148" lon="11.9187665"><ele>262.4285714285714</ele><time>2026-03-28T15:31:32.124Z</time></trkpt><trkpt lat="43.3401573" lon="11.9188502"><ele>262.7142857142857</ele><time>2026-03-28T15:31:36.065Z</time></trkpt><trkpt lat="43.3401123" lon="11.918931"><ele>263.0</ele><time>2026-03-28T15:31:40.051Z</time></trkpt><trkpt lat="43.3400663" lon="11.9190153"><ele>263.0</ele><time>2026-03-28T15:31:44.022Z</time></trkpt><trkpt lat="43.3400255" lon="11.9190846"><ele>263.0</ele><time>2026-03-28T15:31:47.08Z</time></trkpt><trkpt lat="43.3399822" lon="11.9191561"><ele>263.0</ele><time>2026-03-28T15:31:50.096Z</time></trkpt><trkpt lat="43.339935" lon="11.9192268"><ele>263.0</ele><time>2026-03-28T15:31:53.046Z</time></trkpt><trkpt lat="43.3398903" lon="11.9192991"><ele>263.0</ele><time>2026-03-28T15:31:56.107Z</time></trkpt><trkpt lat="43.339843" lon="11.9193684"><ele>263.0</ele><time>2026-03-28T15:31:59.116Z</time></trkpt><trkpt lat="43.3397962" lon="11.9194344"><ele>263.0</ele><time>2026-03-28T15:32:02.118Z</time></trkpt><trkpt lat="43.3397539" lon="11.9195031"><ele>262.83333333333337</ele><time>2026-03-28T15:32:05.01Z</time></trkpt><trkpt lat="43.3396958" lon="11.919582"><ele>262.6666666666667</ele><time>2026-03-28T15:32:09.01Z</time></trkpt><trkpt lat="43.3396456" lon="11.9196642"><ele>262.5</ele><time>2026-03-28T15:32:13.011Z</time></trkpt><trkpt lat="43.339596" lon="11.919741"><ele>262.3333333333333</ele><time>2026-03-28T15:32:17.111Z</time></trkpt><trkpt lat="43.339544" lon="11.9198296"><ele>262.16666666666663</ele><time>2026-03-28T15:32:21.1Z</time></trkpt><trkpt lat="43.3394961" lon="11.9199057"><ele>262.0</ele><time>2026-03-28T15:32:25.101Z</time></trkpt><trkpt lat="43.3394468" lon="11.9199927"><ele>263.14285714285717</ele><time>2026-03-28T15:32:30.078Z</time></trkpt><trkpt lat="43.3394016" lon="11.9200673"><ele>264.28571428571433</ele><time>2026-03-28T15:32:34.018Z</time></trkpt><trkpt lat="43.3393524" lon="11.9201504"><ele>265.42857142857144</ele><time>2026-03-28T15:32:38.046Z</time></trkpt><trkpt lat="43.3393107" lon="11.9202259"><ele>266.57142857142856</ele><time>2026-03-28T15:32:42.05Z</time></trkpt><trkpt lat="43.3392648" lon="11.9202958"><ele>267.71428571428567</ele><time>2026-03-28T15:32:46.101Z</time></trkpt><trkpt lat="43.3392163" lon="11.9203646"><ele>268.85714285714283</ele><time>2026-03-28T15:32:50.138Z</time></trkpt><trkpt lat="43.339169" lon="11.920439"><ele>270.0</ele><time>2026-03-28T15:32:54.092Z</time></trkpt><trkpt lat="43.3391243" lon="11.9205001"><ele>270.0</ele><time>2026-03-28T15:32:57.099Z</time></trkpt><trkpt lat="43.3390875" lon="11.9205824"><ele>270.0</ele><time>2026-03-28T15:33:01.1Z</time></trkpt><trkpt lat="43.3390333" lon="11.9206676"><ele>270.0</ele><time>2026-03-28T15:33:05.11Z</time></trkpt><trkpt lat="43.3389797" lon="11.9207184"><ele>270.0</ele><time>2026-03-28T15:33:08.041Z</time></trkpt><trkpt lat="43.3389258" lon="11.9207948"><ele>270.0</ele><time>2026-03-28T15:33:12.094Z</time></trkpt><trkpt lat="43.3388669" lon="11.9208715"><ele>270.0</ele><time>2026-03-28T15:33:16.059Z</time></trkpt><trkpt lat="43.3388232" lon="11.9209615"><ele>269.42857142857144</ele><time>2026-03-28T15:33:20.01Z</time></trkpt><trkpt lat="43.338778" lon="11.9210275"><ele>268.85714285714283</ele><time>2026-03-28T15:33:23.114Z</time></trkpt><trkpt lat="43.3387313" lon="11.9210981"><ele>268.2857142857143</ele><time>2026-03-28T15:33:26.106Z</time></trkpt><trkpt lat="43.3386724" lon="11.9211821"><ele>267.7142857142857</ele><time>2026-03-28T15:33:30.09Z</time></trkpt><trkpt lat="43.3386355" lon="11.9212541"><ele>267.1428571428571</ele><time>2026-03-28T15:33:33.084Z</time></trkpt><trkpt lat="43.3386098" lon="11.9213356"><ele>266.57142857142856</ele><time>2026-03-28T15:33:36.124Z</time></trkpt><trkpt lat="43.3385989" lon="11.921428"><ele>266.0</ele><time>2026-03-28T15:33:40.092Z</time></trkpt><trkpt lat="43.3385872" lon="11.9215148"><ele>266.0</ele><time>2026-03-28T15:33:44.08Z</time></trkpt><trkpt lat="43.3385566" lon="11.9215967"><ele>266.0</ele><time>2026-03-28T15:33:49.067Z</time></trkpt><trkpt lat="43.3385647" lon="11.9216968"><ele>266.0</ele><time>2026-03-28T15:33:55.085Z</time></trkpt><trkpt lat="43.3385008" lon="11.9217676"><ele>266.0</ele><time>2026-03-28T15:33:58.093Z</time></trkpt><trkpt lat="43.3384299" lon="11.9218177"><ele>266.0</ele><time>2026-03-28T15:34:01.095Z</time></trkpt><trkpt lat="43.3383976" lon="11.9219163"><ele>266.0</ele><time>2026-03-28T15:34:05.086Z</time></trkpt><trkpt lat="43.3384172" lon="11.9220147"><ele>266.6666666666667</ele><time>2026-03-28T15:34:09.07Z</time></trkpt><trkpt lat="43.338444" lon="11.9221193"><ele>267.33333333333337</ele><time>2026-03-28T15:34:13.092Z</time></trkpt><trkpt lat="43.3384838" lon="11.9222112"><ele>268.0</ele><time>2026-03-28T15:34:17.078Z</time></trkpt><trkpt lat="43.3385243" lon="11.9222973"><ele>268.6666666666667</ele><time>2026-03-28T15:34:21.086Z</time></trkpt><trkpt lat="43.3385565" lon="11.9223939"><ele>269.3333333333333</ele><time>2026-03-28T15:34:26.095Z</time></trkpt><trkpt lat="43.3385605" lon="11.9224938"><ele>270.0</ele><time>2026-03-28T15:34:30.103Z</time></trkpt><trkpt lat="43.3385376" lon="11.922589"><ele>270.1428571428571</ele><time>2026-03-28T15:34:34.074Z</time></trkpt><trkpt lat="43.3385305" lon="11.9226772"><ele>270.2857142857143</ele><time>2026-03-28T15:34:37.092Z</time></trkpt><trkpt lat="43.3385326" lon="11.9227837"><ele>270.42857142857144</ele><time>2026-03-28T15:34:41.053Z</time></trkpt><trkpt lat="43.3385327" lon="11.9228722"><ele>270.57142857142856</ele><time>2026-03-28T15:34:47.087Z</time></trkpt><trkpt lat="43.3385072" lon="11.922959"><ele>270.7142857142857</ele><time>2026-03-28T15:34:53.086Z</time></trkpt><trkpt lat="43.3385358" lon="11.9230663"><ele>270.85714285714283</ele><time>2026-03-28T15:34:57.117Z</time></trkpt><trkpt lat="43.3385573" lon="11.923156"><ele>271.0</ele><time>2026-03-28T15:35:00.119Z</time></trkpt><trkpt lat="43.3385672" lon="11.9232519"><ele>271.0</ele><time>2026-03-28T15:35:03.084Z</time></trkpt><trkpt lat="43.3385728" lon="11.9233467"><ele>271.0</ele><time>2026-03-28T15:35:06.08Z</time></trkpt><trkpt lat="43.338592" lon="11.9234364"><ele>271.0</ele><time>2026-03-28T15:35:09.095Z</time></trkpt><trkpt lat="43.3386068" lon="11.9235212"><ele>271.0</ele><time>2026-03-28T15:35:12.095Z</time></trkpt><trkpt lat="43.3386232" lon="11.9236095"><ele>271.0</ele><time>2026-03-28T15:35:15.097Z</time></trkpt><trkpt lat="43.3386472" lon="11.9237115"><ele>271.0</ele><time>2026-03-28T15:35:19.091Z</time></trkpt><trkpt lat="43.3386684" lon="11.9238193"><ele>271.0</ele><time>2026-03-28T15:35:23.099Z</time></trkpt><trkpt lat="43.3386655" lon="11.923912"><ele>270.42857142857144</ele><time>2026-03-28T15:35:25.997Z</time></trkpt><trkpt lat="43.3386739" lon="11.9239998"><ele>269.8571428571429</ele><time>2026-03-28T15:35:29.106Z</time></trkpt><trkpt lat="43.3386841" lon="11.9241002"><ele>269.28571428571433</ele><time>2026-03-28T15:35:33.103Z</time></trkpt><trkpt lat="43.3387071" lon="11.924193"><ele>268.7142857142857</ele><time>2026-03-28T15:35:37.086Z</time></trkpt><trkpt lat="43.3387474" lon="11.9242868"><ele>268.14285714285717</ele><time>2026-03-28T15:35:42.109Z</time></trkpt><trkpt lat="43.3387906" lon="11.9243669"><ele>267.5714285714286</ele><time>2026-03-28T15:35:47.102Z</time></trkpt><trkpt lat="43.338834" lon="11.9244534"><ele>267.0</ele><time>2026-03-28T15:35:51.116Z</time></trkpt><trkpt lat="43.3388862" lon="11.9245296"><ele>268.3333333333333</ele><time>2026-03-28T15:35:55.08Z</time></trkpt><trkpt lat="43.3389362" lon="11.9246153"><ele>269.6666666666667</ele><time>2026-03-28T15:36:00.056Z</time></trkpt><trkpt lat="43.338977" lon="11.9247062"><ele>271.0</ele><time>2026-03-28T15:36:04.138Z</time></trkpt><trkpt lat="43.339019" lon="11.924797"><ele>272.33333333333337</ele><time>2026-03-28T15:36:08.153Z</time></trkpt><trkpt lat="43.3390713" lon="11.9248745"><ele>273.6666666666667</ele><time>2026-03-28T15:36:13.098Z</time></trkpt><trkpt lat="43.3391186" lon="11.9249503"><ele>275.0</ele><time>2026-03-28T15:36:16.998Z</time></trkpt><trkpt lat="43.3391454" lon="11.9250317"><ele>273.8571428571429</ele><time>2026-03-28T15:36:20.093Z</time></trkpt><trkpt lat="43.3391758" lon="11.9251354"><ele>272.7142857142857</ele><time>2026-03-28T15:36:24.091Z</time></trkpt><trkpt lat="43.3392119" lon="11.9252252"><ele>271.57142857142856</ele><time>2026-03-28T15:36:28.102Z</time></trkpt><trkpt lat="43.3392504" lon="11.9253103"><ele>270.42857142857144</ele><time>2026-03-28T15:36:33.098Z</time></trkpt><trkpt lat="43.3392834" lon="11.9253891"><ele>269.2857142857143</ele><time>2026-03-28T15:36:37.014Z</time></trkpt><trkpt lat="43.3393342" lon="11.9254548"><ele>268.14285714285717</ele><time>2026-03-28T15:36:40.097Z</time></trkpt><trkpt lat="43.3393709" lon="11.9255567"><ele>267.0</ele><time>2026-03-28T15:36:44.087Z</time></trkpt><trkpt lat="43.3393977" lon="11.9256469"><ele>267.00000000000006</ele><time>2026-03-28T15:36:48.098Z</time></trkpt><trkpt lat="43.3394168" lon="11.9257473"><ele>267.0</ele><time>2026-03-28T15:36:53.115Z</time></trkpt><trkpt lat="43.3394435" lon="11.9258375"><ele>267.0</ele><time>2026-03-28T15:36:57.099Z</time></trkpt><trkpt lat="43.3394652" lon="11.9259302"><ele>267.0</ele><time>2026-03-28T15:37:01.115Z</time></trkpt><trkpt lat="43.3394771" lon="11.9260215"><ele>267.0</ele><time>2026-03-28T15:37:05.075Z</time></trkpt><trkpt lat="43.3394942" lon="11.9261253"><ele>267.00000000000006</ele><time>2026-03-28T15:37:09.091Z</time></trkpt><trkpt lat="43.339509" lon="11.9262368"><ele>267.0</ele><time>2026-03-28T15:37:13.129Z</time></trkpt><trkpt lat="43.3395222" lon="11.9263272"><ele>266.42857142857144</ele><time>2026-03-28T15:37:16.107Z</time></trkpt><trkpt lat="43.3395415" lon="11.9264116"><ele>265.8571428571429</ele><time>2026-03-28T15:37:19.097Z</time></trkpt><trkpt lat="43.3395664" lon="11.9265099"><ele>265.2857142857143</ele><time>2026-03-28T15:37:23.076Z</time></trkpt><trkpt lat="43.3395993" lon="11.9265899"><ele>264.7142857142857</ele><time>2026-03-28T15:37:27.1Z</time></trkpt><trkpt lat="43.3396462" lon="11.9266726"><ele>264.1428571428571</ele><time>2026-03-28T15:37:31.095Z</time></trkpt><trkpt lat="43.3396885" lon="11.9267381"><ele>263.57142857142856</ele><time>2026-03-28T15:37:34.101Z</time></trkpt><trkpt lat="43.3397262" lon="11.9268087"><ele>263.0</ele><time>2026-03-28T15:37:37.119Z</time></trkpt><trkpt lat="43.3397594" lon="11.9268851"><ele>263.0</ele><time>2026-03-28T15:37:40.037Z</time></trkpt><trkpt lat="43.3397916" lon="11.9269645"><ele>263.0</ele><time>2026-03-28T15:37:43.076Z</time></trkpt><trkpt lat="43.3398294" lon="11.9270382"><ele>263.0</ele><time>2026-03-28T15:37:46.105Z</time></trkpt><trkpt lat="43.3398634" lon="11.927116"><ele>263.0</ele><time>2026-03-28T15:37:49.114Z</time></trkpt><trkpt lat="43.3399061" lon="11.9272187"><ele>263.0</ele><time>2026-03-28T15:37:53.111Z</time></trkpt><trkpt lat="43.3399476" lon="11.9273098"><ele>263.0</ele><time>2026-03-28T15:37:57.099Z</time></trkpt><trkpt lat="43.3399845" lon="11.927409"><ele>263.0</ele><time>2026-03-28T15:38:01.075Z</time></trkpt><trkpt lat="43.3400126" lon="11.9274886"><ele>262.57142857142856</ele><time>2026-03-28T15:38:04.105Z</time></trkpt><trkpt lat="43.3400358" lon="11.9275815"><ele>262.1428571428571</ele><time>2026-03-28T15:38:07.159Z</time></trkpt><trkpt lat="43.3400525" lon="11.9276749"><ele>261.7142857142857</ele><time>2026-03-28T15:38:10.021Z</time></trkpt><trkpt lat="43.3400745" lon="11.9277733"><ele>261.2857142857143</ele><time>2026-03-28T15:38:13.1Z</time></trkpt><trkpt lat="43.3400891" lon="11.9278606"><ele>260.8571428571429</ele><time>2026-03-28T15:38:16.124Z</time></trkpt><trkpt lat="43.3401037" lon="11.9279698"><ele>260.42857142857144</ele><time>2026-03-28T15:38:20.111Z</time></trkpt><trkpt lat="43.3401184" lon="11.9280708"><ele>260.0</ele><time>2026-03-28T15:38:24.122Z</time></trkpt><trkpt lat="43.3401379" lon="11.9281677"><ele>260.0</ele><time>2026-03-28T15:38:28.118Z</time></trkpt><trkpt lat="43.3401561" lon="11.9282718"><ele>260.0</ele><time>2026-03-28T15:38:32.098Z</time></trkpt><trkpt lat="43.3401786" lon="11.9283812"><ele>260.0</ele><time>2026-03-28T15:38:36.067Z</time></trkpt><trkpt lat="43.3402367" lon="11.9284651"><ele>260.0</ele><time>2026-03-28T15:38:43.066Z</time></trkpt><trkpt lat="43.3403034" lon="11.928455"><ele>260.0</ele><time>2026-03-28T15:38:47.074Z</time></trkpt><trkpt lat="43.3402591" lon="11.9286603"><ele>259.8571428571429</ele><time>2026-03-28T15:38:48.084Z</time></trkpt><trkpt lat="43.3402475" lon="11.928766"><ele>259.7142857142857</ele><time>2026-03-28T15:38:49.994Z</time></trkpt><trkpt lat="43.3402184" lon="11.928856"><ele>259.57142857142856</ele><time>2026-03-28T15:38:53.985Z</time></trkpt><trkpt lat="43.3402789" lon="11.9289186"><ele>259.42857142857144</ele><time>2026-03-28T15:38:57.072Z</time></trkpt><trkpt lat="43.3403088" lon="11.9289983"><ele>259.2857142857143</ele><time>2026-03-28T15:39:00.076Z</time></trkpt><trkpt lat="43.3403194" lon="11.9290947"><ele>259.14285714285717</ele><time>2026-03-28T15:39:03.094Z</time></trkpt><trkpt lat="43.3403441" lon="11.9291802"><ele>259.0</ele><time>2026-03-28T15:39:06.102Z</time></trkpt><trkpt lat="43.3403729" lon="11.9292811"><ele>259.42857142857144</ele><time>2026-03-28T15:39:10.102Z</time></trkpt><trkpt lat="43.3404044" lon="11.9293677"><ele>259.8571428571429</ele><time>2026-03-28T15:39:14.103Z</time></trkpt><trkpt lat="43.3404349" lon="11.9294545"><ele>260.2857142857143</ele><time>2026-03-28T15:39:18.096Z</time></trkpt><trkpt lat="43.3404673" lon="11.9295429"><ele>260.7142857142857</ele><time>2026-03-28T15:39:22.082Z</time></trkpt><trkpt lat="43.3405033" lon="11.9296384"><ele>261.14285714285717</ele><time>2026-03-28T15:39:26.13Z</time></trkpt><trkpt lat="43.3405297" lon="11.9297204"><ele>261.57142857142856</ele><time>2026-03-28T15:39:30.102Z</time></trkpt><trkpt lat="43.3405521" lon="11.9298152"><ele>262.0</ele><time>2026-03-28T15:39:34.118Z</time></trkpt><trkpt lat="43.340561" lon="11.9299136"><ele>262.2857142857143</ele><time>2026-03-28T15:39:38.084Z</time></trkpt><trkpt lat="43.3405998" lon="11.9299916"><ele>262.5714285714286</ele><time>2026-03-28T15:39:42.091Z</time></trkpt><trkpt lat="43.340677" lon="11.9300155"><ele>262.8571428571429</ele><time>2026-03-28T15:39:46.075Z</time></trkpt><trkpt lat="43.3407487" lon="11.9299898"><ele>263.14285714285717</ele><time>2026-03-28T15:39:50.116Z</time></trkpt><trkpt lat="43.3408283" lon="11.9299709"><ele>263.42857142857144</ele><time>2026-03-28T15:39:54.068Z</time></trkpt><trkpt lat="43.3408987" lon="11.9299494"><ele>263.7142857142857</ele><time>2026-03-28T15:39:58.097Z</time></trkpt><trkpt lat="43.3409662" lon="11.9299233"><ele>264.0</ele><time>2026-03-28T15:40:02.104Z</time></trkpt><trkpt lat="43.3410285" lon="11.9298948"><ele>264.0</ele><time>2026-03-28T15:40:05.103Z</time></trkpt><trkpt lat="43.3410902" lon="11.9298588"><ele>264.0</ele><time>2026-03-28T15:40:08.078Z</time></trkpt><trkpt lat="43.3411543" lon="11.9298136"><ele>264.0</ele><time>2026-03-28T15:40:10.996Z</time></trkpt><trkpt lat="43.3412229" lon="11.9297728"><ele>264.0</ele><time>2026-03-28T15:40:14.097Z</time></trkpt><trkpt lat="43.3412873" lon="11.9297431"><ele>264.0</ele><time>2026-03-28T15:40:17.116Z</time></trkpt><trkpt lat="43.3413598" lon="11.9297156"><ele>264.0</ele><time>2026-03-28T15:40:21.133Z</time></trkpt><trkpt lat="43.3414219" lon="11.9296532"><ele>264.0</ele><time>2026-03-28T15:40:25.111Z</time></trkpt><trkpt lat="43.3414805" lon="11.9295747"><ele>264.0</ele><time>2026-03-28T15:40:29.093Z</time></trkpt><trkpt lat="43.3415239" lon="11.9294789"><ele>264.0</ele><time>2026-03-28T15:40:33.132Z</time></trkpt><trkpt lat="43.3415655" lon="11.9293846"><ele>264.0</ele><time>2026-03-28T15:40:37.114Z</time></trkpt><trkpt lat="43.3415903" lon="11.9292942"><ele>264.0</ele><time>2026-03-28T15:40:41.056Z</time></trkpt><trkpt lat="43.3416008" lon="11.9291905"><ele>264.0</ele><time>2026-03-28T15:40:46.112Z</time></trkpt><trkpt lat="43.3416074" lon="11.9290863"><ele>264.0</ele><time>2026-03-28T15:40:50.137Z</time></trkpt><trkpt lat="43.3416383" lon="11.9289925"><ele>263.85714285714283</ele><time>2026-03-28T15:40:54.117Z</time></trkpt><trkpt lat="43.3416793" lon="11.9289102"><ele>263.7142857142857</ele><time>2026-03-28T15:40:58.095Z</time></trkpt><trkpt lat="43.3417467" lon="11.9288621"><ele>263.57142857142856</ele><time>2026-03-28T15:41:02.09Z</time></trkpt><trkpt lat="43.3418165" lon="11.9288601"><ele>263.42857142857144</ele><time>2026-03-28T15:41:06.09Z</time></trkpt><trkpt lat="43.3418875" lon="11.9288614"><ele>263.2857142857143</ele><time>2026-03-28T15:41:10.12Z</time></trkpt><trkpt lat="43.3419498" lon="11.9288752"><ele>263.1428571428571</ele><time>2026-03-28T15:41:14.105Z</time></trkpt><trkpt lat="43.3420315" lon="11.9288741"><ele>263.0</ele><time>2026-03-28T15:41:18.104Z</time></trkpt><trkpt lat="43.3420986" lon="11.9288561"><ele>263.0</ele><time>2026-03-28T15:41:22.097Z</time></trkpt><trkpt lat="43.3421448" lon="11.9287726"><ele>263.0</ele><time>2026-03-28T15:41:26.026Z</time></trkpt><trkpt lat="43.3421699" lon="11.9286754"><ele>263.0</ele><time>2026-03-28T15:41:31.104Z</time></trkpt><trkpt lat="43.3421947" lon="11.9285753"><ele>263.0</ele><time>2026-03-28T15:41:36.034Z</time></trkpt><trkpt lat="43.342203" lon="11.9284744"><ele>263.0</ele><time>2026-03-28T15:41:42.1Z</time></trkpt><trkpt lat="43.3422236" lon="11.9283821"><ele>263.0</ele><time>2026-03-28T15:41:48.1Z</time></trkpt><trkpt lat="43.3422369" lon="11.9282955"><ele>263.0</ele><time>2026-03-28T15:41:52.113Z</time></trkpt><trkpt lat="43.3422427" lon="11.9281963"><ele>263.7142857142857</ele><time>2026-03-28T15:41:56.116Z</time></trkpt><trkpt lat="43.3422452" lon="11.9281006"><ele>264.4285714285714</ele><time>2026-03-28T15:42:00.077Z</time></trkpt><trkpt lat="43.3422489" lon="11.9280112"><ele>265.1428571428571</ele><time>2026-03-28T15:42:04.058Z</time></trkpt><trkpt lat="43.3422809" lon="11.9279129"><ele>265.85714285714283</ele><time>2026-03-28T15:42:09.111Z</time></trkpt><trkpt lat="43.3423214" lon="11.9278422"><ele>266.57142857142856</ele><time>2026-03-28T15:42:12.119Z</time></trkpt><trkpt lat="43.342349" lon="11.9277477"><ele>267.2857142857143</ele><time>2026-03-28T15:42:16.092Z</time></trkpt><trkpt lat="43.3423678" lon="11.9276476"><ele>268.0</ele><time>2026-03-28T15:42:19.695Z</time></trkpt><trkpt lat="43.3423899" lon="11.9275546"><ele>268.0</ele><time>2026-03-28T15:42:23.056Z</time></trkpt><trkpt lat="43.3424143" lon="11.92747"><ele>268.0</ele><time>2026-03-28T15:42:28.063Z</time></trkpt><trkpt lat="43.3424916" lon="11.9274665"><ele>268.0</ele><time>2026-03-28T15:42:33.099Z</time></trkpt><trkpt lat="43.3425567" lon="11.9274522"><ele>268.0</ele><time>2026-03-28T15:42:37.077Z</time></trkpt><trkpt lat="43.3426212" lon="11.9274181"><ele>268.0</ele><time>2026-03-28T15:42:40.098Z</time></trkpt><trkpt lat="43.3426763" lon="11.9274988"><ele>268.0</ele><time>2026-03-28T15:42:44.085Z</time></trkpt><trkpt lat="43.3427192" lon="11.9275672"><ele>268.0</ele><time>2026-03-28T15:42:47.103Z</time></trkpt><trkpt lat="43.3427626" lon="11.9276485"><ele>268.0</ele><time>2026-03-28T15:42:51.096Z</time></trkpt><trkpt lat="43.342814" lon="11.9277257"><ele>268.0</ele><time>2026-03-28T15:42:55.085Z</time></trkpt><trkpt lat="43.342855" lon="11.9277918"><ele>268.0</ele><time>2026-03-28T15:42:58.125Z</time></trkpt><trkpt lat="43.3429054" lon="11.9278601"><ele>268.0</ele><time>2026-03-28T15:43:02.085Z</time></trkpt><trkpt lat="43.342962" lon="11.9279413"><ele>268.0</ele><time>2026-03-28T15:43:06.106Z</time></trkpt><trkpt lat="43.3430001" lon="11.9280131"><ele>268.0</ele><time>2026-03-28T15:43:10.06Z</time></trkpt><trkpt lat="43.3430504" lon="11.9280964"><ele>268.0</ele><time>2026-03-28T15:43:14.047Z</time></trkpt><trkpt lat="43.343087" lon="11.9281733"><ele>268.14285714285717</ele><time>2026-03-28T15:43:17.124Z</time></trkpt><trkpt lat="43.3431329" lon="11.9282618"><ele>268.2857142857143</ele><time>2026-03-28T15:43:21.075Z</time></trkpt><trkpt lat="43.3431862" lon="11.9283388"><ele>268.42857142857144</ele><time>2026-03-28T15:43:25.085Z</time></trkpt><trkpt lat="43.3432378" lon="11.9284069"><ele>268.57142857142856</ele><time>2026-03-28T15:43:28.983Z</time></trkpt><trkpt lat="43.3432907" lon="11.9284661"><ele>268.7142857142857</ele><time>2026-03-28T15:43:33.112Z</time></trkpt><trkpt lat="43.3433461" lon="11.9285307"><ele>268.8571428571429</ele><time>2026-03-28T15:43:37.084Z</time></trkpt><trkpt lat="43.3433925" lon="11.9285974"><ele>269.0</ele><time>2026-03-28T15:43:41.094Z</time></trkpt><trkpt lat="43.3434393" lon="11.9286866"><ele>269.0</ele><time>2026-03-28T15:43:45.018Z</time></trkpt><trkpt lat="43.3434809" lon="11.9287633"><ele>269.0</ele><time>2026-03-28T15:43:48.1Z</time></trkpt><trkpt lat="43.343523" lon="11.9288314"><ele>269.0</ele><time>2026-03-28T15:43:51.104Z</time></trkpt><trkpt lat="43.3435765" lon="11.9289117"><ele>269.0</ele><time>2026-03-28T15:43:55.124Z</time></trkpt><trkpt lat="43.3436306" lon="11.9289783"><ele>269.0</ele><time>2026-03-28T15:43:59.09Z</time></trkpt><trkpt lat="43.3436864" lon="11.9290539"><ele>269.0</ele><time>2026-03-28T15:44:03.096Z</time></trkpt><trkpt lat="43.3437305" lon="11.9291437"><ele>269.0</ele><time>2026-03-28T15:44:07.406Z</time></trkpt><trkpt lat="43.3437638" lon="11.9292231"><ele>269.0</ele><time>2026-03-28T15:44:10.68Z</time></trkpt><trkpt lat="43.3437967" lon="11.9293182"><ele>269.0</ele><time>2026-03-28T15:44:15.019Z</time></trkpt><trkpt lat="43.3438331" lon="11.9293889"><ele>269.0</ele><time>2026-03-28T15:44:19.086Z</time></trkpt><trkpt lat="43.3438733" lon="11.9294743"><ele>269.0</ele><time>2026-03-28T15:44:23.087Z</time></trkpt><trkpt lat="43.3439122" lon="11.9295691"><ele>269.0</ele><time>2026-03-28T15:44:27.043Z</time></trkpt><trkpt lat="43.3439527" lon="11.9296647"><ele>269.0</ele><time>2026-03-28T15:44:31.105Z</time></trkpt><trkpt lat="43.3440002" lon="11.9297388"><ele>269.0</ele><time>2026-03-28T15:44:35.004Z</time></trkpt><trkpt lat="43.3440436" lon="11.9298167"><ele>269.2857142857143</ele><time>2026-03-28T15:44:39.098Z</time></trkpt><trkpt lat="43.3440858" lon="11.929893"><ele>269.5714285714286</ele><time>2026-03-28T15:44:43.006Z</time></trkpt><trkpt lat="43.3441229" lon="11.9299789"><ele>269.8571428571429</ele><time>2026-03-28T15:44:47.098Z</time></trkpt><trkpt lat="43.3441465" lon="11.9300674"><ele>270.14285714285717</ele><time>2026-03-28T15:44:51.024Z</time></trkpt><trkpt lat="43.3441785" lon="11.9301558"><ele>270.42857142857144</ele><time>2026-03-28T15:44:55.11Z</time></trkpt><trkpt lat="43.3442124" lon="11.9302368"><ele>270.7142857142857</ele><time>2026-03-28T15:44:59.101Z</time></trkpt><trkpt lat="43.344239" lon="11.9303195"><ele>271.0</ele><time>2026-03-28T15:45:03.105Z</time></trkpt><trkpt lat="43.3442584" lon="11.9304089"><ele>271.1428571428571</ele><time>2026-03-28T15:45:07.105Z</time></trkpt><trkpt lat="43.3442444" lon="11.9304949"><ele>271.2857142857143</ele><time>2026-03-28T15:45:11.111Z</time></trkpt><trkpt lat="43.3442179" lon="11.9305886"><ele>271.42857142857144</ele><time>2026-03-28T15:45:15.097Z</time></trkpt><trkpt lat="43.3441783" lon="11.9306824"><ele>271.57142857142856</ele><time>2026-03-28T15:45:19.103Z</time></trkpt><trkpt lat="43.3441408" lon="11.9307706"><ele>271.7142857142857</ele><time>2026-03-28T15:45:23.083Z</time></trkpt><trkpt lat="43.3440987" lon="11.9308617"><ele>271.85714285714283</ele><time>2026-03-28T15:45:28.097Z</time></trkpt><trkpt lat="43.3440505" lon="11.9309476"><ele>272.0</ele><time>2026-03-28T15:45:32.092Z</time></trkpt><trkpt lat="43.3440065" lon="11.9310233"><ele>271.99999999999994</ele><time>2026-03-28T15:45:35.11Z</time></trkpt><trkpt lat="43.3439651" lon="11.9311056"><ele>272.0</ele><time>2026-03-28T15:45:38.06Z</time></trkpt><trkpt lat="43.3439303" lon="11.9311967"><ele>272.0</ele><time>2026-03-28T15:45:41.095Z</time></trkpt><trkpt lat="43.3438977" lon="11.9312914"><ele>272.0</ele><time>2026-03-28T15:45:44.121Z</time></trkpt><trkpt lat="43.3438737" lon="11.9313871"><ele>272.0</ele><time>2026-03-28T15:45:47.088Z</time></trkpt><trkpt lat="43.3438559" lon="11.9314766"><ele>271.99999999999994</ele><time>2026-03-28T15:45:50.112Z</time></trkpt><trkpt lat="43.3438471" lon="11.9315628"><ele>272.0</ele><time>2026-03-28T15:45:53.111Z</time></trkpt><trkpt lat="43.3438386" lon="11.9316504"><ele>271.2857142857143</ele><time>2026-03-28T15:45:56.097Z</time></trkpt><trkpt lat="43.3438223" lon="11.9317454"><ele>270.57142857142856</ele><time>2026-03-28T15:45:59.069Z</time></trkpt><trkpt lat="43.3438125" lon="11.9318374"><ele>269.8571428571429</ele><time>2026-03-28T15:46:02.102Z</time></trkpt><trkpt lat="43.3438051" lon="11.931951"><ele>269.1428571428571</ele><time>2026-03-28T15:46:06.122Z</time></trkpt><trkpt lat="43.3437936" lon="11.9320593"><ele>268.42857142857144</ele><time>2026-03-28T15:46:10.13Z</time></trkpt><trkpt lat="43.3437828" lon="11.9321564"><ele>267.7142857142857</ele><time>2026-03-28T15:46:14.089Z</time></trkpt><trkpt lat="43.3437725" lon="11.9322569"><ele>267.0</ele><time>2026-03-28T15:46:18.081Z</time></trkpt><trkpt lat="43.3437676" lon="11.9323576"><ele>267.00000000000006</ele><time>2026-03-28T15:46:22.116Z</time></trkpt><trkpt lat="43.3437555" lon="11.9324446"><ele>267.0</ele><time>2026-03-28T15:46:26.12Z</time></trkpt><trkpt lat="43.3437508" lon="11.9325424"><ele>267.0</ele><time>2026-03-28T15:46:30.116Z</time></trkpt><trkpt lat="43.3437445" lon="11.9326499"><ele>267.0</ele><time>2026-03-28T15:46:34.106Z</time></trkpt><trkpt lat="43.343753" lon="11.9327592"><ele>267.0</ele><time>2026-03-28T15:46:38.114Z</time></trkpt><trkpt lat="43.3437608" lon="11.9328477"><ele>267.00000000000006</ele><time>2026-03-28T15:46:41.118Z</time></trkpt><trkpt lat="43.3437832" lon="11.9329527"><ele>267.0</ele><time>2026-03-28T15:46:45.1Z</time></trkpt><trkpt lat="43.3437916" lon="11.9330441"><ele>266.8571428571429</ele><time>2026-03-28T15:46:49.096Z</time></trkpt><trkpt lat="43.3438018" lon="11.9331516"><ele>266.7142857142857</ele><time>2026-03-28T15:46:54.117Z</time></trkpt><trkpt lat="43.3438122" lon="11.9332527"><ele>266.57142857142856</ele><time>2026-03-28T15:46:58.053Z</time></trkpt><trkpt lat="43.3438214" lon="11.933354"><ele>266.42857142857144</ele><time>2026-03-28T15:47:02.098Z</time></trkpt><trkpt lat="43.3438372" lon="11.9334487"><ele>266.2857142857143</ele><time>2026-03-28T15:47:06.11Z</time></trkpt><trkpt lat="43.3438459" lon="11.9335387"><ele>266.14285714285717</ele><time>2026-03-28T15:47:10.108Z</time></trkpt><trkpt lat="43.3438624" lon="11.9336288"><ele>266.0</ele><time>2026-03-28T15:47:14.09Z</time></trkpt><trkpt lat="43.3438704" lon="11.9337225"><ele>266.0</ele><time>2026-03-28T15:47:18.103Z</time></trkpt><trkpt lat="43.3438689" lon="11.9338261"><ele>266.0</ele><time>2026-03-28T15:47:22.105Z</time></trkpt><trkpt lat="43.3438722" lon="11.9339265"><ele>266.0</ele><time>2026-03-28T15:47:26.106Z</time></trkpt><trkpt lat="43.3438674" lon="11.9340203"><ele>266.0</ele><time>2026-03-28T15:47:30.1Z</time></trkpt><trkpt lat="43.34386" lon="11.9341231"><ele>266.0</ele><time>2026-03-28T15:47:34.096Z</time></trkpt><trkpt lat="43.3438456" lon="11.9342259"><ele>266.0</ele><time>2026-03-28T15:47:38.081Z</time></trkpt><trkpt lat="43.3438357" lon="11.9343126"><ele>266.0</ele><time>2026-03-28T15:47:41.165Z</time></trkpt><trkpt lat="43.3438175" lon="11.9344215"><ele>266.1666666666667</ele><time>2026-03-28T15:47:45.079Z</time></trkpt><trkpt lat="43.343808" lon="11.9345318"><ele>266.33333333333337</ele><time>2026-03-28T15:47:49.103Z</time></trkpt><trkpt lat="43.343802" lon="11.934637"><ele>266.5</ele><time>2026-03-28T15:47:53.099Z</time></trkpt><trkpt lat="43.3437919" lon="11.9347378"><ele>266.6666666666667</ele><time>2026-03-28T15:47:57.111Z</time></trkpt><trkpt lat="43.3437735" lon="11.9348429"><ele>266.8333333333333</ele><time>2026-03-28T15:48:01.091Z</time></trkpt><trkpt lat="43.3437551" lon="11.9349548"><ele>267.0</ele><time>2026-03-28T15:48:05.1Z</time></trkpt><trkpt lat="43.3437359" lon="11.9350665"><ele>267.42857142857144</ele><time>2026-03-28T15:48:09.092Z</time></trkpt><trkpt lat="43.3437187" lon="11.9351745"><ele>267.8571428571429</ele><time>2026-03-28T15:48:13.091Z</time></trkpt><trkpt lat="43.343704" lon="11.9352604"><ele>268.2857142857143</ele><time>2026-03-28T15:48:16.1Z</time></trkpt><trkpt lat="43.343689" lon="11.935368"><ele>268.7142857142857</ele><time>2026-03-28T15:48:20.1Z</time></trkpt><trkpt lat="43.3436888" lon="11.9354625"><ele>269.1428571428571</ele><time>2026-03-28T15:48:23.123Z</time></trkpt><trkpt lat="43.343735" lon="11.93553"><ele>269.57142857142856</ele><time>2026-03-28T15:48:26.109Z</time></trkpt><trkpt lat="43.3438089" lon="11.9355034"><ele>270.0</ele><time>2026-03-28T15:48:30.12Z</time></trkpt><trkpt lat="43.3438849" lon="11.9354714"><ele>270.42857142857144</ele><time>2026-03-28T15:48:34.102Z</time></trkpt><trkpt lat="43.3439457" lon="11.935439"><ele>270.85714285714283</ele><time>2026-03-28T15:48:38.138Z</time></trkpt><trkpt lat="43.3440151" lon="11.9354101"><ele>271.2857142857143</ele><time>2026-03-28T15:48:43.1Z</time></trkpt><trkpt lat="43.3440803" lon="11.9353912"><ele>271.7142857142857</ele><time>2026-03-28T15:48:47.099Z</time></trkpt><trkpt lat="43.3441545" lon="11.9353658"><ele>272.1428571428571</ele><time>2026-03-28T15:48:52.106Z</time></trkpt><trkpt lat="43.3442222" lon="11.9353412"><ele>272.57142857142856</ele><time>2026-03-28T15:48:56.115Z</time></trkpt><trkpt lat="43.3442903" lon="11.9353229"><ele>273.0</ele><time>2026-03-28T15:49:00.104Z</time></trkpt><trkpt lat="43.3443555" lon="11.935312"><ele>273.0</ele><time>2026-03-28T15:49:04.126Z</time></trkpt><trkpt lat="43.3444309" lon="11.9352794"><ele>273.0</ele><time>2026-03-28T15:49:09.093Z</time></trkpt><trkpt lat="43.344509" lon="11.9352573"><ele>273.0</ele><time>2026-03-28T15:49:14.086Z</time></trkpt><trkpt lat="43.3445743" lon="11.9352051"><ele>273.0</ele><time>2026-03-28T15:49:20.08Z</time></trkpt><trkpt lat="43.3446441" lon="11.9351683"><ele>273.0</ele><time>2026-03-28T15:49:26.102Z</time></trkpt><trkpt lat="43.3447071" lon="11.9351556"><ele>273.0</ele><time>2026-03-28T15:49:30.115Z</time></trkpt><trkpt lat="43.3447846" lon="11.9351375"><ele>273.2857142857143</ele><time>2026-03-28T15:49:35.039Z</time></trkpt><trkpt lat="43.3448582" lon="11.9351086"><ele>273.57142857142856</ele><time>2026-03-28T15:49:40.055Z</time></trkpt><trkpt lat="43.3449217" lon="11.9350903"><ele>273.8571428571429</ele><time>2026-03-28T15:49:43.98Z</time></trkpt><trkpt lat="43.3449668" lon="11.9350286"><ele>274.1428571428571</ele><time>2026-03-28T15:49:51.074Z</time></trkpt><trkpt lat="43.3450221" lon="11.9349844"><ele>274.42857142857144</ele><time>2026-03-28T15:49:57.072Z</time></trkpt><trkpt lat="43.3450781" lon="11.9349222"><ele>274.7142857142857</ele><time>2026-03-28T15:50:03.079Z</time></trkpt><trkpt lat="43.3451503" lon="11.9349092"><ele>275.0</ele><time>2026-03-28T15:50:08.088Z</time></trkpt><trkpt lat="43.3452138" lon="11.9349333"><ele>275.0</ele><time>2026-03-28T15:50:12.078Z</time></trkpt><trkpt lat="43.3453159" lon="11.9350143"><ele>275.0</ele><time>2026-03-28T15:50:17.084Z</time></trkpt><trkpt lat="43.3453817" lon="11.9350498"><ele>275.0</ele><time>2026-03-28T15:50:22.075Z</time></trkpt><trkpt lat="43.3454465" lon="11.9350312"><ele>275.0</ele><time>2026-03-28T15:50:28.097Z</time></trkpt><trkpt lat="43.3455068" lon="11.9350054"><ele>275.0</ele><time>2026-03-28T15:50:36.099Z</time></trkpt><trkpt lat="43.3455702" lon="11.9349835"><ele>275.0</ele><time>2026-03-28T15:50:44.105Z</time></trkpt><trkpt lat="43.3456395" lon="11.9349892"><ele>275.57142857142856</ele><time>2026-03-28T15:50:51.104Z</time></trkpt><trkpt lat="43.3457048" lon="11.9349819"><ele>276.1428571428571</ele><time>2026-03-28T15:50:57.09Z</time></trkpt><trkpt lat="43.345743" lon="11.9349073"><ele>276.71428571428567</ele><time>2026-03-28T15:51:03.082Z</time></trkpt><trkpt lat="43.3457464" lon="11.9348055"><ele>277.2857142857143</ele><time>2026-03-28T15:51:09.105Z</time></trkpt><trkpt lat="43.3457542" lon="11.9347161"><ele>277.85714285714283</ele><time>2026-03-28T15:51:15.085Z</time></trkpt><trkpt lat="43.3457679" lon="11.9346266"><ele>278.4285714285714</ele><time>2026-03-28T15:51:21.09Z</time></trkpt><trkpt lat="43.3457541" lon="11.9345396"><ele>279.0</ele><time>2026-03-28T15:51:28.105Z</time></trkpt><trkpt lat="43.3457594" lon="11.9344466"><ele>278.99999999999994</ele><time>2026-03-28T15:51:34.107Z</time></trkpt><trkpt lat="43.3457662" lon="11.9343505"><ele>279.0</ele><time>2026-03-28T15:51:40.094Z</time></trkpt><trkpt lat="43.3457699" lon="11.9342592"><ele>279.0</ele><time>2026-03-28T15:51:46.105Z</time></trkpt><trkpt lat="43.3457626" lon="11.9341645"><ele>279.0</ele><time>2026-03-28T15:51:52.099Z</time></trkpt><trkpt lat="43.3457674" lon="11.934076"><ele>279.0</ele><time>2026-03-28T15:51:58.099Z</time></trkpt><trkpt lat="43.3457939" lon="11.933995"><ele>278.99999999999994</ele><time>2026-03-28T15:52:04.085Z</time></trkpt><trkpt lat="43.3458059" lon="11.9339085"><ele>279.0</ele><time>2026-03-28T15:52:10.001Z</time></trkpt><trkpt lat="43.3458211" lon="11.9338182"><ele>278.99999999999994</ele><time>2026-03-28T15:52:17.093Z</time></trkpt><trkpt lat="43.3458249" lon="11.9337238"><ele>279.0</ele><time>2026-03-28T15:52:24.099Z</time></trkpt><trkpt lat="43.3458119" lon="11.9336209"><ele>279.0</ele><time>2026-03-28T15:52:30.102Z</time></trkpt><trkpt lat="43.3458046" lon="11.9335289"><ele>279.0</ele><time>2026-03-28T15:52:36.088Z</time></trkpt><trkpt lat="43.3458135" lon="11.933426"><ele>279.0</ele><time>2026-03-28T15:52:42.081Z</time></trkpt><trkpt lat="43.3458097" lon="11.9333305"><ele>278.99999999999994</ele><time>2026-03-28T15:52:48.09Z</time></trkpt><trkpt lat="43.3457897" lon="11.9332452"><ele>279.0</ele><time>2026-03-28T15:52:54.064Z</time></trkpt><trkpt lat="43.3457324" lon="11.9331884"><ele>279.0</ele><time>2026-03-28T15:53:00.084Z</time></trkpt><trkpt lat="43.345668" lon="11.9331731"><ele>279.0</ele><time>2026-03-28T15:53:05.095Z</time></trkpt><trkpt lat="43.3456009" lon="11.9331465"><ele>279.0</ele><time>2026-03-28T15:53:11.081Z</time></trkpt></trkseg></trk></gpx>